# Wetter Temperatur Luftdruck Luftfeuchtigkeit Sichtweite Windgeschwindigkeit Windrichtung Zeit
1 Rain 10 996 87 10000 4.1 90 20:57 17.10.2019
2 Clouds 10 996 93 10000 3.6 90 20:38 17.10.2019
3 Rain 10 997 93 10000 3.6 70 20:19 17.10.2019
4 Rain 10 997 87 10000 3.1 80 19:56 17.10.2019
5 Rain 10 997 87 10000 3.1 80 19:37 17.10.2019
6 Rain 10 997 87 8000 3.6 100 19:18 17.10.2019
7 Rain 10 997 87 8000 3.6 100 19:18 17.10.2019
8 Rain 11 997 81 10000 3.1 110 18:42 17.10.2019
9 Rain 11 997 76 10000 5.7 120 18:21 17.10.2019
10 Rain 11 997 71 10000 5.1 120 17:55 17.10.2019
11 Rain 11 997 71 10000 5.1 120 17:37 17.10.2019
12 Rain 12 998 71 10000 5.7 130 17:19 17.10.2019
13 Rain 12 998 66 10000 5.1 120 16:42 17.10.2019
14 Rain 12 998 66 10000 5.1 120 16:42 17.10.2019
15 Rain 12 998 66 10000 6.7 120 16:19 17.10.2019
16 Rain 12 998 66 10000 6.7 120 15:59 17.10.2019
17 -273 0 0 0 0 0 15:41 17.10.2019
18 Rain 12 998 71 10000 4.6 130 15:20 17.10.2019
19 Rain 12 998 71 10000 4.6 130 14:58 17.10.2019
20 Clouds 12 999 76 10000 5.1 130 14:39 17.10.2019
21 Rain 12 999 76 10000 5.7 130 14:20 17.10.2019
22 Clouds 11 999 81 10000 5.7 120 13:41 17.10.2019
23 Clouds 11 999 81 10000 4.6 100 13:21 17.10.2019
24 Clouds 11 999 81 10000 4.6 100 12:58 17.10.2019
25 Clouds 10 999 93 10000 4.1 70 12:39 17.10.2019
26 Rain 10 999 93 10000 4.6 50 12:19 17.10.2019
27 Rain 9 1000 93 10000 4.1 70 11:56 17.10.2019
28 Rain 8 1000 93 10000 4.1 70 11:37 17.10.2019
29 Clouds 8 1000 93 10000 4.1 70 11:18 17.10.2019
30 Clouds 7 1000 93 10000 3.6 60 10:42 17.10.2019
31 Clouds 6 1000 93 10000 2.6 70 10:20 17.10.2019
32 Clouds 5 1000 93 10000 2.6 70 09:57 17.10.2019
33 Clouds 5 1000 100 10000 3.6 70 09:38 17.10.2019
34 Clouds 5 1000 93 10000 3.1 50 09:19 17.10.2019
35 Clouds 4 1000 100 10000 1 0 08:49 17.10.2019
36 Clouds 4 1000 100 10000 1 0 08:27 17.10.2019
37 Clouds 4 1000 100 9000 1 0 08:00 17.10.2019
38 Clouds 4 1000 100 10000 3.1 50 07:41 17.10.2019
39 Fog 4 1000 100 10000 2.1 40 07:21 17.10.2019
40 Clouds 4 1000 100 10000 1.5 120 06:51 17.10.2019
41 Clouds 4 1000 100 10000 1.5 120 06:31 17.10.2019
42 Clouds 4 1000 93 10000 1.5 0 05:59 17.10.2019
43 Mist 4 1000 100 5000 1.5 90 05:37 17.10.2019
44 Fog 4 1000 93 10000 1.5 50 05:19 17.10.2019
45 Fog 4 1001 100 10000 2.1 70 04:46 17.10.2019
46 Clear 4 1001 93 10000 2.1 80 03:45 17.10.2019
47 Clouds 6 1001 100 10000 1.5 0 01:57 17.10.2019
48 Clouds 5 1001 93 10000 1 50 00:42 17.10.2019
49 Clouds 6 1000 93 10000 1 30 00:21 17.10.2019
50 Clouds 6 1000 93 10000 1 30 23:58 16.10.2019
51 Clouds 7 1000 93 10000 1 0 23:39 16.10.2019
52 Clouds 7 1000 93 10000 1.5 0 23:18 16.10.2019
53 Clouds 7 1000 93 10000 1.5 0 22:54 16.10.2019
54 Clouds 7 1000 93 10000 1.5 0 22:36 16.10.2019
55 Clouds 7 1000 93 10000 1.5 0 22:18 16.10.2019
56 Clouds 7 1000 100 10000 0.5 0 21:54 16.10.2019
57 Clouds 7 1000 100 10000 0.5 0 21:54 16.10.2019
58 Clouds 7 1000 100 10000 0.5 0 21:54 16.10.2019
59 Clouds 7 1000 100 10000 0.5 0 21:54 16.10.2019
60 Clouds 8 1000 100 10000 0.5 0 21:36 16.10.2019
61 Clouds 8 1000 93 10000 1 0 21:18 16.10.2019
62 Clear 8 1000 87 10000 1.5 0 20:54 16.10.2019
63 Clear 9 1000 87 10000 1.5 0 20:36 16.10.2019
64 Clear 9 999 81 10000 2.1 220 20:18 16.10.2019
65 Clear 9 999 81 10000 2.6 220 19:40 16.10.2019
66 Clear 10 999 76 10000 3.6 240 19:21 16.10.2019
67 Clear 11 999 76 10000 3.6 240 18:57 16.10.2019
68 Clear 11 999 66 10000 3.6 250 18:37 16.10.2019
69 Clouds 12 998 71 10000 4.1 250 18:18 16.10.2019
70 Clouds 12 998 71 10000 4.1 260 17:55 16.10.2019
71 Clouds 13 998 71 10000 4.1 260 17:36 16.10.2019
72 Clouds 13 998 71 10000 4.1 260 17:18 16.10.2019
73 Clouds 13 998 66 10000 6.2 250 16:43 16.10.2019
74 Clouds 13 998 71 10000 6.7 250 16:23 16.10.2019
75 Clouds 13 998 71 10000 6.7 250 15:59 16.10.2019
76 Clouds 13 998 76 10000 4.1 270 15:39 16.10.2019
77 Clouds 13 998 76 10000 4.1 270 15:39 16.10.2019
78 Clouds 12 997 71 10000 5.1 260 15:19 16.10.2019
79 Clouds 12 997 71 10000 5.1 260 14:58 16.10.2019
80 Clouds 12 997 71 10000 5.1 260 14:39 16.10.2019
81 Clouds 11 997 76 10000 3.1 300 14:20 16.10.2019
82 Clouds 11 997 76 10000 3.1 300 13:57 16.10.2019
83 Clouds 11 997 76 10000 3.6 280 13:39 16.10.2019
84 Clouds 11 997 87 10000 4.1 260 13:21 16.10.2019
85 Clouds 11 996 93 10000 4.6 280 12:42 16.10.2019
86 Clouds 11 996 93 10000 4.6 280 12:42 16.10.2019
87 Rain 11 996 87 10000 4.6 290 12:20 16.10.2019
88 Rain 11 995 100 10000 3.6 280 11:55 16.10.2019
89 Rain 10 995 100 10000 3.6 280 11:36 16.10.2019
90 Rain 10 995 100 4000 2.6 270 11:18 16.10.2019
91 Rain 10 995 100 4000 3.1 70 10:36 16.10.2019
92 Rain 10 995 100 4000 3.1 70 10:36 16.10.2019
93 Drizzle 10 995 93 3500 2.1 30 10:18 16.10.2019
94 Drizzle 10 995 93 3400 2.6 60 09:40 16.10.2019
95 Drizzle 10 994 93 4400 2.6 40 09:22 16.10.2019
96 Drizzle 10 994 93 4400 2.6 40 08:56 16.10.2019
97 Drizzle 10 994 93 4400 2.6 40 08:56 16.10.2019
98 Rain 10 994 93 5000 3.6 60 08:38 16.10.2019
99 Rain 10 994 93 9000 3.6 70 08:19 16.10.2019
100 Rain 10 995 93 10000 4.6 60 07:41 16.10.2019
101 Rain 10 995 93 10000 4.6 60 07:23 16.10.2019
102 Clouds 10 995 87 10000 4.1 80 06:47 16.10.2019
103 Clouds 10 995 87 10000 4.1 80 06:28 16.10.2019
104 Clouds 9 997 87 10000 4.6 70 04:25 16.10.2019
105 Clouds 10 998 81 10000 4.6 90 02:51 16.10.2019
106 Clouds 10 998 81 10000 3.6 100 01:20 16.10.2019
107 Clouds 10 998 81 10000 3.6 100 00:58 16.10.2019
108 Clouds 10 998 87 10000 3.6 90 00:39 16.10.2019
109 Clouds 10 999 87 10000 2.6 80 23:58 15.10.2019
110 Clouds 10 999 81 10000 3.6 90 23:38 15.10.2019
111 Clouds 10 999 81 10000 2.6 0 23:19 15.10.2019
112 Clouds 10 999 81 10000 2.6 90 22:55 15.10.2019
113 Clouds 10 999 81 10000 2.6 90 22:37 15.10.2019
114 Clouds 10 999 81 10000 2.6 110 22:18 15.10.2019
115 Clouds 10 999 81 10000 3.1 110 21:54 15.10.2019
116 Clouds 10 999 81 10000 3.1 110 21:36 15.10.2019
117 Clouds 10 999 76 10000 2.6 110 21:18 15.10.2019
118 Clouds 11 1000 76 10000 3.1 140 20:54 15.10.2019
119 -273 0 0 0 0 0 20:54 15.10.2019
120 Clouds 11 1000 76 10000 3.1 140 20:54 15.10.2019
121 Clouds 11 1000 76 10000 3.1 140 20:36 15.10.2019
122 Clouds 11 1000 76 10000 3.1 170 20:18 15.10.2019
123 Clouds 11 1000 76 10000 4.1 150 19:41 15.10.2019
124 Clouds 11 1000 71 10000 3.1 170 19:20 15.10.2019
125 Clouds 12 1000 76 10000 3.1 120 18:57 15.10.2019
126 Clouds 12 1000 76 10000 3.1 120 18:39 15.10.2019
127 Clouds 12 1000 71 10000 3.1 110 18:20 15.10.2019
128 Clouds 13 1000 71 10000 2.6 100 17:42 15.10.2019
129 Clouds 13 1000 71 10000 2.6 100 17:41 15.10.2019
130 Clouds 13 1000 71 10000 2.6 100 17:41 15.10.2019
131 Clouds 13 1000 67 10000 3.1 90 17:21 15.10.2019
132 Clouds 13 1000 67 10000 3.1 90 16:59 15.10.2019
133 Clouds 13 1001 76 10000 3.1 90 16:40 15.10.2019
134 Clouds 13 1001 71 10000 3.1 100 16:21 15.10.2019
135 Clouds 12 1001 81 10000 4.6 130 15:55 15.10.2019
136 Clouds 12 1001 81 10000 4.6 130 15:37 15.10.2019
137 Clouds 12 1001 76 10000 4.1 100 15:18 15.10.2019
138 Clouds 12 1001 76 10000 3.1 120 14:38 15.10.2019
139 Clouds 12 1001 76 10000 3.1 120 14:38 15.10.2019
140 Clouds 12 1001 81 10000 2.6 100 14:20 15.10.2019
141 Clouds 12 1001 81 10000 2.6 100 13:58 15.10.2019
142 Clouds 12 1002 87 10000 3.1 130 13:40 15.10.2019
143 Clouds 11 1002 87 10000 3.1 140 13:19 15.10.2019
144 Clouds 11 1002 87 10000 3.6 120 12:44 15.10.2019
145 Clouds 10 1003 93 10000 2.6 130 12:22 15.10.2019
146 Clouds 9 1003 93 10000 2.6 130 11:57 15.10.2019
147 Clouds 9 1003 93 8000 3.1 130 11:38 15.10.2019
148 Clouds 9 1003 93 10000 3.1 110 11:19 15.10.2019
149 Clouds 8 1003 93 8000 3.6 90 10:45 15.10.2019
150 Mist 8 1003 100 5000 1.5 0 10:22 15.10.2019
151 Mist 8 1003 100 5000 0.5 0 09:58 15.10.2019
152 Mist 8 1003 100 5000 0.5 0 09:38 15.10.2019
153 Mist 7 1003 93 5000 1 0 09:20 15.10.2019
154 Clouds 8 1003 100 10000 1 0 08:55 15.10.2019
155 Mist 7 1003 100 4500 1 0 08:36 15.10.2019
156 Mist 7 1003 100 4500 1 0 08:36 15.10.2019
157 Mist 7 1003 100 4500 1 0 08:18 15.10.2019
158 Mist 7 1003 100 3600 1 0 07:41 15.10.2019
159 Mist 7 1003 100 3500 1.5 130 07:21 15.10.2019
160 Mist 7 1003 100 3700 2.6 130 06:45 15.10.2019
161 Mist 7 1003 93 4200 2.6 130 06:27 15.10.2019
162 Mist 7 1004 93 4900 3.1 110 05:44 15.10.2019
163 Clouds 7 1004 93 6000 3.1 90 05:24 15.10.2019
164 Clouds 7 1004 93 7000 1.5 80 04:33 15.10.2019
165 Fog 7 1005 93 7000 2.1 80 03:38 15.10.2019
166 Fog 7 1005 93 7000 2.1 80 03:38 15.10.2019
167 Clouds 7 1005 93 6000 2.6 40 02:42 15.10.2019
168 Mist 7 1005 93 7000 3.6 70 01:49 15.10.2019
169 Fog 7 1005 100 8000 3.1 60 01:22 15.10.2019
170 Fog 7 1006 100 8000 2.6 70 00:49 15.10.2019
171 Fog 8 1006 93 9000 2.6 80 00:22 15.10.2019
172 Fog 8 1006 93 10000 2.1 90 23:45 14.10.2019
173 Fog 8 1006 93 10000 3.6 80 23:20 14.10.2019
174 Fog 8 1006 93 10000 3.6 80 23:20 14.10.2019
175 Fog 8 1006 93 10000 3.1 70 22:57 14.10.2019
176 Fog 8 1006 93 10000 3.1 70 22:38 14.10.2019
177 Clouds 8 1006 93 10000 4.1 70 22:18 14.10.2019
178 Clouds 8 1006 93 10000 4.1 70 22:18 14.10.2019
179 Clouds 8 1006 93 10000 3.1 80 21:55 14.10.2019
180 Clouds 9 1006 93 10000 3.1 80 21:36 14.10.2019
181 Clouds 9 1006 87 10000 4.6 80 21:18 14.10.2019
182 Clouds 9 1006 87 10000 4.1 80 20:40 14.10.2019
183 Clouds 9 1006 87 10000 4.1 70 20:22 14.10.2019
184 Clouds 10 1006 76 10000 4.1 70 19:59 14.10.2019
185 Clouds 10 1006 76 10000 4.1 70 19:41 14.10.2019
186 Clouds 10 1006 76 10000 4.1 70 19:41 14.10.2019
187 Clouds 10 1006 81 10000 3.6 70 19:23 14.10.2019
188 Clouds 11 1006 81 10000 4.1 70 18:58 14.10.2019
189 Clouds 11 1006 81 10000 4.1 70 18:39 14.10.2019
190 Clouds 11 1006 81 10000 3.6 70 18:19 14.10.2019
191 Clouds 12 1007 81 10000 4.1 60 17:56 14.10.2019
192 Clouds 12 1007 81 10000 4.1 60 17:37 14.10.2019
193 Clouds 12 1007 81 10000 4.6 60 17:19 14.10.2019
194 -273 0 0 0 0 0 16:40 14.10.2019
195 Clouds 12 1007 76 10000 3.1 70 16:21 14.10.2019
196 Clouds 12 1007 76 10000 3.1 70 15:42 14.10.2019
197 Clouds 11 1007 81 10000 3.1 60 15:22 14.10.2019
198 Clouds 11 1008 81 10000 2.6 70 14:56 14.10.2019
199 Clouds 11 1008 81 10000 2.6 70 14:56 14.10.2019
200 Clouds 12 1008 81 10000 2.6 70 14:38 14.10.2019
201 Clouds 11 1008 81 10000 2.6 80 14:19 14.10.2019
202 Clouds 11 1008 81 10000 2.6 100 13:43 14.10.2019
203 Clouds 10 1008 81 10000 2.1 110 13:21 14.10.2019
204 Clouds 10 1008 87 10000 2.6 90 12:55 14.10.2019
205 Clouds 10 1008 87 10000 2.6 90 12:36 14.10.2019
206 Clouds 9 1008 81 10000 2.6 70 12:18 14.10.2019
207 Clouds 8 1008 93 10000 2.1 90 11:43 14.10.2019
208 Clouds 7 1008 93 10000 1.5 0 11:24 14.10.2019
209 Fog 7 1008 93 10000 1.5 0 10:55 14.10.2019
210 Fog 7 1008 93 10000 1.5 0 10:37 14.10.2019
211 Fog 6 1008 93 10000 1.5 0 10:18 14.10.2019
212 -273 0 0 0 0 0 09:41 14.10.2019
213 Fog 6 1008 100 9000 1.5 0 09:21 14.10.2019
214 Fog 6 1007 100 8000 1.5 0 08:50 14.10.2019
215 Fog 6 1007 100 10000 2.1 50 08:23 14.10.2019
216 Fog 6 1007 93 8000 1 350 07:47 14.10.2019
217 Clouds 6 1007 100 6000 1.5 60 07:25 14.10.2019
218 Mist 6 1007 100 4700 1.5 70 06:58 14.10.2019
219 Mist 6 1007 100 4700 1.5 70 06:28 14.10.2019
220 Mist 7 1007 100 4800 1.5 80 05:56 14.10.2019
221 Mist 7 1007 100 4900 2.1 20 05:25 14.10.2019
222 Fog 7 1006 100 5000 0.5 0 03:50 14.10.2019
223 Mist 7 1006 100 4900 1 0 03:23 14.10.2019
224 Fog 8 1005 100 750 1 0 02:31 14.10.2019
225 Mist 8 1005 100 5000 1.5 220 01:21 14.10.2019
226 Clouds 8 1004 100 9000 1.5 240 00:42 14.10.2019
227 Rain 8 1004 100 10000 1 0 00:18 14.10.2019
228 Rain 9 1004 100 10000 2.1 240 23:40 13.10.2019
229 Rain 9 1004 93 8000 2.6 240 23:19 13.10.2019
230 Rain 9 1003 93 7000 2.6 240 22:56 13.10.2019
231 Rain 9 1003 93 7000 2.6 240 22:38 13.10.2019
232 Rain 9 1003 93 10000 3.1 260 22:19 13.10.2019
233 Rain 9 1002 93 7000 1 250 21:56 13.10.2019
234 Rain 9 1002 93 7000 1 250 21:36 13.10.2019
235 Rain 9 1002 93 7000 1 250 21:36 13.10.2019
236 Rain 9 1002 93 7000 1 0 21:18 13.10.2019
237 Rain 9 1002 93 7000 1 0 21:18 13.10.2019
238 Rain 9 1002 100 7000 2.1 270 20:55 13.10.2019
239 Rain 9 1002 100 7000 2.1 270 20:37 13.10.2019
240 Rain 10 1001 100 6000 2.1 270 20:18 13.10.2019
241 Rain 10 1001 100 3600 1 270 19:54 13.10.2019
242 Rain 10 1001 100 3600 1 270 19:54 13.10.2019
243 Rain 10 1001 100 3600 1 270 19:36 13.10.2019
244 Rain 10 1001 100 3600 1 270 19:36 13.10.2019
245 Rain 10 1001 100 6000 1.5 250 19:18 13.10.2019
246 Rain 10 1000 100 6000 2.1 280 18:40 13.10.2019
247 Rain 10 1000 93 6000 1.5 0 18:20 13.10.2019
248 Rain 10 1000 93 9000 1.5 320 17:59 13.10.2019
249 Rain 10 1000 93 9000 1.5 320 17:41 13.10.2019
250 Rain 10 1000 93 6000 1.5 320 17:22 13.10.2019
251 Rain 11 1000 93 10000 1.5 40 16:43 13.10.2019
252 Rain 11 1000 93 10000 3.6 60 16:19 13.10.2019
253 -273 0 0 0 0 0 15:57 13.10.2019
254 Rain 11 1000 87 10000 3.6 60 15:39 13.10.2019
255 Rain 11 1000 87 10000 4.1 70 15:20 13.10.2019
256 Rain 11 1000 87 10000 4.1 70 15:20 13.10.2019
257 Clouds 11 1001 87 10000 3.6 60 14:58 13.10.2019
258 Clouds 11 1001 87 10000 3.6 60 14:39 13.10.2019
259 Clouds 10 1001 87 10000 4.1 70 14:20 13.10.2019
260 Clouds 10 1001 87 10000 4.1 80 13:55 13.10.2019
261 Clouds 10 1001 87 10000 4.1 80 13:37 13.10.2019
262 Clouds 10 1001 87 10000 4.1 80 13:37 13.10.2019
263 Clouds 10 1001 93 10000 3.6 80 13:18 13.10.2019
264 Clouds 10 1001 93 10000 3.6 80 13:18 13.10.2019
265 Rain 10 1001 100 10000 2.6 80 12:55 13.10.2019
266 Rain 10 1001 100 10000 2.6 80 12:55 13.10.2019
267 Rain 10 1001 100 10000 2.6 80 12:55 13.10.2019
268 Rain 9 1001 100 10000 2.6 80 12:36 13.10.2019
269 Rain 9 1001 100 10000 2.6 80 12:36 13.10.2019
270 Clouds 9 1002 100 10000 1.5 0 12:18 13.10.2019
271 Clear 8 1002 93 10000 0.5 0 11:54 13.10.2019
272 Clear 8 1002 93 10000 0.5 0 11:36 13.10.2019
273 Clouds 7 1002 93 8000 1.63 44.603 11:18 13.10.2019
274 Clouds 6 1002 100 8000 1.63 44.603 10:40 13.10.2019
275 Mist 6 1002 100 5000 0.5 0 10:22 13.10.2019
276 Mist 6 1002 100 5000 0.5 0 09:40 13.10.2019
277 Mist 6 1002 100 1400 1 260 09:21 13.10.2019
278 Mist 6 1002 100 5000 1.5 230 08:55 13.10.2019
279 Mist 6 1002 100 3900 0.5 0 08:27 13.10.2019
280 Mist 6 1002 100 5000 1.5 230 08:27 13.10.2019
281 Mist 6 1002 100 2900 1 260 07:56 13.10.2019
282 Mist 6 1002 100 2900 1 260 07:38 13.10.2019
283 Fog 6 1002 100 250 0.5 200 06:54 13.10.2019
284 Fog 6 1002 100 400 1 210 06:26 13.10.2019
285 Mist 6 1003 100 1500 1.5 230 05:29 13.10.2019
286 Mist 6 1003 93 1100 1 220 04:35 13.10.2019
287 Fog 6 1003 100 10000 0.5 0 03:35 13.10.2019
288 Clouds 7 1003 100 10000 1 0 02:32 13.10.2019
289 Clouds 7 1003 87 10000 2.6 160 01:47 13.10.2019
290 Fog 7 1003 100 10000 1.5 0 01:21 13.10.2019
291 Fog 8 1003 100 200 1.5 50 00:42 13.10.2019
292 Mist 8 1003 93 3400 1.5 100 00:19 13.10.2019
293 Clear 8 1003 93 10000 1 0 23:42 12.10.2019
294 Clouds 9 1003 93 10000 1.5 0 23:23 12.10.2019
295 Clouds 9 1003 93 10000 1.5 0 23:23 12.10.2019
296 Clouds 9 1003 93 10000 1.5 0 22:59 12.10.2019
297 Clouds 9 1003 93 10000 1.5 0 22:59 12.10.2019
298 Rain 9 1003 93 10000 1 0 22:40 12.10.2019
299 Clear 9 1003 93 10000 1 260 22:22 12.10.2019
300 Clear 9 1003 93 10000 1 260 21:59 12.10.2019
301 Clear 9 1003 93 10000 1.5 220 21:40 12.10.2019
302 Rain 9 1003 87 10000 2.1 240 21:22 12.10.2019
303 Rain 10 1002 87 10000 3.6 180 20:55 12.10.2019
304 Rain 10 1002 87 10000 3.6 180 20:36 12.10.2019
305 Rain 10 1002 87 10000 3.1 200 20:18 12.10.2019
306 Rain 10 1002 87 10000 3.1 200 19:36 12.10.2019
307 Rain 11 1002 87 10000 3.6 220 19:18 12.10.2019
308 Clouds 11 1002 81 10000 5.7 220 18:43 12.10.2019
309 Clouds 12 1002 81 10000 7.2 220 18:24 12.10.2019
310 Clouds 12 1002 81 10000 6.7 210 17:46 12.10.2019
311 Rain 12 1002 76 10000 7.2 220 17:22 12.10.2019
312 Rain 12 1002 76 10000 7.2 220 16:59 12.10.2019
313 Rain 12 1002 76 10000 7.2 220 16:59 12.10.2019
314 Rain 12 1002 81 10000 8.7 210 16:40 12.10.2019
315 Rain 13 1002 76 10000 7.7 210 16:21 12.10.2019
316 Rain 13 1002 76 10000 7.7 210 15:56 12.10.2019
317 Clouds 13 1002 76 10000 8.2 210 15:37 12.10.2019
318 Clouds 13 1002 76 10000 7.2 230 15:18 12.10.2019
319 Clouds 13 1002 76 10000 6.7 220 14:39 12.10.2019
320 Rain 13 1002 76 10000 8.7 220 14:20 12.10.2019
321 Rain 12 1002 76 10000 7.7 220 13:50 12.10.2019
322 Rain 12 1002 76 10000 7.7 220 13:32 12.10.2019
323 Rain 12 1002 76 10000 2.6 280 12:55 12.10.2019
324 Rain 12 1002 76 10000 2.6 280 12:37 12.10.2019
325 Clouds 11 1001 87 10000 6.7 230 12:18 12.10.2019
326 Clouds 11 1001 87 10000 6.2 230 11:41 12.10.2019
327 Clouds 10 1001 87 10000 5.7 230 11:22 12.10.2019
328 Clouds 10 1001 87 10000 5.7 230 10:58 12.10.2019
329 Rain 10 1001 93 10000 5.1 230 10:38 12.10.2019
330 Clouds 9 1000 93 10000 3.1 250 10:19 12.10.2019
331 Clouds 8 1000 93 10000 3.1 250 09:56 12.10.2019
332 Clouds 8 1000 93 10000 3.1 250 09:37 12.10.2019
333 Clear 8 1000 93 10000 3.6 230 09:19 12.10.2019
334 Clouds 7 1000 93 10000 4.1 230 08:43 12.10.2019
335 Rain 8 1000 100 10000 4.6 230 08:23 12.10.2019
336 Clouds 7 1000 93 10000 4.6 230 07:49 12.10.2019
337 Clouds 7 1000 93 10000 4.6 230 07:30 12.10.2019
338 Clouds 7 999 93 10000 3.1 250 05:54 12.10.2019
339 Clear 7 999 93 10000 5.1 230 05:26 12.10.2019
340 Clear 8 999 87 10000 3.6 250 04:31 12.10.2019
341 Clouds 8 999 87 10000 4.6 240 03:53 12.10.2019
342 Clouds 8 998 93 10000 4.1 230 02:37 12.10.2019
343 Clouds 9 997 93 10000 6.2 230 01:31 12.10.2019
344 Clouds 9 997 93 10000 5.1 220 00:54 12.10.2019
345 Clouds 9 997 93 10000 5.1 220 00:35 12.10.2019
346 Rain 9 996 93 10000 6.2 230 23:54 11.10.2019
347 Rain 9 996 93 10000 6.2 230 23:36 11.10.2019
348 Rain 10 996 87 10000 7.2 240 23:18 11.10.2019
349 Rain 10 995 87 10000 9.8 230 22:37 11.10.2019
350 Rain 10 995 87 10000 10.3 240 22:18 11.10.2019
351 Rain 10 995 87 10000 7.7 240 21:42 11.10.2019
352 Rain 10 995 87 10000 9.8 260 21:21 11.10.2019
353 Rain 10 994 76 10000 12.3 230 20:55 11.10.2019
354 Rain 10 994 76 10000 12.3 230 20:37 11.10.2019
355 Rain 10 994 81 10000 7.7 220 20:18 11.10.2019
356 Rain 11 994 76 10000 8.7 230 19:54 11.10.2019
357 Rain 11 994 76 10000 8.7 230 19:54 11.10.2019
358 Rain 11 994 76 10000 8.7 230 19:36 11.10.2019
359 Rain 11 995 76 10000 9.8 230 19:18 11.10.2019
360 Rain 11 995 76 10000 9.8 230 19:18 11.10.2019
361 Rain 11 995 81 10000 7.2 240 18:39 11.10.2019
362 Rain 11 995 76 10000 6.7 220 18:19 11.10.2019
363 Rain 11 994 76 10000 7.7 240 17:59 11.10.2019
364 Rain 11 994 76 10000 7.7 240 17:38 11.10.2019
365 Rain 11 994 81 10000 7.2 250 17:19 11.10.2019
366 Rain 11 994 81 10000 7.2 250 17:19 11.10.2019
367 Rain 12 994 81 10000 7.7 240 16:59 11.10.2019
368 Rain 12 994 81 10000 7.7 240 16:39 11.10.2019
369 Rain 12 994 81 10000 9.3 230 16:19 11.10.2019
370 Rain 13 994 66 10000 10.8 230 15:42 11.10.2019
371 Rain 13 994 67 10000 10.3 230 15:22 11.10.2019
372 Clouds 13 994 71 10000 9.8 230 14:59 11.10.2019
373 Clouds 13 994 71 10000 9.8 230 14:40 11.10.2019
374 Clouds 13 994 66 10000 10.8 230 14:21 11.10.2019
375 Clouds 13 994 71 10000 10.3 220 13:45 11.10.2019
376 Clouds 13 994 71 10000 9.3 230 13:25 11.10.2019
377 Clouds 13 994 71 10000 9.8 220 12:57 11.10.2019
378 Clouds 13 994 71 10000 9.8 220 12:39 11.10.2019
379 Clouds 13 994 71 10000 9.8 220 12:39 11.10.2019
380 Clouds 12 994 76 10000 9.3 230 12:20 11.10.2019
381 Clouds 12 994 76 10000 9.3 230 11:58 11.10.2019
382 Clouds 12 994 76 10000 8.7 230 11:38 11.10.2019
383 Clouds 11 994 76 10000 8.2 220 11:20 11.10.2019
384 Clouds 11 994 81 10000 8.2 220 10:54 11.10.2019
385 Clouds 11 994 81 10000 8.2 220 10:36 11.10.2019
386 Rain 10 994 81 10000 7.7 220 10:18 11.10.2019
387 Clouds 10 994 81 10000 8.2 220 09:41 11.10.2019
388 Clouds 10 993 76 10000 9.3 220 09:21 11.10.2019
389 Clouds 10 993 81 10000 9.3 220 08:56 11.10.2019
390 Clouds 10 993 81 10000 9.3 220 08:38 11.10.2019
391 Clouds 10 993 81 10000 9.3 220 08:20 11.10.2019
392 Clouds 10 993 81 10000 9.3 220 07:51 11.10.2019
393 Clouds 10 993 81 10000 9.3 220 07:33 11.10.2019
394 Rain 10 994 81 10000 8.7 220 06:50 11.10.2019
395 Clouds 11 994 81 10000 8.2 220 06:25 11.10.2019
396 Rain 10 994 81 10000 8.7 210 05:46 11.10.2019
397 Clouds 11 994 81 10000 8.2 220 05:27 11.10.2019
398 Rain 11 994 81 7000 11.3 230 04:50 11.10.2019
399 Rain 11 995 81 10000 6.2 250 03:20 11.10.2019
400 Rain 11 994 93 10000 6.7 220 00:54 11.10.2019
401 Rain 11 994 93 10000 6.7 220 00:31 11.10.2019
402 Rain 11 994 87 10000 8.2 220 23:57 10.10.2019
403 Rain 11 994 87 10000 8.2 220 23:39 10.10.2019
404 Rain 11 994 87 10000 8.7 210 23:18 10.10.2019
405 Rain 12 994 93 10000 10.3 210 22:54 10.10.2019
406 Rain 12 994 93 10000 10.3 210 22:36 10.10.2019
407 Rain 12 994 82 10000 8.7 210 22:18 10.10.2019
408 Rain 12 995 87 5000 8.2 210 21:42 10.10.2019
409 Rain 12 995 87 10000 7.2 210 21:22 10.10.2019
410 Rain 12 995 87 10000 7.2 210 21:22 10.10.2019
411 Rain 12 995 87 10000 7.2 210 20:58 10.10.2019
412 Rain 12 995 87 10000 6.2 210 20:39 10.10.2019
413 Rain 12 995 87 10000 6.2 210 20:39 10.10.2019
414 Rain 12 996 87 10000 6.2 210 20:19 10.10.2019
415 Rain 12 996 87 10000 6.2 220 19:55 10.10.2019
416 Rain 12 996 87 10000 6.2 220 19:55 10.10.2019
417 Rain 12 996 87 10000 6.2 220 19:37 10.10.2019
418 Rain 12 996 87 10000 8.2 230 19:19 10.10.2019
419 Drizzle 11 996 93 4500 2.6 0 18:42 10.10.2019
420 Drizzle 11 996 100 3800 1.5 0 18:20 10.10.2019
421 Rain 11 997 93 4100 2.6 110 17:56 10.10.2019
422 Rain 10 997 93 4100 2.6 110 17:37 10.10.2019
423 Rain 10 997 87 5000 2.6 150 17:18 10.10.2019
424 Rain 10 998 87 10000 2.6 200 16:48 10.10.2019
425 Rain 10 998 87 10000 2.6 200 16:26 10.10.2019
426 Rain 11 1000 93 10000 6.2 210 15:58 10.10.2019
427 Rain 11 1000 93 10000 6.2 210 15:38 10.10.2019
428 Rain 11 1000 93 10000 5.7 210 15:20 10.10.2019
429 Rain 11 1000 81 10000 8.2 220 14:55 10.10.2019
430 Rain 11 1000 81 10000 8.2 220 14:36 10.10.2019
431 Rain 12 1000 81 10000 8.2 220 14:18 10.10.2019
432 Clouds 12 1001 81 10000 9.3 220 13:46 10.10.2019
433 Clouds 12 1001 81 10000 7.2 220 13:27 10.10.2019
434 Clouds 11 1001 81 10000 9.3 220 12:58 10.10.2019
435 Clouds 11 1001 81 10000 9.3 220 12:40 10.10.2019
436 Rain 11 1001 81 10000 7.7 230 12:20 10.10.2019
437 Clouds 11 1001 87 10000 4.6 240 11:58 10.10.2019
438 Clouds 11 1001 87 10000 4.6 240 11:38 10.10.2019
439 Rain 11 1000 87 7000 6.7 250 11:19 10.10.2019
440 Rain 11 1000 87 7000 6.7 250 11:19 10.10.2019
441 Rain 11 1000 87 10000 7.7 250 10:44 10.10.2019
442 Rain 10 1000 87 10000 8.2 240 10:26 10.10.2019
443 Rain 10 1000 87 8000 7.7 240 09:56 10.10.2019
444 Rain 10 1000 87 8000 7.7 240 09:38 10.10.2019
445 Rain 10 999 87 7000 6.7 240 09:20 10.10.2019
446 Rain 10 999 87 10000 6.7 240 08:57 10.10.2019
447 Rain 10 999 87 10000 6.7 240 08:37 10.10.2019
448 Rain 10 999 87 10000 6.7 230 08:18 10.10.2019
449 Rain 10 998 87 10000 5.7 250 07:44 10.10.2019
450 Rain 10 998 87 10000 7.7 250 07:21 10.10.2019
451 Rain 10 997 87 10000 6.2 250 06:48 10.10.2019
452 Rain 10 997 87 10000 5.7 240 06:29 10.10.2019
453 Rain 10 997 87 10000 7.7 240 05:27 10.10.2019
454 Rain 10 996 87 9000 8.7 250 04:39 10.10.2019
455 Rain 10 996 87 10000 8.2 250 04:21 10.10.2019
456 Rain 10 996 87 10000 7.7 230 01:43 10.10.2019
457 Rain 10 996 87 10000 7.7 240 01:24 10.10.2019
458 Rain 10 995 87 10000 7.2 230 00:54 10.10.2019
459 Rain 10 995 81 9000 7.2 240 00:22 10.10.2019
460 Rain 10 995 87 10000 5.7 230 23:40 09.10.2019
461 Rain 10 995 87 10000 7.7 240 23:20 09.10.2019
462 Clouds 10 995 87 10000 7.7 240 22:56 09.10.2019
463 Clouds 10 995 87 10000 7.7 240 22:37 09.10.2019
464 Clouds 10 995 87 10000 7.7 230 22:19 09.10.2019
465 Rain 10 995 87 10000 7.2 230 21:40 09.10.2019
466 Rain 9 995 87 10000 5.1 230 21:20 09.10.2019
467 Rain 9 995 87 7000 5.7 260 20:56 09.10.2019
468 Rain 9 995 87 7000 5.7 260 20:38 09.10.2019
469 Rain 9 995 87 7000 5.7 260 20:38 09.10.2019
470 Rain 9 995 93 10000 6.2 230 20:19 09.10.2019
471 Rain 9 995 93 10000 6.2 230 20:19 09.10.2019
472 Clear 9 994 87 10000 7.2 240 19:57 09.10.2019
473 Clear 9 994 87 10000 7.2 240 19:39 09.10.2019
474 Rain 10 995 87 10000 7.2 230 19:20 09.10.2019
475 Rain 10 995 81 10000 6.7 250 18:38 09.10.2019
476 Rain 11 994 76 10000 7.7 210 18:19 09.10.2019
477 Rain 11 994 81 10000 8.2 220 17:57 09.10.2019
478 Rain 11 994 81 10000 8.2 220 17:37 09.10.2019
479 Rain 10 994 81 10000 7.7 220 17:19 09.10.2019
480 Rain 10 994 81 10000 6.7 240 16:55 09.10.2019
481 Rain 10 994 81 10000 6.7 240 16:36 09.10.2019
482 Rain 11 994 81 9000 8.7 250 16:18 09.10.2019
483 Rain 11 994 76 10000 7.2 220 15:54 09.10.2019
484 Rain 11 994 76 10000 7.2 220 15:36 09.10.2019
485 Rain 11 994 81 10000 8.7 230 15:18 09.10.2019
486 Rain 11 994 81 10000 8.7 230 15:18 09.10.2019
487 Drizzle 11 994 81 10000 7.7 240 14:41 09.10.2019
488 Clouds 11 994 93 10000 10.8 230 14:18 09.10.2019
489 Rain 11 994 81 10000 8.2 230 13:40 09.10.2019
490 Rain 11 994 87 10000 9.8 230 13:22 09.10.2019
491 Rain 11 994 81 10000 9.8 220 12:59 09.10.2019
492 Rain 11 994 81 10000 9.8 220 12:41 09.10.2019
493 Rain 11 993 81 10000 7.2 230 12:22 09.10.2019
494 Rain 11 993 81 10000 7.2 230 12:22 09.10.2019
495 Rain 10 994 87 10000 7.7 220 11:56 09.10.2019
496 Rain 10 994 87 10000 7.7 220 11:37 09.10.2019
497 Rain 10 994 93 10000 7.2 220 11:19 09.10.2019
498 Rain 10 994 87 10000 6.2 220 10:44 09.10.2019
499 Rain 10 994 93 9000 7.7 230 10:22 09.10.2019
500 Rain 10 993 100 6000 6.7 220 09:59 09.10.2019
501 Rain 10 993 100 6000 6.7 220 09:41 09.10.2019
502 Rain 10 993 100 6000 6.7 220 09:41 09.10.2019
503 Rain 10 993 93 10000 7.7 220 09:19 09.10.2019
504 Rain 10 993 93 6000 8.7 220 08:43 09.10.2019
505 Clouds 10 993 87 10000 7.2 220 08:23 09.10.2019
506 Rain 10 993 87 10000 7.2 230 07:59 09.10.2019
507 Rain 10 993 87 10000 7.2 230 07:39 09.10.2019
508 Clouds 10 993 87 10000 6.2 230 07:20 09.10.2019
509 Rain 10 993 87 10000 7.2 230 06:51 09.10.2019
510 Rain 10 993 87 10000 7.2 230 06:51 09.10.2019
511 Clouds 9 993 87 10000 6.2 210 05:56 09.10.2019
512 Clouds 9 993 87 10000 6.2 210 05:37 09.10.2019
513 Rain 10 993 87 9000 7.2 220 04:25 09.10.2019
514 Rain 10 993 87 10000 7.7 220 02:52 09.10.2019
515 Rain 10 993 87 10000 8.2 230 01:43 09.10.2019
516 Rain 10 992 93 10000 9.3 240 01:20 09.10.2019
517 Rain 10 992 93 10000 9.3 240 01:20 09.10.2019
518 Rain 10 992 93 10000 8.7 240 00:56 09.10.2019
519 Rain 10 992 93 10000 8.7 240 00:38 09.10.2019
520 Rain 10 992 93 10000 8.7 230 00:19 09.10.2019
521 Rain 10 992 100 10000 8.2 230 23:39 08.10.2019
522 Rain 10 992 93 10000 7.2 230 23:19 08.10.2019
523 Rain 10 992 87 10000 7.2 230 22:56 08.10.2019
524 Rain 10 992 87 10000 7.2 230 22:38 08.10.2019
525 Rain 10 992 93 10000 7.7 230 22:19 08.10.2019
526 Rain 10 992 93 10000 7.7 230 21:57 08.10.2019
527 Rain 10 992 87 3000 8.7 260 21:38 08.10.2019
528 Rain 10 992 93 10000 8.7 230 21:18 08.10.2019
529 Rain 10 992 93 10000 9.3 220 20:55 08.10.2019
530 Rain 10 992 93 10000 9.3 220 20:37 08.10.2019
531 Rain 10 992 93 10000 9.3 220 20:37 08.10.2019
532 Rain 10 992 87 10000 7.2 230 20:19 08.10.2019
533 Rain 10 992 87 3400 8.2 280 19:56 08.10.2019
534 Rain 10 992 87 3400 8.2 280 19:36 08.10.2019
535 Clouds 11 992 87 10000 5.7 230 19:18 08.10.2019
536 Rain 11 992 93 10000 7.2 220 18:45 08.10.2019
537 Rain 11 992 93 5000 6.7 260 18:25 08.10.2019
538 Rain 11 992 87 10000 9.8 230 17:58 08.10.2019
539 Rain 12 992 87 10000 9.8 230 17:39 08.10.2019
540 Rain 12 992 87 6000 13.4 220 17:20 08.10.2019
541 Rain 12 992 93 8000 10.8 220 16:56 08.10.2019
542 Rain 12 992 93 8000 10.8 220 16:56 08.10.2019
543 Rain 12 992 93 8000 10.8 220 16:56 08.10.2019
544 Rain 12 992 93 8000 10.8 220 16:37 08.10.2019
545 Rain 12 992 93 7000 11.8 220 16:18 08.10.2019
546 Rain 12 992 81 7000 12.3 220 15:39 08.10.2019
547 Rain 12 992 81 7000 12.3 220 15:39 08.10.2019
548 Rain 12 993 81 10000 12.3 220 15:20 08.10.2019
549 Rain 12 993 81 10000 12.3 220 15:20 08.10.2019
550 Rain 12 993 76 8000 10.8 210 14:56 08.10.2019
551 Rain 12 993 76 8000 10.8 210 14:37 08.10.2019
552 Clouds 12 993 76 10000 10.8 210 14:19 08.10.2019
553 -273 0 0 0 0 0 13:55 08.10.2019
554 Clouds 12 993 76 10000 10.8 220 13:37 08.10.2019
555 Clouds 12 993 71 10000 13.4 220 13:18 08.10.2019
556 Clouds 12 993 71 10000 13.4 220 13:18 08.10.2019
557 Clouds 12 994 76 10000 12.3 220 12:41 08.10.2019
558 Clouds 12 995 81 10000 10.3 220 12:20 08.10.2019
559 Clouds 11 995 81 10000 7.7 230 11:57 08.10.2019
560 Clouds 11 995 81 10000 7.7 230 11:57 08.10.2019
561 Clouds 11 995 81 10000 7.7 230 11:38 08.10.2019
562 Clouds 11 995 81 10000 8.7 220 11:20 08.10.2019
563 Clouds 10 995 81 10000 8.7 220 10:42 08.10.2019
564 Rain 10 995 81 10000 8.2 220 10:23 08.10.2019
565 Rain 10 995 81 10000 8.2 220 09:59 08.10.2019
566 Rain 10 995 81 10000 6.7 240 09:40 08.10.2019
567 Rain 10 995 87 10000 8.2 220 09:22 08.10.2019
568 Rain 10 995 87 10000 9.3 220 08:45 08.10.2019
569 Rain 10 995 87 10000 8.7 220 08:25 08.10.2019
570 Rain 11 995 93 10000 10.8 220 07:48 08.10.2019
571 Rain 11 995 93 5000 8.7 220 07:24 08.10.2019
572 Rain 11 995 87 4500 10.3 200 06:59 08.10.2019
573 Rain 11 995 87 4500 10.3 200 06:39 08.10.2019
574 Rain 11 996 81 10000 8.7 210 06:21 08.10.2019
575 Rain 11 996 87 10000 9.3 210 05:43 08.10.2019
576 Rain 11 996 87 10000 9.3 210 05:43 08.10.2019
577 Rain 11 997 87 10000 9.3 220 05:19 08.10.2019
578 Clouds 11 998 81 10000 7.7 210 03:31 08.10.2019
579 Rain 11 999 81 10000 7.2 210 02:42 08.10.2019
580 Rain 11 999 81 10000 8.7 230 01:58 08.10.2019
581 Rain 11 999 81 10000 8.7 230 01:40 08.10.2019
582 Rain 11 999 87 10000 7.7 220 00:55 08.10.2019
583 Rain 11 999 87 10000 6.7 230 00:23 08.10.2019
584 Rain 12 1000 87 10000 7.7 220 23:46 07.10.2019
585 Rain 12 1000 82 5000 8.7 210 23:21 07.10.2019
586 Rain 12 1000 82 5000 8.7 210 23:21 07.10.2019
587 Rain 12 1000 87 10000 5.7 220 22:59 07.10.2019
588 Rain 12 1000 87 10000 5.7 220 22:41 07.10.2019
589 Rain 12 1000 87 9000 7.7 220 22:23 07.10.2019
590 Rain 12 1001 93 10000 6.2 210 21:59 07.10.2019
591 Rain 12 1001 93 10000 6.2 210 21:40 07.10.2019
592 Thunderstorm 12 1001 87 10000 3.6 220 21:21 07.10.2019
593 Thunderstorm 12 1001 87 10000 3.6 220 20:59 07.10.2019
594 Clear 12 1001 87 10000 5.1 210 20:40 07.10.2019
595 Clear 12 1001 87 10000 5.1 210 20:40 07.10.2019
596 Rain 13 1001 87 10000 4.6 240 20:21 07.10.2019
597 Rain 13 1001 87 10000 4.6 240 19:59 07.10.2019
598 Rain 13 1001 82 10000 5.1 220 19:41 07.10.2019
599 Clouds 13 1001 87 10000 4.6 260 19:20 07.10.2019
600 Rain 14 1001 82 10000 6.7 210 18:59 07.10.2019
601 Rain 14 1001 82 10000 6.7 210 18:40 07.10.2019
602 Clouds 15 1001 77 10000 7.2 220 18:19 07.10.2019
603 Clouds 15 1001 77 10000 7.2 220 17:54 07.10.2019
604 Clouds 15 1001 77 10000 7.2 220 17:54 07.10.2019
605 Clouds 15 1001 77 10000 7.2 220 17:36 07.10.2019
606 Clouds 16 1001 72 10000 8.2 220 17:18 07.10.2019
607 Clouds 15 1001 77 10000 9.3 220 16:43 07.10.2019
608 Clouds 15 1002 82 10000 8.7 210 16:25 07.10.2019
609 Clouds 15 1002 82 10000 9.3 210 15:46 07.10.2019
610 Clouds 14 1002 82 10000 7.7 210 15:26 07.10.2019
611 Clouds 13 1002 82 10000 7.7 210 14:58 07.10.2019
612 Clouds 13 1002 87 10000 8.2 210 14:40 07.10.2019
613 Rain 13 1003 87 10000 7.2 200 14:22 07.10.2019
614 Rain 12 1003 87 6000 9.3 190 13:43 07.10.2019
615 Rain 12 1003 87 10000 7.2 190 13:21 07.10.2019
616 Rain 12 1004 87 7000 5.7 180 12:57 07.10.2019
617 Rain 12 1004 87 7000 5.7 180 12:39 07.10.2019
618 Rain 11 1004 87 10000 5.7 170 12:19 07.10.2019
619 Rain 11 1004 87 10000 5.7 170 11:58 07.10.2019
620 Rain 11 1004 87 7000 6.7 170 11:38 07.10.2019
621 Drizzle 11 1005 87 4400 6.2 170 11:20 07.10.2019
622 Drizzle 11 1005 93 4900 3.1 160 10:42 07.10.2019
623 Drizzle 11 1006 93 4100 3.1 160 10:21 07.10.2019
624 Rain 11 1006 87 3900 5.7 170 09:55 07.10.2019
625 -273 0 0 0 0 0 09:54 07.10.2019
626 Rain 11 1006 87 3900 5.7 170 09:36 07.10.2019
627 Rain 12 1007 81 5000 6.7 170 09:18 07.10.2019
628 Rain 12 1007 81 10000 5.7 170 08:41 07.10.2019
629 Clouds 12 1007 76 10000 4.6 160 08:20 07.10.2019
630 Rain 12 1008 76 10000 4.1 150 07:44 07.10.2019
631 Rain 12 1008 81 10000 5.1 130 07:25 07.10.2019
632 Clouds 12 1009 87 10000 3.1 130 06:55 07.10.2019
633 Clouds 12 1009 87 10000 3.1 130 06:37 07.10.2019
634 Rain 12 1010 87 10000 4.6 130 05:50 07.10.2019
635 Rain 11 1010 81 10000 5.1 130 05:24 07.10.2019
636 Clouds 11 1011 87 10000 5.7 120 04:42 07.10.2019
637 Clouds 11 1012 87 10000 3.1 110 03:45 07.10.2019
638 Clouds 11 1012 87 10000 3.1 110 03:45 07.10.2019
639 Clouds 11 1012 87 10000 4.1 100 03:23 07.10.2019
640 Clouds 11 1013 87 10000 5.1 110 02:23 07.10.2019
641 Clouds 11 1013 87 10000 4.1 110 01:57 07.10.2019
642 Clouds 10 1013 93 10000 4.1 80 01:22 07.10.2019
643 Clouds 10 1014 87 10000 3.1 70 00:44 07.10.2019
644 Clouds 10 1014 93 10000 3.6 70 00:22 07.10.2019
645 Clouds 10 1014 93 10000 4.1 60 23:56 06.10.2019
646 Clouds 10 1014 93 10000 4.1 60 23:38 06.10.2019
647 Clouds 10 1015 93 10000 3.1 70 23:18 06.10.2019
648 Clouds 10 1015 87 10000 3.1 70 22:42 06.10.2019
649 Clouds 10 1015 87 10000 3.6 80 22:22 06.10.2019
650 Clouds 10 1014 93 10000 3.6 80 21:58 06.10.2019
651 Clouds 10 1014 93 10000 3.6 80 21:58 06.10.2019
652 Clouds 10 1014 93 10000 3.6 80 21:38 06.10.2019
653 Clouds 10 1014 93 10000 4.1 70 21:19 06.10.2019
654 Clouds 10 1014 93 10000 5.7 70 20:58 06.10.2019
655 Clouds 10 1014 93 10000 5.7 70 20:40 06.10.2019
656 Rain 10 1014 93 10000 6.2 70 20:21 06.10.2019
657 Rain 10 1015 87 10000 5.7 60 19:58 06.10.2019
658 Rain 10 1015 87 10000 5.7 60 19:38 06.10.2019
659 Rain 10 1015 87 10000 5.1 60 19:20 06.10.2019
660 Rain 10 1015 87 10000 4.6 60 18:57 06.10.2019
661 Rain 10 1015 87 10000 4.6 60 18:39 06.10.2019
662 Rain 10 1014 87 10000 4.6 60 18:20 06.10.2019
663 Rain 11 1014 87 10000 5.7 60 17:58 06.10.2019
664 Rain 10 1014 87 10000 5.7 60 17:39 06.10.2019
665 Rain 11 1013 87 10000 5.7 60 17:19 06.10.2019
666 Clouds 11 1013 87 10000 5.7 60 16:42 06.10.2019
667 Rain 11 1013 87 10000 5.1 50 16:24 06.10.2019
668 Rain 11 1012 87 10000 5.7 60 15:58 06.10.2019
669 Rain 11 1012 87 10000 5.7 60 15:39 06.10.2019
670 Rain 11 1012 93 10000 6.2 60 15:18 06.10.2019
671 Rain 11 1012 93 10000 6.2 60 15:18 06.10.2019
672 Rain 11 1011 87 10000 5.7 60 14:43 06.10.2019
673 Rain 11 1011 87 10000 5.7 50 14:24 06.10.2019
674 Rain 11 1011 87 10000 5.7 50 13:58 06.10.2019
675 Rain 11 1010 87 10000 3.6 30 13:39 06.10.2019
676 Rain 11 1010 87 10000 4.1 20 13:20 06.10.2019
677 Rain 11 1010 93 10000 4.1 20 12:57 06.10.2019
678 Rain 11 1010 93 10000 4.1 20 12:57 06.10.2019
679 Rain 11 1010 93 10000 4.1 20 12:57 06.10.2019
680 Rain 11 1010 93 10000 4.1 20 12:38 06.10.2019
681 Rain 10 1010 93 10000 3.6 10 12:20 06.10.2019
682 Rain 10 1009 93 10000 4.6 10 11:56 06.10.2019
683 Rain 10 1009 93 10000 4.6 10 11:37 06.10.2019
684 Rain 10 1009 93 10000 3.6 360 11:18 06.10.2019
685 Rain 10 1009 93 10000 3.6 360 10:43 06.10.2019
686 Rain 10 1008 93 10000 3.1 10 10:24 06.10.2019
687 Rain 10 1008 93 10000 3.6 30 09:56 06.10.2019
688 Rain 10 1008 93 10000 3.6 30 09:38 06.10.2019
689 Rain 9 1007 93 8000 3.6 30 09:18 06.10.2019
690 Rain 9 1007 93 10000 4.6 50 08:40 06.10.2019
691 Rain 9 1006 93 9000 5.1 60 08:20 06.10.2019
692 Rain 10 1006 100 10000 4.1 60 07:44 06.10.2019
693 Rain 10 1006 100 6000 5.1 60 07:19 06.10.2019
694 Rain 10 1005 93 9000 5.1 60 06:20 06.10.2019
695 Rain 10 1005 93 10000 5.1 60 05:33 06.10.2019
696 Rain 11 1006 100 8000 4.6 70 03:41 06.10.2019
697 Rain 11 1007 93 10000 4.6 70 02:42 06.10.2019
698 Rain 11 1007 93 8000 4.6 70 02:20 06.10.2019
699 Rain 11 1007 93 7000 4.1 70 01:40 06.10.2019
700 Rain 11 1008 93 6000 5.7 60 01:21 06.10.2019
701 Rain 11 1008 93 7000 4.6 70 00:45 06.10.2019
702 Rain 11 1009 93 6000 5.1 70 00:24 06.10.2019
703 Rain 11 1009 93 8000 5.1 60 23:44 05.10.2019
704 Rain 11 1009 93 10000 5.7 60 23:22 05.10.2019
705 Rain 11 1009 93 10000 5.7 60 22:58 05.10.2019
706 Rain 11 1010 93 6000 5.1 70 22:39 05.10.2019
707 Rain 11 1010 93 7000 5.1 60 22:20 05.10.2019
708 Drizzle 11 1011 93 3200 4.1 70 21:43 05.10.2019
709 Rain 11 1011 93 3500 4.1 70 21:24 05.10.2019
710 Rain 11 1011 93 3500 4.1 70 20:59 05.10.2019
711 Rain 11 1011 87 6000 4.1 70 20:40 05.10.2019
712 Clouds 11 1011 87 10000 4.6 70 20:20 05.10.2019
713 Rain 12 1011 87 10000 5.7 70 19:58 05.10.2019
714 Rain 12 1011 87 10000 5.7 70 19:37 05.10.2019
715 Rain 11 1011 87 10000 4.6 60 19:18 05.10.2019
716 Rain 12 1011 87 10000 4.1 60 18:55 05.10.2019
717 Rain 12 1011 87 10000 4.1 60 18:36 05.10.2019
718 Rain 12 1011 87 10000 4.6 70 18:18 05.10.2019
719 Rain 12 1011 87 10000 4.6 80 17:42 05.10.2019
720 Rain 12 1012 87 10000 4.6 70 17:22 05.10.2019
721 Rain 12 1012 87 10000 4.6 70 16:56 05.10.2019
722 Rain 12 1012 87 10000 4.6 70 16:37 05.10.2019
723 Rain 12 1012 81 10000 4.1 80 16:19 05.10.2019
724 Rain 12 1012 81 10000 4.6 80 15:56 05.10.2019
725 Rain 12 1012 81 10000 4.6 80 15:38 05.10.2019
726 Rain 12 1012 81 10000 4.6 70 15:19 05.10.2019
727 Rain 12 1013 81 10000 4.1 70 14:42 05.10.2019
728 Rain 12 1013 87 10000 4.6 70 14:24 05.10.2019
729 Rain 12 1013 81 10000 5.1 70 13:44 05.10.2019
730 Rain 11 1013 87 10000 5.1 80 13:26 05.10.2019
731 Rain 11 1013 87 10000 5.1 80 13:26 05.10.2019
732 Rain 11 1013 87 10000 5.1 80 12:59 05.10.2019
733 Rain 11 1013 87 10000 5.1 80 12:59 05.10.2019
734 Rain 11 1013 87 10000 4.6 70 12:41 05.10.2019
735 Rain 11 1014 87 10000 4.6 70 12:19 05.10.2019
736 Rain 11 1014 87 10000 4.6 80 11:41 05.10.2019
737 Clouds 11 1014 81 10000 4.1 70 11:20 05.10.2019
738 Clouds 10 1014 93 10000 4.1 80 10:57 05.10.2019
739 Clouds 10 1014 93 10000 4.1 80 10:38 05.10.2019
740 Clouds 10 1014 93 10000 4.1 70 10:20 05.10.2019
741 Clouds 10 1014 93 10000 4.6 70 09:41 05.10.2019
742 Clouds 10 1014 87 10000 3.6 70 09:23 05.10.2019
743 Clouds 9 1013 87 10000 3.6 70 08:42 05.10.2019
744 Clouds 9 1013 87 10000 4.1 70 08:23 05.10.2019
745 Clouds 9 1013 93 10000 5.1 60 07:59 05.10.2019
746 Clouds 9 1013 93 10000 5.1 60 07:39 05.10.2019
747 Clouds 9 1013 93 10000 4.6 60 07:20 05.10.2019
748 Clouds 9 1013 93 10000 4.1 70 06:52 05.10.2019
749 Clouds 9 1013 93 10000 4.1 70 06:52 05.10.2019
750 Clouds 9 1013 93 10000 4.1 60 06:20 05.10.2019
751 Clouds 10 1014 93 10000 4.1 60 04:46 05.10.2019
752 Clouds 9 1014 93 10000 3.6 80 03:31 05.10.2019
753 Clouds 9 1014 93 10000 4.6 70 02:25 05.10.2019
754 Rain 10 1013 87 10000 4.6 70 01:25 05.10.2019
755 Rain 10 1013 87 10000 4.6 70 01:25 05.10.2019
756 Rain 10 1013 87 10000 4.6 70 00:47 05.10.2019
757 Drizzle 10 1013 87 10000 5.7 60 00:27 05.10.2019
758 Rain 10 1013 87 10000 6.7 60 23:55 04.10.2019
759 Rain 10 1013 87 10000 6.7 60 23:37 04.10.2019
760 Clouds 10 1012 81 10000 6.7 70 23:18 04.10.2019
761 Clouds 10 1012 81 10000 5.7 70 22:41 04.10.2019
762 Clouds 10 1012 81 10000 5.1 70 22:23 04.10.2019
763 Clouds 10 1012 87 10000 6.2 70 21:58 04.10.2019
764 Clouds 10 1012 87 10000 6.2 70 21:40 04.10.2019
765 Clouds 11 1012 87 10000 4.1 60 21:21 04.10.2019
766 Clouds 11 1011 81 10000 4.1 70 20:57 04.10.2019
767 Clouds 11 1011 81 10000 4.1 70 20:39 04.10.2019
768 Clouds 11 1011 81 10000 5.1 70 20:21 04.10.2019
769 Clouds 11 1011 81 10000 4.1 70 19:55 04.10.2019
770 Clouds 11 1011 81 10000 4.1 70 19:37 04.10.2019
771 Clouds 11 1010 81 10000 4.6 60 19:18 04.10.2019
772 Clouds 12 1009 81 10000 5.7 60 18:39 04.10.2019
773 Clouds 12 1009 76 10000 5.1 70 18:19 04.10.2019
774 Drizzle 12 1009 76 10000 5.1 70 17:58 04.10.2019
775 Drizzle 12 1009 76 10000 5.1 70 17:38 04.10.2019
776 Rain 12 1008 81 10000 4.6 80 17:20 04.10.2019
777 Clouds 12 1008 81 10000 5.7 70 16:55 04.10.2019
778 Clouds 12 1008 81 10000 5.7 70 16:36 04.10.2019
779 Clouds 12 1008 81 10000 5.1 60 16:18 04.10.2019
780 Clouds 12 1007 81 10000 7.7 70 15:55 04.10.2019
781 Clouds 12 1007 81 10000 7.7 70 15:55 04.10.2019
782 Clouds 12 1007 81 10000 7.7 70 15:36 04.10.2019
783 Clouds 12 1007 87 10000 7.2 60 15:18 04.10.2019
784 Rain 12 1007 81 10000 6.7 60 14:42 04.10.2019
785 Rain 11 1006 81 10000 7.2 70 14:22 04.10.2019
786 Clouds 11 1006 87 10000 7.2 60 13:59 04.10.2019
787 Clouds 11 1006 87 10000 7.2 60 13:40 04.10.2019
788 Clouds 11 1005 87 10000 7.7 60 13:19 04.10.2019
789 Clouds 11 1004 87 10000 7.7 60 12:45 04.10.2019
790 Clouds 11 1004 87 10000 7.7 50 12:27 04.10.2019
791 Clouds 11 1004 87 10000 7.7 50 12:27 04.10.2019
792 Rain 11 1003 87 10000 6.7 60 11:55 04.10.2019
793 Rain 11 1003 87 10000 6.7 60 11:37 04.10.2019
794 Rain 11 1003 87 10000 8.7 60 11:18 04.10.2019
795 Clouds 10 1002 87 10000 6.7 70 10:39 04.10.2019
796 Clouds 10 1001 87 10000 7.7 70 10:20 04.10.2019
797 Clouds 10 1001 87 10000 7.7 70 10:20 04.10.2019
798 Clouds 10 1001 93 10000 7.2 70 09:44 04.10.2019
799 Clouds 10 1000 93 10000 7.2 60 09:26 04.10.2019
800 Clouds 10 1000 93 10000 7.2 60 09:26 04.10.2019
801 Drizzle 9 1000 93 10000 5.7 60 08:56 04.10.2019
802 Drizzle 9 1000 93 10000 5.7 60 08:37 04.10.2019
803 Rain 9 1000 93 10000 5.7 70 08:19 04.10.2019
804 Drizzle 9 1000 100 3600 5.7 70 07:43 04.10.2019
805 Drizzle 9 1000 100 2800 5.1 70 07:21 04.10.2019
806 Drizzle 9 999 100 3700 5.7 60 06:41 04.10.2019
807 Drizzle 9 999 93 2700 5.7 60 06:23 04.10.2019
808 Drizzle 9 999 100 3500 4.6 70 05:23 04.10.2019
809 Drizzle 9 999 100 4900 6.2 60 04:54 04.10.2019
810 Rain 8 1000 93 5000 5.7 80 03:42 04.10.2019
811 Drizzle 8 1000 93 5000 7.2 70 02:53 04.10.2019
812 Drizzle 8 1000 93 5000 7.7 60 01:54 04.10.2019
813 Drizzle 8 1000 93 5000 7.7 60 01:54 04.10.2019
814 Rain 8 1001 93 6000 6.2 70 01:28 04.10.2019
815 Rain 8 1001 93 6000 8.7 50 00:50 04.10.2019
816 Rain 8 1002 100 6000 7.7 60 23:54 03.10.2019
817 Rain 8 1002 100 6000 7.7 60 23:36 03.10.2019
818 Rain 8 1002 93 4400 6.7 60 23:18 03.10.2019
819 Rain 8 1003 93 3800 5.7 70 22:54 03.10.2019
820 Rain 8 1003 93 3800 5.7 70 22:36 03.10.2019
821 Rain 8 1003 93 8000 5.7 70 22:18 03.10.2019
822 Rain 9 1003 87 8000 5.7 70 21:41 03.10.2019
823 Rain 9 1004 81 10000 5.7 70 21:21 03.10.2019
824 Rain 9 1005 76 10000 5.7 70 20:58 03.10.2019
825 Rain 9 1005 76 10000 5.7 70 20:40 03.10.2019
826 Rain 9 1005 71 10000 6.2 70 20:22 03.10.2019
827 Rain 10 1006 66 10000 6.2 90 19:59 03.10.2019
828 Rain 10 1006 66 10000 6.2 90 19:59 03.10.2019
829 Rain 10 1006 66 10000 6.2 90 19:40 03.10.2019
830 Rain 10 1006 71 10000 6.2 100 19:20 03.10.2019
831 Clouds 10 1007 66 10000 6.7 100 18:57 03.10.2019
832 Clouds 10 1007 66 10000 6.7 100 18:38 03.10.2019
833 Clouds 10 1008 62 10000 5.7 110 18:19 03.10.2019
834 Clouds 10 1008 57 10000 7.7 110 17:42 03.10.2019
835 Rain 10 1009 62 10000 5.1 120 17:23 03.10.2019
836 Rain 10 1009 62 10000 5.1 120 16:58 03.10.2019
837 Rain 11 1010 62 10000 5.7 120 16:40 03.10.2019
838 Clouds 11 1010 57 10000 6.2 110 16:21 03.10.2019
839 Rain 10 1011 57 10000 7.7 110 15:54 03.10.2019
840 Rain 11 1011 57 10000 7.7 110 15:36 03.10.2019
841 Clouds 11 1012 66 10000 6.7 100 15:18 03.10.2019
842 Clouds 11 1012 71 10000 5.7 110 14:39 03.10.2019
843 Clouds 11 1013 71 10000 6.7 100 14:20 03.10.2019
844 Clouds 10 1014 76 10000 5.1 90 13:55 03.10.2019
845 Clouds 10 1014 76 10000 5.1 90 13:36 03.10.2019
846 Clouds 10 1015 76 10000 4.1 110 13:18 03.10.2019
847 Clouds 9 1015 81 10000 2.1 70 12:40 03.10.2019
848 Clouds 8 1015 81 10000 5.1 70 12:20 03.10.2019
849 Clouds 8 1015 81 10000 5.1 70 12:20 03.10.2019
850 Clouds 8 1016 87 10000 3.6 60 11:59 03.10.2019
851 Clouds 8 1016 87 10000 3.6 60 11:59 03.10.2019
852 Clouds 7 1016 87 10000 3.6 60 11:40 03.10.2019
853 Clouds 6 1017 87 10000 3.6 60 11:21 03.10.2019
854 Clouds 6 1017 87 10000 3.6 60 10:58 03.10.2019
855 Clouds 4 1017 93 10000 3.1 70 10:39 03.10.2019
856 Clouds 3 1017 93 10000 2.1 70 10:18 03.10.2019
857 Clouds 3 1018 93 10000 1.5 0 09:56 03.10.2019
858 Clouds 2 1018 93 10000 1.5 0 09:38 03.10.2019
859 Clouds 2 1018 93 10000 1.5 0 09:19 03.10.2019
860 Clouds 2 1018 100 10000 1.5 0 08:43 03.10.2019
861 Fog 2 1018 100 10000 1 0 08:25 03.10.2019
862 Mist 1 1018 90 3000 0.5 0 07:45 03.10.2019
863 Clouds 2 1019 90 10000 1 150 07:20 03.10.2019
864 Clouds 2 1019 90 10000 1 0 06:56 03.10.2019
865 Mist 2 1019 93 3500 1.5 70 06:27 03.10.2019
866 Clouds 2 1019 93 10000 1.5 80 05:49 03.10.2019
867 Clouds 3 1019 93 10000 1 60 05:29 03.10.2019
868 Clouds 3 1020 93 9000 1.5 90 04:45 03.10.2019
869 Clouds 4 1020 93 10000 1 110 03:54 03.10.2019
870 Clouds 3 1021 100 10000 0.5 0 03:19 03.10.2019
871 Clouds 4 1021 93 10000 0.5 190 02:22 03.10.2019
872 Clouds 4 1021 93 10000 0.5 0 01:40 03.10.2019
873 Clouds 5 1021 93 10000 1.5 0 00:53 03.10.2019
874 Clouds 5 1021 93 10000 1.5 0 00:31 03.10.2019
875 Clouds 6 1021 86 10000 1.5 230 23:55 02.10.2019
876 Clouds 6 1021 86 10000 1.5 230 23:36 02.10.2019
877 Clouds 6 1021 87 10000 1.5 220 23:18 02.10.2019
878 Clouds 6 1021 87 10000 1 0 22:41 02.10.2019
879 Clouds 7 1021 87 10000 2.6 240 22:20 02.10.2019
880 Clouds 7 1021 93 10000 3.6 220 21:55 02.10.2019
881 Clouds 7 1021 93 10000 3.6 220 21:55 02.10.2019
882 Clouds 7 1021 93 10000 3.6 220 21:37 02.10.2019
883 Clouds 8 1021 81 10000 2.1 240 21:18 02.10.2019
884 Clouds 8 1021 81 10000 2.1 240 21:18 02.10.2019
885 Clouds 9 1021 75 10000 2.1 260 20:55 02.10.2019
886 Clouds 9 1021 75 10000 2.1 260 20:37 02.10.2019
887 Clouds 10 1020 75 10000 2.1 240 20:18 02.10.2019
888 Clouds 11 1020 62 10000 2.6 250 19:43 02.10.2019
889 Clouds 12 1020 58 10000 2.6 270 19:22 02.10.2019
890 Clouds 12 1020 58 10000 2.6 270 18:57 02.10.2019
891 Clouds 12 1020 54 10000 2.6 300 18:39 02.10.2019
892 Clouds 13 1020 58 10000 2.6 260 18:20 02.10.2019
893 Clouds 13 1020 54 10000 3.1 280 17:57 02.10.2019
894 Clouds 13 1020 54 10000 3.1 280 17:38 02.10.2019
895 Clouds 13 1020 54 10000 2.6 250 17:19 02.10.2019
896 Clouds 13 1020 54 10000 3.1 280 16:42 02.10.2019
897 Clouds 13 1019 58 10000 3.1 270 16:22 02.10.2019
898 Clouds 13 1019 58 10000 3.1 270 15:59 02.10.2019
899 Clouds 13 1020 58 10000 3.1 290 15:40 02.10.2019
900 Clouds 12 1020 58 10000 3.1 290 15:22 02.10.2019
901 Clouds 12 1020 58 10000 4.1 290 14:57 02.10.2019
902 Clear 12 1020 58 10000 4.1 290 14:39 02.10.2019
903 Clear 12 1020 58 10000 4.1 290 14:39 02.10.2019
904 Clear 12 1020 58 10000 4.1 290 14:20 02.10.2019
905 -273 0 0 0 0 0 13:45 02.10.2019
906 Clear 11 1020 57 10000 3.6 290 13:25 02.10.2019
907 Clear 11 1020 66 10000 4.1 290 12:58 02.10.2019
908 Clear 10 1019 66 10000 4.1 280 12:37 02.10.2019
909 Clear 10 1019 66 10000 4.1 280 12:19 02.10.2019
910 Clear 8 1019 81 10000 3.6 240 11:44 02.10.2019
911 Clear 7 1019 81 10000 3.6 240 11:23 02.10.2019
912 Clear 6 1018 86 10000 2.1 260 10:42 02.10.2019
913 Clear 5 1018 86 10000 2.1 260 10:20 02.10.2019
914 Clear 4 1018 100 10000 3.1 230 09:59 02.10.2019
915 Clear 4 1017 100 10000 1 260 09:37 02.10.2019
916 Clear 2 1017 100 10000 1 260 09:19 02.10.2019
917 Clear 2 1017 100 10000 1.5 240 08:44 02.10.2019
918 Clear 2 1016 100 10000 1 0 08:24 02.10.2019
919 Clear 2 1016 91 10000 1.5 270 07:58 02.10.2019
920 Clear 2 1016 91 10000 1.5 240 07:38 02.10.2019
921 Clear 2 1016 91 10000 1.5 240 07:20 02.10.2019
922 Clear 2 1016 91 10000 2.1 240 06:31 02.10.2019
923 Clear 2 1016 78 10000 1.5 0 05:54 02.10.2019
924 Clear 2 1016 78 10000 1.5 0 05:54 02.10.2019
925 Clear 2 1016 78 10000 2.6 220 05:23 02.10.2019
926 Clear 3 1015 93 10000 1 240 04:47 02.10.2019
927 Clear 3 1016 86 10000 2.1 240 03:52 02.10.2019
928 Clouds 3 1015 100 10000 1.5 0 02:40 02.10.2019
929 Clouds 3 1015 100 10000 1.5 0 02:22 02.10.2019
930 Clouds 5 1014 86 10000 0.5 0 01:21 02.10.2019
931 Clouds 5 1013 86 10000 2.1 220 00:43 02.10.2019
932 Clouds 6 1013 86 10000 2.1 220 00:23 02.10.2019
933 Clouds 6 1012 81 10000 2.1 240 23:42 01.10.2019
934 Clouds 7 1012 81 10000 2.1 240 23:24 01.10.2019
935 Clouds 7 1012 87 10000 2.6 220 22:58 01.10.2019
936 Clouds 7 1012 70 10000 2.1 50 22:39 01.10.2019
937 Clouds 7 1012 70 10000 2.1 50 22:19 01.10.2019
938 Clouds 8 1011 70 10000 3.1 350 21:55 01.10.2019
939 Clouds 8 1011 81 10000 0.5 0 21:36 01.10.2019
940 Clouds 8 1011 81 10000 0.5 0 21:18 01.10.2019
941 Clouds 8 1010 65 10000 1.5 0 20:54 01.10.2019
942 Clouds 9 1010 66 10000 1.5 360 20:36 01.10.2019
943 Clouds 9 1010 66 10000 1.5 360 20:18 01.10.2019
944 Clouds 10 1009 62 10000 1.5 360 19:41 01.10.2019
945 Clouds 11 1009 62 10000 1.5 360 19:23 01.10.2019
946 Clouds 11 1009 57 10000 2.6 10 18:58 01.10.2019
947 Clouds 12 1008 50 10000 3.6 10 18:38 01.10.2019
948 Clear 11 1008 50 10000 3.6 10 18:19 01.10.2019
949 Clear 12 1008 50 10000 3.1 30 17:55 01.10.2019
950 Clear 12 1008 50 10000 4.6 20 17:36 01.10.2019
951 Clear 11 1008 50 10000 4.6 20 17:18 01.10.2019
952 Clouds 12 1008 50 10000 5.1 50 16:42 01.10.2019
953 Clouds 11 1008 50 10000 5.1 50 16:22 01.10.2019
954 Clouds 12 1007 53 10000 5.1 40 15:59 01.10.2019
955 Clouds 11 1007 50 10000 5.7 40 15:40 01.10.2019
956 Clouds 11 1007 50 10000 5.7 40 15:21 01.10.2019
957 Clouds 11 1007 57 10000 6.7 60 14:40 01.10.2019
958 Clouds 11 1007 57 10000 6.7 60 14:20 01.10.2019
959 Clouds 11 1006 57 10000 6.2 50 13:57 01.10.2019
960 Clouds 11 1006 57 10000 6.2 50 13:57 01.10.2019
961 Clouds 11 1006 57 10000 6.7 40 13:38 01.10.2019
962 Clouds 10 1006 57 10000 6.7 40 13:18 01.10.2019
963 Clouds 9 1006 66 10000 7.7 40 12:56 01.10.2019
964 Clouds 9 1006 70 10000 6.2 40 12:38 01.10.2019
965 Clouds 9 1006 70 10000 6.2 40 12:18 01.10.2019
966 Clouds 9 1006 70 10000 6.2 40 12:18 01.10.2019
967 Clouds 9 1005 66 10000 7.2 50 11:56 01.10.2019
968 Clouds 9 1005 66 10000 7.2 50 11:56 01.10.2019
969 Clouds 8 1005 66 10000 4.6 50 11:37 01.10.2019
970 Clouds 8 1005 66 10000 4.6 50 11:18 01.10.2019
971 Clouds 7 1005 75 10000 4.6 40 10:47 01.10.2019
972 Clouds 7 1004 70 10000 4.1 40 10:28 01.10.2019
973 Rain 7 1004 70 10000 5.1 40 09:46 01.10.2019
974 Clouds 7 1004 75 10000 3.6 30 09:26 01.10.2019
975 Clouds 7 1004 70 10000 4.1 40 08:45 01.10.2019
976 Rain 7 1003 70 10000 6.2 50 08:27 01.10.2019
977 Clouds 7 1003 70 10000 6.2 60 07:56 01.10.2019
978 Rain 8 1003 70 10000 5.7 70 07:38 01.10.2019
979 Rain 7 1003 70 10000 5.7 70 07:19 01.10.2019
980 Rain 8 1003 70 10000 7.2 60 06:41 01.10.2019
981 Rain 8 1003 70 10000 7.2 60 06:18 01.10.2019
982 Rain 8 1003 81 10000 8.2 60 05:43 01.10.2019
983 Rain 8 1003 81 10000 8.2 60 04:42 01.10.2019
984 Rain 8 1004 87 10000 7.7 60 03:37 01.10.2019
985 Rain 9 1004 93 10000 7.2 50 02:20 01.10.2019
986 Clouds 9 1004 93 10000 6.2 60 01:56 01.10.2019
987 Clouds 9 1004 87 10000 7.7 70 00:46 01.10.2019
988 Clouds 9 1004 87 10000 7.7 70 00:25 01.10.2019
989 Drizzle 9 1004 87 10000 6.2 70 23:42 30.09.2019
990 Drizzle 9 1004 87 10000 6.2 70 23:23 30.09.2019
991 Rain 9 1004 93 10000 6.7 60 22:56 30.09.2019
992 Rain 9 1005 87 10000 8.7 70 22:37 30.09.2019
993 Rain 9 1005 87 10000 8.7 70 22:19 30.09.2019
994 Rain 9 1005 87 6000 7.7 70 21:55 30.09.2019
995 Rain 9 1005 93 10000 8.2 70 21:36 30.09.2019
996 Rain 9 1005 93 10000 8.2 70 21:36 30.09.2019
997 Rain 10 1005 93 10000 8.2 70 21:18 30.09.2019
998 Rain 10 1005 87 10000 8.2 60 20:55 30.09.2019
999 -273 0 0 0 0 0 20:54 30.09.2019
1000 -273 0 0 0 0 0 20:54 30.09.2019
1001 Rain 10 1005 87 10000 7.7 60 20:36 30.09.2019
1002 Rain 11 1005 87 10000 7.7 60 20:18 30.09.2019
1003 Rain 11 1005 87 10000 7.7 60 20:18 30.09.2019
1004 Clouds 11 1005 81 10000 5.7 70 19:42 30.09.2019
1005 Clouds 11 1005 81 10000 5.7 70 19:22 30.09.2019
1006 Clouds 12 1005 81 10000 6.2 70 18:59 30.09.2019
1007 Rain 12 1005 82 10000 6.2 60 18:41 30.09.2019
1008 Rain 12 1005 82 10000 6.2 60 18:20 30.09.2019
1009 Rain 13 1005 76 10000 5.7 60 17:56 30.09.2019
1010 Rain 13 1006 76 10000 4.6 50 17:38 30.09.2019
1011 Rain 13 1006 76 10000 4.6 50 17:19 30.09.2019
1012 Clouds 14 1007 76 10000 3.6 70 16:42 30.09.2019
1013 Clouds 14 1007 76 10000 3.6 70 16:20 30.09.2019
1014 Clouds 14 1007 76 10000 3.6 70 16:20 30.09.2019
1015 Clouds 14 1007 76 10000 3.6 70 16:20 30.09.2019
1016 Clouds 14 1007 76 10000 3.1 70 15:59 30.09.2019
1017 Clouds 14 1008 72 10000 3.1 80 15:39 30.09.2019
1018 Clouds 14 1008 72 10000 3.1 80 15:39 30.09.2019
1019 Clouds 14 1008 72 10000 3.1 80 15:19 30.09.2019
1020 Clouds 14 1008 76 10000 3.1 80 14:58 30.09.2019
1021 Clouds 14 1008 72 10000 1.5 0 14:38 30.09.2019
1022 Clouds 14 1008 72 10000 1.5 0 14:19 30.09.2019
1023 Clouds 15 1008 72 10000 2.1 80 13:58 30.09.2019
1024 Clouds 14 1008 76 10000 2.1 60 13:40 30.09.2019
1025 Clouds 14 1008 76 10000 2.1 60 13:21 30.09.2019
1026 Clouds 13 1008 82 10000 1 0 12:44 30.09.2019
1027 Clouds 12 1008 82 10000 1 0 12:25 30.09.2019
1028 Clouds 12 1009 82 10000 0.5 0 11:59 30.09.2019
1029 Clouds 12 1009 82 10000 0.5 0 11:59 30.09.2019
1030 Clouds 12 1008 87 10000 1 0 11:40 30.09.2019
1031 Clouds 11 1008 87 10000 1 0 11:20 30.09.2019
1032 Clouds 11 1008 87 10000 0.5 0 10:56 30.09.2019
1033 Clouds 10 1008 100 10000 1 0 10:37 30.09.2019
1034 Clouds 9 1008 100 10000 1 0 10:18 30.09.2019
1035 Fog 8 1007 93 7000 1 0 09:40 30.09.2019
1036 Fog 8 1007 93 7000 1 0 09:40 30.09.2019
1037 Fog 7 1007 93 7000 1 0 09:21 30.09.2019
1038 Clear 7 1007 100 10000 2.6 260 08:51 30.09.2019
1039 Clear 7 1007 100 10000 2.6 260 08:33 30.09.2019
1040 Fog 8 1007 93 10000 2.1 220 07:47 30.09.2019
1041 Fog 8 1007 93 10000 2.1 220 07:47 30.09.2019
1042 Fog 8 1007 100 10000 1 0 07:29 30.09.2019
1043 Clear 8 1007 93 10000 1.5 0 06:59 30.09.2019
1044 Clear 8 1007 100 10000 2.6 260 06:41 30.09.2019
1045 Fog 8 1007 100 10000 2.6 240 05:56 30.09.2019
1046 Fog 8 1007 100 10000 2.6 240 05:56 30.09.2019
1047 Fog 8 1007 93 10000 2.1 210 05:38 30.09.2019
1048 Clouds 9 1006 100 10000 1.5 270 02:50 30.09.2019
1049 Clouds 10 1006 93 10000 1.5 280 01:50 30.09.2019
1050 Rain 11 1006 93 10000 1.5 270 00:57 30.09.2019
1051 Rain 11 1005 93 10000 2.1 240 00:37 30.09.2019
1052 Rain 11 1005 93 10000 2.1 240 00:18 30.09.2019
1053 Rain 11 1004 82 10000 1 0 23:39 29.09.2019
1054 Rain 11 1004 82 10000 1 0 23:20 29.09.2019
1055 Rain 12 1004 82 10000 0.5 0 22:44 29.09.2019
1056 Rain 12 1004 82 10000 1 0 22:25 29.09.2019
1057 Clouds 12 1004 87 10000 1 0 21:59 29.09.2019
1058 Rain 12 1003 87 10000 2.1 230 21:39 29.09.2019
1059 Rain 12 1003 76 10000 1.5 0 21:19 29.09.2019
1060 Rain 12 1003 76 10000 2.6 300 20:58 29.09.2019
1061 Rain 13 1002 76 10000 2.6 320 20:40 29.09.2019
1062 Rain 13 1002 76 10000 2.6 320 20:19 29.09.2019
1063 Rain 13 1002 82 10000 2.1 290 19:55 29.09.2019
1064 Rain 13 1001 72 10000 1.5 340 19:36 29.09.2019
1065 Rain 13 1001 72 10000 1.5 340 19:36 29.09.2019
1066 Rain 14 1001 72 10000 1.5 340 19:18 29.09.2019
1067 Rain 14 1001 67 10000 1.5 350 18:54 29.09.2019
1068 Clouds 14 1001 76 10000 1.5 300 18:36 29.09.2019
1069 Rain 14 1001 67 10000 1.5 10 18:18 29.09.2019
1070 Rain 14 1000 67 10000 2.1 360 17:54 29.09.2019
1071 Rain 14 1000 67 10000 2.1 360 17:54 29.09.2019
1072 Rain 15 1000 67 10000 3.1 20 17:36 29.09.2019
1073 Rain 15 1000 67 10000 3.1 20 17:18 29.09.2019
1074 Rain 15 1000 67 10000 2.1 20 16:41 29.09.2019
1075 Rain 15 1000 67 10000 2.1 20 16:20 29.09.2019
1076 Clouds 15 999 67 10000 3.1 20 15:58 29.09.2019
1077 Clouds 15 999 63 10000 3.6 360 15:37 29.09.2019
1078 Clouds 14 999 63 10000 3.6 360 15:19 29.09.2019
1079 Clouds 14 999 72 10000 2.6 360 14:58 29.09.2019
1080 Rain 14 999 72 10000 3.6 20 14:37 29.09.2019
1081 Rain 14 999 72 10000 3.6 20 14:19 29.09.2019
1082 Rain 14 998 67 10000 4.1 30 13:55 29.09.2019
1083 Rain 14 998 71 10000 6.2 30 13:36 29.09.2019
1084 Clouds 13 998 71 10000 6.2 30 13:18 29.09.2019
1085 Clouds 13 998 71 10000 5.1 30 12:55 29.09.2019
1086 Clouds 13 998 71 10000 5.1 30 12:55 29.09.2019
1087 Clouds 13 998 71 10000 5.1 30 12:55 29.09.2019
1088 Clouds 13 997 71 10000 4.6 40 12:37 29.09.2019
1089 Clouds 13 997 71 10000 4.6 40 12:19 29.09.2019
1090 Clouds 12 997 82 10000 3.6 30 11:41 29.09.2019
1091 Clouds 12 997 82 10000 3.6 30 11:19 29.09.2019
1092 Drizzle 12 997 87 10000 3.1 20 10:58 29.09.2019
1093 Drizzle 12 997 87 10000 2.1 20 10:38 29.09.2019
1094 Drizzle 12 997 87 10000 2.1 20 10:20 29.09.2019
1095 Rain 12 996 87 10000 2.6 30 09:56 29.09.2019
1096 Rain 12 996 87 10000 2.6 30 09:56 29.09.2019
1097 Clouds 12 996 87 10000 3.1 40 09:38 29.09.2019
1098 Clouds 11 996 87 10000 3.1 40 09:18 29.09.2019
1099 Clouds 11 996 87 10000 4.6 50 08:42 29.09.2019
1100 Clouds 11 996 87 10000 4.1 40 08:21 29.09.2019
1101 Clouds 11 996 87 10000 5.7 40 07:43 29.09.2019
1102 Clouds 11 996 87 10000 5.7 40 07:25 29.09.2019
1103 Rain 11 997 93 10000 3.1 90 06:49 29.09.2019
1104 Rain 11 997 93 10000 3.6 90 05:55 29.09.2019
1105 Rain 11 997 93 10000 3.6 90 05:55 29.09.2019
1106 Clouds 10 998 100 10000 1 0 04:42 29.09.2019
1107 Clouds 9 998 100 9000 2.1 50 04:23 29.09.2019
1108 Clouds 9 999 100 10000 2.1 60 02:55 29.09.2019
1109 Clouds 9 999 100 9000 2.1 70 02:19 29.09.2019
1110 Clouds 9 1000 93 10000 1.5 70 01:40 29.09.2019
1111 Clouds 9 1000 100 8000 2.1 60 00:55 29.09.2019
1112 Fog 9 1001 100 10000 1 60 00:36 29.09.2019
1113 Fog 9 1001 100 10000 1 60 00:18 29.09.2019
1114 Clouds 9 1001 93 10000 1.5 80 23:37 28.09.2019
1115 Clouds 10 1001 93 10000 0.5 70 23:18 28.09.2019
1116 Clouds 10 1002 93 10000 1 170 22:40 28.09.2019
1117 Clouds 10 1002 93 10000 1 170 22:21 28.09.2019
1118 Clouds 11 1002 93 10000 1 0 21:57 28.09.2019
1119 Clouds 11 1002 87 10000 1 0 21:39 28.09.2019
1120 Clear 11 1002 87 10000 1 0 21:21 28.09.2019
1121 Clear 12 1002 87 10000 1.5 210 20:57 28.09.2019
1122 Clear 12 1002 87 10000 1.5 210 20:57 28.09.2019
1123 Clear 12 1002 76 10000 2.1 270 20:38 28.09.2019
1124 Clear 13 1002 76 10000 2.1 270 20:18 28.09.2019
1125 Clear 13 1002 82 10000 3.1 230 19:56 28.09.2019
1126 Clear 14 1002 72 10000 4.1 240 19:37 28.09.2019
1127 Clear 13 1002 72 10000 4.1 240 19:37 28.09.2019
1128 Clear 14 1002 72 10000 4.1 240 19:19 28.09.2019
1129 Clouds 15 1002 72 10000 4.1 240 18:54 28.09.2019
1130 Clouds 15 1002 77 10000 4.6 230 18:36 28.09.2019
1131 Clouds 16 1002 77 10000 4.6 230 18:18 28.09.2019
1132 Clear 15 1002 72 10000 5.7 230 17:42 28.09.2019
1133 Clear 15 1002 72 10000 5.7 230 17:22 28.09.2019
1134 Clear 15 1002 72 10000 5.7 230 17:22 28.09.2019
1135 Clouds 15 1002 72 10000 5.1 240 16:57 28.09.2019
1136 Clouds 15 1002 72 10000 5.1 240 16:57 28.09.2019
1137 Rain 15 1002 72 10000 3.6 260 16:38 28.09.2019
1138 Rain 15 1002 72 10000 3.6 260 16:20 28.09.2019
1139 Clouds 16 1002 72 10000 4.1 250 15:40 28.09.2019
1140 Clouds 15 1002 72 10000 4.1 250 15:22 28.09.2019
1141 Clouds 15 1002 72 10000 4.1 260 14:55 28.09.2019
1142 Clouds 15 1001 76 10000 3.1 280 14:37 28.09.2019
1143 Clouds 15 1001 76 10000 3.1 280 14:37 28.09.2019
1144 Clouds 15 1001 76 10000 3.1 280 14:19 28.09.2019
1145 Clouds 14 1001 76 10000 3.6 300 13:44 28.09.2019
1146 Clouds 14 1001 76 10000 4.1 290 13:20 28.09.2019
1147 Clouds 13 1001 76 10000 3.6 280 12:58 28.09.2019
1148 Clouds 13 1001 82 10000 4.1 290 12:39 28.09.2019
1149 Clouds 13 1001 82 10000 4.1 290 12:18 28.09.2019
1150 Clear 12 1000 87 10000 2.1 250 11:41 28.09.2019
1151 Clear 12 1000 87 10000 2.1 250 11:21 28.09.2019
1152 Clouds 11 1000 93 10000 3.6 260 10:59 28.09.2019
1153 Fog 10 999 100 10000 3.1 240 10:39 28.09.2019
1154 Fog 10 999 100 10000 3.1 240 10:19 28.09.2019
1155 Fog 9 999 93 10000 1 0 09:41 28.09.2019
1156 Drizzle 9 998 100 10000 3.1 240 09:22 28.09.2019
1157 Fog 9 998 100 10000 2.1 220 08:48 28.09.2019
1158 Drizzle 9 997 93 10000 1.5 260 08:29 28.09.2019
1159 Drizzle 9 997 100 10000 1.5 260 07:59 28.09.2019
1160 Drizzle 9 997 93 10000 2.1 220 07:41 28.09.2019
1161 Drizzle 8 997 93 10000 2.1 220 07:19 28.09.2019
1162 Drizzle 8 997 100 10000 0.5 70 06:41 28.09.2019
1163 Drizzle 9 997 100 10000 0.5 70 06:21 28.09.2019
1164 Drizzle 9 997 100 10000 1 60 05:37 28.09.2019
1165 Drizzle 9 997 100 10000 1 60 05:18 28.09.2019
1166 Drizzle 9 997 93 10000 1 0 04:31 28.09.2019
1167 Clouds 9 997 93 10000 0.5 0 03:42 28.09.2019
1168 Drizzle 9 997 93 10000 0.5 0 02:59 28.09.2019
1169 Drizzle 9 997 93 10000 1.5 40 02:40 28.09.2019
1170 Clouds 9 997 93 10000 1.5 40 02:22 28.09.2019
1171 Clouds 9 997 93 10000 1 260 01:43 28.09.2019
1172 Clouds 10 997 93 10000 1 260 01:19 28.09.2019
1173 Clouds 9 997 93 10000 1.5 0 00:46 28.09.2019
1174 Clouds 9 997 93 10000 1.5 0 00:28 28.09.2019
1175 Clouds 10 997 93 10000 2.6 240 23:39 27.09.2019
1176 Clouds 10 997 93 10000 2.6 240 23:21 27.09.2019
1177 Clouds 10 996 93 10000 4.1 240 22:56 27.09.2019
1178 Clouds 10 996 93 10000 3.1 250 22:37 27.09.2019
1179 Clouds 10 996 93 10000 3.1 250 22:18 27.09.2019
1180 Clear 10 996 93 10000 3.6 250 21:41 27.09.2019
1181 Rain 10 996 93 10000 3.6 250 21:21 27.09.2019
1182 Rain 11 996 87 10000 3.1 240 20:59 27.09.2019
1183 Rain 11 996 87 10000 3.1 240 20:59 27.09.2019
1184 Clouds 11 995 87 10000 4.1 250 20:40 27.09.2019
1185 Clouds 11 995 87 10000 4.1 250 20:20 27.09.2019
1186 Clouds 12 995 82 10000 4.1 250 19:58 27.09.2019
1187 Rain 12 995 76 10000 4.6 260 19:39 27.09.2019
1188 Rain 12 995 76 10000 4.6 260 19:21 27.09.2019
1189 Rain 12 994 82 10000 3.1 290 18:43 27.09.2019
1190 Rain 12 994 82 10000 3.1 290 18:25 27.09.2019
1191 Rain 12 994 77 10000 2.1 280 17:57 27.09.2019
1192 Rain 12 994 82 10000 2.1 280 17:39 27.09.2019
1193 Rain 12 994 82 10000 2.1 280 17:20 27.09.2019
1194 Rain 12 994 76 10000 2.1 260 16:57 27.09.2019
1195 Rain 12 994 87 10000 1.5 0 16:39 27.09.2019
1196 Rain 12 994 87 10000 1.5 0 16:18 27.09.2019
1197 Rain 12 994 82 10000 1.5 0 15:47 27.09.2019
1198 Rain 12 993 82 10000 1 0 15:21 27.09.2019
1199 Rain 12 993 82 10000 1 0 14:59 27.09.2019
1200 Rain 12 993 82 10000 1 0 14:41 27.09.2019
1201 Rain 12 993 87 10000 1.5 0 14:22 27.09.2019
1202 Rain 12 993 93 10000 1.5 0 13:58 27.09.2019
1203 Rain 12 993 87 10000 2.1 90 13:40 27.09.2019
1204 Rain 12 993 87 10000 2.1 90 13:21 27.09.2019
1205 Rain 12 993 87 10000 2.1 0 12:56 27.09.2019
1206 Rain 12 993 93 10000 2.1 70 12:37 27.09.2019
1207 Rain 12 993 93 10000 2.1 70 12:18 27.09.2019
1208 Rain 12 993 87 10000 1.5 0 11:39 27.09.2019
1209 Rain 12 993 87 10000 1.5 0 11:20 27.09.2019
1210 Rain 11 993 87 10000 2.1 140 10:54 27.09.2019
1211 Rain 11 993 93 10000 1 0 10:36 27.09.2019
1212 Rain 11 993 93 10000 1 0 10:18 27.09.2019
1213 Rain 10 994 93 10000 1.5 0 09:41 27.09.2019
1214 Rain 10 994 93 10000 2.6 160 09:20 27.09.2019
1215 Rain 10 994 93 10000 3.6 200 08:42 27.09.2019
1216 Rain 10 994 93 10000 3.6 200 08:22 27.09.2019
1217 Rain 10 994 93 10000 4.1 170 07:58 27.09.2019
1218 Clouds 10 993 93 10000 1.5 0 07:39 27.09.2019
1219 Clouds 10 993 93 10000 1.5 0 07:20 27.09.2019
1220 Clouds 11 993 93 10000 1.5 0 06:40 27.09.2019
1221 Rain 11 993 93 10000 1.5 0 06:22 27.09.2019
1222 Rain 11 993 93 10000 0.5 0 05:49 27.09.2019
1223 Rain 11 993 93 10000 0.5 0 05:30 27.09.2019
1224 Rain 11 993 93 10000 2.6 230 03:52 27.09.2019
1225 Rain 12 993 87 10000 4.1 190 01:58 27.09.2019
1226 Rain 12 993 87 10000 3.1 150 01:34 27.09.2019
1227 Clouds 12 993 87 10000 3.1 160 00:44 27.09.2019
1228 Rain 12 993 87 10000 3.1 170 23:59 26.09.2019
1229 Drizzle 12 993 87 10000 3.1 170 23:41 26.09.2019
1230 Drizzle 12 993 87 10000 3.1 170 23:22 26.09.2019
1231 Rain 13 992 87 10000 3.6 160 22:59 26.09.2019
1232 Rain 13 992 87 10000 3.1 170 22:40 26.09.2019
1233 Rain 13 992 87 10000 3.1 170 22:19 26.09.2019
1234 Rain 13 992 87 10000 3.6 180 21:59 26.09.2019
1235 Rain 13 992 87 10000 4.6 180 21:38 26.09.2019
1236 Rain 13 992 87 10000 4.6 180 21:20 26.09.2019
1237 Rain 13 992 93 10000 4.1 210 20:59 26.09.2019
1238 Rain 13 992 93 10000 4.1 210 20:59 26.09.2019
1239 Rain 13 992 93 10000 4.1 210 20:59 26.09.2019
1240 Rain 13 992 93 10000 5.1 190 20:40 26.09.2019
1241 Rain 13 992 93 10000 5.1 190 20:21 26.09.2019
1242 Rain 13 992 93 10000 4.1 200 19:59 26.09.2019
1243 Rain 13 993 93 10000 4.6 200 19:40 26.09.2019
1244 Rain 14 993 93 10000 4.6 200 19:18 26.09.2019
1245 Rain 14 992 87 10000 5.1 220 18:56 26.09.2019
1246 Rain 14 992 82 10000 9.3 210 18:37 26.09.2019
1247 Rain 14 992 82 10000 9.3 210 18:18 26.09.2019
1248 Rain 15 992 77 10000 7.2 210 17:38 26.09.2019
1249 Rain 15 992 77 10000 7.2 210 17:38 26.09.2019
1250 Rain 15 992 77 10000 7.2 210 17:19 26.09.2019
1251 Rain 15 992 77 10000 7.7 210 16:57 26.09.2019
1252 Rain 15 992 77 10000 7.7 210 16:39 26.09.2019
1253 Rain 15 992 77 10000 7.7 210 16:20 26.09.2019
1254 Rain 15 992 87 10000 8.2 220 15:56 26.09.2019
1255 Rain 15 992 82 10000 7.2 210 15:36 26.09.2019
1256 Rain 15 992 82 10000 7.2 210 15:18 26.09.2019
1257 Rain 14 992 87 10000 6.2 210 14:41 26.09.2019
1258 Rain 14 992 87 10000 6.2 210 14:41 26.09.2019
1259 Rain 14 992 87 10000 6.2 210 14:22 26.09.2019
1260 Rain 15 992 87 9000 7.2 210 13:58 26.09.2019
1261 -273 0 0 0 0 0 13:39 26.09.2019
1262 Rain 15 992 82 10000 8.2 210 13:19 26.09.2019
1263 Rain 14 992 87 9000 7.2 210 12:55 26.09.2019
1264 Rain 14 992 82 10000 7.2 210 12:36 26.09.2019
1265 Rain 14 992 82 10000 7.2 210 12:18 26.09.2019
1266 Clouds 14 992 87 10000 4.1 220 11:42 26.09.2019
1267 Clouds 14 992 87 10000 4.1 220 11:20 26.09.2019
1268 Clouds 14 992 87 10000 4.1 220 10:43 26.09.2019
1269 Rain 13 992 87 10000 5.1 210 10:25 26.09.2019
1270 Rain 13 992 87 10000 5.1 210 10:25 26.09.2019
1271 Rain 13 992 87 10000 5.1 210 10:25 26.09.2019
1272 Rain 13 992 93 10000 5.7 220 09:59 26.09.2019
1273 Rain 13 992 93 10000 5.7 220 09:59 26.09.2019
1274 Rain 13 992 93 10000 5.7 220 09:59 26.09.2019
1275 Rain 13 992 93 10000 5.7 220 09:41 26.09.2019
1276 Rain 13 992 87 10000 3.6 210 09:20 26.09.2019
1277 Rain 13 991 87 10000 5.1 210 08:53 26.09.2019
1278 Rain 13 991 87 10000 4.6 240 08:32 26.09.2019
1279 Clouds 13 991 87 10000 4.1 220 07:57 26.09.2019
1280 Clouds 13 991 87 10000 5.7 220 07:38 26.09.2019
1281 Rain 13 991 93 10000 5.1 220 07:18 26.09.2019
1282 Rain 14 991 87 10000 6.2 210 06:42 26.09.2019
1283 Rain 14 991 87 10000 6.2 210 06:23 26.09.2019
1284 Drizzle 14 991 93 4600 5.1 110 05:36 26.09.2019
1285 Rain 14 991 93 6000 4.6 90 04:56 26.09.2019
1286 Rain 14 994 100 10000 3.6 90 02:34 26.09.2019
1287 Rain 14 994 93 5000 3.6 80 01:49 26.09.2019
1288 Rain 14 995 87 10000 3.1 100 01:26 26.09.2019
1289 Rain 14 995 87 10000 4.1 110 00:46 26.09.2019
1290 Rain 14 995 87 10000 4.1 110 00:28 26.09.2019
1291 Clouds 14 995 87 10000 3.1 110 23:44 25.09.2019
1292 Rain 14 996 87 10000 2.1 120 23:26 25.09.2019
1293 Rain 14 996 87 10000 2.1 120 23:26 25.09.2019
1294 Rain 14 996 87 10000 2.6 120 22:56 25.09.2019
1295 Clouds 14 996 87 10000 2.6 120 22:37 25.09.2019
1296 Clouds 14 996 87 10000 2.6 120 22:19 25.09.2019
1297 Clouds 14 996 87 10000 3.1 120 21:56 25.09.2019
1298 Clouds 14 996 87 10000 2.1 140 21:37 25.09.2019
1299 Clouds 15 996 87 10000 2.1 140 21:18 25.09.2019
1300 Clouds 15 996 87 10000 2.1 130 20:56 25.09.2019
1301 Clouds 15 996 87 10000 2.1 150 20:37 25.09.2019
1302 Clouds 15 996 87 10000 2.1 150 20:19 25.09.2019
1303 Rain 16 997 87 10000 2.6 210 19:40 25.09.2019
1304 Rain 16 997 87 10000 2.6 210 19:40 25.09.2019
1305 Rain 16 997 87 10000 2.6 210 19:40 25.09.2019
1306 Rain 16 997 87 10000 2.6 210 19:21 25.09.2019
1307 Rain 15 997 87 10000 4.1 190 18:57 25.09.2019
1308 Rain 16 997 87 10000 4.1 200 18:38 25.09.2019
1309 Rain 16 997 87 10000 4.1 200 18:20 25.09.2019
1310 Rain 16 997 82 10000 4.6 190 17:40 25.09.2019
1311 Rain 16 997 82 10000 4.6 190 17:22 25.09.2019
1312 Rain 16 997 82 10000 2.1 140 16:59 25.09.2019
1313 Drizzle 16 997 82 10000 2.1 130 16:41 25.09.2019
1314 Drizzle 16 997 82 10000 2.1 130 16:23 25.09.2019
1315 Drizzle 16 997 82 10000 2.1 140 15:56 25.09.2019
1316 Drizzle 16 997 82 10000 2.1 140 15:56 25.09.2019
1317 Drizzle 16 997 100 10000 4.1 220 15:38 25.09.2019
1318 Drizzle 16 997 77 10000 2.1 140 15:19 25.09.2019
1319 Drizzle 16 997 82 10000 2.1 80 14:42 25.09.2019
1320 Drizzle 16 997 82 10000 2.1 80 14:22 25.09.2019
1321 Drizzle 16 997 82 10000 2.1 60 13:58 25.09.2019
1322 Clouds 16 997 87 10000 1.5 20 13:39 25.09.2019
1323 Clouds 15 997 87 10000 1.5 20 13:20 25.09.2019
1324 -273 0 0 0 0 0 12:54 25.09.2019
1325 Clouds 15 996 93 10000 1.5 0 12:36 25.09.2019
1326 Clouds 15 996 93 10000 1.5 0 12:18 25.09.2019
1327 Clouds 15 996 93 10000 3.1 90 11:40 25.09.2019
1328 Clouds 15 996 93 10000 3.1 90 11:20 25.09.2019
1329 Drizzle 14 996 93 10000 0.5 110 10:47 25.09.2019
1330 Fog 14 995 93 9000 0.5 0 10:27 25.09.2019
1331 Fog 14 995 100 8000 0.5 0 09:59 25.09.2019
1332 Fog 14 995 100 8000 0.5 0 09:59 25.09.2019
1333 Fog 14 995 100 8000 0.5 0 09:59 25.09.2019
1334 Fog 14 995 100 7000 0.5 260 09:40 25.09.2019
1335 Fog 14 995 100 7000 0.5 260 09:22 25.09.2019
1336 Mist 14 995 100 5000 0.5 0 08:56 25.09.2019
1337 Mist 14 995 100 5000 0.5 0 08:56 25.09.2019
1338 Mist 14 995 100 4700 0.5 300 08:37 25.09.2019
1339 Mist 14 995 100 4700 0.5 300 08:19 25.09.2019
1340 Mist 14 995 100 5000 0.5 0 07:40 25.09.2019
1341 Mist 14 995 100 5000 0.5 0 07:22 25.09.2019
1342 Drizzle 14 995 100 10000 0.5 220 06:52 25.09.2019
1343 Drizzle 14 995 100 2200 1 130 06:32 25.09.2019
1344 Rain 14 995 100 7000 1 40 05:39 25.09.2019
1345 Drizzle 14 995 100 2300 1 0 04:57 25.09.2019
1346 Drizzle 14 995 100 10000 3.1 50 02:32 25.09.2019
1347 Drizzle 14 995 100 1800 0.5 0 01:19 25.09.2019
1348 Rain 14 995 93 10000 1 290 00:37 25.09.2019
1349 Rain 14 995 93 10000 1 290 00:18 25.09.2019
1350 Drizzle 14 995 100 3400 0.5 0 23:41 24.09.2019
1351 Drizzle 14 995 100 3400 0.5 0 23:21 24.09.2019
1352 Rain 14 995 100 4000 0.5 0 22:56 24.09.2019
1353 Rain 14 995 100 7000 1 0 22:36 24.09.2019
1354 Rain 15 995 100 7000 1 0 22:18 24.09.2019
1355 Rain 15 995 93 7000 1 70 21:54 24.09.2019
1356 Rain 15 995 100 8000 2.1 60 21:36 24.09.2019
1357 Rain 15 995 100 8000 2.1 60 21:18 24.09.2019
1358 Rain 15 995 100 8000 4.1 70 20:54 24.09.2019
1359 Drizzle 15 996 93 5000 4.1 60 20:36 24.09.2019
1360 Drizzle 15 996 93 5000 4.1 60 20:18 24.09.2019
1361 Rain 15 996 87 10000 4.6 60 19:41 24.09.2019
1362 Fog 15 996 82 10000 5.7 60 19:19 24.09.2019
1363 Fog 16 996 82 10000 5.7 60 18:55 24.09.2019
1364 Fog 16 996 82 10000 5.7 60 18:55 24.09.2019
1365 Fog 16 996 82 10000 5.7 60 18:55 24.09.2019
1366 Mist 16 996 88 10000 6.2 60 18:37 24.09.2019
1367 Mist 16 996 88 10000 6.2 60 18:19 24.09.2019
1368 Rain 16 996 82 10000 5.1 60 17:55 24.09.2019
1369 Rain 17 996 82 10000 5.1 70 17:37 24.09.2019
1370 Rain 17 996 82 10000 5.1 70 17:18 24.09.2019
1371 Fog 17 996 82 10000 5.7 60 16:41 24.09.2019
1372 Fog 17 996 82 10000 5.7 60 16:20 24.09.2019
1373 Rain 18 996 88 10000 5.1 50 15:57 24.09.2019
1374 Rain 18 996 88 10000 4.6 50 15:37 24.09.2019
1375 Rain 18 996 88 10000 4.6 50 15:19 24.09.2019
1376 Rain 18 997 82 10000 3.6 50 14:37 24.09.2019
1377 Rain 18 997 82 10000 3.6 50 14:18 24.09.2019
1378 Rain 18 997 82 10000 3.6 50 14:18 24.09.2019
1379 Clouds 18 997 88 10000 3.6 70 13:41 24.09.2019
1380 Clouds 18 997 88 10000 3.6 70 13:21 24.09.2019
1381 Clouds 18 997 88 10000 3.6 70 13:21 24.09.2019
1382 Rain 17 998 93 8000 3.6 90 12:42 24.09.2019
1383 Rain 17 998 93 8000 3.6 90 12:21 24.09.2019
1384 Drizzle 16 998 93 10000 2.6 70 11:57 24.09.2019
1385 Clouds 16 998 93 10000 2.6 80 11:39 24.09.2019
1386 Clouds 16 998 93 10000 2.6 80 11:21 24.09.2019
1387 Drizzle 15 998 93 10000 2.6 70 10:40 24.09.2019
1388 Drizzle 15 998 93 10000 2.6 70 10:21 24.09.2019
1389 Drizzle 14 998 100 10000 3.1 60 09:57 24.09.2019
1390 Fog 14 998 100 10000 2.1 50 09:39 24.09.2019
1391 Fog 14 998 100 10000 2.1 50 09:19 24.09.2019
1392 Rain 14 998 93 10000 2.6 90 08:41 24.09.2019
1393 Rain 14 998 93 10000 2.6 90 08:23 24.09.2019
1394 Rain 14 997 100 10000 2.6 90 07:59 24.09.2019
1395 Drizzle 14 997 100 5000 2.1 70 07:41 24.09.2019
1396 Drizzle 14 997 100 5000 2.1 70 07:22 24.09.2019
1397 Rain 14 998 93 10000 3.1 60 06:46 24.09.2019
1398 Rain 14 998 100 10000 2.6 80 06:26 24.09.2019
1399 Rain 14 998 100 10000 3.1 50 05:25 24.09.2019
1400 Rain 13 998 93 10000 4.6 70 03:47 24.09.2019
1401 Rain 13 999 93 10000 4.6 70 03:26 24.09.2019
1402 Rain 13 999 93 8000 5.7 70 02:45 24.09.2019
1403 Rain 13 1000 93 6000 5.1 80 01:42 24.09.2019
1404 Rain 13 1000 87 9000 5.7 60 00:42 24.09.2019
1405 Rain 13 1000 87 9000 5.7 60 00:23 24.09.2019
1406 Rain 14 1001 76 10000 5.7 70 23:43 23.09.2019
1407 Rain 14 1001 76 10000 5.7 70 23:23 23.09.2019
1408 Clouds 14 1002 76 10000 4.6 60 22:41 23.09.2019
1409 Clouds 14 1002 76 10000 4.6 60 22:41 23.09.2019
1410 Clouds 14 1002 76 10000 4.6 60 22:22 23.09.2019
1411 Rain 14 1001 87 10000 3.6 90 21:59 23.09.2019
1412 Rain 14 1002 72 10000 4.6 70 21:41 23.09.2019
1413 Rain 14 1002 72 10000 4.6 70 21:41 23.09.2019
1414 Rain 14 1002 76 10000 3.6 80 21:22 23.09.2019
1415 Rain 14 1003 72 10000 3.1 110 20:59 23.09.2019
1416 Rain 14 1003 72 10000 4.6 130 20:40 23.09.2019
1417 Rain 15 1003 72 10000 4.6 130 20:19 23.09.2019
1418 Clouds 15 1003 67 10000 4.6 130 19:55 23.09.2019
1419 Clouds 15 1003 67 10000 4.6 130 19:55 23.09.2019
1420 Clouds 16 1003 67 10000 4.1 130 19:36 23.09.2019
1421 Clouds 16 1003 67 10000 4.1 130 19:18 23.09.2019
1422 Clouds 16 1003 63 10000 5.1 140 18:42 23.09.2019
1423 Clouds 17 1003 63 10000 5.1 140 18:19 23.09.2019
1424 Clouds 17 1003 63 10000 5.1 140 18:19 23.09.2019
1425 Clouds 17 1004 63 10000 5.1 160 17:57 23.09.2019
1426 Clouds 17 1004 63 10000 5.7 180 17:39 23.09.2019
1427 Clouds 17 1004 63 10000 5.7 180 17:39 23.09.2019
1428 Clouds 17 1004 63 10000 5.7 180 17:39 23.09.2019
1429 Clouds 17 1004 63 10000 5.7 180 17:20 23.09.2019
1430 Clouds 17 1004 63 10000 5.7 180 16:57 23.09.2019
1431 Clouds 17 1004 63 10000 5.1 180 16:36 23.09.2019
1432 Clouds 17 1004 63 10000 5.1 180 16:18 23.09.2019
1433 Clouds 17 1004 63 10000 5.1 180 15:56 23.09.2019
1434 Clouds 17 1004 67 10000 4.6 170 15:38 23.09.2019
1435 Clouds 17 1004 67 10000 4.6 170 15:38 23.09.2019
1436 Clouds 17 1004 67 10000 4.6 170 15:18 23.09.2019
1437 Clouds 17 1004 67 10000 4.6 170 15:18 23.09.2019
1438 Clouds 16 1004 77 10000 5.1 190 14:40 23.09.2019
1439 Clouds 16 1004 77 10000 5.1 190 14:20 23.09.2019
1440 Clouds 16 1004 82 10000 6.7 180 13:58 23.09.2019
1441 Clouds 16 1004 82 10000 4.1 180 13:38 23.09.2019
1442 Clouds 15 1004 82 10000 4.1 180 13:18 23.09.2019
1443 Clouds 15 1004 82 10000 4.1 180 13:18 23.09.2019
1444 Clouds 15 1004 82 10000 4.1 180 13:18 23.09.2019
1445 Clouds 15 1004 82 10000 5.7 160 12:46 23.09.2019
1446 Clouds 15 1004 82 10000 5.7 160 12:23 23.09.2019
1447 Clouds 15 1004 82 10000 4.1 160 11:58 23.09.2019
1448 Clouds 15 1004 82 10000 3.1 130 11:40 23.09.2019
1449 Clouds 15 1004 82 10000 3.1 130 11:22 23.09.2019
1450 Clouds 14 1004 87 10000 2.6 90 10:49 23.09.2019
1451 Fog 14 1003 93 10000 2.1 80 10:22 23.09.2019
1452 Clouds 14 1003 100 10000 2.1 60 09:58 23.09.2019
1453 Clouds 13 1003 100 10000 2.1 60 09:38 23.09.2019
1454 Clouds 13 1003 100 10000 2.1 60 09:19 23.09.2019
1455 Fog 13 1003 93 200 1 40 08:45 23.09.2019
1456 Fog 13 1003 93 200 1 40 08:26 23.09.2019
1457 Mist 13 1002 100 3700 1 0 07:56 23.09.2019
1458 Mist 13 1002 100 3900 1.5 90 07:28 23.09.2019
1459 Mist 14 1002 93 2900 2.1 50 06:31 23.09.2019
1460 Rain 14 1002 100 2500 2.1 40 05:48 23.09.2019
1461 Mist 14 1002 100 2500 2.1 40 05:20 23.09.2019
1462 Mist 14 1002 100 2300 2.1 50 04:54 23.09.2019
1463 Mist 14 1002 100 2100 1.5 40 02:37 23.09.2019
1464 Drizzle 14 1002 93 3700 2.1 70 00:43 23.09.2019
1465 Drizzle 14 1002 93 3700 2.1 70 00:22 23.09.2019
1466 Drizzle 14 1002 93 4000 1.5 0 23:51 22.09.2019
1467 Drizzle 14 1002 93 5000 2.1 50 23:32 22.09.2019
1468 Drizzle 14 1002 93 4300 1.5 60 22:57 22.09.2019
1469 Rain 14 1002 100 4700 1.5 0 22:39 22.09.2019
1470 Rain 14 1002 100 4700 1.5 0 22:21 22.09.2019
1471 Drizzle 14 1001 100 7000 2.6 90 21:43 22.09.2019
1472 Drizzle 15 1001 100 7000 2.6 90 21:22 22.09.2019
1473 Rain 15 1001 93 10000 3.6 90 20:55 22.09.2019
1474 Drizzle 15 1001 93 10000 3.6 90 20:36 22.09.2019
1475 Rain 15 1001 93 10000 3.6 90 20:18 22.09.2019
1476 Drizzle 15 1000 93 10000 3.6 80 19:41 22.09.2019
1477 Drizzle 15 1000 93 10000 3.6 80 19:41 22.09.2019
1478 Drizzle 15 1000 93 10000 3.6 80 19:23 22.09.2019
1479 Drizzle 15 1000 93 10000 4.6 70 18:59 22.09.2019
1480 Drizzle 16 1000 88 10000 4.1 70 18:39 22.09.2019
1481 Drizzle 16 1000 88 10000 4.1 70 18:39 22.09.2019
1482 Drizzle 16 1000 88 10000 4.1 70 18:19 22.09.2019
1483 Drizzle 16 1000 82 10000 5.7 70 17:57 22.09.2019
1484 Clouds 16 1000 82 10000 5.7 70 17:39 22.09.2019
1485 Clouds 16 1000 82 10000 5.7 70 17:18 22.09.2019
1486 Drizzle 15 1001 88 10000 5.7 80 16:44 22.09.2019
1487 Drizzle 15 1001 88 10000 5.7 80 16:25 22.09.2019
1488 Drizzle 15 1001 87 10000 2.6 90 15:47 22.09.2019
1489 Rain 15 1002 93 10000 4.6 70 15:29 22.09.2019
1490 Rain 15 1002 87 10000 4.6 90 14:59 22.09.2019
1491 Rain 15 1002 87 10000 4.6 90 14:59 22.09.2019
1492 Rain 14 1002 93 10000 3.1 90 14:41 22.09.2019
1493 Rain 14 1002 93 10000 3.1 90 14:22 22.09.2019
1494 Rain 14 1002 93 7000 5.7 60 13:55 22.09.2019
1495 Rain 14 1002 93 8000 5.1 70 13:36 22.09.2019
1496 Rain 14 1002 93 8000 5.1 70 13:18 22.09.2019
1497 Rain 14 1003 93 4900 5.1 60 12:42 22.09.2019
1498 Rain 14 1003 93 4900 5.1 60 12:22 22.09.2019
1499 Rain 13 1003 93 3700 4.1 60 11:56 22.09.2019
1500 Rain 13 1003 93 9000 4.1 100 11:38 22.09.2019
1501 Rain 13 1003 93 9000 4.1 100 11:19 22.09.2019
1502 Rain 13 1003 93 10000 5.1 80 10:44 22.09.2019
1503 Drizzle 13 1003 93 10000 5.1 80 10:20 22.09.2019
1504 Mist 12 1003 93 10000 4.1 80 09:57 22.09.2019
1505 Mist 12 1003 87 10000 5.1 90 09:37 22.09.2019
1506 Mist 12 1003 87 10000 5.1 90 09:19 22.09.2019
1507 Clouds 12 1003 87 10000 4.1 80 08:43 22.09.2019
1508 Clouds 12 1003 87 10000 4.1 80 08:23 22.09.2019
1509 Rain 12 1003 87 10000 3.1 90 07:52 22.09.2019
1510 Rain 12 1003 87 10000 3.1 90 07:52 22.09.2019
1511 Rain 12 1004 87 10000 3.1 70 07:33 22.09.2019
1512 Rain 12 1004 87 10000 3.1 70 06:59 22.09.2019
1513 Mist 12 1004 87 10000 3.1 80 06:38 22.09.2019
1514 Clouds 12 1005 87 10000 3.1 80 05:19 22.09.2019
1515 Clouds 12 1006 82 10000 3.6 90 02:45 22.09.2019
1516 Clouds 12 1006 82 10000 3.6 90 02:25 22.09.2019
1517 Clouds 12 1006 82 10000 4.1 80 01:45 22.09.2019
1518 Clouds 12 1007 82 10000 5.1 80 00:54 22.09.2019
1519 Clouds 13 1007 77 10000 5.1 80 00:32 22.09.2019
1520 Clear 14 1007 82 10000 6.2 80 23:54 21.09.2019
1521 Clear 14 1007 82 10000 4.6 70 23:36 21.09.2019
1522 Clear 14 1007 77 10000 5.1 70 22:47 21.09.2019
1523 Clear 15 1007 77 10000 5.7 80 22:26 21.09.2019
1524 Clear 15 1007 72 10000 7.2 80 21:59 21.09.2019
1525 Clear 15 1007 72 10000 7.2 80 21:59 21.09.2019
1526 Clear 16 1007 72 10000 6.2 80 21:41 21.09.2019
1527 Clear 16 1007 72 10000 6.2 80 21:19 21.09.2019
1528 Clear 17 1007 68 10000 6.2 70 20:56 21.09.2019
1529 Clear 18 1007 63 10000 5.7 70 20:36 21.09.2019
1530 Clear 18 1007 63 10000 5.7 70 20:18 21.09.2019
1531 Clear 18 1007 63 10000 5.7 70 20:18 21.09.2019
1532 Clear 19 1007 60 10000 6.7 70 19:43 21.09.2019
1533 Clear 19 1007 60 10000 6.7 70 19:19 21.09.2019
1534 Clear 20 1008 60 10000 5.1 60 18:40 21.09.2019
1535 Clear 21 1008 60 10000 5.1 60 18:21 21.09.2019
1536 Clear 21 1008 49 10000 4.1 70 17:43 21.09.2019
1537 Clear 21 1008 49 10000 4.1 70 17:23 21.09.2019
1538 Clear 21 1008 53 10000 6.2 70 16:57 21.09.2019
1539 Clear 21 1009 60 10000 6.2 40 16:37 21.09.2019
1540 Clear 21 1009 60 10000 6.2 40 16:19 21.09.2019
1541 Clear 22 1009 53 10000 4.1 60 15:43 21.09.2019
1542 Clear 20 1010 56 10000 6.2 80 15:22 21.09.2019
1543 Clear 20 1010 60 10000 6.2 50 14:48 21.09.2019
1544 Clear 19 1011 59 10000 6.7 60 14:29 21.09.2019
1545 Clear 20 1011 59 10000 5.7 70 13:50 21.09.2019
1546 Clear 20 1011 59 10000 5.1 70 13:29 21.09.2019
1547 Clear 19 1012 59 10000 5.7 70 12:59 21.09.2019
1548 Clear 18 1012 72 10000 5.7 40 12:41 21.09.2019
1549 Clouds 16 1012 72 10000 5.7 40 12:21 21.09.2019
1550 Clouds 16 1013 72 10000 5.7 70 11:58 21.09.2019
1551 Clouds 15 1013 72 10000 4.1 60 11:39 21.09.2019
1552 Clouds 15 1013 72 10000 4.1 60 11:19 21.09.2019
1553 Clouds 13 1014 82 10000 3.6 70 10:41 21.09.2019
1554 Clouds 13 1014 82 10000 3.6 70 10:22 21.09.2019
1555 Clouds 11 1014 87 10000 3.6 70 09:57 21.09.2019
1556 Clouds 11 1014 87 10000 3.1 70 09:38 21.09.2019
1557 Clear 10 1014 87 10000 3.1 70 09:19 21.09.2019
1558 Fog 10 1014 93 10000 5.1 60 08:50 21.09.2019
1559 Clear 10 1014 100 6000 1.5 0 08:22 21.09.2019
1560 Clear 9 1014 100 9000 1.5 0 07:40 21.09.2019
1561 Clear 10 1014 100 9000 1.5 0 07:20 21.09.2019
1562 Mist 9 1015 100 1400 1 0 06:36 21.09.2019
1563 Fog 10 1015 93 10000 1.5 240 05:51 21.09.2019
1564 Clear 11 1016 87 10000 4.6 90 04:40 21.09.2019
1565 Clear 11 1017 93 10000 2.6 70 03:39 21.09.2019
1566 Clear 11 1017 93 10000 1.5 0 02:25 21.09.2019
1567 Clear 12 1018 82 10000 3.1 90 01:49 21.09.2019
1568 Clear 12 1018 82 10000 3.1 90 01:26 21.09.2019
1569 Clear 12 1018 82 10000 3.1 70 00:26 21.09.2019
1570 Clear 13 1018 71 10000 2.1 80 23:57 20.09.2019
1571 Clear 13 1018 71 10000 3.6 80 23:30 20.09.2019
1572 Clear 13 1018 71 10000 3.6 80 23:30 20.09.2019
1573 Clear 14 1018 67 10000 3.1 80 22:56 20.09.2019
1574 Clear 14 1019 72 10000 3.6 60 22:37 20.09.2019
1575 Clear 15 1019 72 10000 4.1 70 22:19 20.09.2019
1576 Clear 14 1019 72 10000 4.1 70 21:55 20.09.2019
1577 Clear 15 1019 72 10000 4.1 60 21:36 20.09.2019
1578 Clear 15 1019 72 10000 4.1 60 21:18 20.09.2019
1579 Clear 17 1020 56 10000 1.5 0 20:41 20.09.2019
1580 Clear 17 1020 56 10000 1.5 0 20:21 20.09.2019
1581 Clear 17 1020 56 10000 3.6 120 19:57 20.09.2019
1582 Clear 18 1020 56 10000 4.6 100 19:38 20.09.2019
1583 Clear 19 1020 56 10000 3.6 140 19:19 20.09.2019
1584 Clear 19 1021 56 10000 3.6 120 18:39 20.09.2019
1585 Clear 20 1021 56 10000 3.6 120 18:20 20.09.2019
1586 Clear 21 1021 56 10000 3.1 140 17:57 20.09.2019
1587 Clear 21 1021 56 10000 4.1 120 17:39 20.09.2019
1588 Clear 21 1021 56 10000 4.1 120 17:20 20.09.2019
1589 Clear 21 1023 60 10000 2.6 40 16:41 20.09.2019
1590 Clear 21 1023 60 10000 2.6 40 16:19 20.09.2019
1591 Clear 21 1023 64 10000 2.6 80 15:43 20.09.2019
1592 Clouds 20 1024 63 10000 2.1 80 15:23 20.09.2019
1593 Clouds 20 1024 68 10000 2.1 70 14:58 20.09.2019
1594 Clouds 20 1024 68 10000 2.1 70 14:38 20.09.2019
1595 Clear 19 1025 64 10000 3.1 140 14:18 20.09.2019
1596 Clear 19 1025 64 10000 3.1 140 14:18 20.09.2019
1597 Clear 20 1025 72 10000 1.5 0 13:47 20.09.2019
1598 Clear 18 1025 72 10000 1.5 0 13:27 20.09.2019
1599 Fog 17 1026 100 350 0.5 0 12:56 20.09.2019
1600 Fog 16 1026 100 300 0.5 0 12:36 20.09.2019
1601 Fog 15 1026 100 300 0.5 0 12:18 20.09.2019
1602 Fog 15 1026 100 300 0.5 0 12:18 20.09.2019
1603 Fog 15 1026 100 300 0.5 0 12:18 20.09.2019
1604 Fog 13 1026 93 200 1 0 11:44 20.09.2019
1605 Fog 13 1026 93 200 1 0 11:19 20.09.2019
1606 Fog 11 1026 100 200 1 0 10:43 20.09.2019
1607 Fog 12 1026 100 200 1 0 10:43 20.09.2019
1608 Fog 11 1026 100 200 1 0 10:43 20.09.2019
1609 Fog 11 1026 100 200 1 0 10:23 20.09.2019
1610 Fog 9 1026 100 100 1.5 240 09:39 20.09.2019
1611 Fog 8 1026 100 100 1.5 240 09:19 20.09.2019
1612 Fog 7 1026 100 100 0.5 0 08:59 20.09.2019
1613 Fog 7 1026 100 100 0.5 0 08:59 20.09.2019
1614 Fog 7 1026 100 100 0.5 0 08:59 20.09.2019
1615 Fog 8 1026 100 100 1 360 08:40 20.09.2019
1616 Fog 7 1026 100 100 1 360 08:21 20.09.2019
1617 Fog 7 1027 100 200 0.5 0 07:43 20.09.2019
1618 Fog 7 1027 100 200 0.5 0 07:24 20.09.2019
1619 Drizzle 7 1027 100 50 1 240 06:44 20.09.2019
1620 Drizzle 8 1027 100 50 1 240 06:19 20.09.2019
1621 Fog 8 1028 100 100 0.5 0 05:22 20.09.2019
1622 Clouds 9 1028 100 7000 1.5 220 03:30 20.09.2019
1623 Clouds 9 1028 100 7000 1.5 220 03:30 20.09.2019
1624 Clouds 9 1028 100 10000 1.5 0 02:44 20.09.2019
1625 Clouds 10 1029 93 6000 1 0 01:44 20.09.2019
1626 Clouds 10 1029 93 6000 1 0 01:43 20.09.2019
1627 Fog 10 1029 100 10000 1.5 240 00:44 20.09.2019
1628 Clouds 12 1029 93 6000 1.5 260 23:56 19.09.2019
1629 Clouds 11 1029 100 10000 1 280 23:38 19.09.2019
1630 Clouds 12 1029 100 10000 1 280 23:18 19.09.2019
1631 Clouds 12 1029 93 10000 2.1 260 22:40 19.09.2019
1632 Clouds 13 1029 93 10000 2.1 260 22:22 19.09.2019
1633 Clouds 13 1029 93 10000 2.1 220 21:57 19.09.2019
1634 Clouds 13 1029 93 10000 2.6 220 21:39 19.09.2019
1635 Clouds 13 1029 93 10000 2.6 220 21:39 19.09.2019
1636 Clouds 13 1029 93 10000 2.6 220 21:19 19.09.2019
1637 Clouds 14 1029 87 10000 2.1 240 20:57 19.09.2019
1638 Clouds 14 1029 87 10000 2.1 240 20:57 19.09.2019
1639 Clouds 15 1029 82 10000 3.6 240 20:38 19.09.2019
1640 Clouds 15 1029 82 10000 3.6 240 20:19 19.09.2019
1641 Clouds 16 1029 82 10000 3.6 240 19:54 19.09.2019
1642 Clouds 16 1029 77 10000 4.6 230 19:36 19.09.2019
1643 Clouds 17 1029 77 10000 4.6 230 19:18 19.09.2019
1644 Clouds 17 1029 72 10000 4.1 230 18:41 19.09.2019
1645 Clouds 18 1029 72 10000 4.1 230 18:22 19.09.2019
1646 Clouds 18 1030 68 10000 4.6 220 17:43 19.09.2019
1647 Clouds 18 1030 68 10000 4.6 220 17:24 19.09.2019
1648 Clouds 19 1030 72 10000 5.7 220 16:59 19.09.2019
1649 Clouds 18 1030 72 10000 5.1 220 16:40 19.09.2019
1650 Clouds 18 1030 72 10000 5.1 220 16:20 19.09.2019
1651 Clouds 17 1030 72 10000 5.1 220 15:40 19.09.2019
1652 Clouds 17 1030 72 10000 5.1 220 15:21 19.09.2019
1653 Clouds 17 1030 72 10000 4.6 220 14:57 19.09.2019
1654 Clouds 16 1030 77 10000 3.1 240 14:38 19.09.2019
1655 Clouds 16 1030 77 10000 3.1 240 14:18 19.09.2019
1656 Clouds 16 1030 77 10000 3.1 250 13:40 19.09.2019
1657 Clouds 16 1030 77 10000 3.1 250 13:40 19.09.2019
1658 Clouds 16 1030 77 10000 3.1 250 13:21 19.09.2019
1659 Clouds 15 1031 77 10000 3.1 260 12:58 19.09.2019
1660 Clouds 15 1031 82 10000 2.6 250 12:36 19.09.2019
1661 Clouds 14 1031 82 10000 2.6 250 12:18 19.09.2019
1662 Clouds 14 1031 93 10000 2.6 260 11:41 19.09.2019
1663 Clouds 13 1031 93 10000 2.6 260 11:21 19.09.2019
1664 Clouds 13 1031 93 10000 2.1 230 10:57 19.09.2019
1665 Clouds 13 1031 100 10000 1 0 10:37 19.09.2019
1666 Clouds 13 1031 100 10000 1 0 10:18 19.09.2019
1667 Clouds 12 1030 100 10000 1.5 0 09:42 19.09.2019
1668 Clouds 12 1030 100 10000 1.5 0 09:22 19.09.2019
1669 Clouds 12 1030 100 10000 1.5 0 08:56 19.09.2019
1670 Clouds 12 1030 100 10000 1.5 250 08:36 19.09.2019
1671 Clouds 12 1030 100 10000 1.5 250 08:18 19.09.2019
1672 Mist 11 1030 93 5000 1.5 220 07:42 19.09.2019
1673 Mist 11 1030 93 5000 1.5 220 07:21 19.09.2019
1674 Fog 11 1030 93 450 2.1 220 06:46 19.09.2019
1675 Fog 11 1030 100 700 2.1 250 06:27 19.09.2019
1676 Fog 11 1030 100 700 2.1 250 06:27 19.09.2019
1677 Clouds 11 1030 93 8000 1.5 210 05:52 19.09.2019
1678 Clouds 11 1029 100 10000 2.6 260 04:43 19.09.2019
1679 Clear 11 1030 100 10000 1 250 03:51 19.09.2019
1680 Clouds 11 1030 100 10000 1 0 02:27 19.09.2019
1681 Clouds 12 1030 93 10000 3.1 250 01:22 19.09.2019
1682 Clouds 12 1030 93 10000 2.1 220 00:49 19.09.2019
1683 Clouds 12 1030 93 10000 2.1 260 00:25 19.09.2019
1684 Clouds 12 1030 93 10000 2.1 260 00:25 19.09.2019
1685 Clouds 13 1030 93 10000 1 0 23:39 18.09.2019
1686 Clouds 13 1030 93 10000 1 0 23:21 18.09.2019
1687 Clouds 13 1030 93 10000 2.6 240 22:44 18.09.2019
1688 Clouds 13 1030 87 10000 2.6 270 22:20 18.09.2019
1689 Clouds 14 1030 87 10000 5.7 280 21:58 18.09.2019
1690 Clouds 14 1030 87 10000 4.1 270 21:40 18.09.2019
1691 Clouds 14 1030 87 10000 4.1 270 21:19 18.09.2019
1692 Clouds 14 1029 87 10000 3.1 250 20:58 18.09.2019
1693 Clouds 14 1029 87 10000 3.1 250 20:58 18.09.2019
1694 Clouds 15 1029 87 10000 3.6 250 20:40 18.09.2019
1695 Clouds 15 1029 87 10000 3.6 250 20:22 18.09.2019
1696 Clouds 15 1029 87 10000 3.6 250 20:22 18.09.2019
1697 Clouds 15 1029 82 10000 5.7 250 19:58 18.09.2019
1698 Clouds 15 1029 82 10000 6.2 250 19:39 18.09.2019
1699 Clouds 15 1029 82 10000 6.2 260 19:19 18.09.2019
1700 Clouds 16 1029 82 10000 6.2 260 18:56 18.09.2019
1701 Clouds 16 1029 77 10000 6.2 260 18:37 18.09.2019
1702 Clouds 16 1029 77 10000 6.2 260 18:19 18.09.2019
1703 Clouds 16 1029 77 10000 6.2 260 18:19 18.09.2019
1704 Clouds 16 1029 77 10000 4.6 260 17:57 18.09.2019
1705 Clouds 16 1029 77 10000 4.6 260 17:57 18.09.2019
1706 Clouds 16 1029 77 10000 4.6 260 17:57 18.09.2019
1707 Clouds 16 1029 77 10000 4.6 260 17:57 18.09.2019
1708 Clouds 16 1029 77 10000 4.6 270 17:39 18.09.2019
1709 Clouds 16 1029 77 10000 4.6 270 17:18 18.09.2019
1710 Clouds 16 1029 77 10000 4.6 250 16:55 18.09.2019
1711 Clouds 16 1029 77 10000 4.6 250 16:37 18.09.2019
1712 Clouds 16 1029 77 10000 4.6 250 16:18 18.09.2019
1713 Clouds 17 1029 72 10000 4.6 260 15:54 18.09.2019
1714 Clouds 16 1029 72 10000 3.6 260 15:36 18.09.2019
1715 Clouds 16 1029 72 10000 3.6 260 15:36 18.09.2019
1716 Clouds 16 1029 72 10000 3.6 260 15:18 18.09.2019
1717 Clouds 16 1029 77 10000 4.6 230 14:57 18.09.2019
1718 Clouds 16 1029 77 10000 5.7 230 14:37 18.09.2019
1719 Clouds 16 1029 77 10000 5.7 230 14:37 18.09.2019
1720 Clouds 15 1029 77 10000 5.7 230 14:19 18.09.2019
1721 Clouds 15 1029 77 10000 5.1 240 13:40 18.09.2019
1722 Clouds 15 1029 77 10000 5.1 240 13:19 18.09.2019
1723 Clouds 15 1029 77 10000 5.7 220 12:53 18.09.2019
1724 Clouds 14 1029 82 10000 5.1 220 12:31 18.09.2019
1725 Clouds 13 1029 82 10000 1.5 0 11:57 18.09.2019
1726 Clouds 13 1029 81 10000 0.5 0 11:38 18.09.2019
1727 Clouds 12 1029 81 10000 0.5 0 11:19 18.09.2019
1728 Clouds 11 1029 81 10000 1 0 10:40 18.09.2019
1729 Clouds 11 1029 81 10000 1 0 10:40 18.09.2019
1730 Clouds 11 1029 81 10000 1 0 10:21 18.09.2019
1731 Clouds 11 1029 81 10000 1 0 10:21 18.09.2019
1732 Clouds 10 1029 81 10000 0.5 0 09:58 18.09.2019
1733 Clouds 10 1029 87 10000 0.5 0 09:38 18.09.2019
1734 Clouds 10 1029 87 10000 0.5 0 09:20 18.09.2019
1735 Clouds 10 1028 87 10000 1 0 08:44 18.09.2019
1736 Clouds 10 1028 87 10000 1 0 08:25 18.09.2019
1737 Clouds 9 1028 87 10000 1.5 240 07:59 18.09.2019
1738 Clouds 9 1028 81 10000 1 230 07:40 18.09.2019
1739 Clouds 9 1028 81 10000 1 230 07:22 18.09.2019
1740 Clouds 9 1028 87 10000 2.1 250 06:40 18.09.2019
1741 Clouds 10 1028 81 10000 1.5 240 05:50 18.09.2019
1742 Clouds 10 1029 81 10000 2.1 240 04:57 18.09.2019
1743 Clouds 10 1029 87 10000 0.5 290 03:19 18.09.2019
1744 Clouds 10 1029 87 10000 1.5 240 02:29 18.09.2019
1745 Clouds 10 1029 81 10000 2.1 240 01:21 18.09.2019
1746 Clouds 9 1029 87 10000 2.6 230 00:49 18.09.2019
1747 Clouds 9 1029 87 10000 2.1 240 00:21 18.09.2019
1748 Clouds 9 1029 81 10000 3.1 230 23:45 17.09.2019
1749 Clouds 10 1028 87 10000 3.1 240 23:22 17.09.2019
1750 Clouds 10 1028 76 10000 2.6 250 22:43 17.09.2019
1751 Clouds 10 1028 76 10000 2.6 250 22:24 17.09.2019
1752 Clouds 10 1028 76 10000 2.6 250 22:24 17.09.2019
1753 Clouds 11 1028 71 10000 2.1 260 21:55 17.09.2019
1754 Clouds 11 1028 71 10000 2.1 260 21:55 17.09.2019
1755 Clouds 11 1028 66 10000 1.5 250 21:37 17.09.2019
1756 Clouds 11 1028 66 10000 1.5 250 21:37 17.09.2019
1757 Clouds 12 1028 66 10000 1.5 250 21:19 17.09.2019
1758 Clouds 12 1027 62 10000 1.5 0 20:58 17.09.2019
1759 Clouds 13 1027 58 10000 2.1 290 20:40 17.09.2019
1760 Clouds 13 1027 58 10000 2.1 290 20:22 17.09.2019
1761 Clouds 13 1027 54 10000 3.1 270 19:58 17.09.2019
1762 Clouds 14 1027 54 10000 3.1 300 19:39 17.09.2019
1763 Clouds 14 1027 54 10000 3.1 300 19:19 17.09.2019
1764 Clouds 14 1027 54 10000 3.1 300 18:56 17.09.2019
1765 Clouds 14 1027 51 10000 3.1 300 18:38 17.09.2019
1766 Clouds 15 1027 51 10000 3.1 300 18:20 17.09.2019
1767 Clouds 15 1027 51 10000 3.1 300 18:20 17.09.2019
1768 Clouds 15 1027 51 10000 4.1 300 17:45 17.09.2019
1769 Clouds 15 1027 51 10000 4.1 300 17:20 17.09.2019
1770 Clouds 15 1027 47 10000 4.6 300 16:57 17.09.2019
1771 Clouds 15 1027 51 10000 4.6 280 16:37 17.09.2019
1772 Clouds 15 1027 51 10000 4.6 280 16:19 17.09.2019
1773 Clouds 15 1027 47 10000 5.1 280 15:40 17.09.2019
1774 Clouds 15 1027 47 10000 5.1 280 15:20 17.09.2019
1775 Clouds 15 1027 47 10000 4.1 280 14:56 17.09.2019
1776 Clouds 14 1027 50 10000 4.6 280 14:38 17.09.2019
1777 Clouds 14 1027 50 10000 4.6 280 14:19 17.09.2019
1778 Clouds 14 1027 50 10000 5.7 290 13:56 17.09.2019
1779 Clouds 14 1027 50 10000 5.7 290 13:56 17.09.2019
1780 Clouds 14 1027 50 10000 5.1 280 13:38 17.09.2019
1781 Clouds 14 1027 50 10000 5.1 280 13:20 17.09.2019
1782 Clouds 13 1026 54 10000 6.2 300 12:42 17.09.2019
1783 Clouds 13 1026 54 10000 6.2 300 12:19 17.09.2019
1784 Clouds 12 1026 66 10000 4.6 280 11:44 17.09.2019
1785 Clouds 12 1026 66 10000 4.6 280 11:26 17.09.2019
1786 Clouds 11 1026 71 10000 3.6 280 10:57 17.09.2019
1787 Clouds 11 1026 76 10000 2.1 270 10:39 17.09.2019
1788 Clouds 11 1026 76 10000 2.1 270 10:20 17.09.2019
1789 Clouds 10 1025 81 10000 4.6 300 09:43 17.09.2019
1790 Clouds 9 1025 81 10000 4.6 300 09:24 17.09.2019
1791 Clouds 8 1025 81 10000 5.1 290 08:57 17.09.2019
1792 Clouds 8 1025 87 10000 4.1 250 08:38 17.09.2019
1793 Clouds 7 1025 87 10000 4.1 250 08:19 17.09.2019
1794 Clouds 7 1024 93 10000 2.6 230 07:42 17.09.2019
1795 Clouds 7 1024 93 10000 2.6 230 07:24 17.09.2019
1796 Clouds 8 1024 87 10000 2.1 230 06:51 17.09.2019
1797 Clouds 8 1024 87 10000 2.6 230 06:23 17.09.2019
1798 Clouds 8 1024 87 10000 4.6 210 05:50 17.09.2019
1799 Clouds 9 1023 87 10000 2.6 230 04:32 17.09.2019
1800 Rain 10 1023 81 6000 6.7 280 02:58 17.09.2019
1801 Clouds 10 1023 81 10000 3.6 210 02:39 17.09.2019
1802 Clouds 10 1023 81 10000 4.6 250 01:26 17.09.2019
1803 Clouds 10 1023 81 10000 3.6 220 00:40 17.09.2019
1804 Clouds 10 1023 81 10000 4.1 200 23:40 16.09.2019
1805 Clouds 10 1023 81 10000 4.1 200 23:19 16.09.2019
1806 Clouds 10 1023 76 10000 4.6 270 22:56 16.09.2019
1807 Clouds 10 1023 76 10000 4.6 270 22:56 16.09.2019
1808 Clouds 10 1023 76 10000 4.6 270 22:56 16.09.2019
1809 Clouds 10 1023 81 10000 4.1 260 22:37 16.09.2019
1810 Clouds 11 1023 81 10000 4.1 260 22:19 16.09.2019
1811 Clouds 11 1023 87 10000 4.1 230 21:41 16.09.2019
1812 Clouds 11 1023 87 10000 4.1 230 21:22 16.09.2019
1813 Clouds 12 1023 76 10000 3.6 240 20:59 16.09.2019
1814 Clouds 12 1023 71 10000 4.6 250 20:40 16.09.2019
1815 Clouds 13 1023 71 10000 4.6 250 20:20 16.09.2019
1816 Clouds 13 1023 71 10000 4.6 270 19:57 16.09.2019
1817 Clouds 13 1023 71 10000 5.7 260 19:38 16.09.2019
1818 Clouds 13 1023 71 10000 5.7 260 19:18 16.09.2019
1819 Clouds 13 1022 76 10000 5.1 230 18:45 16.09.2019
1820 Clouds 14 1022 76 10000 5.1 230 18:27 16.09.2019
1821 Clouds 14 1022 67 10000 5.7 270 17:56 16.09.2019
1822 -273 0 0 0 0 0 17:56 16.09.2019
1823 Clouds 14 1023 67 10000 5.7 280 17:37 16.09.2019
1824 Clouds 14 1023 67 10000 5.7 280 17:19 16.09.2019
1825 Clouds 15 1023 62 10000 5.7 280 16:44 16.09.2019
1826 Clouds 15 1023 62 10000 5.7 280 16:21 16.09.2019
1827 Clouds 15 1023 67 10000 6.7 270 15:57 16.09.2019
1828 Clouds 15 1023 62 10000 7.2 270 15:39 16.09.2019
1829 Clouds 15 1023 62 10000 7.2 270 15:20 16.09.2019
1830 Clouds 15 1023 62 10000 7.2 270 15:20 16.09.2019
1831 Clouds 15 1022 58 10000 5.7 270 14:58 16.09.2019
1832 Clouds 15 1023 58 10000 5.7 260 14:39 16.09.2019
1833 Clouds 15 1023 58 10000 5.7 260 14:20 16.09.2019
1834 Clouds 15 1023 67 10000 4.6 250 13:43 16.09.2019
1835 Clouds 14 1023 67 10000 5.1 260 13:22 16.09.2019
1836 Clouds 14 1023 76 10000 4.6 280 12:57 16.09.2019
1837 Clouds 14 1023 76 10000 4.6 280 12:57 16.09.2019
1838 Clouds 13 1023 71 10000 4.6 270 12:38 16.09.2019
1839 Clouds 13 1023 71 10000 4.6 270 12:18 16.09.2019
1840 Clouds 12 1022 76 10000 4.1 290 11:44 16.09.2019
1841 Clouds 12 1022 76 10000 4.1 290 11:22 16.09.2019
1842 Clouds 11 1022 87 10000 2.1 230 10:55 16.09.2019
1843 Clouds 11 1022 87 10000 2.1 230 10:55 16.09.2019
1844 Clouds 11 1022 87 10000 1.5 0 10:36 16.09.2019
1845 Clouds 11 1022 87 10000 1.5 0 10:18 16.09.2019
1846 Clouds 10 1022 93 10000 1.5 260 09:41 16.09.2019
1847 Clouds 9 1022 93 10000 1.5 260 09:20 16.09.2019
1848 Clouds 9 1022 93 10000 1 0 08:52 16.09.2019
1849 Clouds 8 1022 100 10000 1 0 08:31 16.09.2019
1850 Clouds 8 1022 100 10000 1 50 07:58 16.09.2019
1851 Clouds 7 1022 100 10000 1 60 07:40 16.09.2019
1852 Clouds 7 1022 100 10000 1 60 07:20 16.09.2019
1853 Clouds 7 1022 100 10000 0.5 0 06:49 16.09.2019
1854 Clouds 7 1022 100 10000 0.5 0 06:49 16.09.2019
1855 Clouds 7 1022 100 10000 0.5 0 06:31 16.09.2019
1856 Clouds 6 1022 93 10000 0.5 0 05:57 16.09.2019
1857 Clouds 6 1022 93 10000 0.5 0 05:38 16.09.2019
1858 Fog 6 1022 93 8000 0.5 0 04:55 16.09.2019
1859 Clouds 6 1023 100 9000 0.5 0 03:33 16.09.2019
1860 Clouds 7 1023 93 10000 0.5 0 00:45 16.09.2019
1861 Clear 8 1023 93 10000 0.5 0 00:26 16.09.2019
1862 Clear 8 1023 87 10000 2.6 230 23:56 15.09.2019
1863 Clear 8 1023 87 10000 2.1 280 23:37 15.09.2019
1864 Clear 9 1023 87 10000 2.1 280 23:18 15.09.2019
1865 Clear 9 1023 87 10000 2.1 280 23:18 15.09.2019
1866 Clouds 9 1022 81 10000 2.1 250 22:38 15.09.2019
1867 Clouds 9 1022 81 10000 2.1 250 22:19 15.09.2019
1868 Clouds 10 1022 76 10000 2.6 270 21:56 15.09.2019
1869 Clouds 11 1022 76 10000 3.6 250 21:37 15.09.2019
1870 Clouds 11 1022 76 10000 3.6 250 21:19 15.09.2019
1871 Clouds 12 1022 66 10000 3.6 250 20:44 15.09.2019
1872 Clouds 12 1022 62 10000 4.1 260 20:26 15.09.2019
1873 Clouds 13 1022 62 10000 4.1 270 19:47 15.09.2019
1874 Clouds 14 1022 54 10000 5.1 260 19:27 15.09.2019
1875 Clouds 14 1022 54 10000 5.1 280 18:56 15.09.2019
1876 Clouds 14 1022 54 10000 5.7 290 18:38 15.09.2019
1877 Clouds 15 1022 54 10000 5.7 290 18:20 15.09.2019
1878 Clouds 14 1022 50 10000 5.1 270 17:43 15.09.2019
1879 Clouds 14 1022 50 10000 5.1 270 17:22 15.09.2019
1880 Clouds 14 1023 54 10000 3.1 260 16:57 15.09.2019
1881 Clouds 14 1023 54 10000 3.1 270 16:38 15.09.2019
1882 Clouds 14 1023 54 10000 3.1 270 16:20 15.09.2019
1883 Clouds 14 1023 58 10000 5.1 290 15:41 15.09.2019
1884 Clouds 14 1023 58 10000 5.1 290 15:41 15.09.2019
1885 Clouds 14 1023 58 10000 5.1 290 15:21 15.09.2019
1886 Clouds 14 1023 62 10000 3.6 270 14:59 15.09.2019
1887 Clouds 13 1023 62 10000 4.6 280 14:41 15.09.2019
1888 Clouds 13 1023 62 10000 4.6 280 14:23 15.09.2019
1889 Rain 13 1022 67 10000 5.1 290 13:48 15.09.2019
1890 Clouds 13 1022 67 10000 5.1 270 13:26 15.09.2019
1891 Clouds 13 1022 71 10000 4.6 270 13:00 15.09.2019
1892 Clouds 13 1022 71 10000 4.6 260 12:40 15.09.2019
1893 Clouds 13 1022 71 10000 4.6 260 12:22 15.09.2019
1894 Drizzle 12 1021 76 10000 4.6 270 11:43 15.09.2019
1895 Drizzle 12 1021 76 10000 4.6 270 11:23 15.09.2019
1896 Drizzle 12 1021 76 10000 4.6 260 10:59 15.09.2019
1897 Drizzle 12 1021 76 10000 4.6 250 10:40 15.09.2019
1898 Drizzle 11 1021 76 10000 4.6 250 10:21 15.09.2019
1899 Clouds 11 1021 76 10000 3.6 220 09:43 15.09.2019
1900 Clouds 11 1021 76 10000 3.6 220 09:21 15.09.2019
1901 Clouds 11 1021 76 10000 4.1 230 08:59 15.09.2019
1902 Clouds 11 1020 71 10000 7.2 270 08:40 15.09.2019
1903 Clouds 11 1020 71 10000 7.2 270 08:19 15.09.2019
1904 Clouds 11 1020 71 10000 4.6 270 07:41 15.09.2019
1905 Clouds 11 1020 76 10000 6.7 280 06:44 15.09.2019
1906 Clouds 11 1019 76 10000 8.2 270 05:58 15.09.2019
1907 Rain 12 1019 81 10000 9.3 260 03:19 15.09.2019
1908 Clouds 12 1019 82 10000 8.7 240 02:19 15.09.2019
1909 Rain 12 1020 87 10000 5.7 240 01:36 15.09.2019
1910 Rain 13 1020 87 10000 5.1 250 00:57 15.09.2019
1911 Rain 13 1020 87 10000 5.1 250 00:57 15.09.2019
1912 Rain 13 1020 87 10000 6.2 260 00:37 15.09.2019
1913 Rain 14 1020 87 10000 6.2 260 00:18 15.09.2019
1914 Rain 15 1019 93 10000 8.2 290 23:55 14.09.2019
1915 Rain 15 1018 93 5000 7.7 220 23:37 14.09.2019
1916 Rain 15 1018 93 5000 7.7 220 23:19 14.09.2019
1917 Rain 15 1018 93 5000 7.7 220 23:19 14.09.2019
1918 Rain 15 1018 87 3200 10.3 200 22:55 14.09.2019
1919 Rain 15 1018 93 3000 12.9 210 22:37 14.09.2019
1920 Rain 15 1018 93 3000 12.9 210 22:18 14.09.2019
1921 Drizzle 16 1019 87 5000 11.8 230 21:40 14.09.2019
1922 Clouds 16 1019 82 7000 11.3 230 21:20 14.09.2019
1923 Clouds 15 1019 82 7000 11.3 230 20:58 14.09.2019
1924 Clouds 16 1019 82 10000 10.8 230 20:38 14.09.2019
1925 Clouds 16 1019 82 10000 10.8 230 20:20 14.09.2019
1926 Clouds 16 1020 77 10000 11.8 220 19:46 14.09.2019
1927 Clouds 16 1019 72 10000 15.4 220 19:22 14.09.2019
1928 Clouds 16 1019 67 10000 15.9 230 18:57 14.09.2019
1929 Clouds 16 1020 67 10000 17 220 18:38 14.09.2019
1930 Clouds 17 1020 67 10000 17 220 18:19 14.09.2019
1931 Clouds 17 1021 59 10000 14.4 220 17:44 14.09.2019
1932 Clouds 17 1021 59 10000 14.4 220 17:24 14.09.2019
1933 Clouds 16 1022 63 10000 13.9 220 16:51 14.09.2019
1934 Clouds 17 1022 63 10000 12.3 210 16:29 14.09.2019
1935 Clouds 16 1023 63 10000 11.3 210 15:59 14.09.2019
1936 Clouds 16 1023 67 10000 10.8 200 15:40 14.09.2019
1937 Clouds 16 1023 67 10000 10.8 200 15:22 14.09.2019
1938 Clouds 16 1023 67 10000 10.8 200 15:22 14.09.2019
1939 Clouds 16 1023 67 10000 10.8 200 15:22 14.09.2019
1940 Clouds 15 1024 67 10000 11.8 210 14:45 14.09.2019
1941 Clouds 15 1024 76 10000 10.8 200 14:19 14.09.2019
1942 Clouds 15 1025 76 10000 9.8 200 13:56 14.09.2019
1943 Clouds 15 1026 76 10000 9.3 210 13:37 14.09.2019
1944 Clouds 14 1026 76 10000 9.3 210 13:19 14.09.2019
1945 Clouds 14 1026 76 10000 10.8 220 12:43 14.09.2019
1946 Clouds 14 1026 76 10000 10.8 220 12:20 14.09.2019
1947 Clouds 14 1027 76 10000 6.2 210 11:41 14.09.2019
1948 Clouds 14 1027 76 10000 6.2 210 11:20 14.09.2019
1949 Clouds 13 1028 82 10000 6.7 190 10:40 14.09.2019
1950 Clouds 13 1028 82 10000 6.7 190 10:21 14.09.2019
1951 Clouds 13 1028 82 10000 7.2 220 09:58 14.09.2019
1952 Clouds 13 1028 82 10000 3.6 210 09:39 14.09.2019
1953 Clouds 12 1028 82 10000 3.6 210 09:19 14.09.2019
1954 Clouds 12 1029 87 10000 4.6 210 08:47 14.09.2019
1955 Clouds 12 1029 87 10000 5.1 210 08:25 14.09.2019
1956 Clouds 12 1030 87 10000 5.7 210 07:48 14.09.2019
1957 Clouds 12 1030 87 10000 5.7 210 07:48 14.09.2019
1958 Clouds 12 1030 87 10000 4.1 210 07:28 14.09.2019
1959 Clouds 12 1030 87 10000 3.6 210 06:52 14.09.2019
1960 Rain 11 1031 93 10000 2.1 230 06:29 14.09.2019
1961 Clouds 11 1033 93 10000 3.6 170 05:27 14.09.2019
1962 Clouds 10 1033 93 10000 1 0 03:46 14.09.2019
1963 Clouds 10 1034 100 10000 1 0 02:55 14.09.2019
1964 Clouds 10 1034 87 10000 0.5 0 01:54 14.09.2019
1965 Clouds 11 1035 87 10000 2.6 190 01:23 14.09.2019
1966 Clouds 10 1035 93 10000 1 0 01:23 14.09.2019
1967 Clouds 10 1035 87 10000 2.6 190 00:59 14.09.2019
1968 Clouds 10 1034 81 10000 4.1 200 00:39 14.09.2019
1969 Clouds 11 1034 81 10000 4.1 200 00:20 14.09.2019
1970 Clouds 11 1035 87 10000 2.6 280 23:38 13.09.2019
1971 Clouds 11 1035 87 10000 2.6 280 23:19 13.09.2019
1972 Clouds 11 1035 87 10000 1.5 0 22:58 13.09.2019
1973 Clouds 11 1035 81 10000 2.1 250 22:38 13.09.2019
1974 Clouds 11 1035 81 10000 2.1 250 22:20 13.09.2019
1975 Clouds 11 1035 87 10000 3.6 230 21:42 13.09.2019
1976 Clouds 12 1035 87 10000 3.6 230 21:20 13.09.2019
1977 Clouds 12 1035 76 10000 2.1 230 20:59 13.09.2019
1978 Clouds 13 1035 71 10000 4.1 250 20:40 13.09.2019
1979 Clouds 14 1035 71 10000 4.1 250 20:21 13.09.2019
1980 Clouds 14 1035 67 10000 4.1 250 19:56 13.09.2019
1981 Clouds 15 1035 58 10000 6.2 250 19:37 13.09.2019
1982 Clouds 15 1035 58 10000 6.2 250 19:19 13.09.2019
1983 Clouds 15 1035 67 10000 4.6 250 18:55 13.09.2019
1984 Clouds 16 1035 63 10000 4.6 260 18:36 13.09.2019
1985 Clouds 16 1035 63 10000 4.6 260 18:18 13.09.2019
1986 Clouds 16 1035 59 10000 6.2 250 17:38 13.09.2019
1987 Clouds 16 1035 59 10000 6.2 250 17:19 13.09.2019
1988 Clouds 16 1035 62 10000 5.7 250 16:41 13.09.2019
1989 Clouds 16 1035 62 10000 5.7 250 16:20 13.09.2019
1990 Clouds 16 1035 59 10000 6.2 240 15:46 13.09.2019
1991 Clouds 16 1035 63 10000 5.7 250 15:28 13.09.2019
1992 Clouds 16 1036 72 10000 7.2 220 14:58 13.09.2019
1993 Clouds 16 1036 72 10000 7.2 220 14:58 13.09.2019
1994 Rain 16 1035 62 10000 5.7 260 14:39 13.09.2019
1995 Rain 16 1035 62 10000 5.7 260 14:19 13.09.2019
1996 Clouds 16 1034 62 10000 6.2 250 13:46 13.09.2019
1997 Clouds 16 1034 72 10000 4.1 250 13:24 13.09.2019
1998 Rain 15 1034 71 10000 6.2 250 12:56 13.09.2019
1999 Rain 15 1034 71 10000 6.2 250 12:56 13.09.2019
2000 Clouds 15 1034 71 10000 5.7 250 12:38 13.09.2019
2001 Clouds 14 1034 71 10000 5.7 250 12:20 13.09.2019
2002 Clouds 14 1034 76 10000 5.7 230 11:54 13.09.2019
2003 Clouds 14 1034 76 10000 6.2 230 11:18 13.09.2019
2004 Clouds 12 1033 81 10000 3.1 200 10:38 13.09.2019
2005 Clouds 12 1033 81 10000 3.1 200 10:19 13.09.2019
2006 Clouds 11 1033 87 10000 2.1 250 09:44 13.09.2019
2007 Clouds 10 1033 87 10000 2.1 250 09:24 13.09.2019
2008 Clouds 10 1032 87 10000 2.1 220 08:58 13.09.2019
2009 Clouds 10 1032 87 10000 1 0 08:40 13.09.2019
2010 Clouds 10 1032 87 10000 1 0 08:20 13.09.2019
2011 Clouds 10 1031 87 10000 3.1 140 07:45 13.09.2019
2012 Clouds 10 1031 87 10000 3.6 240 07:27 13.09.2019
2013 Clouds 10 1030 93 10000 4.1 220 06:45 13.09.2019
2014 Clouds 10 1030 87 10000 3.1 250 05:47 13.09.2019
2015 Clouds 11 1030 87 10000 3.1 230 04:51 13.09.2019
2016 Clouds 10 1029 87 10000 2.6 260 03:38 13.09.2019
2017 Clouds 10 1029 81 10000 2.6 0 02:20 13.09.2019
2018 Clouds 10 1028 81 10000 2.1 230 01:42 13.09.2019
2019 Clouds 10 1028 81 10000 2.1 230 01:21 13.09.2019
2020 Clouds 10 1028 81 10000 2.6 230 00:37 13.09.2019
2021 Clouds 10 1028 87 10000 2.6 230 23:57 12.09.2019
2022 Clear 10 1027 87 10000 4.6 230 23:35 12.09.2019
2023 Clear 10 1027 87 10000 3.6 240 22:59 12.09.2019
2024 Clear 10 1026 81 10000 3.1 250 22:40 12.09.2019
2025 Clear 11 1026 81 10000 3.1 250 22:22 12.09.2019
2026 Clear 12 1025 76 10000 5.1 260 21:56 12.09.2019
2027 Clear 12 1025 76 10000 5.7 260 21:37 12.09.2019
2028 Clouds 12 1025 76 10000 5.7 260 21:19 12.09.2019
2029 Clouds 13 1024 71 10000 6.2 280 20:54 12.09.2019
2030 Clouds 13 1024 67 10000 6.2 280 20:36 12.09.2019
2031 Clouds 14 1024 67 10000 6.2 280 20:18 12.09.2019
2032 Clouds 15 1023 67 10000 5.7 270 19:41 12.09.2019
2033 Clouds 15 1023 67 10000 5.7 270 19:20 12.09.2019
2034 Clouds 15 1022 67 10000 7.2 280 18:57 12.09.2019
2035 Clouds 16 1022 63 10000 6.7 290 18:36 12.09.2019
2036 Rain 16 1022 63 10000 6.7 290 18:18 12.09.2019
2037 Rain 15 1021 72 10000 5.7 290 17:41 12.09.2019
2038 Rain 15 1021 72 10000 5.7 290 17:20 12.09.2019
2039 Clouds 15 1020 82 10000 5.1 290 16:56 12.09.2019
2040 Rain 15 1020 82 10000 5.7 280 16:38 12.09.2019
2041 Rain 15 1020 82 10000 5.7 280 16:19 12.09.2019
2042 Rain 15 1019 87 10000 4.1 270 15:41 12.09.2019
2043 Rain 16 1019 87 10000 4.1 270 15:23 12.09.2019
2044 Rain 15 1019 93 7000 4.1 240 14:46 12.09.2019
2045 Rain 15 1018 93 7000 5.7 230 14:22 12.09.2019
2046 Rain 15 1018 93 10000 4.6 240 13:58 12.09.2019
2047 Rain 15 1018 93 10000 4.6 210 13:38 12.09.2019
2048 Rain 15 1018 93 10000 4.6 210 13:19 12.09.2019
2049 Drizzle 14 1018 93 4100 5.1 210 12:45 12.09.2019
2050 Drizzle 14 1018 93 4100 5.1 210 12:19 12.09.2019
2051 Drizzle 14 1018 93 4100 5.1 210 12:19 12.09.2019
2052 Drizzle 14 1018 93 6000 4.6 210 11:56 12.09.2019
2053 Rain 14 1018 93 7000 6.2 210 11:38 12.09.2019
2054 Rain 14 1018 93 7000 6.2 210 11:19 12.09.2019
2055 Rain 13 1018 93 8000 4.1 230 10:44 12.09.2019
2056 Rain 13 1018 100 9000 4.1 230 10:26 12.09.2019
2057 Rain 13 1018 93 8000 3.6 230 09:45 12.09.2019
2058 Rain 13 1018 93 8000 3.6 230 09:25 12.09.2019
2059 Rain 13 1018 93 10000 3.6 230 08:59 12.09.2019
2060 Rain 13 1018 93 10000 2.1 290 08:40 12.09.2019
2061 Rain 13 1018 93 10000 2.1 290 08:22 12.09.2019
2062 Clouds 13 1017 93 10000 2.1 260 07:40 12.09.2019
2063 Clouds 12 1017 93 10000 2.1 260 07:19 12.09.2019
2064 Clouds 13 1017 87 10000 4.6 240 06:51 12.09.2019
2065 Clouds 13 1017 93 10000 5.7 230 06:19 12.09.2019
2066 Rain 12 1017 93 10000 2.6 270 05:49 12.09.2019
2067 Rain 12 1018 93 5000 4.1 280 05:30 12.09.2019
2068 Clouds 12 1018 93 10000 6.7 240 04:35 12.09.2019
2069 Clouds 12 1017 87 10000 3.1 200 02:28 12.09.2019
2070 Clouds 12 1017 93 10000 5.7 230 01:36 12.09.2019
2071 Clouds 12 1017 93 10000 5.7 230 01:18 12.09.2019
2072 Rain 13 1017 87 10000 4.6 250 00:42 12.09.2019
2073 Rain 13 1017 87 10000 4.6 250 00:23 12.09.2019
2074 Clouds 13 1017 82 10000 5.1 230 23:41 11.09.2019
2075 Clouds 13 1017 82 10000 5.1 230 23:41 11.09.2019
2076 Clouds 13 1017 82 10000 5.1 230 23:21 11.09.2019
2077 Clouds 13 1016 82 10000 5.1 250 22:56 11.09.2019
2078 Rain 13 1016 82 10000 6.7 250 22:37 11.09.2019
2079 Rain 13 1016 82 10000 6.7 250 22:19 11.09.2019
2080 Rain 13 1016 82 10000 6.7 250 22:19 11.09.2019
2081 Clouds 13 1016 82 10000 7.7 240 21:42 11.09.2019
2082 Clouds 13 1016 82 10000 7.7 240 21:42 11.09.2019
2083 Clouds 13 1016 82 10000 7.7 240 21:24 11.09.2019
2084 Clouds 14 1015 76 10000 7.7 240 20:57 11.09.2019
2085 Clouds 14 1015 76 10000 7.7 240 20:57 11.09.2019
2086 Clouds 14 1015 76 10000 7.7 240 20:39 11.09.2019
2087 Clouds 14 1015 76 10000 7.7 240 20:19 11.09.2019
2088 Rain 14 1015 82 10000 7.2 250 19:58 11.09.2019
2089 Rain 14 1014 82 6000 7.7 240 19:39 11.09.2019
2090 Rain 14 1014 82 6000 7.7 240 19:39 11.09.2019
2091 Rain 14 1014 82 6000 7.7 240 19:19 11.09.2019
2092 Rain 15 1014 72 10000 7.7 250 18:56 11.09.2019
2093 Clouds 15 1014 67 10000 8.7 250 18:37 11.09.2019
2094 Clouds 15 1014 67 10000 8.7 250 18:19 11.09.2019
2095 Rain 15 1013 67 10000 8.7 260 17:42 11.09.2019
2096 Rain 15 1013 67 10000 8.7 260 17:22 11.09.2019
2097 Clouds 16 1013 63 10000 8.2 250 16:59 11.09.2019
2098 Clouds 16 1012 63 10000 7.7 250 16:40 11.09.2019
2099 Clouds 16 1012 63 10000 7.7 250 16:21 11.09.2019
2100 Clouds 16 1012 63 10000 9.3 260 15:47 11.09.2019
2101 Rain 16 1011 72 10000 9.8 270 15:24 11.09.2019
2102 Rain 16 1011 72 10000 10.8 270 14:59 11.09.2019
2103 Rain 16 1010 77 10000 11.8 260 14:40 11.09.2019
2104 Rain 15 1010 77 10000 11.8 260 14:20 11.09.2019
2105 Rain 16 1010 77 10000 10.8 250 13:59 11.09.2019
2106 Rain 16 1010 82 10000 7.2 260 13:37 11.09.2019
2107 Rain 16 1010 82 10000 7.2 260 13:18 11.09.2019
2108 Clouds 16 1009 77 10000 11.8 260 12:42 11.09.2019
2109 Clouds 15 1009 77 10000 11.8 260 12:22 11.09.2019
2110 Rain 15 1008 77 10000 10.8 260 11:58 11.09.2019
2111 Rain 14 1008 77 10000 10.8 260 11:38 11.09.2019
2112 Rain 14 1008 77 10000 10.8 260 11:19 11.09.2019
2113 Rain 14 1007 87 10000 8.7 240 10:41 11.09.2019
2114 Rain 14 1007 87 10000 8.7 240 10:22 11.09.2019
2115 Rain 14 1007 82 10000 7.7 260 09:57 11.09.2019
2116 Rain 13 1007 82 10000 9.3 250 09:37 11.09.2019
2117 Rain 13 1007 82 10000 9.3 250 09:18 11.09.2019
2118 Rain 13 1006 87 10000 7.7 260 08:41 11.09.2019
2119 Rain 13 1006 87 10000 7.7 260 08:21 11.09.2019
2120 Rain 13 1005 93 6000 8.7 240 07:53 11.09.2019
2121 Rain 13 1005 87 10000 9.8 250 07:24 11.09.2019
2122 Rain 13 1005 82 10000 7.7 240 06:59 11.09.2019
2123 Rain 14 1005 87 10000 6.2 250 06:36 11.09.2019
2124 Rain 15 1005 93 10000 9.3 230 05:53 11.09.2019
2125 Rain 15 1004 100 3500 7.2 230 05:33 11.09.2019
2126 Rain 15 1005 100 4200 8.2 220 04:52 11.09.2019
2127 Rain 15 1005 93 3800 9.3 210 03:58 11.09.2019
2128 Rain 14 1006 93 3300 9.8 210 03:25 11.09.2019
2129 Rain 14 1006 100 8000 9.8 210 02:28 11.09.2019
2130 Rain 14 1007 93 8000 8.7 210 01:28 11.09.2019
2131 Drizzle 13 1008 93 4400 9.3 200 00:32 11.09.2019
2132 Rain 13 1009 93 6000 6.2 200 23:58 10.09.2019
2133 Rain 12 1009 93 6000 7.2 200 23:40 10.09.2019
2134 Rain 12 1009 93 6000 7.2 200 23:21 10.09.2019
2135 Rain 12 1010 93 10000 4.6 180 22:42 10.09.2019
2136 Rain 12 1010 93 10000 4.6 180 22:21 10.09.2019
2137 Rain 12 1011 93 10000 6.2 170 21:57 10.09.2019
2138 Rain 12 1011 87 10000 5.7 180 21:38 10.09.2019
2139 Rain 12 1011 87 10000 5.7 180 21:20 10.09.2019
2140 Rain 12 1012 87 10000 4.1 190 20:59 10.09.2019
2141 Clouds 12 1013 87 8000 6.2 190 20:40 10.09.2019
2142 Clouds 13 1013 87 8000 6.2 190 20:22 10.09.2019
2143 Rain 13 1013 82 9000 5.7 200 19:58 10.09.2019
2144 Rain 13 1014 82 10000 4.6 200 19:39 10.09.2019
2145 Rain 13 1014 82 10000 4.6 200 19:20 10.09.2019
2146 Rain 13 1014 82 10000 5.7 210 18:58 10.09.2019
2147 Rain 14 1015 71 10000 7.2 210 18:40 10.09.2019
2148 Rain 14 1015 71 10000 7.2 210 18:21 10.09.2019
2149 Clouds 14 1015 71 10000 6.2 200 17:55 10.09.2019
2150 Clouds 14 1016 67 10000 7.2 220 17:37 10.09.2019
2151 Clouds 14 1016 67 10000 7.2 220 17:18 10.09.2019
2152 Clouds 15 1016 62 10000 7.7 210 16:55 10.09.2019
2153 Clouds 15 1016 62 10000 7.7 210 16:55 10.09.2019
2154 Clouds 15 1016 62 10000 7.7 210 16:55 10.09.2019
2155 Clouds 15 1016 62 10000 7.7 210 16:55 10.09.2019
2156 Clouds 15 1016 67 10000 8.2 220 16:37 10.09.2019
2157 Clouds 15 1016 67 10000 8.2 220 16:18 10.09.2019
2158 Clouds 15 1017 72 10000 6.2 210 15:42 10.09.2019
2159 Clouds 15 1017 72 10000 6.2 210 15:21 10.09.2019
2160 Clouds 15 1017 67 10000 5.7 210 14:55 10.09.2019
2161 -273 0 0 0 0 0 14:55 10.09.2019
2162 Clouds 15 1017 71 10000 5.7 220 14:36 10.09.2019
2163 Clouds 15 1017 71 10000 5.7 220 14:18 10.09.2019
2164 Clouds 15 1017 62 10000 3.6 250 13:43 10.09.2019
2165 Clouds 15 1017 62 10000 3.6 250 13:22 10.09.2019
2166 Clouds 14 1017 62 10000 3.1 250 12:50 10.09.2019
2167 Drizzle 14 1018 62 10000 2.6 260 12:28 10.09.2019
2168 Drizzle 13 1018 67 10000 3.1 270 11:58 10.09.2019
2169 Drizzle 13 1018 67 10000 2.1 280 11:39 10.09.2019
2170 Drizzle 13 1018 67 10000 2.1 280 11:21 10.09.2019
2171 Drizzle 12 1018 87 10000 2.6 220 10:42 10.09.2019
2172 Drizzle 12 1018 87 10000 2.6 220 10:20 10.09.2019
2173 Drizzle 11 1018 87 10000 2.6 240 09:57 10.09.2019
2174 Drizzle 11 1017 93 10000 2.6 220 09:39 10.09.2019
2175 Drizzle 11 1017 93 10000 2.6 220 09:19 10.09.2019
2176 Drizzle 11 1017 93 10000 2.1 230 08:45 10.09.2019
2177 Drizzle 11 1017 93 10000 2.1 230 08:27 10.09.2019
2178 Drizzle 11 1017 93 10000 2.1 240 07:46 10.09.2019
2179 Drizzle 11 1017 93 10000 2.1 240 07:46 10.09.2019
2180 Drizzle 11 1017 93 10000 2.1 240 07:27 10.09.2019
2181 Drizzle 11 1016 93 10000 2.1 230 06:56 10.09.2019
2182 Drizzle 11 1016 93 10000 1.5 240 06:36 10.09.2019
2183 Drizzle 11 1016 93 10000 2.1 240 05:48 10.09.2019
2184 Drizzle 11 1016 93 10000 2.1 250 03:58 10.09.2019
2185 Clouds 11 1015 93 10000 3.1 230 02:24 10.09.2019
2186 Clouds 11 1015 93 10000 3.1 230 02:24 10.09.2019
2187 Clouds 12 1015 93 10000 2.6 240 01:59 10.09.2019
2188 Clouds 12 1015 93 10000 2.6 240 01:59 10.09.2019
2189 Clouds 12 1015 93 10000 2.6 240 01:59 10.09.2019
2190 Clouds 12 1015 93 10000 3.1 220 01:41 10.09.2019
2191 Clouds 12 1015 93 10000 3.1 220 01:20 10.09.2019
2192 Clouds 12 1015 93 10000 3.6 220 00:25 10.09.2019
2193 Clouds 12 1015 87 10000 1.5 310 23:48 09.09.2019
2194 Clouds 12 1014 87 10000 2.6 250 23:20 09.09.2019
2195 Clouds 12 1014 87 10000 2.6 250 22:57 09.09.2019
2196 Clouds 13 1014 82 10000 3.1 280 22:39 09.09.2019
2197 Clouds 13 1014 82 10000 3.1 280 22:20 09.09.2019
2198 Clouds 13 1013 87 10000 3.6 280 21:58 09.09.2019
2199 Clouds 13 1013 82 10000 4.1 280 21:39 09.09.2019
2200 Clouds 13 1013 82 10000 4.1 280 21:20 09.09.2019
2201 Clouds 13 1013 82 10000 4.1 280 21:20 09.09.2019
2202 Clouds 14 1012 77 10000 4.6 280 20:56 09.09.2019
2203 Clouds 14 1012 77 10000 4.1 280 20:37 09.09.2019
2204 Clouds 14 1012 77 10000 4.6 280 20:19 09.09.2019
2205 Clouds 14 1012 77 10000 4.6 280 20:19 09.09.2019
2206 Clouds 14 1012 77 10000 4.6 280 19:58 09.09.2019
2207 Clouds 14 1012 77 10000 4.6 280 19:39 09.09.2019
2208 Clouds 14 1012 77 10000 6.7 290 19:19 09.09.2019
2209 Clouds 14 1012 77 10000 6.7 290 19:19 09.09.2019
2210 Clouds 14 1012 77 10000 6.7 290 18:57 09.09.2019
2211 Clouds 14 1011 77 10000 6.2 300 18:39 09.09.2019
2212 Clouds 15 1011 77 10000 7.2 300 18:21 09.09.2019
2213 Clouds 14 1010 93 10000 1 20 17:57 09.09.2019
2214 Rain 15 1010 93 10000 3.6 250 17:39 09.09.2019
2215 Rain 15 1010 93 10000 3.6 250 17:20 09.09.2019
2216 Clouds 14 1010 87 10000 4.1 270 16:55 09.09.2019
2217 Clouds 14 1010 87 10000 4.1 270 16:55 09.09.2019
2218 Clouds 14 1010 82 10000 2.1 260 16:37 09.09.2019
2219 Rain 14 1010 82 10000 2.1 210 16:18 09.09.2019
2220 -273 0 0 0 0 0 15:55 09.09.2019
2221 Rain 15 1010 82 10000 2.1 210 15:55 09.09.2019
2222 Rain 15 1010 82 10000 2.1 210 15:55 09.09.2019
2223 Rain 14 1010 87 10000 3.1 230 15:36 09.09.2019
2224 Rain 14 1009 93 10000 2.1 190 15:18 09.09.2019
2225 Rain 14 1009 93 10000 2.6 200 14:41 09.09.2019
2226 Rain 14 1009 93 10000 2.6 200 14:23 09.09.2019
2227 Rain 14 1009 93 8000 1 0 14:00 09.09.2019
2228 Rain 14 1009 93 6000 1.5 180 13:41 09.09.2019
2229 Rain 14 1009 93 7000 1 0 13:19 09.09.2019
2230 Rain 13 1009 93 7000 1 0 12:57 09.09.2019
2231 Rain 13 1009 93 8000 0.5 0 12:37 09.09.2019
2232 Rain 13 1009 93 10000 0.4 126.059 12:18 09.09.2019
2233 Rain 13 1009 100 10000 0.5 0 11:43 09.09.2019
2234 Rain 12 1009 100 10000 1 240 11:20 09.09.2019
2235 Rain 12 1009 100 10000 1 240 10:57 09.09.2019
2236 Rain 13 1009 93 9000 0.5 0 10:38 09.09.2019
2237 Rain 12 1009 93 8000 0.5 360 10:19 09.09.2019
2238 Rain 12 1009 100 8000 0.5 0 09:48 09.09.2019
2239 Rain 12 1009 100 8000 0.5 0 09:28 09.09.2019
2240 Rain 12 1009 100 10000 0.5 360 08:56 09.09.2019
2241 Rain 12 1009 100 10000 1 40 08:38 09.09.2019
2242 Rain 12 1009 100 10000 1 40 08:19 09.09.2019
2243 Rain 12 1009 100 7000 1 0 07:41 09.09.2019
2244 Rain 12 1009 100 7000 1 0 07:21 09.09.2019
2245 Rain 12 1009 100 9000 1.5 40 06:54 09.09.2019
2246 Rain 12 1009 100 8000 1.5 20 06:27 09.09.2019
2247 Rain 12 1013 100 6000 2.1 80 03:21 09.09.2019
2248 Drizzle 12 1013 100 4400 2.6 80 02:42 09.09.2019
2249 Drizzle 12 1014 100 5000 2.6 110 01:25 09.09.2019
2250 Rain 12 1015 100 9000 2.6 100 00:24 09.09.2019
2251 Drizzle 13 1015 100 4200 2.1 100 23:56 08.09.2019
2252 Rain 13 1016 93 3400 2.1 110 23:38 08.09.2019
2253 Rain 13 1016 93 3400 2.1 100 23:19 08.09.2019
2254 Drizzle 13 1017 82 8000 2.1 200 22:41 08.09.2019
2255 Drizzle 13 1017 82 8000 2.1 200 22:22 08.09.2019
2256 Clouds 14 1017 82 10000 1.5 190 21:58 08.09.2019
2257 Clouds 14 1017 87 10000 0.5 0 21:40 08.09.2019
2258 Clouds 14 1017 87 10000 0.5 0 21:22 08.09.2019
2259 Clouds 14 1017 82 10000 1.5 240 20:55 08.09.2019
2260 Clouds 14 1018 82 10000 2.6 200 20:37 08.09.2019
2261 Clouds 15 1018 82 10000 3.1 190 20:18 08.09.2019
2262 Clouds 15 1018 82 10000 3.1 190 20:18 08.09.2019
2263 Clouds 15 1018 82 10000 3.1 190 20:18 08.09.2019
2264 Clouds 15 1019 82 10000 3.1 200 19:39 08.09.2019
2265 Clouds 15 1019 82 10000 3.1 200 19:21 08.09.2019
2266 Drizzle 15 1019 82 10000 3.6 220 18:59 08.09.2019
2267 Clouds 15 1019 72 10000 4.6 220 18:39 08.09.2019
2268 Clouds 15 1019 72 10000 3.6 220 18:19 08.09.2019
2269 Clouds 15 1019 72 10000 3.6 220 17:58 08.09.2019
2270 Clouds 15 1020 72 10000 3.1 240 17:37 08.09.2019
2271 Clouds 15 1020 72 10000 2.1 210 17:18 08.09.2019
2272 Clouds 15 1020 72 10000 2.1 210 16:55 08.09.2019
2273 Clouds 15 1021 72 10000 2.1 200 16:37 08.09.2019
2274 Clouds 15 1021 76 10000 1.5 0 16:18 08.09.2019
2275 Clouds 15 1022 76 10000 1.5 0 15:41 08.09.2019
2276 Clouds 15 1022 76 10000 1.5 0 15:22 08.09.2019
2277 Clouds 15 1022 76 10000 1.5 0 15:22 08.09.2019
2278 Clouds 15 1022 71 10000 1 0 14:59 08.09.2019
2279 Clouds 15 1022 71 10000 1 0 14:39 08.09.2019
2280 Clouds 15 1022 71 10000 1 0 14:21 08.09.2019
2281 Clouds 14 1023 76 10000 1 0 13:57 08.09.2019
2282 Clouds 14 1023 81 10000 0.5 0 13:38 08.09.2019
2283 Clouds 14 1023 76 10000 2.6 190 13:20 08.09.2019
2284 Clouds 13 1024 82 10000 1.5 0 12:44 08.09.2019
2285 Clouds 13 1024 82 10000 1.5 0 12:24 08.09.2019
2286 Clouds 12 1024 93 10000 1 0 11:59 08.09.2019
2287 Clouds 11 1024 93 10000 1 0 11:41 08.09.2019
2288 Clouds 10 1024 100 10000 1 0 11:20 08.09.2019
2289 Clouds 10 1024 100 10000 1 0 10:59 08.09.2019
2290 Clouds 9 1024 100 10000 1 0 10:41 08.09.2019
2291 Clouds 9 1024 100 10000 1 0 10:22 08.09.2019
2292 Clouds 9 1024 100 10000 1 0 10:22 08.09.2019
2293 Clouds 8 1025 100 10000 0.5 0 09:55 08.09.2019
2294 Fog 7 1025 100 8000 0.5 270 09:37 08.09.2019
2295 Fog 6 1025 100 6000 0.5 340 09:18 08.09.2019
2296 Fog 5 1025 93 500 0.87 265.308 08:39 08.09.2019
2297 Fog 5 1025 93 500 0.5 50 08:18 08.09.2019
2298 Fog 5 1025 93 500 0.5 240 07:41 08.09.2019
2299 Fog 5 1025 100 800 1 240 07:21 08.09.2019
2300 Fog 5 1025 100 800 1 240 06:54 08.09.2019
2301 Fog 5 1025 100 800 1 240 06:34 08.09.2019
2302 Fog 5 1026 100 10000 0.79 255.264 05:39 08.09.2019
2303 Clear 6 1026 100 10000 1 0 04:27 08.09.2019
2304 Clouds 6 1027 100 10000 1.5 250 03:19 08.09.2019
2305 Clouds 6 1027 100 10000 1.5 250 03:19 08.09.2019
2306 Clouds 7 1027 93 10000 1.5 230 02:29 08.09.2019
2307 Clouds 7 1027 93 10000 0.5 0 01:52 08.09.2019
2308 Clouds 8 1027 93 10000 0.5 0 01:23 08.09.2019
2309 Clouds 8 1027 93 10000 2.6 230 00:46 08.09.2019
2310 Clouds 8 1027 93 10000 2.6 230 00:27 08.09.2019
2311 Clouds 9 1027 93 10000 2.6 240 23:39 07.09.2019
2312 Clouds 9 1027 93 10000 2.6 240 23:21 07.09.2019
2313 Clouds 10 1027 93 10000 2.1 250 22:59 07.09.2019
2314 Clouds 10 1027 81 10000 2.6 240 22:40 07.09.2019
2315 Clouds 10 1027 81 10000 2.6 240 22:22 07.09.2019
2316 Clouds 11 1027 76 10000 3.6 240 21:45 07.09.2019
2317 Clouds 12 1027 76 10000 3.6 240 21:26 07.09.2019
2318 Clouds 13 1027 67 10000 2.6 260 20:59 07.09.2019
2319 Clouds 14 1026 62 10000 3.1 260 20:39 07.09.2019
2320 Clouds 14 1026 62 10000 3.1 260 20:20 07.09.2019
2321 Clouds 15 1026 59 10000 1.5 0 19:55 07.09.2019
2322 Clouds 15 1026 51 10000 1.5 0 19:37 07.09.2019
2323 Clouds 15 1026 51 10000 1.5 0 19:19 07.09.2019
2324 Clouds 15 1026 59 10000 2.1 310 18:56 07.09.2019
2325 Clouds 15 1026 51 10000 2.6 290 18:37 07.09.2019
2326 Clouds 16 1026 51 10000 2.1 310 18:18 07.09.2019
2327 Clouds 15 1026 51 10000 2.1 310 17:56 07.09.2019
2328 Clouds 16 1026 51 10000 4.1 280 17:38 07.09.2019
2329 Clouds 16 1026 51 10000 4.1 280 17:38 07.09.2019
2330 Clouds 16 1027 48 10000 3.1 300 17:18 07.09.2019
2331 Clouds 16 1027 48 10000 2.6 0 16:43 07.09.2019
2332 Clouds 16 1027 48 10000 2.6 0 16:43 07.09.2019
2333 Clouds 16 1027 48 10000 2.6 0 16:23 07.09.2019
2334 Clouds 16 1027 48 10000 1.5 0 15:57 07.09.2019
2335 Clouds 15 1027 48 10000 2.1 170 15:38 07.09.2019
2336 Clouds 15 1027 48 10000 2.1 170 15:20 07.09.2019
2337 Clouds 15 1027 51 10000 1 0 14:55 07.09.2019
2338 Clouds 15 1027 51 10000 1 0 14:36 07.09.2019
2339 Clouds 15 1027 51 10000 1 0 14:18 07.09.2019
2340 Clouds 15 1027 54 10000 1 0 13:43 07.09.2019
2341 -273 0 0 0 0 0 13:25 07.09.2019
2342 Clouds 15 1027 54 10000 1 0 13:25 07.09.2019
2343 Clouds 14 1026 62 10000 1.5 0 12:46 07.09.2019
2344 Clear 13 1026 62 10000 1.5 0 12:26 07.09.2019
2345 Clear 13 1026 66 10000 1 0 11:59 07.09.2019
2346 Clear 12 1026 76 10000 1 0 11:40 07.09.2019
2347 Clear 11 1026 81 10000 1.5 0 11:21 07.09.2019
2348 Clear 11 1026 81 10000 1 0 10:41 07.09.2019
2349 Clear 11 1026 81 10000 1 0 10:41 07.09.2019
2350 Clear 10 1026 81 10000 1 0 10:22 07.09.2019
2351 Clear 9 1025 93 10000 0.5 0 09:57 07.09.2019
2352 Clear 9 1025 93 10000 1 0 09:39 07.09.2019
2353 Clouds 8 1025 93 10000 1 0 09:20 07.09.2019
2354 Clouds 8 1025 93 10000 1 0 09:20 07.09.2019
2355 Clouds 7 1024 93 10000 1.5 0 08:44 07.09.2019
2356 Clouds 7 1024 93 10000 1.5 0 08:26 07.09.2019
2357 Clear 7 1023 93 10000 0.5 0 07:48 07.09.2019
2358 Clear 7 1023 93 10000 0.5 0 07:28 07.09.2019
2359 Clear 7 1022 93 10000 1.5 0 06:53 07.09.2019
2360 Clear 7 1022 93 10000 1.5 0 06:21 07.09.2019
2361 Clear 7 1022 93 10000 2.1 270 05:31 07.09.2019
2362 Clear 8 1022 87 10000 1 0 04:23 07.09.2019
2363 Clear 9 1021 87 10000 2.6 210 02:50 07.09.2019
2364 Clear 10 1020 93 10000 3.1 290 02:20 07.09.2019
2365 Clouds 10 1020 93 10000 2.6 270 01:26 07.09.2019
2366 Clouds 11 1019 87 10000 2.1 260 00:42 07.09.2019
2367 Clouds 11 1019 87 10000 4.1 270 00:19 07.09.2019
2368 Clouds 11 1019 81 10000 5.1 270 23:41 06.09.2019
2369 Clouds 12 1019 81 10000 5.1 270 23:22 06.09.2019
2370 Clouds 12 1018 81 10000 5.1 280 22:58 06.09.2019
2371 Clouds 12 1018 76 10000 5.7 280 22:38 06.09.2019
2372 Clouds 12 1018 76 10000 5.7 280 22:19 06.09.2019
2373 Clouds 13 1017 76 10000 4.1 280 21:57 06.09.2019
2374 Clouds 13 1017 76 10000 4.6 260 21:39 06.09.2019
2375 Clouds 13 1017 76 10000 4.6 260 21:39 06.09.2019
2376 Clouds 14 1017 76 10000 4.6 260 21:20 06.09.2019
2377 Clouds 14 1017 76 10000 3.1 250 20:57 06.09.2019
2378 Clouds 14 1016 72 10000 4.6 260 20:39 06.09.2019
2379 Clouds 14 1016 72 10000 4.6 260 20:39 06.09.2019
2380 Clouds 14 1016 72 10000 4.6 260 20:21 06.09.2019
2381 Clouds 15 1016 67 10000 3.6 270 19:55 06.09.2019
2382 Clouds 15 1016 77 10000 2.6 250 19:37 06.09.2019
2383 Clouds 15 1015 77 10000 5.7 250 19:18 06.09.2019
2384 Clouds 15 1015 77 10000 5.7 250 18:41 06.09.2019
2385 Clouds 15 1015 77 10000 5.7 250 18:41 06.09.2019
2386 Clouds 15 1015 77 10000 5.7 250 18:23 06.09.2019
2387 Rain 15 1015 77 10000 6.7 260 17:58 06.09.2019
2388 Rain 15 1015 72 10000 9.3 260 17:37 06.09.2019
2389 Rain 15 1015 72 10000 9.3 260 17:19 06.09.2019
2390 Rain 15 1014 82 10000 6.7 270 16:39 06.09.2019
2391 Rain 15 1014 82 10000 6.7 270 16:19 06.09.2019
2392 Clouds 15 1014 82 10000 7.2 250 15:42 06.09.2019
2393 Clouds 15 1014 82 10000 7.2 250 15:42 06.09.2019
2394 Clouds 15 1014 82 10000 7.2 250 15:42 06.09.2019
2395 Clouds 15 1014 82 10000 7.2 250 15:23 06.09.2019
2396 Rain 15 1013 82 10000 5.7 250 14:48 06.09.2019
2397 Rain 15 1013 76 10000 8.7 260 14:20 06.09.2019
2398 Rain 14 1013 76 10000 8.7 260 13:59 06.09.2019
2399 Rain 14 1013 76 10000 6.7 250 13:41 06.09.2019
2400 Rain 14 1013 76 10000 6.7 250 13:19 06.09.2019
2401 Rain 13 1013 82 10000 7.7 260 12:38 06.09.2019
2402 Rain 13 1013 82 10000 7.7 260 12:38 06.09.2019
2403 Rain 13 1013 82 10000 7.7 260 12:19 06.09.2019
2404 Rain 12 1013 82 10000 6.2 250 11:54 06.09.2019
2405 Rain 12 1013 81 10000 4.6 250 11:36 06.09.2019
2406 Rain 12 1013 81 10000 4.6 250 11:18 06.09.2019
2407 Rain 12 1012 81 10000 6.7 260 10:40 06.09.2019
2408 Rain 12 1012 81 10000 6.7 260 10:21 06.09.2019
2409 Rain 12 1012 81 10000 7.7 250 09:41 06.09.2019
2410 Clouds 12 1012 76 10000 6.7 250 09:21 06.09.2019
2411 Clouds 11 1012 76 10000 6.7 250 08:58 06.09.2019
2412 Rain 11 1012 81 10000 6.7 260 08:39 06.09.2019
2413 Rain 11 1012 81 10000 6.7 260 08:39 06.09.2019
2414 Clouds 11 1011 81 10000 7.2 250 08:21 06.09.2019
2415 Rain 11 1012 81 10000 5.7 240 07:45 06.09.2019
2416 Rain 11 1012 81 10000 5.7 240 07:27 06.09.2019
2417 Rain 12 1011 87 10000 4.1 230 06:56 06.09.2019
2418 Drizzle 13 1011 93 3800 9.3 210 06:19 06.09.2019
2419 Rain 13 1011 93 5000 10.3 220 05:41 06.09.2019
2420 Drizzle 12 1012 93 3600 13.4 220 04:45 06.09.2019
2421 Rain 12 1012 93 3700 12.9 210 03:49 06.09.2019
2422 Clouds 13 1015 82 10000 12.3 220 01:54 06.09.2019
2423 Clouds 13 1017 82 10000 9.3 230 00:41 06.09.2019
2424 Rain 13 1018 87 10000 5.1 240 23:45 05.09.2019
2425 Rain 13 1018 87 10000 5.1 240 23:45 05.09.2019
2426 Rain 13 1018 87 10000 5.1 240 23:26 05.09.2019
2427 Rain 13 1019 82 10000 5.7 240 22:58 05.09.2019
2428 Rain 13 1019 82 10000 5.7 240 22:58 05.09.2019
2429 Rain 13 1020 82 10000 8.7 250 22:40 05.09.2019
2430 Rain 13 1020 82 10000 8.7 250 22:40 05.09.2019
2431 Rain 13 1020 82 10000 8.7 250 22:22 05.09.2019
2432 Rain 13 1019 82 10000 6.2 240 21:56 05.09.2019
2433 Clouds 13 1021 82 10000 5.7 240 21:37 05.09.2019
2434 Clouds 13 1021 82 10000 5.7 240 21:37 05.09.2019
2435 Clouds 13 1021 76 10000 5.1 250 21:19 05.09.2019
2436 Clouds 14 1021 76 10000 5.1 250 20:56 05.09.2019
2437 Clouds 14 1021 76 10000 5.1 260 20:37 05.09.2019
2438 Clouds 14 1021 76 10000 5.1 260 20:19 05.09.2019
2439 Clouds 14 1021 76 10000 5.7 250 19:42 05.09.2019
2440 Clouds 14 1021 67 10000 6.7 260 19:24 05.09.2019
2441 Clouds 15 1021 67 10000 6.7 260 18:58 05.09.2019
2442 Clouds 15 1022 67 10000 6.2 250 18:39 05.09.2019
2443 Clouds 15 1022 67 10000 6.2 260 18:20 05.09.2019
2444 Clouds 16 1022 67 10000 6.2 260 17:55 05.09.2019
2445 Clouds 16 1022 59 10000 9.8 260 17:37 05.09.2019
2446 Clouds 16 1022 59 10000 9.3 250 17:18 05.09.2019
2447 Clouds 16 1022 59 10000 9.3 260 16:40 05.09.2019
2448 Clouds 17 1022 59 10000 9.3 260 16:20 05.09.2019
2449 Clouds 17 1022 67 10000 9.3 260 15:58 05.09.2019
2450 Clouds 16 1023 67 10000 8.7 260 15:38 05.09.2019
2451 Clouds 16 1022 67 10000 8.2 270 15:18 05.09.2019
2452 Clouds 16 1022 77 10000 7.2 260 14:43 05.09.2019
2453 Clouds 15 1022 77 10000 7.2 260 14:21 05.09.2019
2454 Clouds 15 1022 72 10000 6.7 260 13:44 05.09.2019
2455 Clouds 15 1022 72 10000 6.7 260 13:44 05.09.2019
2456 Clouds 15 1022 72 10000 6.7 260 13:23 05.09.2019
2457 Rain 14 1022 87 10000 6.7 260 12:59 05.09.2019
2458 Rain 14 1022 82 10000 5.7 250 12:40 05.09.2019
2459 Rain 13 1022 93 10000 5.7 230 12:21 05.09.2019
2460 Rain 12 1022 87 10000 4.6 250 11:44 05.09.2019
2461 Rain 12 1023 81 10000 4.1 250 11:20 05.09.2019
2462 -273 0 0 0 0 0 10:55 05.09.2019
2463 Clouds 11 1023 81 10000 4.6 260 10:36 05.09.2019
2464 Clouds 11 1023 81 10000 3.6 240 10:18 05.09.2019
2465 Clouds 10 1023 81 10000 4.1 250 09:40 05.09.2019
2466 Clouds 10 1023 81 10000 4.1 250 09:40 05.09.2019
2467 Clouds 10 1023 81 10000 4.1 250 09:20 05.09.2019
2468 Clouds 9 1023 87 10000 4.6 230 08:47 05.09.2019
2469 Clouds 8 1023 87 10000 4.6 230 08:28 05.09.2019
2470 Clouds 8 1023 87 10000 4.6 230 08:28 05.09.2019
2471 Clouds 7 1022 87 10000 3.1 220 07:56 05.09.2019
2472 Clouds 7 1022 87 10000 3.1 220 07:56 05.09.2019
2473 Clouds 7 1022 87 10000 3.1 220 07:56 05.09.2019
2474 Clouds 8 1022 87 10000 4.6 220 07:37 05.09.2019
2475 Clouds 8 1022 87 10000 4.6 220 07:19 05.09.2019
2476 Clouds 8 1022 87 10000 5.1 230 06:39 05.09.2019
2477 Clouds 8 1022 87 10000 5.1 230 06:18 05.09.2019
2478 Clouds 9 1022 81 10000 5.1 260 05:40 05.09.2019
2479 Clouds 9 1022 81 10000 5.1 260 05:22 05.09.2019
2480 Clouds 8 1022 81 10000 4.1 240 04:29 05.09.2019
2481 Clouds 9 1022 70 10000 4.6 260 03:41 05.09.2019
2482 Clouds 9 1021 70 10000 4.1 280 02:54 05.09.2019
2483 Clouds 9 1021 70 10000 3.6 290 02:28 05.09.2019
2484 Clouds 9 1020 76 10000 3.1 290 01:42 05.09.2019
2485 Clouds 10 1020 71 10000 3.6 280 00:51 05.09.2019
2486 Clouds 10 1020 71 10000 3.6 280 00:23 05.09.2019
2487 Clouds 10 1019 76 10000 3.6 290 23:57 04.09.2019
2488 Clouds 10 1018 76 10000 3.1 250 23:39 04.09.2019
2489 Clouds 10 1018 76 10000 4.1 270 23:18 04.09.2019
2490 Clouds 10 1018 76 10000 4.1 270 23:18 04.09.2019
2491 Clouds 10 1018 76 10000 4.1 270 23:18 04.09.2019
2492 Clouds 11 1017 76 10000 7.2 300 22:47 04.09.2019
2493 Clouds 11 1017 76 10000 7.2 300 22:19 04.09.2019
2494 Clouds 12 1015 71 10000 7.7 300 21:41 04.09.2019
2495 Rain 12 1015 71 10000 7.7 300 21:21 04.09.2019
2496 Clouds 12 1014 71 10000 7.2 300 20:58 04.09.2019
2497 Clouds 12 1014 71 10000 7.2 300 20:58 04.09.2019
2498 Clouds 12 1013 71 10000 5.1 310 20:40 04.09.2019
2499 Clouds 13 1013 71 10000 5.1 310 20:19 04.09.2019
2500 Rain 13 1012 71 10000 5.7 290 19:57 04.09.2019
2501 Rain 13 1012 71 10000 5.7 290 19:39 04.09.2019
2502 Rain 13 1011 71 10000 7.7 290 19:19 04.09.2019
2503 Rain 14 1010 72 10000 7.7 290 18:39 04.09.2019
2504 Clouds 15 1009 59 10000 7.7 300 18:20 04.09.2019
2505 Clouds 16 1009 59 10000 7.7 300 17:54 04.09.2019
2506 Clouds 16 1009 59 10000 7.7 300 17:54 04.09.2019
2507 Clouds 15 1007 59 10000 7.2 350 17:36 04.09.2019
2508 Rain 15 1006 67 10000 5.7 350 17:18 04.09.2019
2509 Clouds 14 1007 59 10000 7.2 350 17:18 04.09.2019
2510 Rain 15 1005 77 10000 6.7 350 16:46 04.09.2019
2511 Rain 15 1005 77 10000 6.7 350 16:46 04.09.2019
2512 Rain 15 1005 77 10000 6.7 350 16:27 04.09.2019
2513 Rain 15 1004 77 10000 5.1 290 15:56 04.09.2019
2514 Rain 15 1003 82 10000 2.1 260 15:38 04.09.2019
2515 Rain 15 1003 82 10000 2.1 260 15:20 04.09.2019
2516 Rain 15 1002 87 9000 4.6 220 14:56 04.09.2019
2517 Rain 14 1002 87 10000 4.6 250 14:37 04.09.2019
2518 Rain 14 1002 82 10000 7.2 240 14:18 04.09.2019
2519 Rain 13 1002 87 10000 7.7 220 13:40 04.09.2019
2520 Rain 12 1002 87 10000 7.7 220 13:22 04.09.2019
2521 Rain 12 1002 87 10000 7.7 220 13:22 04.09.2019
2522 Rain 12 1002 93 2600 8.7 210 12:58 04.09.2019
2523 Rain 12 1003 93 3600 11.3 200 12:38 04.09.2019
2524 Rain 11 1003 93 5000 10.3 200 12:19 04.09.2019
2525 Rain 12 1003 93 5000 10.3 200 11:55 04.09.2019
2526 Rain 12 1004 93 10000 7.7 200 11:36 04.09.2019
2527 Rain 12 1004 93 10000 7.7 200 11:18 04.09.2019
2528 Clouds 12 1006 81 10000 8.7 210 10:42 04.09.2019
2529 Clouds 12 1006 81 10000 8.7 210 10:23 04.09.2019
2530 Rain 11 1006 87 10000 7.2 210 09:47 04.09.2019
2531 Rain 11 1006 87 10000 7.2 210 09:27 04.09.2019
2532 Rain 11 1007 87 10000 7.2 210 08:59 04.09.2019
2533 Clouds 11 1007 87 10000 5.7 210 08:40 04.09.2019
2534 Clouds 10 1007 87 10000 5.7 210 08:21 04.09.2019
2535 Clouds 10 1008 87 10000 3.1 210 07:48 04.09.2019
2536 Clouds 10 1008 87 10000 3.1 210 07:29 04.09.2019
2537 Clouds 10 1008 87 10000 4.6 210 06:40 04.09.2019
2538 Rain 11 1009 87 10000 3.6 250 05:19 04.09.2019
2539 Rain 11 1009 87 10000 3.6 250 04:51 04.09.2019
2540 Rain 12 1010 87 10000 5.1 250 03:45 04.09.2019
2541 Clouds 13 1010 93 10000 4.1 230 01:27 04.09.2019
2542 Clouds 13 1010 93 10000 4.1 230 01:27 04.09.2019
2543 Rain 14 1010 93 10000 4.6 230 00:50 04.09.2019
2544 Rain 14 1010 93 10000 4.6 230 00:32 04.09.2019
2545 Rain 14 1010 93 10000 4.1 250 23:54 03.09.2019
2546 Rain 14 1010 93 10000 4.1 250 23:54 03.09.2019
2547 Rain 14 1010 93 10000 3.6 260 23:28 03.09.2019
2548 Rain 15 1011 93 10000 4.1 240 22:59 03.09.2019
2549 Drizzle 15 1011 93 4900 3.1 260 22:40 03.09.2019
2550 Rain 15 1011 93 6000 4.6 230 22:21 03.09.2019
2551 Rain 15 1011 93 6000 4.6 230 21:56 03.09.2019
2552 Rain 15 1011 93 6000 4.6 230 21:56 03.09.2019
2553 Rain 15 1011 93 10000 3.6 220 21:36 03.09.2019
2554 Rain 15 1012 93 10000 5.1 220 21:18 03.09.2019
2555 Rain 15 1012 93 10000 6.7 220 20:42 03.09.2019
2556 Rain 15 1012 93 10000 6.7 220 20:24 03.09.2019
2557 Rain 15 1012 93 10000 6.7 220 20:24 03.09.2019
2558 Rain 15 1012 93 10000 6.7 220 20:24 03.09.2019
2559 Rain 15 1012 93 10000 6.7 220 19:56 03.09.2019
2560 Drizzle 15 1012 100 3700 5.1 220 19:37 03.09.2019
2561 Rain 15 1012 87 10000 5.1 220 19:18 03.09.2019
2562 Rain 15 1013 93 10000 3.1 230 18:44 03.09.2019
2563 Rain 16 1013 93 10000 3.1 230 18:26 03.09.2019
2564 Rain 16 1013 93 10000 3.6 240 17:58 03.09.2019
2565 Rain 16 1013 93 10000 6.7 220 17:39 03.09.2019
2566 Rain 16 1013 93 10000 6.7 220 17:19 03.09.2019
2567 Rain 16 1013 93 10000 6.7 220 17:19 03.09.2019
2568 Rain 16 1013 93 10000 6.7 220 16:55 03.09.2019
2569 Rain 17 1014 93 8000 6.7 220 16:36 03.09.2019
2570 Rain 16 1014 93 4600 6.2 220 16:18 03.09.2019
2571 Rain 16 1014 93 8000 7.2 220 15:39 03.09.2019
2572 Rain 16 1014 93 6000 6.7 210 15:21 03.09.2019
2573 Rain 16 1014 93 6000 6.7 210 14:58 03.09.2019
2574 Rain 16 1014 93 7000 6.7 210 14:40 03.09.2019
2575 Rain 16 1014 93 7000 6.7 210 14:20 03.09.2019
2576 Drizzle 16 1014 100 6000 6.7 210 13:56 03.09.2019
2577 Rain 16 1015 93 10000 6.7 210 13:37 03.09.2019
2578 Rain 16 1015 93 10000 6.7 210 13:19 03.09.2019
2579 Clouds 16 1015 93 10000 7.2 210 12:48 03.09.2019
2580 Clouds 16 1015 93 10000 7.2 210 12:29 03.09.2019
2581 Clouds 16 1015 93 8000 7.2 210 11:57 03.09.2019
2582 Rain 16 1015 93 10000 5.7 210 11:38 03.09.2019
2583 Rain 16 1016 93 7000 7.7 200 11:18 03.09.2019
2584 Rain 15 1016 93 10000 7.7 210 10:41 03.09.2019
2585 Rain 15 1016 93 10000 7.7 210 10:22 03.09.2019
2586 Rain 15 1015 93 10000 7.2 210 09:53 03.09.2019
2587 Rain 15 1015 93 7000 6.7 210 09:34 03.09.2019
2588 Drizzle 14 1015 93 3900 5.7 210 08:59 03.09.2019
2589 Drizzle 14 1015 93 3500 3.6 220 08:39 03.09.2019
2590 Clouds 14 1015 93 7000 4.1 220 08:20 03.09.2019
2591 Rain 14 1015 93 10000 4.6 210 07:43 03.09.2019
2592 Rain 14 1015 93 10000 4.6 210 07:43 03.09.2019
2593 Rain 14 1015 93 10000 4.6 210 07:24 03.09.2019
2594 Rain 14 1015 93 10000 4.6 210 07:24 03.09.2019
2595 Rain 14 1015 100 10000 2.1 210 06:55 03.09.2019
2596 Rain 14 1015 100 10000 2.1 210 06:37 03.09.2019
2597 Clouds 14 1015 87 10000 4.6 230 03:44 03.09.2019
2598 Clouds 14 1015 93 10000 3.6 250 02:52 03.09.2019
2599 Clouds 14 1014 87 10000 4.6 260 02:32 03.09.2019
2600 Clouds 14 1014 87 10000 3.6 250 01:59 03.09.2019
2601 Clouds 14 1014 87 10000 3.6 250 01:41 03.09.2019
2602 Rain 14 1014 87 10000 4.6 260 01:22 03.09.2019
2603 Clouds 14 1014 87 10000 6.7 250 00:28 03.09.2019
2604 Clouds 14 1014 93 10000 6.7 250 23:56 02.09.2019
2605 Rain 14 1013 93 9000 6.2 240 23:36 02.09.2019
2606 Rain 14 1013 93 9000 6.2 240 23:36 02.09.2019
2607 Clouds 14 1013 93 10000 6.7 240 23:18 02.09.2019
2608 Clouds 14 1013 93 10000 6.7 240 23:18 02.09.2019
2609 Clouds 14 1013 93 10000 6.7 240 23:18 02.09.2019
2610 Clouds 14 1013 93 10000 6.7 240 23:18 02.09.2019
2611 Clouds 14 1013 93 10000 6.7 240 22:54 02.09.2019
2612 Clouds 14 1013 93 10000 6.7 240 22:54 02.09.2019
2613 Drizzle 14 1013 93 10000 7.2 240 22:36 02.09.2019
2614 Rain 14 1013 100 10000 7.7 240 22:18 02.09.2019
2615 Rain 14 1013 100 10000 7.7 240 21:54 02.09.2019
2616 Haze 14 1012 100 4500 8.7 230 21:36 02.09.2019
2617 Rain 14 1012 100 6000 7.7 230 21:18 02.09.2019
2618 Rain 14 1012 93 10000 8.2 230 20:41 02.09.2019
2619 Rain 14 1012 93 10000 8.2 230 20:21 02.09.2019
2620 Rain 14 1012 93 10000 8.2 230 19:57 02.09.2019
2621 Drizzle 14 1012 93 4100 8.2 230 19:39 02.09.2019
2622 Rain 14 1012 93 10000 10.3 220 19:21 02.09.2019
2623 Rain 14 1012 93 7000 9.3 230 18:41 02.09.2019
2624 Drizzle 14 1012 93 5000 9.3 220 18:22 02.09.2019
2625 Drizzle 14 1012 93 5000 9.3 220 17:58 02.09.2019
2626 Drizzle 14 1012 93 4000 10.8 220 17:39 02.09.2019
2627 Drizzle 15 1012 93 4000 10.8 220 17:21 02.09.2019
2628 Rain 15 1012 93 7000 12.3 220 16:58 02.09.2019
2629 Rain 15 1013 93 3500 12.3 220 16:37 02.09.2019
2630 Rain 15 1013 93 3500 12.3 220 16:19 02.09.2019
2631 Rain 15 1013 93 3000 10.3 230 15:44 02.09.2019
2632 Rain 14 1013 93 3000 10.3 230 15:22 02.09.2019
2633 Rain 14 1013 93 6000 11.8 220 14:56 02.09.2019
2634 Rain 14 1013 93 5000 11.8 220 14:37 02.09.2019
2635 Rain 14 1014 93 3200 9.8 210 14:19 02.09.2019
2636 Drizzle 14 1014 93 5000 10.3 220 13:46 02.09.2019
2637 Drizzle 14 1014 93 5000 10.3 220 13:46 02.09.2019
2638 Drizzle 14 1014 93 5000 10.3 220 13:25 02.09.2019
2639 Drizzle 14 1014 93 5000 10.3 220 12:59 02.09.2019
2640 Rain 14 1014 87 10000 9.8 210 12:41 02.09.2019
2641 Rain 13 1014 87 10000 9.8 210 12:23 02.09.2019
2642 Rain 13 1015 93 10000 7.7 210 11:56 02.09.2019
2643 Rain 13 1015 93 9000 6.2 200 11:37 02.09.2019
2644 Rain 13 1015 93 9000 6.2 200 11:37 02.09.2019
2645 Rain 13 1015 93 9000 6.2 200 11:19 02.09.2019
2646 Rain 12 1016 93 10000 5.7 200 10:42 02.09.2019
2647 Rain 12 1016 93 10000 5.7 200 10:22 02.09.2019
2648 Rain 12 1016 100 10000 1.5 0 09:59 02.09.2019
2649 Rain 12 1016 93 10000 1 0 09:39 02.09.2019
2650 Rain 11 1016 100 10000 1.5 20 09:20 02.09.2019
2651 Rain 11 1016 100 10000 1.5 0 08:43 02.09.2019
2652 Rain 11 1016 100 10000 1.5 0 08:22 02.09.2019
2653 Rain 10 1017 100 9000 1 0 07:57 02.09.2019
2654 Clouds 10 1017 93 9000 1 0 07:37 02.09.2019
2655 Clouds 10 1017 93 9000 1 0 07:19 02.09.2019
2656 Clouds 10 1017 93 9000 1 0 06:42 02.09.2019
2657 Clouds 9 1018 100 10000 1 0 05:54 02.09.2019
2658 Clouds 9 1018 100 10000 1 0 05:54 02.09.2019
2659 Clouds 9 1018 100 10000 1 0 05:53 02.09.2019
2660 Clouds 9 1018 100 10000 1 0 05:25 02.09.2019
2661 Rain 10 1018 100 10000 1.5 250 04:48 02.09.2019
2662 Rain 11 1018 87 10000 3.1 200 02:20 02.09.2019
2663 Rain 11 1018 87 10000 3.1 200 01:37 02.09.2019
2664 Rain 11 1018 87 10000 3.1 200 01:37 02.09.2019
2665 Clouds 11 1018 81 10000 1.5 200 00:39 02.09.2019
2666 Clouds 11 1018 93 10000 1.5 0 00:19 02.09.2019
2667 Clouds 11 1018 87 10000 3.1 250 23:39 01.09.2019
2668 Clouds 10 1018 87 10000 3.1 250 23:19 01.09.2019
2669 Rain 11 1018 87 10000 2.6 260 22:56 01.09.2019
2670 Rain 11 1018 87 10000 2.6 260 22:56 01.09.2019
2671 Clouds 11 1018 87 10000 2.1 250 22:38 01.09.2019
2672 Rain 11 1018 81 10000 2.1 250 22:18 01.09.2019
2673 Clouds 12 1017 81 10000 3.1 290 21:42 01.09.2019
2674 Clouds 12 1017 81 10000 3.1 290 21:23 01.09.2019
2675 Clouds 12 1017 81 10000 3.1 250 20:58 01.09.2019
2676 Clouds 13 1017 81 10000 3.1 250 20:39 01.09.2019
2677 Rain 13 1016 71 10000 3.6 260 20:19 01.09.2019
2678 Rain 14 1016 71 10000 3.6 260 19:58 01.09.2019
2679 Clouds 14 1016 67 10000 5.7 250 19:39 01.09.2019
2680 Clouds 14 1016 67 10000 6.2 250 19:21 01.09.2019
2681 Clouds 14 1016 67 10000 6.2 260 18:44 01.09.2019
2682 Clouds 15 1016 62 10000 5.7 270 18:26 01.09.2019
2683 Clouds 15 1016 62 10000 5.7 270 17:58 01.09.2019
2684 Clouds 15 1015 62 10000 5.7 270 17:39 01.09.2019
2685 Clouds 16 1015 62 10000 5.7 260 17:19 01.09.2019
2686 Clouds 15 1015 67 10000 5.7 300 16:41 01.09.2019
2687 Clouds 15 1015 67 10000 5.7 290 16:20 01.09.2019
2688 Clouds 15 1015 67 10000 5.7 290 15:56 01.09.2019
2689 Clouds 15 1015 67 10000 5.7 290 15:55 01.09.2019
2690 Clouds 15 1015 62 10000 5.7 270 15:37 01.09.2019
2691 Clouds 15 1014 62 10000 6.2 270 15:19 01.09.2019
2692 Clouds 15 1014 67 10000 5.1 290 14:40 01.09.2019
2693 Clouds 15 1014 67 10000 5.1 290 14:21 01.09.2019
2694 Rain 15 1014 76 10000 5.1 260 13:56 01.09.2019
2695 Rain 15 1013 67 10000 5.1 270 13:37 01.09.2019
2696 Rain 14 1013 67 10000 5.1 290 13:19 01.09.2019
2697 Rain 14 1013 82 10000 4.1 260 12:42 01.09.2019
2698 Rain 14 1013 82 10000 4.1 260 12:24 01.09.2019
2699 Clouds 13 1012 76 10000 5.7 250 11:42 01.09.2019
2700 Clouds 13 1012 76 10000 5.7 250 11:21 01.09.2019
2701 Clouds 13 1012 76 10000 4.6 270 10:59 01.09.2019
2702 Clouds 13 1012 81 10000 4.1 250 10:41 01.09.2019
2703 Rain 12 1011 87 10000 3.6 250 10:23 01.09.2019
2704 Rain 11 1011 81 10000 5.1 250 09:43 01.09.2019
2705 Clouds 11 1011 81 10000 5.1 250 09:25 01.09.2019
2706 Clouds 10 1011 93 10000 2.6 260 08:45 01.09.2019
2707 Clouds 10 1011 93 10000 2.6 260 08:24 01.09.2019
2708 Clouds 10 1010 87 10000 3.6 260 07:56 01.09.2019
2709 Clouds 10 1010 93 10000 3.6 250 07:38 01.09.2019
2710 Clouds 10 1010 93 10000 3.6 250 07:38 01.09.2019
2711 Clouds 10 1010 93 10000 4.1 230 06:51 01.09.2019
2712 Clouds 10 1010 93 10000 4.1 230 06:28 01.09.2019
2713 Rain 10 1010 87 10000 3.1 250 05:56 01.09.2019
2714 Clear 10 1009 93 10000 4.1 240 04:32 01.09.2019
2715 Clear 10 1009 81 10000 4.6 250 03:42 01.09.2019
2716 Rain 11 1009 87 10000 4.6 250 02:58 01.09.2019
2717 Rain 10 1009 87 10000 5.7 240 02:26 01.09.2019
2718 Rain 11 1009 93 10000 4.6 230 01:50 01.09.2019
2719 Clear 11 1009 93 10000 4.6 230 01:23 01.09.2019
2720 Clear 11 1008 81 10000 3.1 250 00:46 01.09.2019
2721 Clear 11 1008 81 10000 3.1 250 00:22 01.09.2019
2722 Clear 11 1008 87 10000 3.6 230 23:54 31.08.2019
2723 Clear 11 1008 87 10000 3.6 230 23:36 31.08.2019
2724 Clear 11 1008 87 10000 3.6 230 23:18 31.08.2019
2725 Clear 11 1007 87 10000 3.1 240 22:42 31.08.2019
2726 Clear 11 1007 87 10000 3.1 240 22:24 31.08.2019
2727 Clear 12 1007 87 10000 3.6 250 21:55 31.08.2019
2728 Rain 12 1007 76 10000 6.2 250 21:37 31.08.2019
2729 Rain 12 1006 76 10000 6.2 250 21:19 31.08.2019
2730 Rain 13 1006 76 10000 7.7 250 20:46 31.08.2019
2731 Rain 13 1006 76 10000 7.7 250 20:28 31.08.2019
2732 Rain 13 1005 71 10000 7.2 250 19:55 31.08.2019
2733 Rain 14 1007 76 10000 5.1 290 19:37 31.08.2019
2734 Rain 14 1005 71 10000 6.7 250 19:19 31.08.2019
2735 Rain 14 1005 76 10000 7.2 250 18:39 31.08.2019
2736 Rain 15 1005 67 10000 7.2 250 18:20 31.08.2019
2737 Rain 15 1005 67 10000 7.2 250 17:55 31.08.2019
2738 Rain 15 1004 62 10000 7.2 260 17:37 31.08.2019
2739 Rain 15 1003 62 10000 8.2 270 17:18 31.08.2019
2740 Rain 15 1003 62 10000 8.2 270 16:55 31.08.2019
2741 Rain 15 1003 72 10000 7.2 250 16:37 31.08.2019
2742 Rain 15 1003 72 10000 7.2 250 16:18 31.08.2019
2743 Clouds 15 1002 71 10000 9.3 260 15:42 31.08.2019
2744 Clouds 15 1002 71 10000 9.3 260 15:19 31.08.2019
2745 Rain 15 1001 71 10000 9.8 270 14:55 31.08.2019
2746 Clouds 15 1001 67 10000 10.3 270 14:36 31.08.2019
2747 Clouds 15 1001 67 10000 10.3 270 14:18 31.08.2019
2748 Clouds 14 999 82 10000 8.7 260 13:40 31.08.2019
2749 Clouds 14 999 82 10000 8.7 260 13:21 31.08.2019
2750 Clouds 14 997 82 10000 8.2 250 12:57 31.08.2019
2751 Clouds 14 997 82 10000 8.2 250 12:57 31.08.2019
2752 Rain 15 996 82 10000 8.2 230 12:38 31.08.2019
2753 Rain 16 996 87 10000 7.2 230 12:19 31.08.2019
2754 Rain 16 995 93 10000 6.7 210 11:44 31.08.2019
2755 Rain 16 995 93 10000 6.7 210 11:26 31.08.2019
2756 Rain 15 996 93 10000 3.6 190 10:57 31.08.2019
2757 Rain 15 996 93 10000 3.6 190 10:57 31.08.2019
2758 Rain 15 997 93 10000 3.1 140 10:39 31.08.2019
2759 Rain 15 997 93 10000 4.1 180 10:18 31.08.2019
2760 Rain 15 998 93 10000 3.6 180 09:40 31.08.2019
2761 Rain 15 998 93 10000 3.6 180 09:22 31.08.2019
2762 Rain 15 998 93 10000 5.1 190 08:59 31.08.2019
2763 Rain 15 999 93 10000 6.2 190 08:41 31.08.2019
2764 Rain 15 999 93 10000 6.2 190 08:22 31.08.2019
2765 Rain 15 1000 93 5000 9.8 190 07:40 31.08.2019
2766 Rain 15 1000 93 5000 9.8 190 07:19 31.08.2019
2767 Rain 15 1000 93 4600 7.7 190 06:28 31.08.2019
2768 Rain 15 1001 93 5000 8.7 190 05:55 31.08.2019
2769 Rain 15 1002 93 6000 7.2 200 05:29 31.08.2019
2770 Rain 15 1003 93 8000 6.2 180 04:30 31.08.2019
2771 Rain 15 1004 87 7000 5.1 180 03:44 31.08.2019
2772 Rain 16 1004 87 10000 5.7 180 02:23 31.08.2019
2773 Rain 16 1005 93 10000 5.1 180 01:49 31.08.2019
2774 Rain 16 1005 93 10000 5.1 180 01:49 31.08.2019
2775 Rain 16 1005 93 10000 5.1 180 01:31 31.08.2019
2776 Rain 16 1006 87 10000 7.7 190 00:47 31.08.2019
2777 Rain 16 1006 87 10000 7.7 190 00:47 31.08.2019
2778 Rain 16 1006 87 10000 7.7 190 00:27 31.08.2019
2779 Rain 16 1006 93 7000 8.7 190 23:51 30.08.2019
2780 Rain 16 1007 93 10000 7.7 190 23:20 30.08.2019
2781 Rain 16 1007 93 10000 7.7 190 22:59 30.08.2019
2782 Rain 16 1007 93 8000 6.7 190 22:39 30.08.2019
2783 Rain 16 1007 93 8000 6.7 190 22:21 30.08.2019
2784 Rain 16 1007 93 4000 5.7 200 21:57 30.08.2019
2785 Rain 15 1007 100 4100 1 0 21:36 30.08.2019
2786 Drizzle 15 1007 100 3000 2.1 250 21:18 30.08.2019
2787 Drizzle 16 1007 100 3000 2.1 250 20:56 30.08.2019
2788 Rain 16 1008 100 6000 3.1 230 20:38 30.08.2019
2789 Rain 16 1008 100 10000 3.1 220 20:19 30.08.2019
2790 Rain 15 1008 100 10000 3.1 220 19:55 30.08.2019
2791 Rain 15 1008 100 10000 3.1 220 19:36 30.08.2019
2792 Rain 16 1008 93 10000 3.6 220 19:18 30.08.2019
2793 Rain 16 1008 93 10000 4.1 220 18:44 30.08.2019
2794 Rain 16 1008 93 10000 4.1 220 18:24 30.08.2019
2795 Rain 16 1008 93 10000 4.6 230 17:56 30.08.2019
2796 Rain 17 1008 93 6000 3.6 240 17:38 30.08.2019
2797 Rain 17 1008 93 7000 3.1 260 17:19 30.08.2019
2798 Rain 17 1008 93 4000 6.7 250 16:48 30.08.2019
2799 Rain 17 1008 93 4000 6.7 250 16:29 30.08.2019
2800 Rain 17 1007 88 6000 10.8 210 15:58 30.08.2019
2801 Rain 17 1007 88 8000 10.8 210 15:38 30.08.2019
2802 Rain 17 1007 88 8000 10.8 210 15:19 30.08.2019
2803 Rain 18 1007 82 10000 12.3 210 14:44 30.08.2019
2804 Rain 18 1007 82 10000 11.8 210 14:25 30.08.2019
2805 Rain 18 1007 82 10000 11.8 210 13:56 30.08.2019
2806 Clouds 17 1007 82 10000 12.9 210 13:37 30.08.2019
2807 Rain 17 1007 82 10000 12.3 210 13:19 30.08.2019
2808 Rain 17 1007 82 10000 11.8 210 12:42 30.08.2019
2809 Rain 17 1007 82 10000 10.3 210 12:22 30.08.2019
2810 Clouds 17 1007 82 10000 10.3 210 11:43 30.08.2019
2811 Clouds 17 1007 82 10000 10.3 210 11:25 30.08.2019
2812 Rain 16 1007 82 10000 11.8 210 10:59 30.08.2019
2813 Drizzle 16 1007 87 10000 10.8 210 10:37 30.08.2019
2814 Drizzle 16 1007 87 10000 10.8 210 10:37 30.08.2019
2815 Drizzle 16 1007 87 10000 10.8 210 10:18 30.08.2019
2816 Rain 15 1006 93 6000 8.2 200 09:42 30.08.2019
2817 Rain 15 1006 93 6000 8.2 200 09:20 30.08.2019
2818 Rain 15 1007 87 3300 8.7 200 08:58 30.08.2019
2819 Rain 15 1007 87 3600 7.7 200 08:39 30.08.2019
2820 Rain 15 1007 87 3600 7.7 200 08:21 30.08.2019
2821 Rain 15 1007 82 10000 8.7 200 07:43 30.08.2019
2822 Rain 15 1007 82 10000 8.7 200 07:23 30.08.2019
2823 Rain 15 1008 77 10000 7.7 200 06:47 30.08.2019
2824 Rain 15 1008 77 10000 7.7 200 06:29 30.08.2019
2825 Rain 14 1008 82 10000 9.3 210 05:54 30.08.2019
2826 Rain 14 1008 82 10000 9.3 210 05:54 30.08.2019
2827 Rain 15 1009 87 10000 8.2 210 04:20 30.08.2019
2828 Rain 14 1009 87 10000 9.3 220 03:38 30.08.2019
2829 Rain 14 1009 87 10000 9.3 220 03:38 30.08.2019
2830 Rain 14 1009 87 10000 9.3 220 03:18 30.08.2019
2831 Rain 14 1011 87 9000 7.7 180 02:29 30.08.2019
2832 Rain 15 1009 93 3500 5.7 230 01:30 30.08.2019
2833 Rain 15 1009 100 6000 6.2 230 00:45 30.08.2019
2834 Rain 15 1009 100 3100 5.7 240 00:18 30.08.2019
2835 Rain 15 1009 87 9000 5.1 240 23:41 29.08.2019
2836 Rain 15 1009 87 9000 5.1 240 23:21 29.08.2019
2837 Rain 15 1009 87 9000 5.1 240 23:21 29.08.2019
2838 Rain 16 1009 82 10000 7.7 220 22:44 29.08.2019
2839 Rain 16 1009 82 10000 7.7 220 22:25 29.08.2019
2840 Clouds 16 1008 82 10000 10.8 230 21:57 29.08.2019
2841 Clouds 16 1008 82 10000 9.8 220 21:38 29.08.2019
2842 Clouds 16 1008 82 10000 9.8 220 21:20 29.08.2019
2843 Rain 16 1009 82 10000 9.3 220 20:54 29.08.2019
2844 Rain 16 1009 82 10000 9.3 220 20:36 29.08.2019
2845 Rain 16 1009 82 10000 9.8 220 20:18 29.08.2019
2846 Rain 17 1008 77 10000 12.3 220 19:44 29.08.2019
2847 Rain 17 1008 82 10000 10.3 210 19:25 29.08.2019
2848 Rain 17 1009 87 10000 9.3 220 18:44 29.08.2019
2849 Clouds 17 1009 77 10000 9.3 220 18:21 29.08.2019
2850 Clouds 17 1009 77 10000 9.3 220 18:21 29.08.2019
2851 Rain 16 1009 82 10000 10.3 220 17:57 29.08.2019
2852 Rain 16 1009 82 10000 10.3 220 17:39 29.08.2019
2853 Rain 16 1009 87 10000 10.3 210 17:19 29.08.2019
2854 Rain 16 1009 87 10000 10.3 210 17:19 29.08.2019
2855 Rain 16 1009 87 10000 9.3 210 16:57 29.08.2019
2856 Rain 16 1009 87 10000 9.3 210 16:39 29.08.2019
2857 Rain 16 1009 82 10000 10.8 210 16:20 29.08.2019
2858 Haze 16 1009 77 3700 12.3 210 15:39 29.08.2019
2859 Haze 16 1009 77 3700 12.3 210 15:21 29.08.2019
2860 Rain 16 1009 77 10000 10.3 200 14:50 29.08.2019
2861 Clouds 16 1009 77 10000 11.8 200 14:26 29.08.2019
2862 Clouds 16 1009 77 10000 9.3 200 13:59 29.08.2019
2863 Clouds 16 1009 77 10000 9.3 200 13:40 29.08.2019
2864 Clouds 16 1009 77 10000 9.3 200 13:21 29.08.2019
2865 Rain 16 1009 82 10000 8.2 200 12:59 29.08.2019
2866 Clouds 15 1009 77 10000 6.2 200 12:40 29.08.2019
2867 Clouds 15 1009 82 10000 5.7 190 12:22 29.08.2019
2868 Clouds 15 1009 82 10000 5.7 190 11:59 29.08.2019
2869 Rain 15 1009 82 10000 5.1 190 11:39 29.08.2019
2870 Rain 15 1010 82 10000 7.2 180 11:20 29.08.2019
2871 Rain 14 1010 82 10000 6.2 190 10:45 29.08.2019
2872 Rain 14 1010 82 10000 6.2 190 10:25 29.08.2019
2873 Rain 14 1010 87 10000 5.1 190 09:56 29.08.2019
2874 Clouds 13 1010 87 10000 5.1 190 09:38 29.08.2019
2875 Clouds 13 1010 87 10000 5.1 190 09:18 29.08.2019
2876 Rain 12 1010 87 10000 3.6 180 08:41 29.08.2019
2877 Rain 12 1010 87 10000 3.6 180 08:22 29.08.2019
2878 Rain 12 1010 87 10000 6.2 190 07:51 29.08.2019
2879 Clouds 11 1010 93 10000 4.1 190 07:29 29.08.2019
2880 Clouds 11 1010 87 10000 3.1 190 06:53 29.08.2019
2881 Clouds 11 1010 87 10000 3.6 210 06:33 29.08.2019
2882 Clouds 12 1010 87 10000 5.1 210 05:43 29.08.2019
2883 Clouds 12 1011 93 10000 3.1 230 04:51 29.08.2019
2884 Clouds 12 1011 87 10000 3.6 200 04:30 29.08.2019
2885 Clouds 12 1010 87 10000 3.6 210 03:35 29.08.2019
2886 Rain 12 1011 82 10000 1.5 0 01:52 29.08.2019
2887 Clouds 12 1011 82 10000 2.6 140 01:32 29.08.2019
2888 Clouds 12 1011 82 10000 2.6 160 00:45 29.08.2019
2889 Clouds 12 1011 87 10000 3.1 170 00:21 29.08.2019
2890 Clouds 12 1011 87 10000 3.1 170 00:21 29.08.2019
2891 Clear 12 1011 76 10000 4.6 200 23:44 28.08.2019
2892 Clear 12 1011 76 10000 4.6 200 23:26 28.08.2019
2893 Clear 12 1011 82 10000 4.1 220 22:59 28.08.2019
2894 Clear 12 1011 82 10000 2.6 230 22:39 28.08.2019
2895 Clear 13 1011 82 10000 2.6 230 22:19 28.08.2019
2896 Clouds 13 1011 71 10000 3.6 220 21:59 28.08.2019
2897 Clear 14 1010 71 10000 3.6 240 21:39 28.08.2019
2898 Clear 14 1010 71 10000 3.6 240 21:39 28.08.2019
2899 Clouds 14 1010 67 10000 4.6 230 21:21 28.08.2019
2900 Clouds 15 1010 63 10000 4.1 250 20:45 28.08.2019
2901 Clouds 16 1010 63 10000 4.1 250 20:27 28.08.2019
2902 Clouds 16 1010 63 10000 5.1 260 19:59 28.08.2019
2903 Clouds 16 1010 63 10000 5.1 260 19:39 28.08.2019
2904 Clouds 16 1010 67 10000 5.1 260 19:21 28.08.2019
2905 Clouds 16 1010 67 10000 5.7 260 18:42 28.08.2019
2906 Clouds 16 1009 67 10000 5.7 270 18:22 28.08.2019
2907 Clouds 16 1009 67 10000 5.7 270 17:57 28.08.2019
2908 Clouds 16 1009 72 10000 5.7 260 17:37 28.08.2019
2909 Clouds 16 1009 72 10000 5.7 260 17:19 28.08.2019
2910 Clouds 17 1008 77 10000 7.2 260 16:43 28.08.2019
2911 Clouds 17 1008 77 10000 7.2 260 16:19 28.08.2019
2912 Clouds 17 1008 77 10000 8.7 250 15:58 28.08.2019
2913 Rain 17 1007 77 10000 6.7 260 15:37 28.08.2019
2914 Rain 17 1007 77 10000 6.2 270 15:18 28.08.2019
2915 Rain 18 1007 77 10000 6.2 270 14:56 28.08.2019
2916 Rain 18 1006 77 10000 7.2 260 14:37 28.08.2019
2917 Rain 18 1005 72 10000 8.7 200 14:19 28.08.2019
2918 Rain 18 1005 72 10000 8.7 200 13:56 28.08.2019
2919 Rain 18 1005 77 10000 6.7 190 13:37 28.08.2019
2920 Clouds 18 1006 77 10000 7.2 200 13:18 28.08.2019
2921 Clouds 18 1006 82 10000 7.7 210 12:41 28.08.2019
2922 Clouds 18 1006 82 10000 7.7 210 12:23 28.08.2019
2923 Clouds 17 1006 82 10000 6.7 200 11:41 28.08.2019
2924 Clouds 17 1006 82 10000 6.7 200 11:23 28.08.2019
2925 Clouds 17 1005 77 10000 5.7 180 10:59 28.08.2019
2926 Clouds 17 1005 82 10000 4.1 160 10:41 28.08.2019
2927 Clouds 17 1006 87 10000 2.6 150 10:20 28.08.2019
2928 Clouds 16 1006 87 10000 3.1 130 09:42 28.08.2019
2929 Clouds 16 1006 87 10000 3.1 130 09:22 28.08.2019
2930 Clouds 16 1006 87 10000 3.1 150 08:59 28.08.2019
2931 Rain 16 1006 87 10000 2.6 150 08:38 28.08.2019
2932 Rain 16 1006 87 10000 2.6 150 08:19 28.08.2019
2933 Rain 15 1006 87 6000 3.6 170 07:39 28.08.2019
2934 Rain 15 1006 87 6000 3.6 170 07:20 28.08.2019
2935 Clouds 15 1007 82 10000 3.6 180 06:50 28.08.2019
2936 Clouds 15 1007 82 10000 3.6 180 06:31 28.08.2019
2937 Clouds 15 1008 87 10000 2.6 140 05:24 28.08.2019
2938 Rain 14 1010 87 10000 1.5 70 02:20 28.08.2019
2939 Clouds 14 1010 87 10000 1.5 0 01:31 28.08.2019
2940 Clouds 14 1011 82 10000 3.1 160 00:52 28.08.2019
2941 Clouds 15 1011 82 10000 3.1 160 00:33 28.08.2019
2942 Clouds 15 1011 82 10000 2.6 170 23:58 27.08.2019
2943 Clouds 15 1011 72 10000 3.1 180 23:38 27.08.2019
2944 Clouds 15 1011 72 10000 3.1 180 23:19 27.08.2019
2945 Clouds 16 1011 67 10000 3.6 160 22:42 27.08.2019
2946 Clouds 16 1011 67 10000 3.6 160 22:23 27.08.2019
2947 Clouds 17 1011 63 10000 3.1 150 21:57 27.08.2019
2948 Rain 17 1011 59 10000 4.6 160 21:38 27.08.2019
2949 Rain 17 1011 59 10000 4.6 160 21:20 27.08.2019
2950 Rain 18 1011 56 10000 5.7 170 20:58 27.08.2019
2951 Rain 18 1011 68 10000 1.5 0 20:39 27.08.2019
2952 Rain 18 1011 68 10000 2.6 130 20:19 27.08.2019
2953 Rain 18 1012 64 10000 4.6 130 19:44 27.08.2019
2954 Rain 19 1012 64 10000 4.6 130 19:26 27.08.2019
2955 Rain 19 1012 68 10000 2.1 160 18:57 27.08.2019
2956 Rain 20 1012 64 10000 2.1 160 18:39 27.08.2019
2957 Clouds 20 1013 68 10000 1 0 18:18 27.08.2019
2958 Clouds 20 1013 68 10000 3.6 170 17:43 27.08.2019
2959 Clouds 20 1013 68 10000 3.6 170 17:25 27.08.2019
2960 Clouds 20 1013 72 10000 3.1 150 16:58 27.08.2019
2961 Clouds 20 1013 68 10000 2.6 130 16:40 27.08.2019
2962 Clouds 20 1014 68 10000 2.1 150 16:21 27.08.2019
2963 Clouds 20 1014 68 10000 3.6 140 15:42 27.08.2019
2964 Clouds 20 1014 68 10000 3.6 140 15:23 27.08.2019
2965 Clouds 20 1014 72 10000 4.1 140 14:59 27.08.2019
2966 Clouds 20 1014 72 10000 2.6 130 14:41 27.08.2019
2967 Clouds 20 1014 72 10000 2.6 130 14:23 27.08.2019
2968 Clouds 19 1015 77 10000 3.1 130 13:43 27.08.2019
2969 Clouds 19 1015 82 10000 1.5 0 13:24 27.08.2019
2970 Clouds 18 1015 82 10000 2.1 40 12:56 27.08.2019
2971 Clouds 18 1015 82 10000 1.5 0 12:38 27.08.2019
2972 Clouds 17 1015 82 10000 1 0 12:19 27.08.2019
2973 Clouds 16 1016 87 10000 1.5 0 11:44 27.08.2019
2974 Clouds 16 1016 87 10000 1.5 0 11:25 27.08.2019
2975 Clouds 15 1016 93 10000 1.5 60 10:46 27.08.2019
2976 Clouds 14 1016 93 10000 1.5 60 10:22 27.08.2019
2977 Clouds 13 1016 93 10000 1.5 0 09:58 27.08.2019
2978 Clouds 13 1016 100 10000 1 0 09:39 27.08.2019
2979 Clouds 13 1015 100 10000 1.5 0 09:20 27.08.2019
2980 Clouds 12 1015 100 10000 1.5 0 08:54 27.08.2019
2981 Fog 11 1015 100 10000 1.5 50 08:36 27.08.2019
2982 Fog 11 1015 100 9000 0.5 0 08:18 27.08.2019
2983 Fog 11 1015 100 4500 2.1 90 07:39 27.08.2019
2984 Fog 11 1015 100 4500 1.5 60 07:19 27.08.2019
2985 Fog 11 1016 93 4500 1 40 06:51 27.08.2019
2986 Fog 11 1016 93 4500 1 40 06:22 27.08.2019
2987 Mist 11 1016 100 1400 1 0 05:36 27.08.2019
2988 Mist 12 1016 93 9000 1 0 04:33 27.08.2019
2989 Clear 12 1016 100 10000 1.5 0 03:33 27.08.2019
2990 Clear 13 1016 93 10000 1.5 140 02:23 27.08.2019
2991 Clear 13 1016 93 10000 1 110 01:35 27.08.2019
2992 Clouds 14 1016 87 10000 1 100 00:50 27.08.2019
2993 Clouds 14 1016 87 10000 1 100 00:29 27.08.2019
2994 Clear 15 1016 93 10000 1.5 270 23:54 26.08.2019
2995 Clear 15 1016 87 10000 3.1 230 23:36 26.08.2019
2996 Clear 15 1016 87 10000 3.6 220 23:18 26.08.2019
2997 Clear 15 1016 82 10000 3.1 230 22:38 26.08.2019
2998 Clear 16 1016 82 10000 3.1 230 22:19 26.08.2019
2999 Clear 17 1016 77 10000 5.1 220 21:40 26.08.2019
3000 Clear 18 1016 72 10000 4.1 230 21:22 26.08.2019
3001 Clear 19 1016 72 10000 4.1 230 20:59 26.08.2019
3002 Clear 19 1016 72 10000 4.1 230 20:41 26.08.2019
3003 Clear 19 1016 72 10000 3.6 240 20:21 26.08.2019
3004 Clear 20 1016 68 10000 4.6 220 19:59 26.08.2019
3005 Clear 20 1016 68 10000 4.6 220 19:41 26.08.2019
3006 Clear 20 1016 72 10000 4.6 230 19:19 26.08.2019
3007 Clear 21 1016 68 10000 6.7 230 18:55 26.08.2019
3008 Clear 21 1016 68 10000 6.7 230 18:37 26.08.2019
3009 Clear 21 1016 68 10000 7.2 210 18:18 26.08.2019
3010 Clear 21 1016 68 10000 6.2 230 17:43 26.08.2019
3011 Clouds 22 1016 68 10000 6.7 220 17:19 26.08.2019
3012 Clouds 22 1016 72 10000 6.2 240 16:56 26.08.2019
3013 Clouds 22 1016 72 10000 6.2 240 16:38 26.08.2019
3014 Clouds 22 1016 77 10000 5.7 240 16:18 26.08.2019
3015 Clouds 21 1016 72 10000 5.7 230 15:42 26.08.2019
3016 Clouds 21 1016 68 10000 6.2 220 15:22 26.08.2019
3017 Clouds 21 1017 72 10000 5.1 230 14:56 26.08.2019
3018 Clouds 21 1017 72 10000 5.1 230 14:37 26.08.2019
3019 Clouds 21 1017 72 10000 5.7 220 14:18 26.08.2019
3020 Clouds 20 1017 72 10000 4.6 220 13:41 26.08.2019
3021 Clouds 20 1017 77 10000 4.6 230 13:21 26.08.2019
3022 Clouds 19 1018 82 10000 4.6 230 12:45 26.08.2019
3023 Clouds 18 1018 82 10000 5.7 230 12:27 26.08.2019
3024 Clouds 18 1018 82 10000 4.6 200 11:58 26.08.2019
3025 Clouds 18 1018 82 10000 4.6 200 11:37 26.08.2019
3026 Clouds 17 1018 87 10000 3.6 210 11:19 26.08.2019
3027 Clouds 17 1018 87 10000 2.1 220 10:44 26.08.2019
3028 Clouds 16 1018 93 10000 3.1 240 10:24 26.08.2019
3029 Clouds 16 1018 87 10000 3.1 240 09:59 26.08.2019
3030 Clouds 16 1018 87 10000 3.1 240 09:39 26.08.2019
3031 Clouds 15 1018 87 10000 4.1 210 09:21 26.08.2019
3032 Clouds 15 1017 87 10000 4.1 200 08:55 26.08.2019
3033 Clouds 15 1017 87 10000 4.1 200 08:36 26.08.2019
3034 Clouds 15 1017 93 8000 3.1 220 08:18 26.08.2019
3035 Clouds 15 1017 93 8000 3.6 220 07:41 26.08.2019
3036 Clouds 15 1017 93 8000 3.6 220 07:41 26.08.2019
3037 Clouds 15 1017 93 7000 3.6 210 07:22 26.08.2019
3038 Clouds 15 1017 93 6000 3.6 210 06:45 26.08.2019
3039 Mist 15 1018 93 5000 3.1 220 06:24 26.08.2019
3040 Mist 15 1018 93 4600 4.1 210 05:49 26.08.2019
3041 Clouds 15 1017 93 8000 4.1 230 04:28 26.08.2019
3042 Mist 15 1018 93 4700 4.6 210 02:56 26.08.2019
3043 Mist 15 1018 93 4500 4.1 220 01:39 26.08.2019
3044 Mist 16 1018 93 3500 5.1 220 01:18 26.08.2019
3045 Clouds 16 1018 93 7000 4.1 230 00:29 26.08.2019
3046 Clear 17 1017 87 10000 3.6 220 23:59 25.08.2019
3047 Clear 17 1017 87 10000 3.6 220 23:40 25.08.2019
3048 Rain 17 1018 87 10000 2.6 220 23:18 25.08.2019
3049 Rain 17 1018 87 10000 2.6 220 23:18 25.08.2019
3050 Clear 17 1018 82 10000 1.5 250 22:56 25.08.2019
3051 Clear 17 1018 82 10000 1.5 250 22:37 25.08.2019
3052 Clear 18 1017 82 10000 2.6 240 22:18 25.08.2019
3053 Clear 18 1017 72 10000 3.6 230 21:55 25.08.2019
3054 Clear 18 1017 72 10000 3.6 230 21:37 25.08.2019
3055 Clear 21 1017 72 10000 4.1 220 21:18 25.08.2019
3056 Clear 22 1016 73 10000 3.6 230 20:39 25.08.2019
3057 Clear 23 1016 64 10000 5.7 220 20:19 25.08.2019
3058 Clear 23 1016 64 10000 5.7 220 20:19 25.08.2019
3059 Clear 23 1016 60 10000 4.6 230 19:56 25.08.2019
3060 Clear 23 1016 60 10000 4.6 230 19:37 25.08.2019
3061 Clear 24 1016 50 10000 5.1 210 19:18 25.08.2019
3062 Clear 23 1016 47 10000 5.1 210 18:55 25.08.2019
3063 Clear 24 1016 47 10000 4.6 210 18:37 25.08.2019
3064 Clear 27 1016 47 10000 4.6 210 18:18 25.08.2019
3065 Clear 27 1016 45 10000 4.6 180 17:41 25.08.2019
3066 Clear 26 1016 45 10000 4.1 170 17:22 25.08.2019
3067 Clear 27 1016 48 10000 2.1 0 16:45 25.08.2019
3068 Clear 26 1016 61 10000 3.6 40 16:24 25.08.2019
3069 Clear 26 1017 61 10000 3.6 70 15:58 25.08.2019
3070 Clear 26 1017 61 10000 3.6 70 15:39 25.08.2019
3071 Clear 25 1017 65 10000 3.6 50 15:21 25.08.2019
3072 Clear 25 1017 65 10000 4.1 50 14:41 25.08.2019
3073 Clear 25 1017 69 10000 3.6 40 14:23 25.08.2019
3074 Clear 24 1017 69 10000 3.1 60 13:46 25.08.2019
3075 Clear 23 1017 68 10000 3.1 60 13:22 25.08.2019
3076 Clear 23 1018 68 10000 3.1 60 12:57 25.08.2019
3077 Clear 22 1018 68 10000 3.1 60 12:39 25.08.2019
3078 Clear 21 1018 72 10000 2.6 40 12:20 25.08.2019
3079 Clear 20 1018 72 10000 4.6 90 11:57 25.08.2019
3080 Clear 20 1018 72 10000 4.6 90 11:37 25.08.2019
3081 Clear 19 1018 77 10000 2.1 70 11:18 25.08.2019
3082 Fog 18 1018 88 10000 3.1 70 10:55 25.08.2019
3083 Fog 18 1018 88 10000 3.1 70 10:36 25.08.2019
3084 Fog 17 1019 87 10000 1 0 10:18 25.08.2019
3085 Fog 15 1018 93 10000 1 0 09:41 25.08.2019
3086 Drizzle 14 1018 100 10000 0.5 0 09:22 25.08.2019
3087 Fog 14 1018 100 9000 0.5 0 08:44 25.08.2019
3088 Fog 13 1017 87 10000 1.4 33.883 08:22 25.08.2019
3089 Fog 13 1018 100 150 0.5 0 07:45 25.08.2019
3090 Fog 13 1018 93 10000 0.5 180 07:23 25.08.2019
3091 Fog 13 1018 100 10000 1 250 06:31 25.08.2019
3092 Haze 13 1017 93 1400 0.5 0 04:53 25.08.2019
3093 Fog 14 1017 87 10000 2.1 30 03:37 25.08.2019
3094 Mist 14 1017 87 10000 3.6 40 02:40 25.08.2019
3095 Clouds 15 1017 77 10000 1.5 60 01:42 25.08.2019
3096 Clouds 16 1017 77 10000 2.1 70 00:40 25.08.2019
3097 Clouds 16 1017 77 10000 2.1 60 00:21 25.08.2019
3098 Clouds 16 1017 63 10000 1 0 23:52 24.08.2019
3099 Mist 16 1017 68 10000 1.5 0 23:23 24.08.2019
3100 Mist 16 1017 68 10000 1.5 0 23:23 24.08.2019
3101 Clouds 17 1017 72 10000 2.1 110 22:56 24.08.2019
3102 Clouds 17 1017 72 10000 2.1 110 22:38 24.08.2019
3103 Clouds 17 1017 82 10000 0.5 0 22:19 24.08.2019
3104 Clouds 17 1017 82 10000 0.5 0 22:19 24.08.2019
3105 Clouds 18 1017 82 10000 1.5 20 21:56 24.08.2019
3106 Clouds 18 1017 82 10000 1.5 20 21:37 24.08.2019
3107 Clouds 20 1016 77 10000 1 0 21:19 24.08.2019
3108 Clouds 21 1016 68 10000 1.5 270 20:55 24.08.2019
3109 Clouds 21 1016 68 10000 1.5 270 20:55 24.08.2019
3110 Clouds 21 1016 68 10000 1.5 270 20:37 24.08.2019
3111 Clouds 22 1016 68 10000 2.6 280 20:18 24.08.2019
3112 Clouds 22 1016 56 10000 2.6 220 19:55 24.08.2019
3113 Clouds 22 1016 56 10000 2.6 220 19:37 24.08.2019
3114 Clouds 22 1016 56 10000 2.6 220 19:18 24.08.2019
3115 Clouds 23 1016 53 10000 3.1 190 18:41 24.08.2019
3116 Clouds 23 1016 50 10000 3.6 200 18:21 24.08.2019
3117 Clouds 23 1016 50 10000 3.6 200 18:21 24.08.2019
3118 Clouds 24 1016 47 10000 4.6 200 17:44 24.08.2019
3119 Clouds 24 1016 50 10000 3.6 210 17:24 24.08.2019
3120 Clouds 24 1017 56 10000 1 0 16:48 24.08.2019
3121 Clouds 24 1017 60 10000 1.5 0 16:21 24.08.2019
3122 Clouds 23 1017 60 10000 1 0 15:59 24.08.2019
3123 Clouds 23 1017 60 10000 1 0 15:40 24.08.2019
3124 Clouds 23 1017 64 10000 2.6 260 15:22 24.08.2019
3125 Clouds 23 1017 68 10000 1.5 0 14:43 24.08.2019
3126 Clouds 22 1017 68 10000 2.1 290 14:22 24.08.2019
3127 Clouds 22 1017 72 10000 2.6 230 13:57 24.08.2019
3128 Clouds 22 1017 72 10000 2.6 230 13:38 24.08.2019
3129 Clouds 21 1018 68 10000 2.6 190 13:19 24.08.2019
3130 Clouds 21 1018 72 10000 2.6 150 12:42 24.08.2019
3131 Clouds 21 1018 72 10000 2.1 120 12:24 24.08.2019
3132 Clouds 20 1018 72 10000 2.6 120 11:58 24.08.2019
3133 Clouds 19 1018 72 10000 2.6 120 11:39 24.08.2019
3134 Clouds 18 1017 82 10000 2.6 50 11:20 24.08.2019
3135 Clouds 17 1017 87 10000 1.5 0 10:49 24.08.2019
3136 Clouds 17 1017 87 10000 2.1 60 10:23 24.08.2019
3137 Clouds 16 1018 87 10000 1.5 0 09:44 24.08.2019
3138 Clouds 15 1018 87 10000 2.1 70 09:21 24.08.2019
3139 Clouds 15 1018 87 10000 1 0 08:58 24.08.2019
3140 Clouds 15 1018 87 10000 1 0 08:39 24.08.2019
3141 Clouds 14 1017 93 10000 1.5 0 08:21 24.08.2019
3142 Clouds 14 1018 93 10000 1.5 0 07:47 24.08.2019
3143 Clouds 14 1017 93 10000 1.5 0 07:26 24.08.2019
3144 Clouds 14 1018 87 10000 1 20 06:28 24.08.2019
3145 Clouds 15 1018 82 10000 1 0 05:41 24.08.2019
3146 Clouds 15 1018 87 10000 2.1 150 04:36 24.08.2019
3147 Clouds 15 1018 82 10000 2.1 150 03:36 24.08.2019
3148 Clouds 15 1018 87 10000 1.5 100 02:25 24.08.2019
3149 Clouds 16 1018 82 10000 1 0 01:31 24.08.2019
3150 Clouds 16 1018 82 10000 1 0 00:52 24.08.2019
3151 Clouds 16 1018 87 10000 2.1 160 00:25 24.08.2019
3152 Clouds 16 1018 87 10000 1 0 23:57 23.08.2019
3153 Clouds 16 1018 87 10000 1 0 23:37 23.08.2019
3154 Clouds 17 1018 82 10000 1 0 23:18 23.08.2019
3155 Clouds 17 1018 82 10000 3.6 190 22:41 23.08.2019
3156 Clouds 17 1018 82 10000 4.1 170 22:23 23.08.2019
3157 Clouds 17 1018 77 10000 5.1 180 21:39 23.08.2019
3158 Clouds 18 1019 77 10000 4.1 180 21:20 23.08.2019
3159 Clouds 19 1019 72 10000 4.1 190 20:55 23.08.2019
3160 Clouds 19 1019 77 10000 3.1 180 20:37 23.08.2019
3161 Clouds 19 1019 77 10000 3.1 180 20:18 23.08.2019
3162 Clouds 19 1019 77 10000 4.6 210 19:42 23.08.2019
3163 Clouds 20 1019 77 10000 4.6 200 19:18 23.08.2019
3164 Clouds 20 1019 77 10000 4.6 220 18:44 23.08.2019
3165 Clouds 21 1019 72 10000 6.7 220 18:26 23.08.2019
3166 Clouds 21 1019 72 10000 7.2 220 17:47 23.08.2019
3167 Clouds 21 1019 77 10000 6.7 220 17:28 23.08.2019
3168 Clouds 21 1020 72 10000 6.2 210 16:59 23.08.2019
3169 Clouds 21 1020 72 10000 6.2 210 16:40 23.08.2019
3170 Clouds 21 1020 77 10000 7.2 220 16:22 23.08.2019
3171 Clouds 21 1020 72 10000 6.7 230 15:41 23.08.2019
3172 Clouds 21 1020 68 10000 7.7 230 15:22 23.08.2019
3173 Clouds 20 1020 72 10000 8.7 230 14:59 23.08.2019
3174 Clouds 20 1020 72 10000 8.7 230 14:40 23.08.2019
3175 Clouds 20 1020 72 10000 7.7 230 14:20 23.08.2019
3176 Clouds 20 1020 77 10000 8.7 220 13:56 23.08.2019
3177 Clouds 20 1020 77 10000 8.7 220 13:38 23.08.2019
3178 Clouds 20 1020 72 10000 9.3 220 13:19 23.08.2019
3179 Clouds 19 1020 77 10000 8.2 220 12:44 23.08.2019
3180 Clouds 18 1020 77 10000 8.7 220 12:25 23.08.2019
3181 Clouds 18 1019 77 10000 10.3 220 11:59 23.08.2019
3182 Clouds 18 1019 77 10000 10.3 220 11:41 23.08.2019
3183 Clouds 18 1019 77 10000 10.3 220 11:41 23.08.2019
3184 Clouds 18 1019 77 10000 8.7 220 11:20 23.08.2019
3185 Clouds 17 1019 82 10000 9.8 210 10:58 23.08.2019
3186 Clouds 17 1019 82 10000 9.8 210 10:58 23.08.2019
3187 Clouds 17 1019 82 10000 9.8 210 10:40 23.08.2019
3188 Clouds 17 1019 82 10000 8.2 230 10:21 23.08.2019
3189 Clouds 16 1019 87 10000 7.2 240 09:45 23.08.2019
3190 Clouds 16 1019 87 10000 7.2 240 09:45 23.08.2019
3191 Clouds 16 1019 87 10000 7.7 230 09:26 23.08.2019
3192 Clouds 16 1019 87 10000 6.2 230 08:57 23.08.2019
3193 Clouds 16 1019 87 10000 6.2 230 08:38 23.08.2019
3194 Clouds 16 1019 87 10000 6.7 210 08:18 23.08.2019
3195 Clouds 15 1018 87 10000 4.1 200 07:41 23.08.2019
3196 Clouds 15 1018 93 10000 5.1 210 07:23 23.08.2019
3197 Clouds 15 1018 93 10000 5.1 210 06:44 23.08.2019
3198 Clouds 16 1018 87 10000 7.2 230 06:23 23.08.2019
3199 Clouds 16 1018 87 10000 6.7 230 05:46 23.08.2019
3200 Clouds 16 1018 87 10000 6.7 240 05:27 23.08.2019
3201 Clouds 16 1017 87 10000 5.1 220 04:19 23.08.2019
3202 Clouds 16 1016 93 10000 8.2 210 02:41 23.08.2019
3203 Clouds 17 1016 93 10000 8.7 220 02:21 23.08.2019
3204 Rain 16 1016 93 10000 7.7 220 01:36 23.08.2019
3205 Rain 16 1016 93 7000 3.6 220 00:43 23.08.2019
3206 Clouds 16 1015 88 10000 8.2 240 00:18 23.08.2019
3207 Rain 16 1015 82 10000 5.7 240 23:43 22.08.2019
3208 Rain 16 1015 82 10000 5.7 240 23:22 22.08.2019
3209 Clouds 16 1015 93 9000 8.7 250 22:43 22.08.2019
3210 Clouds 16 1014 93 10000 10.8 250 22:24 22.08.2019
3211 Clouds 16 1014 93 10000 9.3 250 21:59 22.08.2019
3212 Clouds 16 1014 93 10000 9.3 250 21:41 22.08.2019
3213 Rain 16 1013 93 6000 9.8 250 21:23 22.08.2019
3214 Rain 17 1013 93 6000 12.3 250 20:58 22.08.2019
3215 Rain 17 1013 93 6000 12.3 250 20:40 22.08.2019
3216 Drizzle 17 1012 93 4900 10.3 230 20:20 22.08.2019
3217 Rain 17 1012 100 3200 8.7 230 19:57 22.08.2019
3218 Rain 17 1012 100 3200 8.7 230 19:38 22.08.2019
3219 Rain 17 1012 100 3200 8.7 230 19:38 22.08.2019
3220 Drizzle 17 1012 100 5000 8.2 230 19:20 22.08.2019
3221 Rain 17 1012 93 6000 8.2 230 18:57 22.08.2019
3222 Drizzle 17 1012 88 6000 9.3 220 18:39 22.08.2019
3223 Drizzle 17 1012 88 6000 9.3 220 18:19 22.08.2019
3224 Drizzle 17 1013 88 6000 9.8 220 17:54 22.08.2019
3225 Drizzle 17 1013 88 6000 9.8 220 17:36 22.08.2019
3226 Rain 17 1013 93 8000 10.8 210 17:18 22.08.2019
3227 Rain 17 1013 93 8000 10.8 210 16:54 22.08.2019
3228 Rain 17 1013 82 10000 9.3 210 16:36 22.08.2019
3229 Rain 17 1013 82 10000 9.3 210 16:18 22.08.2019
3230 Rain 17 1013 87 10000 10.8 210 15:41 22.08.2019
3231 Clouds 17 1013 87 10000 11.8 220 15:41 22.08.2019
3232 Clouds 17 1013 87 10000 11.8 220 15:22 22.08.2019
3233 Clouds 17 1013 87 10000 11.8 220 15:22 22.08.2019
3234 Clouds 17 1014 82 10000 10.3 220 14:57 22.08.2019
3235 Clouds 17 1014 82 10000 10.3 220 14:39 22.08.2019
3236 Clouds 17 1014 82 10000 10.8 220 14:19 22.08.2019
3237 Clouds 17 1014 72 10000 10.3 220 13:56 22.08.2019
3238 Clouds 18 1014 72 10000 10.3 220 13:37 22.08.2019
3239 Clouds 18 1014 72 10000 9.8 220 13:18 22.08.2019
3240 Clouds 18 1014 72 10000 10.3 210 12:40 22.08.2019
3241 Clouds 17 1014 77 10000 10.3 220 12:21 22.08.2019
3242 Clouds 17 1014 82 10000 9.3 220 11:57 22.08.2019
3243 Clouds 17 1014 82 10000 9.3 220 11:39 22.08.2019
3244 Rain 16 1014 77 10000 9.3 220 11:19 22.08.2019
3245 Clouds 15 1014 82 10000 9.3 220 10:57 22.08.2019
3246 Clouds 16 1014 82 10000 9.3 220 10:57 22.08.2019
3247 Clouds 15 1014 82 10000 9.3 220 10:36 22.08.2019
3248 Clouds 15 1014 82 10000 8.2 210 10:18 22.08.2019
3249 Clouds 14 1014 87 10000 6.7 220 09:40 22.08.2019
3250 Clouds 14 1014 87 10000 7.2 230 09:21 22.08.2019
3251 Clouds 13 1015 87 10000 5.1 190 08:59 22.08.2019
3252 Clouds 13 1014 87 10000 8.2 220 08:40 22.08.2019
3253 Clouds 13 1014 93 10000 6.2 220 08:21 22.08.2019
3254 Clouds 12 1014 93 10000 6.7 220 07:43 22.08.2019
3255 Clouds 12 1014 93 10000 6.7 220 07:24 22.08.2019
3256 Clouds 12 1014 93 10000 5.7 220 06:58 22.08.2019
3257 Clouds 12 1014 93 10000 5.7 220 06:40 22.08.2019
3258 Clouds 12 1014 87 10000 5.7 220 06:19 22.08.2019
3259 Rain 11 1014 100 9000 1 0 04:42 22.08.2019
3260 Clouds 11 1015 93 10000 0.5 0 02:56 22.08.2019
3261 Clouds 11 1015 93 10000 0.5 0 02:34 22.08.2019
3262 Rain 12 1015 93 10000 2.1 230 01:26 22.08.2019
3263 Rain 12 1015 93 10000 1.5 240 00:48 22.08.2019
3264 Rain 12 1015 93 10000 2.1 240 00:30 22.08.2019
3265 Rain 13 1015 93 10000 2.1 250 23:58 21.08.2019
3266 Rain 13 1015 93 10000 2.1 250 23:39 21.08.2019
3267 Rain 13 1015 93 10000 3.1 250 23:19 21.08.2019
3268 Rain 14 1015 93 10000 3.1 260 22:55 21.08.2019
3269 Rain 14 1015 93 10000 3.1 260 22:37 21.08.2019
3270 Rain 14 1014 93 10000 8.2 230 22:19 21.08.2019
3271 Rain 14 1014 93 10000 8.7 220 21:55 21.08.2019
3272 Rain 14 1014 93 10000 8.7 220 21:36 21.08.2019
3273 Rain 14 1014 87 8000 9.3 210 21:18 21.08.2019
3274 Rain 14 1014 87 10000 9.3 210 20:42 21.08.2019
3275 Rain 14 1014 93 6000 7.2 190 20:24 21.08.2019
3276 Rain 14 1014 93 2800 6.2 170 19:56 21.08.2019
3277 Rain 14 1014 93 2800 6.2 170 19:38 21.08.2019
3278 Rain 14 1015 87 6000 7.7 190 19:20 21.08.2019
3279 Rain 15 1016 82 10000 8.2 200 18:43 21.08.2019
3280 Rain 15 1016 82 10000 8.2 200 18:23 21.08.2019
3281 Rain 15 1016 87 10000 6.2 190 17:57 21.08.2019
3282 Rain 15 1016 87 10000 6.2 190 17:38 21.08.2019
3283 Rain 15 1017 87 8000 7.2 190 17:20 21.08.2019
3284 Rain 16 1017 87 10000 7.2 190 16:45 21.08.2019
3285 Rain 17 1017 77 10000 9.3 200 16:24 21.08.2019
3286 Rain 17 1017 72 10000 8.7 210 15:59 21.08.2019
3287 Rain 17 1017 72 10000 8.7 210 15:41 21.08.2019
3288 Rain 18 1017 72 10000 7.2 200 15:22 21.08.2019
3289 Rain 18 1018 67 10000 8.2 190 14:58 21.08.2019
3290 Clouds 18 1018 63 10000 6.7 200 14:39 21.08.2019
3291 Clouds 18 1018 63 10000 6.7 200 14:20 21.08.2019
3292 Clouds 18 1018 67 10000 8.7 200 13:56 21.08.2019
3293 Clouds 18 1018 67 10000 8.7 200 13:38 21.08.2019
3294 Clouds 18 1019 67 10000 7.2 200 13:18 21.08.2019
3295 Clouds 17 1019 72 10000 8.7 200 12:41 21.08.2019
3296 Rain 17 1019 77 10000 5.1 200 12:23 21.08.2019
3297 Clouds 17 1020 77 10000 6.7 210 11:59 21.08.2019
3298 Clouds 17 1020 77 10000 6.7 210 11:41 21.08.2019
3299 Clouds 16 1020 82 10000 5.7 200 11:22 21.08.2019
3300 Clouds 16 1020 82 10000 5.1 190 10:57 21.08.2019
3301 Clouds 16 1020 82 10000 5.1 190 10:38 21.08.2019
3302 Clouds 15 1020 87 10000 4.1 170 10:19 21.08.2019
3303 Clouds 15 1020 87 10000 4.6 200 09:55 21.08.2019
3304 Clouds 14 1020 87 10000 4.6 200 09:37 21.08.2019
3305 Clouds 14 1020 93 10000 5.1 210 09:18 21.08.2019
3306 Rain 13 1020 93 9000 3.1 210 08:42 21.08.2019
3307 Rain 12 1020 100 8000 1 0 08:23 21.08.2019
3308 Clouds 12 1020 100 10000 1 0 07:42 21.08.2019
3309 Fog 12 1020 100 10000 1.5 20 07:23 21.08.2019
3310 Clouds 12 1020 93 10000 1.5 10 06:50 21.08.2019
3311 Clouds 12 1020 93 10000 2.1 80 06:24 21.08.2019
3312 Clouds 12 1020 93 10000 2.1 30 05:46 21.08.2019
3313 Rain 12 1020 100 8000 1.5 50 05:23 21.08.2019
3314 Clouds 12 1021 87 10000 1.5 0 03:39 21.08.2019
3315 Clouds 12 1021 87 10000 1.5 90 01:51 21.08.2019
3316 Clouds 12 1021 82 10000 1 0 01:22 21.08.2019
3317 Clouds 12 1021 87 10000 1.5 100 00:37 21.08.2019
3318 Clouds 12 1021 82 10000 3.6 200 00:18 21.08.2019
3319 Clouds 13 1021 82 10000 3.1 170 23:42 20.08.2019
3320 Clouds 13 1021 87 10000 1.5 0 23:19 20.08.2019
3321 Clouds 12 1021 87 10000 3.1 210 22:56 20.08.2019
3322 Clouds 13 1021 87 10000 3.1 210 22:37 20.08.2019
3323 Clouds 13 1021 87 10000 1.5 0 22:19 20.08.2019
3324 Clouds 13 1020 82 10000 4.1 220 21:57 20.08.2019
3325 Clouds 14 1020 82 10000 4.1 220 21:37 20.08.2019
3326 Clouds 15 1020 77 10000 4.6 220 21:19 20.08.2019
3327 Clouds 16 1020 72 10000 5.1 220 20:43 20.08.2019
3328 Clouds 16 1020 63 10000 6.2 220 20:24 20.08.2019
3329 Clouds 16 1020 63 10000 6.2 220 19:58 20.08.2019
3330 Clouds 16 1020 63 10000 6.2 220 19:38 20.08.2019
3331 Clouds 17 1020 59 10000 6.7 220 19:20 20.08.2019
3332 Clouds 17 1020 63 10000 5.7 220 18:55 20.08.2019
3333 Clouds 16 1020 63 10000 5.7 220 18:37 20.08.2019
3334 Clouds 17 1019 67 10000 5.1 250 18:18 20.08.2019
3335 Clouds 17 1019 72 10000 5.1 240 17:39 20.08.2019
3336 Clouds 17 1019 72 10000 5.1 240 17:20 20.08.2019
3337 Rain 17 1019 63 10000 6.2 260 16:48 20.08.2019
3338 Rain 16 1019 63 10000 6.2 260 16:28 20.08.2019
3339 Rain 16 1019 63 10000 4.6 270 15:59 20.08.2019
3340 Rain 16 1019 72 10000 4.6 270 15:41 20.08.2019
3341 Rain 16 1018 72 10000 5.7 260 15:18 20.08.2019
3342 Rain 16 1018 72 10000 5.7 260 14:55 20.08.2019
3343 Rain 16 1018 77 10000 4.1 310 14:37 20.08.2019
3344 Rain 16 1018 77 10000 5.1 260 14:18 20.08.2019
3345 Rain 16 1018 77 10000 5.1 260 14:18 20.08.2019
3346 Rain 16 1018 77 10000 5.7 240 13:40 20.08.2019
3347 Rain 16 1018 82 10000 5.1 250 13:22 20.08.2019
3348 Rain 16 1018 82 10000 5.1 250 13:22 20.08.2019
3349 Rain 16 1018 82 10000 5.1 250 12:59 20.08.2019
3350 Rain 16 1018 82 10000 5.1 250 12:59 20.08.2019
3351 Clouds 15 1017 87 10000 1 0 12:40 20.08.2019
3352 Clouds 15 1017 87 10000 3.1 220 12:22 20.08.2019
3353 Clouds 15 1017 87 10000 3.6 220 11:42 20.08.2019
3354 Clouds 15 1017 87 10000 3.6 220 11:24 20.08.2019
3355 Clouds 14 1017 82 10000 1.5 0 10:58 20.08.2019
3356 Rain 14 1017 82 10000 2.1 230 10:40 20.08.2019
3357 Rain 14 1017 82 10000 2.1 230 10:22 20.08.2019
3358 Rain 13 1016 87 10000 2.6 240 09:59 20.08.2019
3359 Rain 13 1016 93 10000 1.5 280 09:40 20.08.2019
3360 Rain 12 1016 93 10000 1.5 280 09:21 20.08.2019
3361 Clouds 12 1016 93 10000 2.1 300 08:42 20.08.2019
3362 Clouds 12 1015 93 10000 1 0 08:24 20.08.2019
3363 Clouds 11 1015 93 10000 2.1 250 07:58 20.08.2019
3364 Clouds 11 1015 93 10000 1.5 240 07:39 20.08.2019
3365 Clouds 11 1014 87 10000 2.1 240 07:20 20.08.2019
3366 Clouds 11 1014 93 10000 0.5 0 06:44 20.08.2019
3367 Clouds 12 1014 93 10000 0.5 0 06:20 20.08.2019
3368 Clouds 12 1014 87 10000 3.1 250 05:42 20.08.2019
3369 Clouds 12 1013 87 10000 3.6 250 04:26 20.08.2019
3370 Clouds 12 1012 93 10000 3.1 240 02:50 20.08.2019
3371 Clouds 12 1012 93 10000 3.1 240 01:58 20.08.2019
3372 Rain 13 1011 93 10000 2.6 250 01:21 20.08.2019
3373 Rain 13 1011 93 10000 3.1 240 00:45 20.08.2019
3374 Rain 13 1011 93 10000 3.1 240 00:24 20.08.2019
3375 Rain 13 1010 93 10000 4.6 230 23:45 19.08.2019
3376 Rain 13 1010 93 10000 5.1 230 23:19 19.08.2019
3377 Rain 13 1010 93 10000 5.1 230 22:58 19.08.2019
3378 Rain 13 1010 93 10000 5.7 230 22:40 19.08.2019
3379 Rain 13 1010 93 10000 5.7 230 22:20 19.08.2019
3380 Rain 14 1009 82 10000 6.2 220 21:57 19.08.2019
3381 Rain 14 1009 82 10000 6.2 230 21:38 19.08.2019
3382 Clouds 14 1009 82 10000 7.2 230 21:19 19.08.2019
3383 Clouds 14 1009 82 10000 7.2 230 20:54 19.08.2019
3384 Clouds 15 1009 72 10000 7.7 240 20:36 19.08.2019
3385 Rain 15 1009 72 10000 5.7 250 20:18 19.08.2019
3386 Rain 15 1009 72 10000 5.7 250 19:54 19.08.2019
3387 Rain 15 1009 72 10000 5.7 250 19:36 19.08.2019
3388 Rain 16 1008 72 10000 5.7 250 19:18 19.08.2019
3389 Clouds 16 1008 67 10000 7.7 250 18:40 19.08.2019
3390 Clouds 16 1008 67 10000 7.7 250 18:40 19.08.2019
3391 Clouds 16 1008 67 10000 7.7 250 18:21 19.08.2019
3392 Clouds 16 1008 63 10000 7.7 240 17:56 19.08.2019
3393 Clouds 16 1008 63 10000 8.2 240 17:37 19.08.2019
3394 Rain 16 1008 63 10000 7.7 250 17:19 19.08.2019
3395 Rain 16 1008 63 10000 7.7 250 16:39 19.08.2019
3396 Rain 16 1007 63 10000 7.2 250 16:21 19.08.2019
3397 Rain 16 1007 67 10000 9.8 230 15:56 19.08.2019
3398 Rain 15 1007 67 10000 9.8 230 15:38 19.08.2019
3399 Rain 15 1007 63 10000 9.3 250 15:19 19.08.2019
3400 Rain 15 1007 67 10000 8.2 240 14:44 19.08.2019
3401 Rain 15 1006 67 10000 8.2 250 14:23 19.08.2019
3402 Rain 15 1006 72 10000 8.7 240 13:58 19.08.2019
3403 Rain 15 1006 72 10000 8.7 240 13:39 19.08.2019
3404 Rain 15 1006 72 10000 7.7 250 13:20 19.08.2019
3405 Rain 15 1006 72 10000 7.2 250 12:58 19.08.2019
3406 Rain 15 1006 72 10000 7.2 250 12:40 19.08.2019
3407 Rain 16 1005 72 10000 7.2 260 12:20 19.08.2019
3408 Clouds 15 1005 82 10000 5.1 250 11:40 19.08.2019
3409 Rain 15 1005 77 10000 6.2 250 11:22 19.08.2019
3410 Rain 15 1005 77 10000 7.2 250 10:58 19.08.2019
3411 Rain 14 1005 77 10000 7.2 250 10:38 19.08.2019
3412 Clouds 14 1005 77 10000 5.1 240 10:18 19.08.2019
3413 Rain 14 1004 82 10000 4.6 250 09:45 19.08.2019
3414 Rain 13 1004 87 10000 4.1 240 09:24 19.08.2019
3415 Rain 13 1003 87 10000 5.1 240 08:59 19.08.2019
3416 Rain 13 1003 87 10000 5.1 240 08:41 19.08.2019
3417 Rain 13 1003 87 10000 5.1 240 08:41 19.08.2019
3418 Rain 13 1003 87 10000 5.1 250 08:20 19.08.2019
3419 Rain 13 1003 93 10000 5.1 260 07:50 19.08.2019
3420 Rain 13 1002 87 10000 5.7 260 07:31 19.08.2019
3421 Rain 13 1002 87 10000 5.7 260 06:52 19.08.2019
3422 Rain 13 1002 87 10000 5.7 260 06:33 19.08.2019
3423 Rain 13 1001 93 10000 6.7 250 05:25 19.08.2019
3424 Rain 13 1001 93 6000 6.2 240 04:32 19.08.2019
3425 Clouds 13 1000 93 10000 4.1 250 03:24 19.08.2019
3426 Rain 13 1000 93 8000 5.1 220 02:29 19.08.2019
3427 Rain 13 1000 87 10000 4.6 240 01:35 19.08.2019
3428 Clouds 13 1000 93 10000 3.6 250 00:44 19.08.2019
3429 Rain 13 999 93 10000 3.1 260 00:23 19.08.2019
3430 Rain 13 999 93 4900 4.6 240 23:43 18.08.2019
3431 Rain 13 999 93 9000 4.1 230 23:22 18.08.2019
3432 Clouds 13 998 82 10000 2.1 250 22:57 18.08.2019
3433 Clouds 13 998 82 10000 2.1 250 22:38 18.08.2019
3434 Rain 13 998 93 10000 2.6 240 22:20 18.08.2019
3435 Clouds 14 998 82 10000 3.1 250 21:55 18.08.2019
3436 Clouds 14 998 82 10000 3.1 250 21:37 18.08.2019
3437 Clouds 14 997 87 10000 3.1 250 21:19 18.08.2019
3438 Rain 15 997 87 10000 5.7 260 20:43 18.08.2019
3439 Rain 15 997 87 10000 6.2 260 20:25 18.08.2019
3440 Rain 16 996 77 10000 6.7 250 19:56 18.08.2019
3441 Rain 16 996 77 10000 6.7 250 19:37 18.08.2019
3442 Rain 16 996 72 10000 7.7 250 19:19 18.08.2019
3443 Rain 16 996 72 10000 8.2 250 18:41 18.08.2019
3444 Clouds 16 996 77 10000 7.7 250 18:23 18.08.2019
3445 Clouds 16 995 87 10000 6.7 250 17:58 18.08.2019
3446 Rain 16 995 87 10000 6.7 250 17:40 18.08.2019
3447 Rain 16 995 72 10000 8.7 240 17:19 18.08.2019
3448 Rain 16 995 82 10000 8.7 240 16:57 18.08.2019
3449 Rain 16 995 82 10000 8.7 240 16:38 18.08.2019
3450 Rain 16 995 93 8000 6.7 240 16:19 18.08.2019
3451 Rain 15 994 93 10000 7.7 240 15:55 18.08.2019
3452 Rain 15 994 93 10000 7.7 240 15:37 18.08.2019
3453 Rain 15 994 87 5000 8.7 230 15:19 18.08.2019
3454 Rain 16 993 93 9000 9.3 230 14:40 18.08.2019
3455 Rain 16 993 82 10000 10.3 220 14:20 18.08.2019
3456 Rain 15 992 82 10000 9.3 220 13:59 18.08.2019
3457 Rain 15 992 82 10000 9.3 220 13:40 18.08.2019
3458 Rain 16 992 87 10000 8.7 220 13:21 18.08.2019
3459 Rain 16 992 82 10000 11.3 220 12:54 18.08.2019
3460 Rain 16 992 82 10000 11.3 220 12:36 18.08.2019
3461 Rain 16 992 82 10000 10.8 220 12:18 18.08.2019
3462 Rain 16 992 82 10000 10.8 220 12:18 18.08.2019
3463 Rain 15 992 87 9000 9.3 220 11:41 18.08.2019
3464 Clouds 15 991 82 10000 10.8 220 11:22 18.08.2019
3465 Rain 15 991 87 10000 10.3 210 10:56 18.08.2019
3466 Rain 15 991 87 10000 10.3 210 10:38 18.08.2019
3467 Rain 14 991 87 10000 8.7 210 10:18 18.08.2019
3468 Rain 14 991 93 10000 8.7 210 09:42 18.08.2019
3469 Rain 13 991 87 10000 8.7 200 09:19 18.08.2019
3470 Rain 13 991 87 10000 8.7 190 08:43 18.08.2019
3471 Rain 13 992 87 10000 8.7 200 08:25 18.08.2019
3472 Rain 13 992 87 10000 9.8 200 07:53 18.08.2019
3473 Rain 13 992 87 10000 7.7 200 07:29 18.08.2019
3474 Rain 13 992 87 9000 9.8 200 06:19 18.08.2019
3475 Rain 13 993 87 10000 8.7 200 04:59 18.08.2019
3476 Rain 13 993 87 10000 8.7 200 03:46 18.08.2019
3477 Rain 14 994 82 10000 8.2 200 02:50 18.08.2019
3478 Rain 14 994 82 10000 8.2 210 02:26 18.08.2019
3479 Rain 14 994 82 10000 9.3 210 01:53 18.08.2019
3480 Clouds 14 994 82 10000 7.7 200 01:25 18.08.2019
3481 Clouds 14 994 82 10000 7.7 200 01:25 18.08.2019
3482 Clouds 14 994 82 10000 7.7 200 01:25 18.08.2019
3483 Clouds 13 994 76 10000 7.2 180 00:40 18.08.2019
3484 Rain 14 994 76 10000 7.7 200 00:19 18.08.2019
3485 Clouds 13 994 82 10000 5.7 210 23:57 17.08.2019
3486 Clouds 13 994 82 10000 5.7 210 23:37 17.08.2019
3487 Rain 14 994 76 10000 7.7 200 23:19 17.08.2019
3488 Rain 14 994 76 10000 7.7 200 23:19 17.08.2019
3489 Rain 14 994 76 10000 7.2 200 22:56 17.08.2019
3490 Rain 14 994 76 10000 7.2 200 22:56 17.08.2019
3491 Rain 14 994 76 10000 7.2 200 22:38 17.08.2019
3492 Clouds 14 994 82 10000 7.2 200 22:20 17.08.2019
3493 Rain 14 994 82 10000 4.6 200 21:43 17.08.2019
3494 Rain 14 995 82 10000 4.6 220 21:24 17.08.2019
3495 Rain 14 995 87 10000 5.7 240 20:58 17.08.2019
3496 Rain 14 995 87 10000 5.7 240 20:37 17.08.2019
3497 Rain 15 995 87 10000 7.7 210 20:18 17.08.2019
3498 Rain 15 995 77 10000 5.7 220 19:43 17.08.2019
3499 Rain 15 995 77 10000 5.7 220 19:43 17.08.2019
3500 Rain 15 995 72 10000 7.7 210 19:24 17.08.2019
3501 Rain 15 995 72 10000 7.7 210 19:24 17.08.2019
3502 Clouds 15 995 72 10000 7.7 220 18:55 17.08.2019
3503 Clouds 15 995 72 10000 7.7 220 18:37 17.08.2019
3504 Rain 16 995 76 10000 12.3 220 18:18 17.08.2019
3505 Rain 17 995 59 10000 10.3 210 17:42 17.08.2019
3506 Rain 17 995 59 10000 10.3 210 17:22 17.08.2019
3507 Clouds 18 995 59 10000 11.3 210 16:56 17.08.2019
3508 Clouds 18 995 59 10000 11.3 210 16:38 17.08.2019
3509 Clouds 17 995 67 10000 9.8 210 16:19 17.08.2019
3510 Rain 17 996 63 10000 10.3 220 15:42 17.08.2019
3511 Rain 17 996 63 10000 10.8 230 15:22 17.08.2019
3512 Clouds 17 995 59 10000 11.3 220 14:58 17.08.2019
3513 Clouds 17 995 59 10000 11.3 220 14:39 17.08.2019
3514 Rain 17 995 63 10000 12.3 220 14:21 17.08.2019
3515 Rain 16 995 63 10000 11.3 220 13:45 17.08.2019
3516 Clouds 16 995 67 10000 11.3 220 13:20 17.08.2019
3517 Rain 16 995 72 10000 10.3 230 12:44 17.08.2019
3518 Rain 15 995 72 10000 9.3 230 12:20 17.08.2019
3519 Clouds 15 995 77 10000 9.8 220 11:58 17.08.2019
3520 Clouds 15 995 77 10000 9.8 220 11:38 17.08.2019
3521 Clouds 15 994 72 10000 9.8 220 11:20 17.08.2019
3522 Clouds 15 994 77 10000 8.7 220 10:41 17.08.2019
3523 Rain 14 994 77 10000 7.7 220 10:21 17.08.2019
3524 Rain 14 994 82 10000 6.2 220 09:57 17.08.2019
3525 Rain 14 994 82 10000 6.2 220 09:37 17.08.2019
3526 Rain 13 994 87 10000 6.7 220 09:18 17.08.2019
3527 Rain 13 994 87 10000 5.7 220 08:46 17.08.2019
3528 Rain 12 994 93 10000 4.6 230 08:20 17.08.2019
3529 Rain 12 993 93 10000 2.6 240 07:42 17.08.2019
3530 Rain 12 993 82 10000 4.6 250 07:20 17.08.2019
3531 Rain 13 993 87 10000 5.1 250 06:21 17.08.2019
3532 Rain 14 992 87 10000 6.7 210 04:32 17.08.2019
3533 Rain 14 992 87 10000 6.7 210 04:32 17.08.2019
3534 Rain 14 992 87 10000 4.1 230 03:38 17.08.2019
3535 Rain 14 992 82 10000 7.7 230 02:36 17.08.2019
3536 Rain 15 992 100 9000 0.5 0 01:36 17.08.2019
3537 Rain 15 992 100 10000 1 320 01:18 17.08.2019
3538 Rain 15 993 93 10000 1.5 280 00:44 17.08.2019
3539 Clouds 15 993 93 10000 0.5 0 23:58 16.08.2019
3540 Clouds 15 993 93 10000 0.5 0 23:39 16.08.2019
3541 Rain 16 993 93 10000 2.1 230 23:20 16.08.2019
3542 Clouds 16 993 87 10000 2.1 250 22:42 16.08.2019
3543 Rain 16 992 93 10000 3.1 250 22:19 16.08.2019
3544 Rain 17 992 88 10000 8.2 220 21:42 16.08.2019
3545 Rain 18 992 77 10000 7.7 190 21:22 16.08.2019
3546 Rain 18 993 82 10000 3.1 230 20:59 16.08.2019
3547 Rain 19 993 82 10000 3.1 230 20:40 16.08.2019
3548 Rain 19 993 82 10000 2.6 230 20:19 16.08.2019
3549 Clouds 19 994 82 10000 3.1 250 19:45 16.08.2019
3550 Rain 19 994 82 10000 8.2 230 19:24 16.08.2019
3551 Clouds 20 994 68 10000 7.2 210 18:59 16.08.2019
3552 Clouds 20 994 68 10000 7.2 210 18:41 16.08.2019
3553 Clouds 20 994 68 10000 7.2 210 18:41 16.08.2019
3554 Clouds 20 994 68 10000 7.7 210 18:22 16.08.2019
3555 Clouds 20 995 72 10000 8.7 220 17:45 16.08.2019
3556 Clouds 20 995 72 10000 8.7 220 17:25 16.08.2019
3557 Rain 20 995 73 10000 9.3 220 16:56 16.08.2019
3558 Rain 20 995 73 10000 9.3 220 16:38 16.08.2019
3559 Rain 20 995 82 10000 8.7 210 16:18 16.08.2019
3560 Clouds 19 996 82 10000 7.7 210 15:54 16.08.2019
3561 Rain 19 996 88 10000 8.7 210 15:36 16.08.2019
3562 Rain 18 996 88 10000 8.7 210 15:18 16.08.2019
3563 Rain 18 996 93 10000 7.2 200 14:41 16.08.2019
3564 Rain 17 997 93 10000 7.2 190 14:19 16.08.2019
3565 Rain 17 997 93 10000 7.2 190 14:19 16.08.2019
3566 Rain 17 997 93 10000 7.2 190 14:19 16.08.2019
3567 Drizzle 17 997 93 4400 6.7 190 13:59 16.08.2019
3568 Drizzle 17 997 93 4400 6.7 190 13:38 16.08.2019
3569 Haze 17 997 93 4900 7.2 180 13:20 16.08.2019
3570 Drizzle 16 998 93 3200 6.7 180 12:39 16.08.2019
3571 Drizzle 16 998 93 2600 7.2 170 12:20 16.08.2019
3572 Drizzle 15 998 93 4000 6.7 170 11:43 16.08.2019
3573 Drizzle 15 999 87 3800 6.7 170 11:24 16.08.2019
3574 Drizzle 15 1000 87 3500 7.7 180 10:58 16.08.2019
3575 Drizzle 15 1000 87 3500 7.7 180 10:40 16.08.2019
3576 Rain 15 1000 93 10000 5.1 190 10:18 16.08.2019
3577 Rain 15 1001 87 10000 4.1 180 09:38 16.08.2019
3578 Rain 15 1001 93 10000 4.1 160 09:19 16.08.2019
3579 Rain 15 1001 93 10000 4.1 160 09:19 16.08.2019
3580 Rain 14 1002 93 10000 4.6 170 08:56 16.08.2019
3581 Rain 14 1002 93 10000 4.6 170 08:38 16.08.2019
3582 Rain 14 1002 87 10000 5.7 180 08:18 16.08.2019
3583 Rain 15 1003 87 10000 6.7 190 07:44 16.08.2019
3584 Rain 15 1003 100 10000 2.6 170 07:24 16.08.2019
3585 Rain 15 1004 100 7000 2.1 140 06:34 16.08.2019
3586 Rain 15 1005 93 10000 4.6 160 05:58 16.08.2019
3587 Rain 15 1006 87 10000 3.6 150 05:32 16.08.2019
3588 Clouds 15 1008 93 10000 2.6 110 03:19 16.08.2019
3589 Rain 14 1009 93 10000 2.6 230 01:44 16.08.2019
3590 Rain 14 1009 93 5000 4.1 200 01:24 16.08.2019
3591 Clouds 14 1009 82 8000 6.2 200 00:43 16.08.2019
3592 Clouds 14 1010 77 10000 3.1 190 00:22 16.08.2019
3593 Clouds 14 1010 76 10000 2.6 200 23:46 15.08.2019
3594 Clouds 14 1010 76 10000 3.1 200 23:24 15.08.2019
3595 Clouds 14 1010 72 10000 2.6 210 22:59 15.08.2019
3596 Clouds 14 1010 72 10000 2.6 210 22:40 15.08.2019
3597 Clouds 14 1010 72 10000 2.1 220 22:21 15.08.2019
3598 Clouds 15 1011 72 10000 3.6 200 21:56 15.08.2019
3599 Clouds 15 1011 72 10000 3.6 200 21:38 15.08.2019
3600 Clouds 16 1011 67 10000 3.1 180 21:18 15.08.2019
3601 Clouds 16 1011 67 10000 3.1 180 21:18 15.08.2019
3602 Clouds 16 1011 67 10000 2.6 240 20:43 15.08.2019
3603 Clouds 16 1011 67 10000 4.1 240 20:22 15.08.2019
3604 Clouds 16 1011 67 10000 3.1 240 19:58 15.08.2019
3605 Clouds 16 1011 67 10000 3.1 240 19:39 15.08.2019
3606 Clouds 16 1011 59 10000 5.1 260 19:21 15.08.2019
3607 Clouds 16 1011 59 10000 5.1 260 19:21 15.08.2019
3608 Clouds 17 1011 59 10000 6.2 260 18:47 15.08.2019
3609 Clouds 17 1010 55 10000 6.7 260 18:23 15.08.2019
3610 Clouds 17 1010 55 10000 6.2 260 17:58 15.08.2019
3611 Clouds 17 1010 55 10000 6.2 260 17:38 15.08.2019
3612 Clouds 17 1010 55 10000 6.7 250 17:19 15.08.2019
3613 Clouds 17 1010 55 10000 8.2 260 16:56 15.08.2019
3614 Clouds 17 1010 55 10000 8.2 260 16:38 15.08.2019
3615 Clouds 17 1010 59 10000 7.7 260 16:20 15.08.2019
3616 Clouds 17 1010 55 10000 7.2 270 15:38 15.08.2019
3617 Clouds 17 1009 55 10000 6.7 280 15:19 15.08.2019
3618 Clouds 17 1009 55 10000 8.2 270 14:56 15.08.2019
3619 Clouds 17 1009 59 10000 6.2 280 14:37 15.08.2019
3620 Clouds 17 1009 59 10000 6.2 280 14:18 15.08.2019
3621 Clouds 16 1008 59 10000 5.7 290 13:55 15.08.2019
3622 Clouds 16 1008 59 10000 5.7 290 13:36 15.08.2019
3623 Clouds 16 1008 63 10000 7.2 290 13:18 15.08.2019
3624 Clouds 16 1008 63 10000 6.2 280 12:40 15.08.2019
3625 Clouds 16 1007 67 10000 7.2 290 12:20 15.08.2019
3626 Clouds 15 1007 76 10000 6.2 290 11:57 15.08.2019
3627 Clouds 15 1007 76 10000 6.2 290 11:37 15.08.2019
3628 Clouds 15 1006 76 10000 6.7 270 11:18 15.08.2019
3629 Clouds 15 1005 77 10000 7.7 270 10:57 15.08.2019
3630 Clouds 14 1005 87 10000 7.7 260 10:36 15.08.2019
3631 Clouds 14 1005 87 10000 7.7 260 10:18 15.08.2019
3632 Clouds 14 1004 82 10000 5.7 250 09:42 15.08.2019
3633 Clouds 14 1004 93 10000 4.6 260 09:22 15.08.2019
3634 Rain 14 1003 93 10000 6.7 260 08:39 15.08.2019
3635 Rain 13 1002 87 10000 7.2 260 08:21 15.08.2019
3636 Rain 14 1002 87 10000 4.6 260 07:56 15.08.2019
3637 Rain 14 1002 87 10000 4.6 260 07:37 15.08.2019
3638 Rain 14 1001 93 10000 3.1 240 07:18 15.08.2019
3639 Rain 14 1001 93 10000 3.6 250 06:43 15.08.2019
3640 Clouds 14 1000 93 10000 3.6 230 06:22 15.08.2019
3641 Clouds 14 1000 100 10000 3.1 250 05:29 15.08.2019
3642 Drizzle 14 1000 100 3300 4.6 220 04:57 15.08.2019
3643 Rain 14 1000 100 8000 2.6 220 03:53 15.08.2019
3644 Rain 14 1000 100 6000 1 210 03:18 15.08.2019
3645 Clouds 14 1001 93 10000 1.5 230 02:25 15.08.2019
3646 Clouds 14 1001 93 10000 2.1 230 01:39 15.08.2019
3647 Rain 15 1001 100 10000 3.1 230 00:55 15.08.2019
3648 Rain 15 1001 100 10000 3.1 230 00:36 15.08.2019
3649 Rain 15 1001 93 10000 3.1 230 00:18 15.08.2019
3650 Drizzle 15 1001 100 4900 2.1 150 23:54 14.08.2019
3651 Rain 15 1001 100 10000 1.5 0 23:36 14.08.2019
3652 Rain 15 1001 100 10000 1.5 0 23:18 14.08.2019
3653 Rain 15 1001 100 3600 1 0 22:40 14.08.2019
3654 Rain 15 1001 100 3600 1 0 22:22 14.08.2019
3655 Clouds 15 1001 100 10000 2.6 80 21:57 14.08.2019
3656 Clouds 15 1001 100 10000 2.6 80 21:38 14.08.2019
3657 Rain 16 1002 100 6000 2.6 80 21:20 14.08.2019
3658 Drizzle 16 1002 93 3800 2.6 60 20:56 14.08.2019
3659 Drizzle 16 1002 93 3800 2.6 60 20:37 14.08.2019
3660 Drizzle 16 1002 100 3500 2.6 80 20:18 14.08.2019
3661 Drizzle 16 1003 93 3400 3.1 70 19:40 14.08.2019
3662 Drizzle 16 1003 93 3400 3.1 70 19:22 14.08.2019
3663 Drizzle 16 1003 93 5000 3.6 60 18:57 14.08.2019
3664 Drizzle 16 1003 93 5000 3.6 60 18:39 14.08.2019
3665 Drizzle 16 1004 93 4000 4.1 60 18:20 14.08.2019
3666 Drizzle 16 1004 93 4000 4.1 60 18:20 14.08.2019
3667 Rain 16 1004 100 6000 3.1 50 17:58 14.08.2019
3668 Rain 16 1004 100 6000 3.1 50 17:37 14.08.2019
3669 Rain 16 1004 100 6000 3.1 50 17:37 14.08.2019
3670 Rain 16 1005 100 10000 4.1 60 17:19 14.08.2019
3671 Rain 16 1005 93 10000 3.6 60 16:55 14.08.2019
3672 Rain 16 1005 93 10000 3.6 60 16:36 14.08.2019
3673 Rain 16 1005 93 10000 3.1 60 16:18 14.08.2019
3674 Rain 16 1006 93 4800 3.6 90 15:42 14.08.2019
3675 Rain 15 1006 93 8000 3.1 40 15:18 14.08.2019
3676 Rain 15 1006 87 10000 3.6 50 14:54 14.08.2019
3677 Rain 15 1006 87 10000 3.6 50 14:36 14.08.2019
3678 Rain 15 1007 87 9000 4.1 90 14:18 14.08.2019
3679 Rain 15 1007 87 8000 4.1 100 13:43 14.08.2019
3680 Rain 15 1007 87 10000 3.6 70 13:23 14.08.2019
3681 Rain 15 1007 93 10000 2.1 60 12:56 14.08.2019
3682 Rain 15 1007 93 10000 2.1 60 12:38 14.08.2019
3683 Rain 15 1007 93 10000 2.1 60 12:38 14.08.2019
3684 Rain 14 1008 93 10000 3.1 80 12:20 14.08.2019
3685 Drizzle 14 1008 93 4700 4.1 110 11:48 14.08.2019
3686 Rain 14 1008 87 10000 3.1 60 11:23 14.08.2019
3687 Rain 14 1008 87 10000 3.1 60 11:23 14.08.2019
3688 Rain 13 1008 87 10000 3.6 60 10:59 14.08.2019
3689 Rain 13 1008 87 10000 3.6 60 10:40 14.08.2019
3690 Rain 13 1009 93 10000 2.6 50 10:22 14.08.2019
3691 Rain 12 1009 87 10000 2.1 60 09:45 14.08.2019
3692 Rain 12 1009 93 10000 2.6 70 09:22 14.08.2019
3693 Rain 11 1009 87 10000 2.1 60 08:52 14.08.2019
3694 Rain 11 1010 87 10000 2.6 70 08:34 14.08.2019
3695 Rain 11 1010 87 10000 2.1 60 07:58 14.08.2019
3696 Rain 11 1010 87 10000 2.1 60 07:39 14.08.2019
3697 Rain 10 1010 93 10000 2.1 60 07:21 14.08.2019
3698 Rain 10 1011 93 10000 1.5 60 06:43 14.08.2019
3699 Clouds 10 1011 93 10000 2.1 40 05:47 14.08.2019
3700 Clouds 10 1012 87 10000 2.1 40 04:45 14.08.2019
3701 Clouds 10 1013 93 10000 1 0 02:52 14.08.2019
3702 Clouds 10 1013 93 10000 1.5 360 02:25 14.08.2019
3703 Clouds 10 1013 81 10000 1.5 0 01:34 14.08.2019
3704 Clouds 10 1013 81 10000 2.6 270 00:48 14.08.2019
3705 Clouds 12 1013 76 10000 1.5 240 23:47 13.08.2019
3706 Clouds 12 1013 76 10000 1 270 23:21 13.08.2019
3707 Clouds 12 1013 71 10000 1.5 230 22:57 13.08.2019
3708 Clouds 12 1013 71 10000 1.5 230 22:39 13.08.2019
3709 Clouds 12 1013 71 10000 2.1 230 22:20 13.08.2019
3710 Clouds 12 1013 66 10000 2.6 240 21:56 13.08.2019
3711 Clouds 12 1013 66 10000 2.6 240 21:36 13.08.2019
3712 Clear 14 1013 58 10000 3.6 260 21:18 13.08.2019
3713 Rain 15 1013 58 10000 4.6 260 20:44 13.08.2019
3714 Rain 15 1013 55 10000 5.7 260 20:20 13.08.2019
3715 Rain 15 1013 63 10000 4.6 290 19:57 13.08.2019
3716 Rain 15 1013 63 10000 4.6 290 19:39 13.08.2019
3717 Clouds 15 1013 59 10000 5.7 290 19:20 13.08.2019
3718 Rain 15 1013 59 10000 7.2 260 18:42 13.08.2019
3719 Rain 16 1014 59 10000 6.7 250 18:22 13.08.2019
3720 Rain 16 1014 59 10000 6.7 250 18:22 13.08.2019
3721 Rain 16 1014 67 10000 7.2 240 17:57 13.08.2019
3722 Rain 16 1014 67 10000 7.2 240 17:39 13.08.2019
3723 Rain 16 1014 67 10000 7.7 240 17:19 13.08.2019
3724 Rain 16 1013 63 10000 7.2 240 16:56 13.08.2019
3725 Rain 16 1013 63 10000 7.2 240 16:55 13.08.2019
3726 Rain 17 1013 63 10000 7.2 240 16:37 13.08.2019
3727 Rain 16 1013 59 10000 6.7 260 16:18 13.08.2019
3728 Rain 16 1013 67 10000 4.6 310 15:38 13.08.2019
3729 Rain 16 1013 67 10000 4.6 310 15:20 13.08.2019
3730 Rain 15 1013 59 10000 6.7 250 14:55 13.08.2019
3731 Rain 15 1013 59 10000 6.7 250 14:37 13.08.2019
3732 Rain 15 1014 72 10000 5.7 240 14:18 13.08.2019
3733 Rain 15 1014 67 10000 6.2 250 13:41 13.08.2019
3734 Rain 15 1014 82 10000 4.6 230 13:21 13.08.2019
3735 Rain 16 1014 71 10000 6.7 240 12:57 13.08.2019
3736 Rain 15 1014 71 10000 6.7 240 12:39 13.08.2019
3737 Clouds 15 1014 67 10000 4.6 260 12:21 13.08.2019
3738 Clouds 15 1014 67 10000 4.1 260 11:44 13.08.2019
3739 Clouds 14 1014 76 10000 4.1 260 11:23 13.08.2019
3740 Rain 14 1014 76 10000 3.1 250 10:59 13.08.2019
3741 Rain 14 1014 76 10000 3.1 250 10:39 13.08.2019
3742 Clouds 13 1014 87 10000 2.1 260 10:20 13.08.2019
3743 Clouds 12 1014 93 10000 3.1 240 09:58 13.08.2019
3744 Clouds 12 1014 93 10000 3.1 240 09:40 13.08.2019
3745 Clouds 11 1014 93 10000 2.6 240 09:22 13.08.2019
3746 Rain 10 1014 100 10000 1.5 0 08:42 13.08.2019
3747 Clouds 9 1014 100 10000 2.6 280 08:22 13.08.2019
3748 Clouds 9 1014 100 10000 1 0 07:51 13.08.2019
3749 Mist 9 1014 100 5000 0.5 0 07:31 13.08.2019
3750 Mist 8 1013 100 4900 0.5 0 06:45 13.08.2019
3751 Mist 8 1013 100 2000 1 0 06:19 13.08.2019
3752 Clear 9 1014 100 10000 1 0 05:32 13.08.2019
3753 Clouds 9 1014 100 10000 1 0 02:32 13.08.2019
3754 Clouds 10 1014 93 10000 2.6 250 01:46 13.08.2019
3755 Clouds 10 1014 93 10000 2.6 250 00:52 13.08.2019
3756 Clouds 11 1014 93 10000 2.1 250 00:22 13.08.2019
3757 Clouds 11 1013 93 10000 0.5 0 23:47 12.08.2019
3758 Rain 11 1013 93 10000 2.1 250 23:21 12.08.2019
3759 Rain 11 1013 93 10000 2.1 260 22:56 12.08.2019
3760 Rain 11 1013 93 10000 2.1 260 22:38 12.08.2019
3761 Clouds 12 1013 87 10000 2.6 260 22:18 12.08.2019
3762 Clouds 12 1013 87 10000 4.6 220 21:54 12.08.2019
3763 Clouds 12 1013 87 10000 4.6 220 21:36 12.08.2019
3764 Rain 13 1013 82 10000 3.1 220 21:18 12.08.2019
3765 Rain 13 1013 87 10000 3.6 240 20:41 12.08.2019
3766 Rain 14 1013 76 10000 4.6 250 20:21 12.08.2019
3767 Rain 14 1012 72 10000 4.1 260 19:58 12.08.2019
3768 Rain 14 1012 72 10000 4.1 260 19:39 12.08.2019
3769 Rain 14 1012 72 10000 3.6 270 19:21 12.08.2019
3770 Rain 14 1012 82 10000 3.1 280 18:59 12.08.2019
3771 Rain 14 1012 82 10000 3.1 280 18:39 12.08.2019
3772 Rain 14 1012 82 10000 4.6 290 18:21 12.08.2019
3773 Rain 15 1012 82 10000 4.6 280 17:56 12.08.2019
3774 Rain 16 1012 82 10000 4.6 280 17:38 12.08.2019
3775 Rain 16 1012 76 10000 4.1 300 17:20 12.08.2019
3776 Rain 16 1012 67 10000 4.1 230 16:42 12.08.2019
3777 Rain 16 1012 67 10000 3.6 230 16:20 12.08.2019
3778 Rain 16 1012 59 10000 3.6 230 15:59 12.08.2019
3779 Rain 16 1012 59 10000 3.6 230 15:41 12.08.2019
3780 -273 0 0 0 0 0 15:41 12.08.2019
3781 -273 0 0 0 0 0 15:41 12.08.2019
3782 -273 0 0 0 0 0 15:40 12.08.2019
3783 Clouds 16 1012 62 10000 2.1 230 15:21 12.08.2019
3784 Clouds 16 1013 62 10000 2.6 260 14:55 12.08.2019
3785 Clouds 16 1013 62 10000 2.6 260 14:37 12.08.2019
3786 Clouds 16 1013 71 10000 2.6 280 14:18 12.08.2019
3787 Clouds 15 1013 62 10000 2.1 280 13:42 12.08.2019
3788 Clouds 15 1013 62 10000 2.1 300 13:23 12.08.2019
3789 Clouds 15 1013 67 10000 2.1 300 12:44 12.08.2019
3790 Clouds 14 1013 71 10000 3.1 310 12:23 12.08.2019
3791 Clouds 13 1013 71 10000 3.1 310 11:58 12.08.2019
3792 -273 0 0 0 0 0 11:39 12.08.2019
3793 Clouds 13 1013 76 10000 2.6 270 11:21 12.08.2019
3794 Clouds 12 1013 76 10000 3.1 260 10:42 12.08.2019
3795 Clouds 12 1012 81 10000 1.5 0 10:23 12.08.2019
3796 Clouds 11 1012 87 10000 1.5 220 09:56 12.08.2019
3797 Clouds 11 1012 87 10000 1.5 220 09:37 12.08.2019
3798 Clouds 10 1012 87 10000 2.1 240 09:19 12.08.2019
3799 Clouds 9 1012 93 10000 2.6 240 08:43 12.08.2019
3800 Clouds 9 1012 93 10000 2.1 250 08:25 12.08.2019
3801 Clouds 9 1012 93 10000 3.1 220 08:00 12.08.2019
3802 Clouds 9 1012 93 10000 3.1 220 07:41 12.08.2019
3803 Clouds 9 1012 93 10000 2.1 220 07:20 12.08.2019
3804 Clouds 9 1011 100 10000 3.1 220 06:44 12.08.2019
3805 Rain 10 1011 93 10000 2.1 260 04:40 12.08.2019
3806 Rain 10 1011 93 10000 2.1 260 02:44 12.08.2019
3807 Rain 11 1011 93 10000 1.5 270 01:52 12.08.2019
3808 Rain 10 1011 93 10000 2.6 290 01:20 12.08.2019
3809 Rain 10 1011 93 10000 2.6 270 00:56 12.08.2019
3810 Rain 10 1011 93 10000 2.6 270 00:38 12.08.2019
3811 Rain 11 1010 93 10000 2.6 270 00:18 12.08.2019
3812 Rain 11 1010 100 10000 2.6 280 23:41 11.08.2019
3813 Rain 11 1011 87 9000 5.1 300 23:20 11.08.2019
3814 Rain 11 1010 93 10000 2.1 290 22:58 11.08.2019
3815 Rain 11 1010 93 10000 2.1 290 22:39 11.08.2019
3816 Rain 11 1009 93 10000 3.1 300 22:19 11.08.2019
3817 Rain 11 1009 100 10000 2.6 330 21:58 11.08.2019
3818 Rain 11 1009 100 10000 2.6 330 21:39 11.08.2019
3819 Rain 11 1009 100 7000 3.1 320 21:19 11.08.2019
3820 Rain 12 1008 100 6000 4.6 290 20:45 11.08.2019
3821 Rain 12 1008 93 5000 2.6 290 20:24 11.08.2019
3822 Rain 12 1008 100 3600 2.1 300 19:57 11.08.2019
3823 Rain 12 1008 100 3600 2.1 300 19:39 11.08.2019
3824 Rain 12 1007 93 5000 1.5 0 19:18 11.08.2019
3825 Rain 13 1007 100 5000 2.1 350 18:41 11.08.2019
3826 Rain 13 1007 93 4900 2.1 340 18:20 11.08.2019
3827 Rain 13 1007 93 3900 2.6 360 17:56 11.08.2019
3828 Rain 13 1007 93 3900 2.6 360 17:38 11.08.2019
3829 Rain 13 1006 93 3500 1 0 17:20 11.08.2019
3830 Rain 14 1006 93 4400 2.1 70 16:55 11.08.2019
3831 Rain 14 1006 93 4000 1 0 16:37 11.08.2019
3832 Rain 14 1006 93 4000 1 0 16:18 11.08.2019
3833 Rain 14 1006 93 3000 1 0 15:42 11.08.2019
3834 Rain 14 1006 93 5000 3.1 290 15:22 11.08.2019
3835 Rain 14 1006 93 10000 3.1 280 14:56 11.08.2019
3836 Rain 14 1006 93 10000 3.1 280 14:38 11.08.2019
3837 Rain 14 1005 87 10000 3.1 300 14:19 11.08.2019
3838 Rain 14 1005 87 10000 3.1 300 13:43 11.08.2019
3839 Rain 15 1005 87 10000 3.1 300 13:24 11.08.2019
3840 Rain 14 1004 82 10000 3.1 300 12:46 11.08.2019
3841 Rain 15 1004 82 10000 3.1 300 12:22 11.08.2019
3842 Rain 15 1004 93 10000 2.6 260 11:42 11.08.2019
3843 Rain 15 1004 87 10000 2.1 260 11:23 11.08.2019
3844 Rain 14 1003 87 10000 1.5 250 10:59 11.08.2019
3845 Rain 15 1003 87 10000 1.5 250 10:40 11.08.2019
3846 Rain 14 1003 87 10000 2.6 310 10:21 11.08.2019
3847 Rain 14 1002 87 10000 2.1 300 09:56 11.08.2019
3848 Rain 14 1002 87 10000 2.1 300 09:37 11.08.2019
3849 Rain 14 1002 93 10000 2.6 290 09:19 11.08.2019
3850 Rain 14 1002 93 10000 2.6 290 09:19 11.08.2019
3851 Rain 14 1002 93 10000 2.6 260 08:43 11.08.2019
3852 Rain 14 1001 93 10000 1.5 0 08:25 11.08.2019
3853 Rain 14 1001 100 10000 1 0 07:49 11.08.2019
3854 Rain 14 1001 93 10000 1 0 07:21 11.08.2019
3855 Rain 14 1000 100 10000 1 250 06:39 11.08.2019
3856 Clouds 15 999 93 10000 1 0 05:34 11.08.2019
3857 Rain 15 999 100 10000 2.6 220 03:36 11.08.2019
3858 Rain 15 998 93 10000 1.5 230 02:45 11.08.2019
3859 Rain 15 998 93 10000 2.1 240 01:36 11.08.2019
3860 Clouds 15 997 93 10000 2.1 250 00:59 11.08.2019
3861 Clouds 15 997 93 10000 2.1 250 00:40 11.08.2019
3862 Clouds 16 997 87 10000 2.1 250 00:22 11.08.2019
3863 Clouds 16 996 87 10000 2.1 260 23:39 10.08.2019
3864 Clouds 16 996 87 10000 3.1 230 23:20 10.08.2019
3865 Rain 16 996 87 10000 3.1 230 22:43 10.08.2019
3866 Thunderstorm 16 995 88 10000 3.6 230 22:24 10.08.2019
3867 Thunderstorm 17 995 82 10000 4.6 220 21:57 10.08.2019
3868 Thunderstorm 17 995 82 10000 4.6 220 21:36 10.08.2019
3869 Thunderstorm 17 995 82 10000 4.6 250 21:18 10.08.2019
3870 Thunderstorm 18 994 77 10000 4.1 260 20:42 10.08.2019
3871 Rain 19 994 68 10000 5.1 250 20:21 10.08.2019
3872 Rain 19 993 68 10000 5.7 250 19:57 10.08.2019
3873 Clouds 19 994 82 10000 6.2 220 19:37 10.08.2019
3874 Rain 20 993 64 10000 6.2 260 19:19 10.08.2019
3875 Rain 19 992 77 10000 3.1 260 18:39 10.08.2019
3876 Rain 19 992 77 10000 3.1 260 18:39 10.08.2019
3877 Rain 20 992 73 10000 4.1 270 18:21 10.08.2019
3878 Rain 21 992 73 10000 4.1 290 17:44 10.08.2019
3879 Rain 21 991 73 10000 4.6 300 17:24 10.08.2019
3880 Rain 22 991 68 10000 4.6 280 16:47 10.08.2019
3881 Rain 21 991 77 10000 4.1 300 16:28 10.08.2019
3882 Rain 21 990 64 10000 2.6 230 15:54 10.08.2019
3883 Clouds 21 991 73 10000 5.7 270 15:25 10.08.2019
3884 Rain 21 990 60 10000 1 0 14:45 10.08.2019
3885 Rain 21 990 68 10000 1.5 0 14:22 10.08.2019
3886 Clouds 21 990 68 10000 2.1 10 13:55 10.08.2019
3887 Rain 20 990 77 10000 1.5 0 13:37 10.08.2019
3888 Rain 20 990 77 10000 1.5 0 13:18 10.08.2019
3889 Clouds 20 990 77 10000 2.1 10 12:41 10.08.2019
3890 Clouds 19 989 77 10000 2.1 50 12:21 10.08.2019
3891 Clouds 18 989 77 10000 3.1 40 11:54 10.08.2019
3892 Clouds 18 989 77 10000 3.1 40 11:36 10.08.2019
3893 Clouds 18 989 77 10000 3.1 40 11:36 10.08.2019
3894 Clouds 18 989 88 10000 2.6 50 11:18 10.08.2019
3895 Clouds 17 989 88 10000 3.1 70 10:38 10.08.2019
3896 Clouds 17 989 93 10000 3.1 70 10:20 10.08.2019
3897 Clouds 16 989 88 10000 2.6 50 09:43 10.08.2019
3898 Fog 16 988 93 10000 2.1 110 09:24 10.08.2019
3899 Fog 15 988 93 10000 2.6 80 08:56 10.08.2019
3900 Fog 15 988 93 10000 2.6 80 08:38 10.08.2019
3901 Fog 15 988 100 9000 2.6 80 08:18 10.08.2019
3902 Fog 14 988 100 6000 3.6 50 07:46 10.08.2019
3903 Mist 14 988 100 2800 3.6 30 07:24 10.08.2019
3904 Mist 14 988 100 2000 2.6 50 06:47 10.08.2019
3905 Mist 15 988 100 5000 3.1 60 05:52 10.08.2019
3906 Fog 15 988 100 9000 3.1 70 05:21 10.08.2019
3907 Rain 15 989 93 7000 3.6 60 03:55 10.08.2019
3908 Rain 16 989 93 9000 3.1 70 02:50 10.08.2019
3909 Rain 16 989 100 7000 3.6 50 01:57 10.08.2019
3910 Rain 16 989 100 7000 3.6 50 01:37 10.08.2019
3911 Rain 16 990 100 7000 3.1 50 01:19 10.08.2019
3912 Rain 16 990 93 9000 3.1 80 00:42 10.08.2019
3913 Rain 16 990 100 6000 3.1 90 00:19 10.08.2019
3914 Rain 16 990 93 10000 5.1 80 23:41 09.08.2019
3915 Thunderstorm 16 990 93 10000 5.7 70 23:21 09.08.2019
3916 Rain 16 990 93 10000 4.6 70 22:55 09.08.2019
3917 Rain 16 990 93 10000 4.6 70 22:37 09.08.2019
3918 Rain 17 990 93 10000 5.1 60 22:18 09.08.2019
3919 Clouds 17 991 93 10000 5.1 60 21:41 09.08.2019
3920 Rain 17 991 93 10000 4.1 50 21:21 09.08.2019
3921 Clouds 18 991 93 10000 4.1 60 20:57 09.08.2019
3922 Clouds 18 991 93 10000 4.1 60 20:39 09.08.2019
3923 Rain 18 991 100 10000 4.1 50 20:18 09.08.2019
3924 Clouds 18 991 93 10000 2.6 20 19:43 09.08.2019
3925 Rain 18 992 93 10000 1 0 19:23 09.08.2019
3926 Rain 18 992 93 7000 3.1 140 18:58 09.08.2019
3927 Rain 18 992 93 7000 3.1 140 18:38 09.08.2019
3928 Rain 19 991 82 10000 6.2 70 18:19 09.08.2019
3929 Rain 19 992 82 10000 6.2 60 17:43 09.08.2019
3930 Rain 19 992 82 10000 6.2 60 17:43 09.08.2019
3931 Rain 19 992 82 10000 7.2 50 17:24 09.08.2019
3932 -273 0 0 0 0 0 16:55 09.08.2019
3933 Clouds 19 993 82 10000 6.2 60 16:37 09.08.2019
3934 Clouds 18 993 82 10000 6.7 60 16:18 09.08.2019
3935 Clouds 18 993 82 10000 6.7 60 16:18 09.08.2019
3936 -273 0 0 0 0 0 15:41 09.08.2019
3937 Rain 16 994 93 10000 5.1 60 15:21 09.08.2019
3938 Rain 16 995 93 10000 5.1 60 14:58 09.08.2019
3939 Rain 16 995 93 10000 5.1 60 14:38 09.08.2019
3940 Drizzle 15 995 100 2800 5.7 60 14:20 09.08.2019
3941 Rain 15 996 100 3800 6.7 70 13:45 09.08.2019
3942 Rain 15 996 93 3800 6.7 70 13:21 09.08.2019
3943 Rain 15 996 93 4900 6.7 70 12:56 09.08.2019
3944 Rain 15 996 93 4000 9.8 70 12:37 09.08.2019
3945 Rain 15 996 93 4000 9.8 70 12:18 09.08.2019
3946 Rain 15 996 93 10000 10.3 70 11:41 09.08.2019
3947 Rain 15 997 93 10000 9.8 70 11:20 09.08.2019
3948 Rain 15 997 93 10000 10.3 70 10:42 09.08.2019
3949 Rain 15 998 93 10000 10.3 70 10:22 09.08.2019
3950 Rain 15 999 93 5000 9.3 70 09:59 09.08.2019
3951 Rain 15 999 93 5000 9.3 70 09:38 09.08.2019
3952 Rain 15 1000 93 7000 7.2 70 09:19 09.08.2019
3953 Rain 14 1000 93 8000 8.7 60 08:44 09.08.2019
3954 Rain 14 1001 93 9000 8.7 60 08:25 09.08.2019
3955 Rain 14 1001 93 9000 9.3 60 07:56 09.08.2019
3956 Rain 14 1001 93 9000 9.3 60 07:56 09.08.2019
3957 Rain 14 1001 93 9000 9.3 60 07:56 09.08.2019
3958 Rain 14 1001 93 9000 9.3 60 07:37 09.08.2019
3959 Rain 14 1002 93 9000 9.3 60 07:19 09.08.2019
3960 Rain 15 1003 93 8000 8.2 60 06:40 09.08.2019
3961 Rain 15 1004 87 10000 7.7 70 06:20 09.08.2019
3962 Clouds 15 1005 87 10000 7.7 70 05:30 09.08.2019
3963 Clouds 15 1008 82 10000 7.7 80 02:26 09.08.2019
3964 Clouds 15 1008 82 10000 6.2 80 01:21 09.08.2019
3965 Clouds 15 1008 77 10000 6.7 80 00:41 09.08.2019
3966 Rain 15 1008 77 10000 6.7 80 00:22 09.08.2019
3967 Rain 15 1008 82 10000 6.2 70 23:55 08.08.2019
3968 Rain 15 1008 82 10000 6.2 70 23:36 08.08.2019
3969 Rain 16 1008 77 10000 6.7 80 23:18 08.08.2019
3970 Rain 16 1008 72 10000 6.2 70 22:37 08.08.2019
3971 Rain 16 1008 72 10000 5.7 70 22:19 08.08.2019
3972 Rain 17 1008 68 10000 6.7 70 21:59 08.08.2019
3973 Rain 17 1008 68 10000 6.7 70 21:59 08.08.2019
3974 Rain 17 1008 68 10000 6.7 70 21:41 08.08.2019
3975 Clouds 18 1008 63 10000 5.7 90 21:22 08.08.2019
3976 Clouds 18 1008 64 10000 3.1 60 20:56 08.08.2019
3977 Clouds 18 1008 64 10000 3.1 60 20:56 08.08.2019
3978 Clouds 18 1008 64 10000 3.1 60 20:38 08.08.2019
3979 Rain 19 1008 64 10000 1.5 0 20:19 08.08.2019
3980 Rain 19 1008 64 10000 2.1 150 19:45 08.08.2019
3981 Clouds 19 1008 68 10000 1.5 0 19:24 08.08.2019
3982 Clouds 20 1008 64 10000 1 0 18:45 08.08.2019
3983 Clouds 20 1009 64 10000 1.5 0 18:24 08.08.2019
3984 Clouds 20 1009 72 10000 2.6 20 17:58 08.08.2019
3985 Clouds 20 1009 72 10000 2.6 20 17:40 08.08.2019
3986 Clouds 20 1009 64 10000 2.1 340 17:22 08.08.2019
3987 Clouds 20 1009 72 10000 2.6 290 16:55 08.08.2019
3988 Clouds 20 1009 72 10000 2.6 290 16:37 08.08.2019
3989 Clouds 20 1009 77 10000 2.1 230 16:19 08.08.2019
3990 Rain 20 1009 77 10000 5.1 220 15:41 08.08.2019
3991 Clouds 19 1009 63 10000 1.5 0 15:23 08.08.2019
3992 Clouds 20 1008 64 10000 3.1 30 14:56 08.08.2019
3993 Clouds 20 1008 64 10000 3.1 30 14:37 08.08.2019
3994 Clouds 20 1008 64 10000 3.6 20 14:18 08.08.2019
3995 Rain 20 1008 60 10000 1.5 0 13:39 08.08.2019
3996 Clouds 19 1008 64 10000 1.5 0 13:20 08.08.2019
3997 Clouds 19 1008 68 10000 1.5 0 12:40 08.08.2019
3998 Clouds 18 1008 68 10000 1.5 0 12:21 08.08.2019
3999 Clouds 17 1008 77 10000 1.5 0 11:58 08.08.2019
4000 Clouds 17 1008 77 10000 1.5 0 11:39 08.08.2019
4001 Clouds 16 1008 77 10000 2.1 270 11:20 08.08.2019
4002 Rain 16 1008 82 10000 2.1 270 10:41 08.08.2019
4003 Clouds 15 1008 87 10000 1.5 270 10:21 08.08.2019
4004 Clouds 15 1007 87 10000 1 270 09:49 08.08.2019
4005 Clouds 14 1007 93 10000 1 0 09:30 08.08.2019
4006 Clouds 14 1007 93 10000 1 0 09:30 08.08.2019
4007 Clouds 14 1007 93 10000 0.5 0 08:57 08.08.2019
4008 Clouds 14 1007 93 10000 0.5 0 08:38 08.08.2019
4009 Clouds 13 1007 87 10000 3.6 280 08:19 08.08.2019
4010 Clouds 13 1006 93 10000 1 0 07:40 08.08.2019
4011 Clear 13 1005 100 10000 2.1 240 07:20 08.08.2019
4012 Clear 13 1005 100 10000 2.6 250 06:48 08.08.2019
4013 Clouds 13 1006 100 10000 3.1 240 06:27 08.08.2019
4014 Clouds 13 1005 100 10000 2.1 230 05:53 08.08.2019
4015 Clouds 13 1005 93 10000 2.6 240 04:54 08.08.2019
4016 Clouds 13 1005 93 10000 3.1 240 03:53 08.08.2019
4017 Clear 13 1004 93 10000 2.6 240 02:28 08.08.2019
4018 Clouds 14 1004 93 10000 3.1 250 01:36 08.08.2019
4019 Rain 14 1004 93 10000 2.6 240 00:26 08.08.2019
4020 Rain 14 1003 87 10000 3.6 240 23:50 07.08.2019
4021 Rain 14 1003 93 10000 3.6 250 23:19 07.08.2019
4022 Rain 15 1003 87 10000 3.6 250 22:56 07.08.2019
4023 Rain 15 1003 87 10000 3.6 250 22:38 07.08.2019
4024 Clouds 15 1003 82 10000 3.1 250 22:19 07.08.2019
4025 Rain 15 1002 77 10000 3.1 260 21:55 07.08.2019
4026 Rain 15 1002 77 10000 3.1 260 21:36 07.08.2019
4027 Rain 16 1002 77 10000 5.7 270 21:18 07.08.2019
4028 Rain 16 1002 77 10000 6.2 270 20:42 07.08.2019
4029 Thunderstorm 16 1001 72 10000 4.6 270 20:23 07.08.2019
4030 Rain 16 1001 68 10000 6.2 270 19:57 07.08.2019
4031 Rain 16 1001 68 10000 6.2 270 19:38 07.08.2019
4032 Thunderstorm 16 1001 68 10000 6.2 270 19:20 07.08.2019
4033 Rain 17 1000 72 10000 6.2 250 18:43 07.08.2019
4034 Rain 17 1000 72 10000 6.2 250 18:21 07.08.2019
4035 Rain 17 1000 72 10000 6.2 250 18:21 07.08.2019
4036 Rain 17 1000 68 10000 5.7 280 17:58 07.08.2019
4037 Rain 17 1000 68 10000 5.7 280 17:39 07.08.2019
4038 Rain 17 1000 68 10000 6.2 270 17:21 07.08.2019
4039 Rain 18 1000 77 10000 5.7 260 16:57 07.08.2019
4040 Rain 18 1000 77 10000 5.7 260 16:57 07.08.2019
4041 Rain 19 1000 77 10000 5.7 260 16:39 07.08.2019
4042 Rain 19 1000 68 10000 6.2 260 16:20 07.08.2019
4043 Rain 19 1000 68 10000 6.2 260 16:20 07.08.2019
4044 Clouds 19 1000 77 10000 6.7 250 15:56 07.08.2019
4045 Clouds 19 1000 77 10000 6.7 250 15:37 07.08.2019
4046 Rain 17 1000 87 10000 3.6 260 15:19 07.08.2019
4047 Rain 18 1000 72 10000 4.1 260 14:45 07.08.2019
4048 Clouds 18 999 77 10000 1.5 0 14:27 07.08.2019
4049 Rain 18 999 72 10000 3.6 260 13:45 07.08.2019
4050 Rain 18 999 77 10000 3.6 290 13:19 07.08.2019
4051 Clouds 17 999 77 10000 5.1 250 12:58 07.08.2019
4052 Clouds 17 999 77 10000 4.1 270 12:39 07.08.2019
4053 Clouds 16 999 77 10000 4.1 270 12:21 07.08.2019
4054 Clouds 16 999 77 10000 4.6 260 11:59 07.08.2019
4055 Clouds 16 999 77 10000 4.6 260 11:41 07.08.2019
4056 Clouds 16 999 77 10000 4.6 240 11:19 07.08.2019
4057 Clouds 16 999 77 10000 4.6 240 11:19 07.08.2019
4058 Clouds 15 999 82 10000 5.1 260 10:55 07.08.2019
4059 Clouds 15 999 82 10000 5.1 260 10:37 07.08.2019
4060 Rain 14 999 82 10000 5.7 250 10:18 07.08.2019
4061 Rain 14 999 87 10000 4.6 250 09:44 07.08.2019
4062 Rain 13 998 87 10000 4.1 250 09:21 07.08.2019
4063 Rain 13 998 87 10000 1.5 260 08:45 07.08.2019
4064 Rain 13 998 87 10000 1.5 260 08:45 07.08.2019
4065 Rain 13 998 93 10000 4.1 240 08:26 07.08.2019
4066 Rain 13 998 87 10000 3.6 240 07:52 07.08.2019
4067 Rain 13 998 87 10000 3.6 240 07:33 07.08.2019
4068 Rain 13 998 93 10000 3.6 240 06:57 07.08.2019
4069 Rain 13 998 93 10000 5.1 240 06:29 07.08.2019
4070 Rain 13 998 93 10000 4.6 250 05:46 07.08.2019
4071 Rain 13 998 93 10000 4.1 240 04:46 07.08.2019
4072 Rain 13 998 93 10000 2.6 250 03:21 07.08.2019
4073 Rain 13 998 100 10000 1.5 0 02:43 07.08.2019
4074 Rain 13 998 93 10000 3.6 230 01:58 07.08.2019
4075 Rain 13 998 93 8000 3.1 230 01:24 07.08.2019
4076 Rain 13 998 93 10000 2.1 240 00:38 07.08.2019
4077 Rain 13 998 100 10000 1.5 0 00:19 07.08.2019
4078 Rain 13 998 100 8000 1.5 230 23:40 06.08.2019
4079 Rain 14 998 93 5000 2.6 230 23:20 06.08.2019
4080 Rain 14 998 93 5000 2.6 230 23:20 06.08.2019
4081 Rain 14 998 100 4800 2.6 220 22:42 06.08.2019
4082 Rain 14 998 93 3700 1.5 290 22:22 06.08.2019
4083 Rain 14 998 93 2900 2.1 360 21:59 06.08.2019
4084 Rain 14 998 93 2900 2.1 360 21:40 06.08.2019
4085 Rain 15 998 93 6000 0.5 0 21:19 06.08.2019
4086 Rain 15 998 93 6000 0.5 0 21:19 06.08.2019
4087 Rain 15 998 93 6000 0.5 0 21:19 06.08.2019
4088 Rain 15 998 93 6000 0.5 0 21:19 06.08.2019
4089 Rain 15 998 93 5000 0.5 0 20:46 06.08.2019
4090 Rain 15 998 87 9000 3.6 220 20:28 06.08.2019
4091 Rain 16 998 87 10000 3.6 210 19:57 06.08.2019
4092 Rain 16 998 87 10000 3.6 210 19:38 06.08.2019
4093 Rain 16 998 82 10000 5.1 190 19:19 06.08.2019
4094 Rain 16 998 87 10000 3.1 220 18:43 06.08.2019
4095 Rain 17 998 77 10000 3.1 170 18:25 06.08.2019
4096 Rain 17 998 82 10000 4.1 160 17:58 06.08.2019
4097 Rain 17 998 82 10000 4.1 160 17:38 06.08.2019
4098 Rain 17 998 72 10000 4.1 210 17:19 06.08.2019
4099 Rain 18 998 63 10000 3.1 170 16:48 06.08.2019
4100 Rain 18 999 68 10000 2.6 190 16:25 06.08.2019
4101 Rain 18 999 72 10000 3.6 180 15:59 06.08.2019
4102 Rain 18 999 72 10000 3.6 180 15:59 06.08.2019
4103 Rain 18 999 72 10000 3.6 180 15:41 06.08.2019
4104 Rain 18 999 72 10000 5.1 190 15:22 06.08.2019
4105 Rain 18 999 72 10000 3.6 180 14:59 06.08.2019
4106 Rain 18 999 72 10000 3.6 180 14:38 06.08.2019
4107 Rain 18 999 72 10000 5.1 210 14:20 06.08.2019
4108 Rain 18 999 77 10000 4.1 200 13:55 06.08.2019
4109 Rain 17 999 77 10000 4.1 200 13:36 06.08.2019
4110 Rain 17 999 82 10000 3.6 180 13:18 06.08.2019
4111 Rain 17 1000 87 10000 4.1 220 12:40 06.08.2019
4112 Rain 17 1000 87 10000 2.1 210 12:22 06.08.2019
4113 Rain 16 1000 93 10000 2.1 250 11:46 06.08.2019
4114 Rain 16 1000 93 5000 2.6 270 11:21 06.08.2019
4115 Rain 15 1000 93 10000 1 0 10:59 06.08.2019
4116 Rain 15 1000 93 10000 1 0 10:40 06.08.2019
4117 Rain 15 1000 93 10000 1.5 0 10:21 06.08.2019
4118 Rain 15 1000 87 10000 3.1 200 09:43 06.08.2019
4119 Rain 15 1000 93 10000 3.1 170 09:22 06.08.2019
4120 Rain 15 1000 93 10000 1.5 0 08:51 06.08.2019
4121 Rain 15 1000 93 9000 2.1 180 08:30 06.08.2019
4122 Rain 14 1000 93 10000 2.1 150 07:59 06.08.2019
4123 Rain 14 1000 93 10000 2.6 150 07:31 06.08.2019
4124 Rain 14 1000 87 10000 2.6 140 06:45 06.08.2019
4125 Rain 14 1000 93 10000 1 0 06:24 06.08.2019
4126 Rain 15 1001 93 10000 2.1 100 05:46 06.08.2019
4127 Rain 15 1002 82 10000 3.6 180 02:51 06.08.2019
4128 Rain 16 1002 82 10000 1.5 0 01:26 06.08.2019
4129 Rain 16 1002 82 10000 1.5 100 00:52 06.08.2019
4130 Rain 16 1002 82 10000 2.6 120 00:19 06.08.2019
4131 Rain 16 1002 72 10000 3.6 170 23:20 05.08.2019
4132 Rain 16 1002 72 10000 4.1 170 22:57 05.08.2019
4133 Rain 17 1002 72 10000 4.1 170 22:38 05.08.2019
4134 Rain 16 1002 72 10000 3.6 170 22:20 05.08.2019
4135 Clouds 17 1002 72 10000 3.6 190 21:42 05.08.2019
4136 Rain 17 1002 72 10000 4.1 210 21:20 05.08.2019
4137 Rain 18 1002 77 10000 4.1 220 20:57 05.08.2019
4138 Rain 18 1002 77 10000 4.1 220 20:39 05.08.2019
4139 Rain 18 1003 72 10000 7.2 210 20:21 05.08.2019
4140 Clouds 18 1003 72 10000 6.7 220 19:55 05.08.2019
4141 Clouds 18 1003 72 10000 6.7 220 19:55 05.08.2019
4142 Clouds 19 1003 72 10000 6.7 220 19:36 05.08.2019
4143 Clouds 19 1003 68 10000 6.7 230 19:18 05.08.2019
4144 Clouds 19 1003 68 10000 7.7 220 18:40 05.08.2019
4145 Clouds 19 1003 68 10000 7.2 230 18:19 05.08.2019
4146 Clouds 19 1003 68 10000 7.2 230 17:46 05.08.2019
4147 Clouds 20 1003 72 10000 7.2 230 17:27 05.08.2019
4148 Clouds 20 1003 68 10000 6.7 210 16:47 05.08.2019
4149 Clouds 20 1003 68 10000 7.2 220 16:27 05.08.2019
4150 Clouds 20 1003 68 10000 8.2 210 15:58 05.08.2019
4151 Clouds 20 1003 68 10000 8.2 210 15:39 05.08.2019
4152 Clouds 20 1003 68 10000 8.2 210 15:39 05.08.2019
4153 Clouds 19 1003 72 10000 7.7 210 15:20 05.08.2019
4154 Clouds 19 1003 72 10000 8.2 210 14:39 05.08.2019
4155 Rain 18 1003 82 10000 8.2 210 14:19 05.08.2019
4156 Rain 17 1003 93 10000 6.7 220 13:45 05.08.2019
4157 Rain 18 1003 88 10000 6.2 230 13:23 05.08.2019
4158 Rain 17 1003 93 8000 7.2 220 12:49 05.08.2019
4159 Rain 17 1002 93 10000 4.1 240 12:20 05.08.2019
4160 Rain 17 1002 93 2900 4.1 230 11:48 05.08.2019
4161 Rain 17 1002 93 10000 4.1 190 11:28 05.08.2019
4162 Clouds 17 1002 93 10000 2.1 220 10:59 05.08.2019
4163 Clouds 16 1002 93 10000 2.1 220 10:41 05.08.2019
4164 Rain 17 1002 82 7000 3.6 170 10:21 05.08.2019
4165 Rain 17 1002 82 10000 3.1 180 09:43 05.08.2019
4166 Rain 16 1002 88 10000 4.1 0 09:24 05.08.2019
4167 Rain 16 1002 93 10000 4.1 100 08:51 05.08.2019
4168 Rain 16 1002 93 10000 4.1 100 08:28 05.08.2019
4169 Rain 15 1002 93 10000 3.6 90 07:59 05.08.2019
4170 Rain 15 1002 93 10000 3.6 90 07:41 05.08.2019
4171 Rain 15 1003 100 10000 3.6 80 07:20 05.08.2019
4172 Rain 15 1003 93 10000 2.6 50 06:30 05.08.2019
4173 Rain 15 1004 100 10000 2.1 80 05:46 05.08.2019
4174 Rain 15 1004 93 4300 3.1 60 05:18 05.08.2019
4175 Rain 15 1005 93 10000 2.6 80 03:58 05.08.2019
4176 Rain 15 1005 93 10000 3.1 90 03:30 05.08.2019
4177 Rain 15 1006 87 10000 3.1 110 02:34 05.08.2019
4178 Rain 16 1006 87 10000 2.1 150 01:32 05.08.2019
4179 Mist 16 1007 82 10000 1.5 160 00:41 05.08.2019
4180 Mist 17 1007 82 10000 3.6 170 00:21 05.08.2019
4181 Rain 17 1007 77 10000 2.1 160 23:55 04.08.2019
4182 Rain 17 1007 77 10000 2.1 160 23:36 04.08.2019
4183 Clouds 17 1007 77 10000 3.6 170 23:18 04.08.2019
4184 Clouds 17 1007 82 10000 3.1 150 22:54 04.08.2019
4185 Clouds 17 1007 82 10000 3.1 150 22:36 04.08.2019
4186 Clouds 17 1007 82 10000 2.1 260 22:18 04.08.2019
4187 Mist 18 1007 82 10000 2.6 240 21:42 04.08.2019
4188 Haze 18 1007 82 10000 3.1 240 21:20 04.08.2019
4189 Rain 18 1007 72 10000 4.1 200 20:43 04.08.2019
4190 Rain 19 1007 77 10000 1.5 0 20:19 04.08.2019
4191 Rain 19 1007 73 10000 2.6 220 19:56 04.08.2019
4192 Rain 19 1007 73 10000 2.6 220 19:37 04.08.2019
4193 Rain 20 1008 73 10000 2.6 210 19:19 04.08.2019
4194 Clouds 20 1008 73 10000 4.1 240 18:42 04.08.2019
4195 Clouds 20 1008 73 10000 4.1 240 18:42 04.08.2019
4196 Rain 20 1008 64 10000 4.6 150 18:20 04.08.2019
4197 Rain 20 1008 68 10000 5.1 170 17:44 04.08.2019
4198 Rain 20 1008 77 10000 2.6 140 17:24 04.08.2019
4199 Rain 20 1009 77 10000 3.1 60 16:55 04.08.2019
4200 Thunderstorm 20 1009 77 10000 5.1 80 16:36 04.08.2019
4201 Rain 21 1009 77 10000 5.1 80 16:18 04.08.2019
4202 Rain 20 1009 77 10000 4.6 80 15:39 04.08.2019
4203 Rain 20 1010 82 10000 4.6 70 15:20 04.08.2019
4204 Clouds 20 1010 82 10000 4.1 70 14:44 04.08.2019
4205 Rain 20 1010 82 10000 4.1 70 14:26 04.08.2019
4206 Rain 20 1011 82 10000 4.6 80 13:47 04.08.2019
4207 Rain 19 1011 82 10000 4.1 80 13:27 04.08.2019
4208 Rain 19 1011 82 10000 4.1 80 13:27 04.08.2019
4209 Clouds 18 1011 93 10000 4.1 60 12:57 04.08.2019
4210 Clouds 18 1011 93 10000 4.1 60 12:39 04.08.2019
4211 Clouds 18 1012 88 10000 4.1 80 12:21 04.08.2019
4212 Rain 17 1012 93 10000 4.1 70 11:48 04.08.2019
4213 Rain 17 1012 100 10000 3.6 60 11:23 04.08.2019
4214 Rain 16 1012 93 5000 3.1 70 10:48 04.08.2019
4215 Rain 16 1012 93 10000 2.6 70 10:23 04.08.2019
4216 Rain 16 1012 93 7000 3.6 80 09:47 04.08.2019
4217 Rain 16 1013 93 9000 3.6 80 09:27 04.08.2019
4218 Rain 16 1013 100 8000 3.1 80 08:59 04.08.2019
4219 Rain 15 1013 100 8000 3.1 80 08:35 04.08.2019
4220 Rain 15 1013 100 7000 3.1 80 07:55 04.08.2019
4221 Rain 15 1013 100 7000 3.1 80 07:55 04.08.2019
4222 Rain 15 1013 93 8000 4.1 90 07:29 04.08.2019
4223 Rain 15 1013 93 9000 3.6 70 06:42 04.08.2019
4224 Rain 15 1013 93 8000 4.1 70 06:19 04.08.2019
4225 Clouds 15 1014 93 10000 2.6 80 03:37 04.08.2019
4226 Rain 15 1015 87 10000 3.1 70 01:52 04.08.2019
4227 Rain 15 1015 87 10000 4.1 60 01:32 04.08.2019
4228 Rain 16 1015 87 10000 4.6 60 00:42 04.08.2019
4229 Rain 16 1015 82 10000 4.1 50 00:23 04.08.2019
4230 Rain 16 1015 82 10000 3.6 70 23:42 03.08.2019
4231 Rain 16 1015 82 10000 2.6 80 23:19 03.08.2019
4232 Rain 16 1015 87 10000 3.6 60 22:59 03.08.2019
4233 Rain 17 1015 87 10000 3.6 60 22:39 03.08.2019
4234 Rain 17 1015 87 10000 3.6 60 22:19 03.08.2019
4235 Rain 17 1016 82 10000 4.6 60 21:39 03.08.2019
4236 Rain 18 1016 93 10000 2.6 50 21:20 03.08.2019
4237 Rain 19 1016 93 10000 1 0 20:45 03.08.2019
4238 Rain 19 1016 93 10000 1 0 20:45 03.08.2019
4239 Rain 19 1016 93 8000 1.5 0 20:24 03.08.2019
4240 Rain 20 1016 93 10000 2.6 260 19:44 03.08.2019
4241 Thunderstorm 20 1016 68 10000 3.6 70 19:25 03.08.2019
4242 Thunderstorm 21 1016 73 10000 3.6 70 18:57 03.08.2019
4243 Thunderstorm 21 1016 73 10000 3.6 70 18:39 03.08.2019
4244 Rain 21 1016 73 10000 4.6 50 18:20 03.08.2019
4245 Rain 21 1016 73 7000 4.6 60 17:42 03.08.2019
4246 Rain 22 1016 64 10000 5.1 60 17:18 03.08.2019
4247 Clouds 22 1017 64 10000 4.6 60 16:38 03.08.2019
4248 Clouds 22 1017 64 10000 5.1 50 16:19 03.08.2019
4249 Clouds 22 1017 64 10000 4.1 50 15:45 03.08.2019
4250 Clouds 22 1017 64 10000 4.1 50 15:45 03.08.2019
4251 Clouds 23 1017 64 10000 3.6 40 15:24 03.08.2019
4252 Clouds 22 1018 64 10000 3.6 70 14:44 03.08.2019
4253 Clouds 22 1018 64 10000 3.6 60 14:23 03.08.2019
4254 Clouds 22 1018 68 10000 4.1 60 13:57 03.08.2019
4255 Clouds 22 1018 72 10000 4.6 50 13:36 03.08.2019
4256 Clouds 21 1018 72 10000 4.6 50 13:18 03.08.2019
4257 Clouds 20 1019 77 10000 4.1 50 12:40 03.08.2019
4258 Clouds 18 1019 82 10000 4.6 50 12:22 03.08.2019
4259 Clouds 18 1019 88 9000 3.6 60 11:49 03.08.2019
4260 Clouds 18 1019 93 9000 3.1 40 11:28 03.08.2019
4261 Clouds 17 1019 93 7000 3.6 40 10:42 03.08.2019
4262 Clouds 17 1020 93 6000 2.6 60 10:24 03.08.2019
4263 Clouds 17 1020 93 6000 2.6 60 10:24 03.08.2019
4264 Fog 16 1020 100 5000 3.1 50 09:44 03.08.2019
4265 Fog 15 1020 100 3000 3.1 50 09:23 03.08.2019
4266 Fog 15 1020 100 800 2.6 50 08:54 03.08.2019
4267 Mist 13 1020 100 4600 2.1 50 07:56 03.08.2019
4268 Mist 13 1020 100 4600 2.1 50 07:36 03.08.2019
4269 Mist 13 1020 100 4600 2.1 50 07:36 03.08.2019
4270 Mist 13 1020 100 4000 1.5 50 06:39 03.08.2019
4271 Clouds 13 1020 93 10000 2.1 50 04:56 03.08.2019
4272 Mist 14 1020 100 5000 0.5 280 02:40 03.08.2019
4273 Fog 14 1021 87 10000 2.6 60 01:50 03.08.2019
4274 Fog 14 1021 87 10000 2.6 60 01:50 03.08.2019
4275 Clouds 15 1021 82 10000 3.6 60 00:49 03.08.2019
4276 Clouds 16 1020 77 10000 3.6 70 23:59 02.08.2019
4277 Clouds 16 1020 77 10000 3.6 70 23:40 02.08.2019
4278 Clouds 16 1021 82 10000 1.5 30 23:19 02.08.2019
4279 Clouds 16 1020 77 10000 3.6 60 22:57 02.08.2019
4280 Clouds 17 1020 77 10000 3.6 60 22:38 02.08.2019
4281 Clouds 17 1020 72 10000 3.6 60 22:19 02.08.2019
4282 Clouds 18 1020 68 10000 3.6 60 21:43 02.08.2019
4283 Clouds 20 1020 64 10000 3.1 50 21:24 02.08.2019
4284 Clouds 20 1020 53 10000 2.1 100 20:57 02.08.2019
4285 Clouds 20 1020 53 10000 2.1 100 20:39 02.08.2019
4286 Clouds 21 1020 53 10000 2.6 70 20:20 02.08.2019
4287 Rain 21 1020 53 10000 3.1 90 19:45 02.08.2019
4288 Rain 21 1020 56 10000 3.1 120 19:25 02.08.2019
4289 Clouds 21 1021 53 10000 3.1 60 18:44 02.08.2019
4290 Clouds 21 1021 60 10000 2.6 60 18:25 02.08.2019
4291 Clouds 21 1021 60 10000 3.1 80 17:48 02.08.2019
4292 Clouds 21 1021 60 10000 3.1 100 17:25 02.08.2019
4293 Clouds 21 1021 60 10000 3.1 90 16:58 02.08.2019
4294 Clouds 21 1021 60 10000 3.1 90 16:38 02.08.2019
4295 Clouds 21 1021 64 10000 2.6 50 16:18 02.08.2019
4296 Clouds 21 1021 60 10000 2.6 60 15:39 02.08.2019
4297 Clouds 21 1021 64 10000 2.6 60 15:19 02.08.2019
4298 Clouds 20 1022 68 10000 3.1 60 14:46 02.08.2019
4299 Clouds 20 1022 68 10000 2.1 80 14:18 02.08.2019
4300 Clouds 20 1022 68 10000 2.1 0 13:48 02.08.2019
4301 Clouds 20 1022 72 10000 2.1 0 13:26 02.08.2019
4302 Clouds 19 1022 77 10000 3.1 40 12:45 02.08.2019
4303 Clouds 18 1022 72 10000 2.1 50 12:22 02.08.2019
4304 Clouds 18 1022 77 10000 2.1 80 11:53 02.08.2019
4305 Clouds 18 1022 77 10000 2.1 60 11:34 02.08.2019
4306 Clouds 17 1022 82 10000 2.6 70 10:57 02.08.2019
4307 Clouds 17 1022 82 10000 2.6 70 10:39 02.08.2019
4308 Clouds 17 1022 82 10000 2.1 40 10:20 02.08.2019
4309 Clouds 16 1022 82 10000 2.1 50 09:52 02.08.2019
4310 Clouds 16 1022 87 10000 2.6 60 09:25 02.08.2019
4311 Clouds 15 1021 87 10000 2.6 50 08:49 02.08.2019
4312 Clouds 15 1021 87 10000 2.6 50 08:49 02.08.2019
4313 Clouds 15 1021 87 10000 2.1 50 08:22 02.08.2019
4314 Clouds 15 1021 87 10000 1.5 60 07:50 02.08.2019
4315 Clouds 15 1021 93 10000 2.1 50 07:31 02.08.2019
4316 Clouds 15 1022 93 10000 1.5 70 06:46 02.08.2019
4317 Clouds 15 1022 87 10000 2.1 70 05:52 02.08.2019
4318 Clouds 15 1022 87 10000 2.1 70 05:52 02.08.2019
4319 Clouds 15 1022 93 10000 1.5 50 05:21 02.08.2019
4320 Clouds 15 1022 87 10000 3.1 50 03:27 02.08.2019
4321 Clouds 16 1022 87 10000 3.6 50 02:33 02.08.2019
4322 Clouds 16 1021 82 10000 3.6 60 00:38 02.08.2019
4323 Clouds 16 1021 77 10000 4.1 70 23:46 01.08.2019
4324 Clouds 17 1021 77 10000 4.1 80 23:28 01.08.2019
4325 Rain 17 1021 72 10000 4.6 70 22:58 01.08.2019
4326 Rain 17 1021 72 10000 4.6 70 22:38 01.08.2019
4327 Rain 17 1020 72 10000 5.1 70 22:19 01.08.2019
4328 Rain 18 1020 68 10000 5.7 70 21:43 01.08.2019
4329 Rain 19 1020 72 10000 4.1 60 21:23 01.08.2019
4330 Rain 19 1020 72 10000 2.1 80 20:55 01.08.2019
4331 Rain 19 1020 72 10000 2.1 80 20:36 01.08.2019
4332 Rain 20 1020 77 10000 1 0 20:18 01.08.2019
4333 Rain 20 1019 82 10000 2.1 240 19:40 01.08.2019
4334 Rain 20 1019 82 10000 3.1 240 19:19 01.08.2019
4335 Rain 20 1019 82 10000 3.1 250 18:44 01.08.2019
4336 Rain 21 1019 68 10000 2.1 60 18:24 01.08.2019
4337 Rain 21 1019 73 10000 3.6 60 17:51 01.08.2019
4338 Rain 21 1019 73 10000 3.6 60 17:32 01.08.2019
4339 Clouds 21 1019 68 10000 3.6 60 16:57 01.08.2019
4340 Clouds 21 1019 68 10000 3.6 60 16:39 01.08.2019
4341 Rain 21 1019 73 10000 4.1 60 16:19 01.08.2019
4342 Rain 20 1019 77 10000 5.1 50 15:41 01.08.2019
4343 Rain 20 1019 64 10000 2.6 70 15:19 01.08.2019
4344 Rain 20 1019 64 10000 2.6 70 15:19 01.08.2019
4345 Rain 20 1019 64 10000 0.5 0 14:42 01.08.2019
4346 Rain 20 1019 64 10000 0.5 0 14:42 01.08.2019
4347 Rain 20 1019 68 10000 1.5 0 14:19 01.08.2019
4348 Rain 20 1019 68 10000 1.5 0 14:19 01.08.2019
4349 Rain 19 1019 73 10000 1.5 0 13:58 01.08.2019
4350 Rain 19 1019 73 10000 1.5 0 13:39 01.08.2019
4351 Clouds 19 1019 82 10000 3.6 50 13:20 01.08.2019
4352 Clouds 19 1019 77 10000 2.6 60 12:45 01.08.2019
4353 Clouds 18 1019 77 10000 1 0 12:26 01.08.2019
4354 Rain 18 1019 82 10000 1.5 0 11:43 01.08.2019
4355 Rain 17 1019 82 10000 1 0 11:24 01.08.2019
4356 Clouds 17 1019 88 10000 2.1 290 10:56 01.08.2019
4357 Clouds 17 1019 88 10000 2.1 290 10:56 01.08.2019
4358 Clouds 17 1019 88 10000 2.1 290 10:38 01.08.2019
4359 Clouds 17 1018 88 10000 2.1 290 10:20 01.08.2019
4360 Mist 16 1018 93 10000 1.5 0 09:43 01.08.2019
4361 Rain 16 1018 100 10000 1.5 240 09:23 01.08.2019
4362 Rain 16 1018 100 10000 1.5 290 08:47 01.08.2019
4363 Mist 15 1018 100 10000 2.1 290 08:21 01.08.2019
4364 Mist 15 1017 100 5000 1 0 07:51 01.08.2019
4365 Mist 15 1018 93 10000 3.1 310 07:28 01.08.2019
4366 Fog 15 1017 100 7000 3.1 230 06:49 01.08.2019
4367 Fog 15 1017 93 650 1 230 06:29 01.08.2019
4368 Rain 15 1017 93 9000 2.1 250 04:53 01.08.2019
4369 Mist 15 1016 100 5000 2.1 230 02:35 01.08.2019
4370 Rain 15 1016 93 10000 1.5 270 00:51 01.08.2019
4371 Rain 16 1015 100 10000 1.5 280 00:25 01.08.2019
4372 Rain 16 1015 100 10000 2.6 290 23:44 31.07.2019
4373 Rain 16 1015 100 10000 2.1 270 23:21 31.07.2019
4374 Rain 17 1015 93 10000 1 0 22:58 31.07.2019
4375 Rain 17 1015 93 10000 1 0 22:40 31.07.2019
4376 Rain 17 1015 93 10000 1.5 270 22:21 31.07.2019
4377 Rain 17 1014 93 10000 2.1 250 21:39 31.07.2019
4378 Rain 17 1014 93 10000 2.1 250 21:39 31.07.2019
4379 Rain 17 1014 93 7000 1.5 270 21:20 31.07.2019
4380 Rain 18 1014 93 10000 1.5 0 20:48 31.07.2019
4381 Rain 18 1014 93 10000 2.6 300 20:22 31.07.2019
4382 Rain 18 1014 82 10000 2.6 310 19:43 31.07.2019
4383 Rain 19 1013 88 10000 3.1 270 19:24 31.07.2019
4384 Rain 19 1013 82 10000 3.6 260 18:55 31.07.2019
4385 Rain 19 1013 82 10000 3.6 260 18:55 31.07.2019
4386 Rain 19 1013 82 10000 3.6 260 18:37 31.07.2019
4387 Rain 19 1013 88 10000 4.6 230 18:18 31.07.2019
4388 Rain 19 1013 77 10000 3.1 250 17:42 31.07.2019
4389 Thunderstorm 19 1012 72 10000 2.1 0 17:20 31.07.2019
4390 Thunderstorm 20 1012 68 10000 4.6 90 16:47 31.07.2019
4391 Rain 20 1011 64 10000 5.7 30 16:20 31.07.2019
4392 Thunderstorm 20 1012 77 10000 7.2 300 15:46 31.07.2019
4393 Rain 21 1011 60 10000 3.6 30 15:26 31.07.2019
4394 Rain 21 1011 60 10000 4.6 30 14:59 31.07.2019
4395 Rain 21 1011 60 10000 4.6 30 14:40 31.07.2019
4396 Rain 21 1011 60 10000 4.6 70 14:18 31.07.2019
4397 Clouds 21 1011 64 10000 3.6 10 13:45 31.07.2019
4398 Clouds 21 1011 64 10000 4.1 360 13:26 31.07.2019
4399 Clouds 20 1011 68 10000 2.1 350 12:57 31.07.2019
4400 Clouds 20 1011 68 10000 2.1 350 12:38 31.07.2019
4401 Clouds 19 1011 72 10000 2.1 340 12:18 31.07.2019
4402 Clouds 19 1011 72 10000 1.5 0 11:39 31.07.2019
4403 Clouds 18 1011 72 10000 2.1 280 11:20 31.07.2019
4404 Clouds 18 1011 72 10000 1.5 0 10:42 31.07.2019
4405 Clouds 18 1010 82 10000 1.5 240 10:21 31.07.2019
4406 Clouds 17 1010 77 10000 1.5 20 09:54 31.07.2019
4407 Clouds 17 1010 77 10000 1.5 20 09:36 31.07.2019
4408 Clouds 17 1010 77 10000 3.1 350 09:18 31.07.2019
4409 Clouds 17 1010 77 10000 3.1 350 09:18 31.07.2019
4410 Clouds 16 1010 82 10000 2.6 330 08:40 31.07.2019
4411 Clouds 16 1010 87 10000 2.6 350 08:20 31.07.2019
4412 Rain 16 1010 87 10000 3.1 340 07:35 31.07.2019
4413 Rain 16 1009 93 10000 2.6 340 06:34 31.07.2019
4414 Haze 16 1009 93 3200 2.1 20 04:52 31.07.2019
4415 Rain 16 1009 100 5000 1.5 290 01:48 31.07.2019
4416 Rain 17 1009 82 10000 2.1 100 23:58 30.07.2019
4417 Rain 17 1009 82 10000 2.1 100 23:39 30.07.2019
4418 Rain 17 1008 88 10000 3.1 60 23:19 30.07.2019
4419 Rain 17 1008 93 10000 2.6 50 22:45 30.07.2019
4420 Rain 17 1008 88 10000 3.1 40 22:25 30.07.2019
4421 Rain 18 1008 88 10000 4.1 30 21:40 30.07.2019
4422 Rain 18 1008 88 7000 5.7 40 21:20 30.07.2019
4423 Rain 18 1008 88 7000 5.7 40 21:20 30.07.2019
4424 Rain 18 1007 77 10000 7.2 60 20:59 30.07.2019
4425 Rain 18 1007 77 10000 7.2 60 20:41 30.07.2019
4426 Rain 19 1007 73 10000 3.1 60 20:23 30.07.2019
4427 Rain 19 1007 68 10000 2.1 30 19:56 30.07.2019
4428 Rain 19 1007 68 10000 2.1 30 19:38 30.07.2019
4429 Rain 19 1008 82 10000 1.5 30 18:55 30.07.2019
4430 Rain 19 1008 82 10000 1.5 30 18:37 30.07.2019
4431 Rain 19 1008 82 10000 2.6 30 18:18 30.07.2019
4432 Rain 19 1008 72 10000 2.6 70 17:41 30.07.2019
4433 Rain 19 1008 72 10000 2.6 80 17:19 30.07.2019
4434 Rain 19 1008 77 10000 2.6 60 16:50 30.07.2019
4435 Rain 20 1008 68 10000 3.6 90 16:20 30.07.2019
4436 Rain 20 1008 68 10000 3.1 80 15:55 30.07.2019
4437 Rain 20 1008 68 10000 3.1 80 15:36 30.07.2019
4438 Rain 20 1008 60 10000 3.1 70 15:18 30.07.2019
4439 Rain 20 1008 56 10000 3.6 80 14:41 30.07.2019
4440 Rain 20 1008 56 10000 3.1 70 14:19 30.07.2019
4441 Rain 21 1008 56 10000 3.1 60 13:44 30.07.2019
4442 Rain 21 1008 64 10000 1.5 0 13:25 30.07.2019
4443 Rain 21 1008 68 10000 2.1 30 12:57 30.07.2019
4444 Rain 21 1008 68 10000 2.1 30 12:38 30.07.2019
4445 Clouds 20 1008 82 10000 0.5 0 12:19 30.07.2019
4446 Clouds 19 1008 88 10000 1 0 11:38 30.07.2019
4447 Clouds 18 1009 93 10000 1 0 11:19 30.07.2019
4448 Clouds 18 1009 87 10000 1 0 10:42 30.07.2019
4449 Clouds 17 1009 93 10000 1 0 10:23 30.07.2019
4450 Mist 16 1009 100 3300 2.1 110 09:49 30.07.2019
4451 Mist 16 1009 100 1200 2.1 80 09:31 30.07.2019
4452 Mist 14 1009 100 2900 1.5 0 08:47 30.07.2019
4453 Drizzle 14 1009 93 4100 1.5 0 08:28 30.07.2019
4454 Rain 13 1008 100 4100 0.5 200 07:47 30.07.2019
4455 Rain 13 1008 100 4100 0.5 200 07:47 30.07.2019
4456 Drizzle 13 1008 100 3400 0.5 0 07:28 30.07.2019
4457 Rain 13 1008 100 4400 1 0 06:47 30.07.2019
4458 Clouds 13 1008 93 6000 2.1 230 05:56 30.07.2019
4459 Mist 12 1008 100 5000 0.5 0 05:32 30.07.2019
4460 Clouds 14 1009 100 10000 1 0 01:40 30.07.2019
4461 Mist 15 1009 100 10000 1.5 0 00:41 30.07.2019
4462 Clouds 15 1009 93 10000 1.5 220 00:20 30.07.2019
4463 Clouds 15 1008 93 10000 1 260 23:44 29.07.2019
4464 Clouds 16 1008 93 10000 1.15 218.838 23:25 29.07.2019
4465 Rain 16 1008 87 10000 2.1 220 22:57 29.07.2019
4466 Rain 16 1008 87 10000 2.1 220 22:38 29.07.2019
4467 Rain 16 1008 87 10000 3.1 210 22:19 29.07.2019
4468 Rain 16 1008 87 10000 3.1 210 22:19 29.07.2019
4469 Clouds 17 1007 82 10000 2.6 230 21:55 29.07.2019
4470 Clouds 17 1007 82 10000 2.6 230 21:37 29.07.2019
4471 Clouds 17 1007 82 10000 3.1 230 21:18 29.07.2019
4472 Rain 17 1007 82 10000 2.6 240 20:43 29.07.2019
4473 Rain 17 1007 88 10000 2.6 230 20:22 29.07.2019
4474 Rain 17 1007 88 10000 2.6 220 19:54 29.07.2019
4475 Rain 17 1007 88 10000 2.6 220 19:36 29.07.2019
4476 Rain 17 1007 82 10000 3.1 210 19:18 29.07.2019
4477 Rain 17 1007 82 10000 3.1 210 19:18 29.07.2019
4478 Rain 17 1007 82 10000 3.6 220 18:41 29.07.2019
4479 Rain 17 1007 82 10000 3.6 210 18:21 29.07.2019
4480 Rain 18 1007 93 10000 3.1 210 17:49 29.07.2019
4481 Rain 18 1007 93 10000 3.1 210 17:31 29.07.2019
4482 Rain 18 1007 93 10000 3.6 210 16:57 29.07.2019
4483 Rain 18 1007 93 10000 3.6 210 16:38 29.07.2019
4484 Rain 19 1006 88 10000 5.7 210 16:20 29.07.2019
4485 Rain 19 1006 93 10000 5.7 220 15:49 29.07.2019
4486 Rain 19 1006 88 8000 2.6 90 15:30 29.07.2019
4487 Rain 19 1006 88 10000 3.6 90 14:44 29.07.2019
4488 Clouds 19 1006 82 10000 3.1 70 14:21 29.07.2019
4489 Mist 19 1006 88 10000 3.1 80 13:55 29.07.2019
4490 Mist 19 1006 88 10000 3.1 80 13:36 29.07.2019
4491 Rain 18 1006 88 10000 3.1 80 13:18 29.07.2019
4492 Rain 18 1006 88 9000 3.1 70 12:40 29.07.2019
4493 Rain 18 1006 82 10000 3.1 70 12:21 29.07.2019
4494 Rain 18 1006 82 10000 3.1 90 11:42 29.07.2019
4495 Rain 18 1005 82 10000 3.1 70 11:20 29.07.2019
4496 Rain 18 1005 88 10000 2.6 80 10:44 29.07.2019
4497 Mist 17 1005 88 10000 3.6 80 10:23 29.07.2019
4498 Mist 17 1005 88 10000 3.1 60 09:45 29.07.2019
4499 Mist 17 1005 93 10000 3.6 60 09:23 29.07.2019
4500 Mist 17 1005 93 10000 3.1 70 08:55 29.07.2019
4501 Mist 17 1005 93 10000 2.6 70 08:27 29.07.2019
4502 Rain 17 1005 93 10000 3.6 60 07:53 29.07.2019
4503 Rain 17 1005 88 10000 2.1 90 07:30 29.07.2019
4504 Rain 16 1005 88 10000 3.6 60 06:40 29.07.2019
4505 Rain 16 1005 88 10000 3.6 60 05:37 29.07.2019
4506 Rain 16 1006 88 10000 3.6 60 04:23 29.07.2019
4507 Rain 17 1006 88 10000 4.1 50 01:52 29.07.2019
4508 Rain 17 1006 82 10000 3.6 60 01:34 29.07.2019
4509 Rain 17 1006 88 10000 5.1 60 00:58 29.07.2019
4510 Rain 17 1006 88 10000 5.1 60 00:30 29.07.2019
4511 Rain 17 1006 88 10000 4.6 70 23:44 28.07.2019
4512 Rain 17 1006 88 10000 5.1 70 23:26 28.07.2019
4513 Rain 17 1006 82 10000 5.1 80 22:46 28.07.2019
4514 Rain 18 1006 82 10000 5.1 80 22:28 28.07.2019
4515 Rain 18 1006 88 10000 5.7 70 21:54 28.07.2019
4516 Rain 18 1006 88 10000 5.7 70 21:36 28.07.2019
4517 Rain 18 1006 82 10000 5.7 60 21:18 28.07.2019
4518 Rain 18 1006 82 10000 5.7 70 20:42 28.07.2019
4519 Rain 18 1005 77 10000 6.7 70 20:23 28.07.2019
4520 Rain 19 1005 77 10000 6.7 60 19:40 28.07.2019
4521 Rain 19 1005 78 10000 5.7 70 19:21 28.07.2019
4522 Rain 19 1006 83 10000 5.7 80 18:46 28.07.2019
4523 Mist 20 1006 88 10000 5.1 60 18:27 28.07.2019
4524 Mist 20 1006 83 10000 5.1 60 17:56 28.07.2019
4525 Mist 20 1006 83 10000 5.1 60 17:38 28.07.2019
4526 Rain 20 1006 88 10000 5.7 60 17:19 28.07.2019
4527 Rain 20 1006 88 10000 5.1 60 16:42 28.07.2019
4528 Rain 19 1006 93 10000 3.6 80 16:23 28.07.2019
4529 Rain 19 1006 93 10000 3.6 70 15:46 28.07.2019
4530 Rain 18 1006 88 9000 4.1 50 15:26 28.07.2019
4531 Rain 18 1007 93 10000 3.1 70 14:40 28.07.2019
4532 Rain 18 1007 93 6000 3.1 60 14:21 28.07.2019
4533 Rain 18 1007 88 4900 3.1 60 13:56 28.07.2019
4534 Rain 18 1007 88 4900 3.1 60 13:38 28.07.2019
4535 Rain 18 1007 93 4900 2.1 40 13:19 28.07.2019
4536 Rain 17 1007 93 7000 2.6 60 12:42 28.07.2019
4537 Rain 17 1007 88 10000 2.6 70 12:24 28.07.2019
4538 Drizzle 17 1007 88 10000 3.1 60 11:50 28.07.2019
4539 Clouds 17 1007 88 10000 4.1 80 11:29 28.07.2019
4540 Clouds 17 1007 88 10000 3.6 70 10:56 28.07.2019
4541 Clouds 17 1007 88 10000 3.6 70 10:37 28.07.2019
4542 Clouds 17 1007 88 9000 4.1 50 10:18 28.07.2019
4543 Clouds 17 1007 88 8000 3.1 50 09:40 28.07.2019
4544 Clouds 17 1007 88 10000 3.1 60 09:20 28.07.2019
4545 Clouds 17 1007 100 7000 5.1 50 08:41 28.07.2019
4546 Mist 17 1007 93 5000 3.6 50 08:21 28.07.2019
4547 Rain 16 1007 93 5000 4.6 50 07:40 28.07.2019
4548 Rain 16 1007 93 6000 4.1 80 06:59 28.07.2019
4549 Mist 16 1007 100 5000 3.6 70 06:32 28.07.2019
4550 Mist 16 1007 100 10000 1.5 0 05:19 28.07.2019
4551 Drizzle 16 1008 93 2600 1.5 300 02:25 28.07.2019
4552 Mist 16 1008 93 10000 1 0 01:31 28.07.2019
4553 Drizzle 16 1008 93 10000 1 0 00:52 28.07.2019
4554 Rain 16 1008 100 6000 1.5 300 00:25 28.07.2019
4555 Rain 16 1009 100 2400 1.5 230 23:48 27.07.2019
4556 Rain 16 1009 93 2400 2.1 250 23:27 27.07.2019
4557 Mist 16 1008 93 10000 3.1 300 22:43 27.07.2019
4558 Rain 16 1008 93 9000 3.6 300 22:23 27.07.2019
4559 Rain 16 1009 93 6000 1.5 270 21:45 27.07.2019
4560 Rain 16 1009 93 10000 2.1 240 21:23 27.07.2019
4561 Rain 16 1008 93 10000 3.1 290 20:55 27.07.2019
4562 Rain 16 1008 93 10000 3.1 290 20:32 27.07.2019
4563 Drizzle 16 1008 93 2400 2.6 280 19:59 27.07.2019
4564 Drizzle 16 1008 93 2400 2.6 280 19:39 27.07.2019
4565 Drizzle 16 1008 100 3100 1.5 260 19:19 27.07.2019
4566 Rain 16 1008 93 7000 2.6 260 18:46 27.07.2019
4567 Rain 16 1008 100 5000 2.1 260 18:28 27.07.2019
4568 Rain 16 1008 93 6000 2.1 290 17:50 27.07.2019
4569 Rain 16 1009 93 9000 1 0 17:31 27.07.2019
4570 Rain 16 1009 93 8000 0.5 0 16:54 27.07.2019
4571 Rain 16 1009 93 10000 1 0 16:34 27.07.2019
4572 Rain 16 1009 93 10000 1 0 15:56 27.07.2019
4573 Rain 16 1009 93 9000 0.5 0 15:28 27.07.2019
4574 Rain 16 1009 88 10000 0.5 0 14:59 27.07.2019
4575 Rain 16 1009 88 10000 0.5 0 14:41 27.07.2019
4576 Rain 16 1009 88 10000 0.5 0 14:41 27.07.2019
4577 Rain 16 1009 88 10000 1 0 14:21 27.07.2019
4578 Rain 16 1009 88 10000 0.5 0 13:46 27.07.2019
4579 Rain 16 1010 88 10000 1.5 340 13:22 27.07.2019
4580 Rain 16 1010 88 10000 1.5 240 12:49 27.07.2019
4581 Rain 16 1010 82 10000 1 0 12:26 27.07.2019
4582 Rain 16 1009 88 10000 1.5 0 11:46 27.07.2019
4583 Rain 16 1009 87 10000 1.5 0 11:25 27.07.2019
4584 Rain 16 1009 87 10000 1 0 10:57 27.07.2019
4585 Rain 16 1009 87 10000 1 0 10:39 27.07.2019
4586 Rain 16 1010 93 10000 2.1 10 10:19 27.07.2019
4587 Rain 16 1010 93 10000 1 0 09:40 27.07.2019
4588 Rain 15 1010 93 10000 0.5 0 09:21 27.07.2019
4589 Rain 16 1010 87 10000 2.1 60 08:47 27.07.2019
4590 Rain 15 1010 93 10000 1 230 08:26 27.07.2019
4591 Rain 15 1009 93 10000 1 0 07:45 27.07.2019
4592 Rain 15 1009 93 10000 1 0 07:23 27.07.2019
4593 Rain 15 1009 93 10000 2.6 50 06:55 27.07.2019
4594 Rain 15 1009 93 10000 1 360 06:28 27.07.2019
4595 Rain 15 1010 93 10000 0.5 0 05:42 27.07.2019
4596 Rain 16 1010 87 10000 1.5 30 04:54 27.07.2019
4597 Rain 16 1010 87 10000 1 70 04:20 27.07.2019
4598 Rain 16 1010 87 10000 1.5 0 02:44 27.07.2019
4599 Rain 16 1010 87 10000 0.5 0 02:25 27.07.2019
4600 Rain 17 1010 82 10000 1.5 0 01:42 27.07.2019
4601 Rain 17 1010 77 10000 1.5 0 00:57 27.07.2019
4602 Rain 17 1010 82 10000 1 0 00:31 27.07.2019
4603 Rain 18 1009 77 10000 2.1 230 23:50 26.07.2019
4604 Clouds 18 1009 72 10000 1.5 0 23:29 26.07.2019
4605 Clouds 19 1010 68 10000 3.6 180 22:45 26.07.2019
4606 Clouds 19 1010 68 10000 3.6 180 22:45 26.07.2019
4607 Rain 19 1010 77 10000 2.6 230 22:26 26.07.2019
4608 Clouds 19 1009 72 10000 3.1 210 21:56 26.07.2019
4609 Clouds 20 1009 72 10000 3.1 210 21:37 26.07.2019
4610 Clouds 20 1009 77 10000 3.6 230 21:18 26.07.2019
4611 Clouds 20 1009 77 10000 3.6 230 21:18 26.07.2019
4612 Clouds 20 1009 68 10000 5.1 220 20:40 26.07.2019
4613 Clouds 21 1009 72 10000 2.1 280 20:21 26.07.2019
4614 Clouds 20 1008 72 10000 2.6 240 19:41 26.07.2019
4615 Clouds 21 1009 72 10000 4.1 240 19:22 26.07.2019
4616 Clouds 21 1008 60 10000 5.1 190 18:45 26.07.2019
4617 Clouds 21 1008 60 10000 6.2 170 18:22 26.07.2019
4618 Clouds 21 1008 60 10000 6.2 170 18:22 26.07.2019
4619 Clouds 22 1009 64 10000 4.6 130 17:58 26.07.2019
4620 Clouds 22 1009 64 10000 4.6 130 17:38 26.07.2019
4621 Clouds 22 1009 60 10000 5.1 150 17:18 26.07.2019
4622 Clouds 22 1009 60 10000 5.1 150 17:18 26.07.2019
4623 Clouds 22 1009 60 10000 5.7 160 16:55 26.07.2019
4624 Clouds 22 1009 60 10000 5.7 160 16:37 26.07.2019
4625 Clouds 23 1009 60 10000 6.2 160 16:18 26.07.2019
4626 Clouds 23 1008 56 10000 6.7 160 15:45 26.07.2019
4627 Clouds 24 1008 60 10000 7.2 180 15:22 26.07.2019
4628 Clouds 24 1008 60 10000 7.2 180 15:22 26.07.2019
4629 Clouds 23 1008 64 10000 6.2 170 14:46 26.07.2019
4630 Clouds 24 1008 64 10000 6.2 180 14:25 26.07.2019
4631 Clouds 24 1008 68 10000 6.7 190 13:56 26.07.2019
4632 Rain 23 1008 68 10000 6.7 190 13:36 26.07.2019
4633 Rain 23 1008 64 10000 5.7 160 13:18 26.07.2019
4634 Clouds 23 1008 60 10000 5.1 160 12:42 26.07.2019
4635 Clouds 22 1008 64 10000 6.7 170 12:18 26.07.2019
4636 Rain 21 1008 73 10000 3.1 150 11:39 26.07.2019
4637 Rain 21 1008 73 10000 3.1 150 11:19 26.07.2019
4638 Clouds 21 1008 77 10000 2.6 160 10:47 26.07.2019
4639 Clouds 21 1008 77 10000 2.6 140 10:28 26.07.2019
4640 Clouds 20 1008 77 10000 3.1 130 09:53 26.07.2019
4641 Clouds 20 1008 77 10000 3.1 130 09:34 26.07.2019
4642 Clouds 19 1007 77 10000 2.1 140 08:42 26.07.2019
4643 Clouds 19 1007 77 10000 2.6 160 08:21 26.07.2019
4644 Clouds 18 1007 77 10000 2.1 190 07:54 26.07.2019
4645 Clouds 18 1007 77 10000 1 0 07:27 26.07.2019
4646 Clouds 18 1008 77 10000 2.1 120 06:41 26.07.2019
4647 Clouds 18 1007 82 10000 1.5 0 04:50 26.07.2019
4648 Clouds 18 1007 82 10000 2.1 120 04:21 26.07.2019
4649 Rain 19 1007 88 10000 1 0 02:25 26.07.2019
4650 Rain 19 1007 77 10000 2.1 300 01:35 26.07.2019
4651 Rain 20 1007 72 10000 2.1 300 00:39 26.07.2019
4652 Rain 21 1007 77 10000 1 0 23:55 25.07.2019
4653 Rain 21 1007 77 10000 1.5 0 23:23 25.07.2019
4654 Rain 20 1006 73 10000 4.1 240 22:42 25.07.2019
4655 Rain 21 1006 73 10000 4.1 230 22:24 25.07.2019
4656 Thunderstorm 22 1006 69 10000 2.6 240 21:58 25.07.2019
4657 Thunderstorm 22 1006 69 10000 2.6 240 21:58 25.07.2019
4658 Thunderstorm 22 1006 69 10000 2.6 240 21:40 25.07.2019
4659 Clear 24 1006 69 10000 2.1 260 21:20 25.07.2019
4660 Clear 24 1006 69 10000 2.1 260 21:20 25.07.2019
4661 Clouds 25 1006 57 10000 2.1 270 20:41 25.07.2019
4662 Clouds 25 1006 57 10000 2.6 270 20:21 25.07.2019
4663 Clouds 26 1006 54 10000 3.1 250 19:42 25.07.2019
4664 Clouds 26 1007 61 10000 4.1 270 19:23 25.07.2019
4665 Clouds 27 1007 61 10000 4.1 260 18:45 25.07.2019
4666 Clouds 27 1007 61 10000 6.2 240 18:27 25.07.2019
4667 Clouds 26 1007 48 10000 7.2 190 17:52 25.07.2019
4668 Clouds 26 1007 48 10000 6.2 190 17:34 25.07.2019
4669 Clouds 28 1007 48 10000 7.2 160 16:59 25.07.2019
4670 Clouds 28 1007 48 10000 7.2 160 16:41 25.07.2019
4671 Clouds 28 1007 48 10000 7.7 160 16:22 25.07.2019
4672 Clouds 28 1007 48 10000 6.7 160 15:50 25.07.2019
4673 Clouds 28 1007 48 10000 6.7 160 15:50 25.07.2019
4674 Clouds 28 1007 48 10000 6.7 150 15:21 25.07.2019
4675 Clouds 28 1007 45 10000 7.2 150 14:43 25.07.2019
4676 Clouds 27 1008 54 10000 5.1 120 14:24 25.07.2019
4677 Rain 27 1008 54 10000 5.7 90 13:59 25.07.2019
4678 Clouds 27 1008 57 10000 6.2 100 13:37 25.07.2019
4679 Clouds 27 1008 57 10000 6.2 100 13:19 25.07.2019
4680 Clouds 25 1009 64 10000 5.7 110 12:34 25.07.2019
4681 Clouds 24 1009 64 10000 6.2 110 11:57 25.07.2019
4682 Clouds 24 1009 64 10000 6.2 110 11:38 25.07.2019
4683 Clouds 22 1009 73 10000 5.7 90 11:19 25.07.2019
4684 Clouds 21 1010 73 10000 5.7 90 10:42 25.07.2019
4685 Clouds 21 1010 77 10000 5.1 80 10:23 25.07.2019
4686 Clouds 20 1010 82 10000 5.1 80 09:44 25.07.2019
4687 Clouds 19 1010 82 10000 3.6 80 09:26 25.07.2019
4688 Clouds 18 1010 88 10000 3.1 70 08:47 25.07.2019
4689 Clouds 17 1010 88 10000 3.6 60 08:20 25.07.2019
4690 Clouds 16 1011 88 10000 4.6 70 07:37 25.07.2019
4691 Clouds 15 1011 100 10000 2.6 60 06:45 25.07.2019
4692 Clouds 15 1011 93 10000 2.6 30 05:53 25.07.2019
4693 Clouds 15 1011 93 10000 2.6 30 05:31 25.07.2019
4694 Clouds 16 1011 87 10000 2.6 50 04:44 25.07.2019
4695 Clouds 17 1011 77 10000 3.1 120 02:24 25.07.2019
4696 Clouds 17 1011 82 10000 1.5 0 01:21 25.07.2019
4697 Clouds 17 1011 87 10000 1 0 00:23 25.07.2019
4698 Clouds 18 1011 82 10000 1 0 23:53 24.07.2019
4699 Clouds 18 1011 88 10000 1 0 23:32 24.07.2019
4700 Clouds 18 1011 82 10000 1 0 22:58 24.07.2019
4701 Clouds 18 1011 82 10000 1 0 22:40 24.07.2019
4702 Clouds 19 1011 82 10000 1.5 0 22:21 24.07.2019
4703 Clouds 19 1010 77 10000 2.6 260 21:43 24.07.2019
4704 Clouds 20 1010 77 10000 2.6 260 21:23 24.07.2019
4705 Clouds 21 1010 77 10000 3.6 250 20:59 24.07.2019
4706 Clouds 21 1010 77 10000 3.6 250 20:39 24.07.2019
4707 Clouds 22 1010 64 10000 4.6 240 20:20 24.07.2019
4708 Clouds 22 1010 68 10000 5.1 230 19:55 24.07.2019
4709 Clouds 22 1010 68 10000 5.1 230 19:36 24.07.2019
4710 Clouds 22 1009 64 10000 5.1 210 19:18 24.07.2019
4711 Clouds 22 1010 68 10000 4.6 230 18:41 24.07.2019
4712 Rain 22 1010 64 10000 4.6 240 18:23 24.07.2019
4713 Rain 22 1010 68 10000 5.1 230 17:43 24.07.2019
4714 Rain 22 1010 68 10000 4.6 240 17:20 24.07.2019
4715 Clouds 22 1010 68 10000 6.7 210 16:42 24.07.2019
4716 Clouds 21 1009 73 10000 6.7 210 16:22 24.07.2019
4717 Clouds 21 1009 73 10000 5.7 190 15:41 24.07.2019
4718 Clouds 21 1009 73 10000 4.6 180 15:23 24.07.2019
4719 Clouds 21 1009 77 10000 6.2 180 14:57 24.07.2019
4720 Clouds 21 1009 77 10000 6.2 180 14:38 24.07.2019
4721 Clouds 21 1009 77 10000 6.2 180 14:38 24.07.2019
4722 Clouds 21 1009 77 10000 6.2 180 14:38 24.07.2019
4723 Clouds 21 1009 82 10000 4.1 180 14:19 24.07.2019
4724 Clouds 20 1009 82 10000 3.6 210 13:37 24.07.2019
4725 Clouds 20 1009 82 10000 6.7 220 13:18 24.07.2019
4726 Clouds 21 1009 77 10000 5.1 220 12:50 24.07.2019
4727 Clouds 20 1009 82 10000 6.2 210 12:30 24.07.2019
4728 Clouds 20 1008 77 10000 5.1 190 11:40 24.07.2019
4729 Rain 20 1008 82 10000 6.7 210 11:20 24.07.2019
4730 Clouds 20 1008 77 10000 4.6 210 10:44 24.07.2019
4731 Rain 20 1008 82 10000 4.6 200 10:25 24.07.2019
4732 Rain 20 1008 82 10000 4.1 230 09:48 24.07.2019
4733 Clouds 20 1007 88 10000 3.1 250 09:25 24.07.2019
4734 Clouds 20 1007 93 10000 3.6 220 08:58 24.07.2019
4735 Rain 20 1007 88 10000 2.6 220 08:30 24.07.2019
4736 Rain 19 1007 83 10000 5.1 180 07:52 24.07.2019
4737 Rain 19 1007 88 10000 3.1 160 07:24 24.07.2019
4738 Rain 20 1007 82 10000 1 0 06:31 24.07.2019
4739 Rain 20 1006 82 10000 1 0 05:54 24.07.2019
4740 Rain 19 1009 77 10000 4.1 70 02:45 24.07.2019
4741 Rain 19 1010 77 10000 3.1 60 01:30 24.07.2019
4742 Rain 19 1011 82 10000 2.6 60 00:57 24.07.2019
4743 Clear 20 1011 88 10000 2.6 20 00:23 24.07.2019
4744 Clear 20 1012 82 10000 1 50 23:42 23.07.2019
4745 Clear 20 1012 82 10000 1 50 23:42 23.07.2019
4746 Clear 20 1012 73 10000 1.5 0 23:24 23.07.2019
4747 Clear 20 1012 73 10000 2.6 140 22:40 23.07.2019
4748 Clear 21 1012 69 10000 3.6 150 22:20 23.07.2019
4749 Clouds 22 1012 69 10000 2.6 140 21:59 23.07.2019
4750 Clouds 23 1012 69 10000 2.6 140 21:41 23.07.2019
4751 Clouds 24 1012 64 10000 3.6 170 21:22 23.07.2019
4752 Clouds 25 1013 69 10000 1 0 20:47 23.07.2019
4753 Clouds 24 1013 73 10000 3.6 260 20:25 23.07.2019
4754 Clouds 25 1013 64 10000 2.1 170 19:43 23.07.2019
4755 Clouds 24 1014 60 10000 5.1 170 19:22 23.07.2019
4756 Clouds 24 1014 64 10000 4.1 190 18:52 23.07.2019
4757 Clouds 25 1014 73 10000 3.6 230 18:24 23.07.2019
4758 Clouds 24 1014 69 10000 3.6 180 17:45 23.07.2019
4759 Clouds 24 1015 69 10000 6.2 210 17:27 23.07.2019
4760 Clouds 24 1015 69 10000 7.2 210 16:58 23.07.2019
4761 Clouds 24 1015 69 10000 7.2 210 16:40 23.07.2019
4762 Clouds 24 1015 73 10000 5.7 200 16:19 23.07.2019
4763 Clouds 23 1015 73 10000 7.2 210 15:46 23.07.2019
4764 Clouds 23 1015 73 10000 5.7 190 15:24 23.07.2019
4765 Clouds 23 1015 73 10000 6.7 210 14:40 23.07.2019
4766 Clouds 23 1016 73 10000 5.7 190 14:21 23.07.2019
4767 Clouds 22 1016 73 10000 6.7 180 13:58 23.07.2019
4768 Clouds 23 1016 73 10000 6.7 180 13:39 23.07.2019
4769 Clouds 22 1016 73 10000 6.7 200 13:20 23.07.2019
4770 Clouds 22 1016 77 10000 6.2 200 12:48 23.07.2019
4771 Clouds 21 1016 77 10000 7.2 180 12:25 23.07.2019
4772 Clouds 21 1015 72 10000 6.7 190 11:49 23.07.2019
4773 Clouds 20 1015 72 10000 7.7 210 11:31 23.07.2019
4774 Clouds 20 1015 72 10000 5.1 200 10:57 23.07.2019
4775 Clouds 20 1015 72 10000 5.1 200 10:38 23.07.2019
4776 Clouds 20 1015 77 10000 5.1 180 10:20 23.07.2019
4777 Clouds 19 1015 77 10000 4.1 170 09:40 23.07.2019
4778 Clouds 19 1015 77 10000 4.6 170 09:19 23.07.2019
4779 Clouds 18 1015 77 10000 3.6 160 08:42 23.07.2019
4780 Clouds 18 1015 77 10000 3.6 160 08:19 23.07.2019
4781 Clouds 18 1015 82 10000 3.1 180 07:55 23.07.2019
4782 Clouds 18 1015 82 10000 1.5 0 07:33 23.07.2019
4783 Clouds 18 1015 82 10000 2.6 190 06:38 23.07.2019
4784 Clouds 18 1015 88 10000 4.1 200 05:57 23.07.2019
4785 Rain 18 1015 88 10000 1 0 02:25 23.07.2019
4786 Clouds 19 1015 82 10000 3.6 220 01:29 23.07.2019
4787 Clouds 19 1015 77 10000 5.1 180 00:30 23.07.2019
4788 Clouds 20 1014 77 10000 4.6 180 23:42 22.07.2019
4789 Clouds 20 1014 73 10000 4.1 180 23:21 22.07.2019
4790 Clouds 20 1014 73 10000 4.6 190 22:58 22.07.2019
4791 Clouds 20 1014 73 10000 4.6 190 22:40 22.07.2019
4792 Clouds 20 1014 73 10000 1.5 0 22:20 22.07.2019
4793 Clouds 20 1014 73 10000 1.5 0 22:20 22.07.2019
4794 Clouds 21 1013 68 10000 3.1 250 21:42 22.07.2019
4795 Clouds 22 1013 68 10000 4.6 230 21:21 22.07.2019
4796 Clouds 22 1013 68 10000 6.2 230 20:48 22.07.2019
4797 Clouds 23 1013 68 10000 6.7 220 20:29 22.07.2019
4798 Clouds 23 1013 69 10000 6.2 230 19:55 22.07.2019
4799 Clouds 23 1013 69 10000 6.2 230 19:36 22.07.2019
4800 Clouds 23 1012 64 10000 7.7 220 19:18 22.07.2019
4801 Clouds 24 1012 64 10000 9.8 220 18:41 22.07.2019
4802 Clouds 24 1012 60 10000 11.3 220 18:22 22.07.2019
4803 Clouds 24 1012 64 10000 10.3 210 17:42 22.07.2019
4804 Clouds 24 1012 69 10000 12.3 210 17:24 22.07.2019
4805 Clouds 24 1012 69 10000 12.3 220 16:43 22.07.2019
4806 Clouds 23 1012 73 10000 11.3 210 16:22 22.07.2019
4807 Clouds 23 1012 69 10000 11.8 230 15:59 22.07.2019
4808 Clouds 23 1012 69 10000 11.8 230 15:38 22.07.2019
4809 Clouds 23 1011 78 10000 11.8 220 15:18 22.07.2019
4810 Clouds 22 1011 73 10000 12.3 220 14:43 22.07.2019
4811 Clouds 21 1011 77 10000 12.9 230 14:21 22.07.2019
4812 Clouds 21 1011 77 10000 12.9 230 14:21 22.07.2019
4813 Clouds 21 1011 82 10000 12.9 220 13:48 22.07.2019
4814 Rain 21 1010 82 10000 14.4 220 13:29 22.07.2019
4815 Rain 20 1010 83 10000 13.9 220 12:47 22.07.2019
4816 Clouds 20 1009 82 10000 12.9 230 12:28 22.07.2019
4817 Clouds 20 1009 88 10000 11.8 220 11:45 22.07.2019
4818 Rain 19 1009 88 10000 10.3 210 11:25 22.07.2019
4819 Drizzle 19 1009 93 10000 9.3 220 10:58 22.07.2019
4820 Rain 19 1009 93 7000 9.8 220 10:33 22.07.2019
4821 Rain 19 1008 93 8000 10.3 220 09:45 22.07.2019
4822 Rain 19 1008 93 5000 9.3 220 09:26 22.07.2019
4823 Rain 19 1007 93 3600 9.8 220 08:56 22.07.2019
4824 Rain 19 1007 93 3600 9.8 220 08:36 22.07.2019
4825 Rain 19 1007 93 6000 10.3 220 08:18 22.07.2019
4826 Rain 18 1007 93 4300 10.8 220 07:41 22.07.2019
4827 Rain 18 1007 100 3000 8.2 220 07:22 22.07.2019
4828 Rain 18 1006 100 2800 7.2 240 03:59 22.07.2019
4829 Rain 17 1006 100 2700 8.2 230 02:45 22.07.2019
4830 Rain 16 1007 93 8000 3.1 110 00:58 22.07.2019
4831 Rain 16 1008 88 10000 3.6 110 00:29 22.07.2019
4832 Rain 16 1008 93 10000 3.1 140 23:57 21.07.2019
4833 Rain 16 1009 88 10000 4.6 160 23:36 21.07.2019
4834 Rain 16 1009 88 10000 5.7 170 22:55 21.07.2019
4835 Rain 16 1009 88 10000 5.7 170 22:36 21.07.2019
4836 Rain 16 1009 88 10000 4.1 160 22:18 21.07.2019
4837 Rain 16 1009 88 10000 2.1 0 21:43 21.07.2019
4838 Rain 17 1010 88 10000 5.1 200 21:22 21.07.2019
4839 Rain 17 1010 88 9000 7.2 180 20:54 21.07.2019
4840 Rain 17 1010 88 10000 6.2 190 20:36 21.07.2019
4841 Rain 17 1010 88 10000 6.2 190 20:36 21.07.2019
4842 Rain 17 1010 88 10000 6.2 190 20:18 21.07.2019
4843 Rain 17 1010 88 8000 6.2 180 19:44 21.07.2019
4844 Rain 17 1011 88 10000 5.1 170 19:22 21.07.2019
4845 Rain 17 1012 88 10000 5.1 180 18:48 21.07.2019
4846 Rain 17 1012 88 10000 3.6 170 18:26 21.07.2019
4847 Rain 17 1012 87 10000 4.6 160 17:43 21.07.2019
4848 Rain 17 1013 87 10000 5.7 190 17:20 21.07.2019
4849 Rain 17 1013 87 10000 5.7 190 17:20 21.07.2019
4850 Rain 18 1013 77 10000 6.2 180 16:47 21.07.2019
4851 Rain 18 1013 77 9000 7.2 200 16:25 21.07.2019
4852 Rain 18 1013 72 10000 7.2 210 15:57 21.07.2019
4853 Rain 18 1013 72 10000 7.2 210 15:37 21.07.2019
4854 Rain 18 1013 68 10000 6.2 210 15:18 21.07.2019
4855 Rain 18 1013 68 10000 7.2 210 14:41 21.07.2019
4856 Clouds 18 1013 72 10000 7.7 210 14:22 21.07.2019
4857 Clouds 18 1013 77 10000 6.2 220 13:49 21.07.2019
4858 Rain 18 1014 77 10000 7.2 210 13:29 21.07.2019
4859 Rain 18 1014 82 10000 6.2 220 12:43 21.07.2019
4860 Rain 18 1014 77 10000 6.2 210 12:24 21.07.2019
4861 Rain 17 1013 82 10000 6.7 220 11:49 21.07.2019
4862 Rain 17 1013 82 10000 5.7 210 11:29 21.07.2019
4863 Rain 17 1013 82 10000 5.1 220 10:57 21.07.2019
4864 Rain 17 1013 82 10000 5.1 220 10:39 21.07.2019
4865 Rain 17 1013 82 10000 5.7 230 10:20 21.07.2019
4866 Rain 16 1013 82 10000 5.7 220 09:38 21.07.2019
4867 Rain 16 1013 82 10000 5.7 220 09:38 21.07.2019
4868 Clouds 16 1013 82 10000 5.1 220 09:19 21.07.2019
4869 Clouds 15 1013 87 10000 5.1 220 08:41 21.07.2019
4870 Clouds 15 1012 87 10000 4.6 220 08:23 21.07.2019
4871 Clouds 14 1012 93 10000 3.6 220 07:35 21.07.2019
4872 Clouds 14 1012 93 10000 3.1 210 06:45 21.07.2019
4873 Rain 14 1012 87 9000 3.6 240 05:27 21.07.2019
4874 Clouds 13 1011 82 10000 4.6 230 02:20 21.07.2019
4875 Clouds 13 1011 82 10000 2.1 260 00:51 21.07.2019
4876 Clouds 14 1011 82 10000 3.1 230 00:24 21.07.2019
4877 Clouds 14 1010 82 10000 1.5 210 23:57 20.07.2019
4878 Clouds 14 1010 82 10000 1.5 210 23:37 20.07.2019
4879 Clouds 14 1010 87 10000 2.6 240 23:18 20.07.2019
4880 Clouds 14 1010 76 10000 3.1 250 22:42 20.07.2019
4881 Clouds 15 1009 72 10000 3.1 270 22:20 20.07.2019
4882 Clouds 16 1009 63 10000 4.6 270 21:45 20.07.2019
4883 Clouds 16 1009 63 10000 4.6 270 21:45 20.07.2019
4884 Clouds 17 1009 59 10000 5.7 280 21:24 20.07.2019
4885 Clouds 17 1008 63 10000 5.1 290 20:44 20.07.2019
4886 Clouds 18 1008 63 10000 4.6 300 20:23 20.07.2019
4887 Clouds 18 1007 63 10000 6.2 280 19:53 20.07.2019
4888 Clouds 18 1007 63 10000 6.2 280 19:53 20.07.2019
4889 Clouds 18 1007 63 10000 6.2 280 19:34 20.07.2019
4890 Clouds 18 1006 59 10000 6.7 270 18:58 20.07.2019
4891 Clouds 18 1006 59 10000 6.7 270 18:40 20.07.2019
4892 Clouds 19 1006 59 10000 7.2 270 18:19 20.07.2019
4893 Clouds 19 1006 63 10000 7.7 270 17:47 20.07.2019
4894 Clouds 19 1005 63 10000 6.7 300 17:20 20.07.2019
4895 Clouds 19 1005 63 10000 6.2 300 16:42 20.07.2019
4896 Clouds 19 1004 68 10000 6.2 290 16:24 20.07.2019
4897 Clouds 20 1003 63 10000 7.7 280 15:55 20.07.2019
4898 Clouds 20 1003 63 10000 7.7 280 15:37 20.07.2019
4899 Clouds 19 1003 68 10000 6.2 270 15:18 20.07.2019
4900 Clouds 19 1003 68 10000 6.7 290 14:42 20.07.2019
4901 Clouds 19 1002 72 10000 6.7 280 14:20 20.07.2019
4902 Clouds 18 1002 72 10000 7.7 290 13:38 20.07.2019
4903 Rain 18 1001 72 10000 6.2 290 13:19 20.07.2019
4904 Clouds 18 1001 72 10000 6.7 290 12:51 20.07.2019
4905 Rain 18 1000 77 10000 6.7 290 12:20 20.07.2019
4906 Rain 17 1000 77 10000 5.7 280 11:52 20.07.2019
4907 Rain 17 1000 88 10000 5.1 290 11:23 20.07.2019
4908 Clouds 16 999 87 10000 4.6 280 10:49 20.07.2019
4909 Rain 16 999 87 10000 4.6 290 10:26 20.07.2019
4910 Rain 16 999 100 10000 3.6 280 09:52 20.07.2019
4911 Rain 16 999 100 10000 2.6 280 09:27 20.07.2019
4912 Rain 15 998 100 10000 3.1 300 08:55 20.07.2019
4913 Rain 15 998 100 10000 1.5 0 08:24 20.07.2019
4914 Rain 15 998 100 9000 1.5 240 07:48 20.07.2019
4915 Mist 15 998 100 5000 1 280 06:47 20.07.2019
4916 Rain 15 998 100 1500 0.5 0 05:52 20.07.2019
4917 Rain 15 998 100 3900 1.5 50 04:31 20.07.2019
4918 Rain 15 999 93 10000 1 20 02:33 20.07.2019
4919 Mist 15 999 93 6000 4.6 70 00:59 20.07.2019
4920 Mist 15 999 93 6000 4.6 70 00:37 20.07.2019
4921 Mist 15 1000 93 10000 4.6 70 00:18 20.07.2019
4922 Rain 15 1000 93 10000 4.6 70 23:39 19.07.2019
4923 Rain 15 1000 93 6000 5.1 70 23:21 19.07.2019
4924 Rain 15 1001 93 4000 4.1 80 22:43 19.07.2019
4925 Rain 15 1001 100 10000 3.6 70 22:22 19.07.2019
4926 Rain 15 1001 100 10000 4.6 60 21:45 19.07.2019
4927 Rain 15 1001 100 7000 3.6 50 21:26 19.07.2019
4928 Rain 15 1001 100 8000 3.6 50 20:45 19.07.2019
4929 Rain 15 1002 100 6000 3.1 60 20:26 19.07.2019
4930 Rain 15 1002 100 6000 3.1 60 20:26 19.07.2019
4931 Rain 16 1002 93 10000 3.1 70 19:45 19.07.2019
4932 Rain 16 1002 93 10000 2.1 80 19:20 19.07.2019
4933 Rain 16 1002 93 10000 2.1 80 19:20 19.07.2019
4934 Rain 16 1003 93 8000 2.6 100 18:42 19.07.2019
4935 Rain 16 1003 93 8000 2.6 100 18:21 19.07.2019
4936 Rain 16 1003 93 8000 2.6 100 18:21 19.07.2019
4937 Rain 17 1003 87 7000 3.1 120 17:50 19.07.2019
4938 Rain 17 1004 77 10000 3.1 170 17:27 19.07.2019
4939 Rain 17 1004 77 10000 3.6 190 16:48 19.07.2019
4940 Rain 17 1004 77 10000 3.6 190 16:48 19.07.2019
4941 Rain 17 1004 77 8000 7.2 180 16:26 19.07.2019
4942 Rain 18 1004 63 10000 4.6 180 15:50 19.07.2019
4943 Rain 18 1004 60 10000 3.6 190 15:30 19.07.2019
4944 Clouds 20 1004 60 10000 4.1 190 14:56 19.07.2019
4945 Clouds 20 1004 60 10000 4.1 190 14:38 19.07.2019
4946 Clouds 20 1004 64 10000 3.6 210 14:20 19.07.2019
4947 Clouds 20 1005 63 10000 2.1 210 13:44 19.07.2019
4948 Clouds 20 1005 63 10000 2.1 210 13:43 19.07.2019
4949 Clouds 20 1005 63 10000 2.1 210 13:43 19.07.2019
4950 Clouds 20 1005 63 10000 2.1 210 13:43 19.07.2019
4951 Clouds 20 1005 63 10000 2.1 210 13:43 19.07.2019
4952 Rain 19 1005 68 10000 1 0 13:24 19.07.2019
4953 Clouds 19 1005 68 10000 1.5 0 12:54 19.07.2019
4954 Clouds 18 1005 77 10000 2.6 210 12:30 19.07.2019
4955 Clouds 18 1006 72 10000 3.1 150 11:58 19.07.2019
4956 Clouds 18 1006 72 10000 3.1 150 11:39 19.07.2019
4957 Rain 17 1006 82 10000 0.5 0 11:18 19.07.2019
4958 Rain 17 1006 82 10000 1 0 10:40 19.07.2019
4959 Clouds 16 1006 77 10000 1 0 10:21 19.07.2019
4960 Clouds 16 1006 77 10000 1 0 10:21 19.07.2019
4961 Clouds 16 1006 87 10000 2.1 210 09:44 19.07.2019
4962 Clouds 15 1006 82 10000 2.1 230 09:22 19.07.2019
4963 Clouds 15 1006 87 10000 2.6 160 08:57 19.07.2019
4964 Clouds 14 1006 87 10000 2.6 160 08:39 19.07.2019
4965 Clouds 14 1006 87 10000 3.1 190 07:48 19.07.2019
4966 Clouds 14 1006 87 10000 3.6 190 07:26 19.07.2019
4967 Clouds 13 1006 93 10000 2.6 210 05:55 19.07.2019
4968 Rain 13 1007 100 10000 2.6 240 02:23 19.07.2019
4969 Rain 13 1007 87 10000 5.1 200 00:59 19.07.2019
4970 Rain 14 1007 87 10000 4.6 220 00:26 19.07.2019
4971 Rain 14 1007 87 10000 2.1 210 23:43 18.07.2019
4972 Rain 14 1007 87 10000 4.6 210 23:23 18.07.2019
4973 Rain 14 1006 82 10000 4.6 240 22:59 18.07.2019
4974 Rain 15 1006 82 10000 4.6 240 22:39 18.07.2019
4975 Rain 15 1006 82 10000 6.2 240 22:18 18.07.2019
4976 Rain 16 1006 72 10000 6.2 250 21:41 18.07.2019
4977 Rain 16 1006 77 10000 6.7 250 21:22 18.07.2019
4978 Rain 16 1006 67 10000 7.2 250 20:49 18.07.2019
4979 Rain 17 1005 72 10000 8.2 240 20:28 18.07.2019
4980 Rain 17 1005 67 10000 8.2 240 19:53 18.07.2019
4981 Rain 17 1005 68 10000 7.7 240 19:31 18.07.2019
4982 Rain 17 1005 68 10000 6.7 240 18:57 18.07.2019
4983 Rain 17 1005 72 10000 8.2 230 18:37 18.07.2019
4984 Rain 17 1005 72 10000 8.2 230 18:19 18.07.2019
4985 Rain 18 1005 82 10000 6.7 240 17:42 18.07.2019
4986 Rain 18 1005 67 6000 7.7 250 17:23 18.07.2019
4987 Rain 18 1005 68 10000 8.7 250 16:54 18.07.2019
4988 Rain 17 1005 63 10000 8.2 250 16:29 18.07.2019
4989 Rain 18 1005 72 10000 7.2 230 15:58 18.07.2019
4990 Rain 18 1005 77 10000 7.7 220 15:37 18.07.2019
4991 Rain 17 1005 77 10000 7.7 220 15:19 18.07.2019
4992 Rain 17 1005 77 10000 9.3 230 14:42 18.07.2019
4993 Rain 18 1005 68 10000 7.7 230 14:23 18.07.2019
4994 Rain 17 1005 77 10000 7.2 230 13:43 18.07.2019
4995 Rain 17 1005 82 10000 7.7 220 13:22 18.07.2019
4996 Rain 17 1005 82 10000 7.7 220 12:48 18.07.2019
4997 Rain 16 1005 87 10000 6.7 220 12:21 18.07.2019
4998 Rain 16 1005 82 10000 5.7 220 11:52 18.07.2019
4999 Rain 16 1005 82 10000 6.2 220 11:33 18.07.2019
5000 Rain 16 1005 82 10000 6.2 220 11:33 18.07.2019
5001 Rain 15 1005 87 10000 5.1 220 10:53 18.07.2019
5002 Rain 15 1005 93 10000 4.1 230 10:35 18.07.2019
5003 Rain 14 1005 93 10000 5.7 220 09:47 18.07.2019
5004 Rain 14 1004 87 10000 4.1 220 09:24 18.07.2019
5005 Clouds 14 1004 93 10000 3.6 230 08:50 18.07.2019
5006 Rain 13 1004 93 10000 3.6 230 08:20 18.07.2019
5007 Clouds 13 1004 93 10000 1.5 0 07:44 18.07.2019
5008 Clouds 12 1004 93 10000 4.1 230 07:26 18.07.2019
5009 Rain 12 1004 93 10000 4.6 210 06:38 18.07.2019
5010 Clouds 12 1004 93 10000 1.5 0 05:35 18.07.2019
5011 Clouds 12 1006 93 10000 1.5 0 03:22 18.07.2019
5012 Rain 13 1005 87 10000 3.1 270 01:52 18.07.2019
5013 Rain 15 1004 93 10000 5.1 270 00:36 18.07.2019
5014 Rain 15 1004 93 10000 4.1 230 23:49 17.07.2019
5015 Drizzle 15 1004 100 4900 3.6 220 23:20 17.07.2019
5016 Drizzle 15 1004 100 4700 2.1 220 22:56 17.07.2019
5017 Rain 16 1004 93 8000 3.1 190 22:38 17.07.2019
5018 Rain 16 1004 93 8000 3.1 190 22:18 17.07.2019
5019 Rain 16 1004 93 9000 4.1 180 21:43 17.07.2019
5020 Rain 16 1004 93 10000 5.1 180 21:25 17.07.2019
5021 Rain 16 1005 87 7000 6.2 190 20:58 17.07.2019
5022 Rain 16 1005 87 7000 6.2 190 20:39 17.07.2019
5023 Rain 16 1005 87 10000 5.7 180 20:20 17.07.2019
5024 Rain 16 1006 87 7000 4.6 180 19:43 17.07.2019
5025 Rain 16 1006 87 7000 4.6 180 19:22 17.07.2019
5026 Rain 16 1006 87 10000 6.2 200 18:58 17.07.2019
5027 Rain 16 1007 87 9000 5.7 190 18:39 17.07.2019
5028 Rain 16 1007 87 9000 5.7 190 18:20 17.07.2019
5029 Rain 16 1007 87 7000 6.7 200 17:46 17.07.2019
5030 Rain 16 1007 87 7000 6.7 200 17:24 17.07.2019
5031 Rain 17 1008 82 10000 7.7 200 16:43 17.07.2019
5032 Rain 17 1008 82 10000 7.7 200 16:23 17.07.2019
5033 Rain 17 1008 82 10000 8.2 200 15:52 17.07.2019
5034 Rain 17 1008 87 10000 6.2 190 15:32 17.07.2019
5035 Rain 17 1008 87 10000 6.2 190 15:32 17.07.2019
5036 Rain 18 1009 87 10000 7.2 180 14:58 17.07.2019
5037 Rain 17 1009 87 10000 6.2 180 14:40 17.07.2019
5038 Rain 17 1009 93 10000 8.2 220 14:21 17.07.2019
5039 Rain 17 1009 77 10000 4.6 210 13:57 17.07.2019
5040 Rain 17 1009 77 10000 2.6 180 13:37 17.07.2019
5041 Rain 17 1009 82 10000 2.6 210 13:18 17.07.2019
5042 Rain 17 1010 82 10000 4.1 210 12:39 17.07.2019
5043 Rain 17 1010 77 10000 6.2 200 12:20 17.07.2019
5044 Rain 18 1010 72 10000 5.7 220 11:44 17.07.2019
5045 Rain 18 1010 77 10000 5.1 200 11:20 17.07.2019
5046 Rain 18 1010 77 10000 5.1 200 10:50 17.07.2019
5047 Clouds 17 1010 82 10000 4.1 210 10:25 17.07.2019
5048 Clouds 17 1011 82 10000 4.6 180 09:46 17.07.2019
5049 Clouds 17 1011 82 10000 4.6 180 09:28 17.07.2019
5050 Clouds 16 1011 82 10000 4.1 180 08:56 17.07.2019
5051 Clouds 16 1011 82 10000 4.1 180 08:37 17.07.2019
5052 Clouds 16 1011 82 10000 4.1 180 08:19 17.07.2019
5053 Clouds 16 1011 87 10000 3.1 160 07:41 17.07.2019
5054 Clouds 16 1011 87 10000 3.1 160 07:22 17.07.2019
5055 Rain 15 1012 93 10000 1 0 06:46 17.07.2019
5056 Rain 15 1012 93 10000 1 0 06:46 17.07.2019
5057 Rain 15 1012 93 10000 1 0 06:46 17.07.2019
5058 Rain 15 1012 93 10000 1 0 06:27 17.07.2019
5059 Rain 15 1012 93 10000 1 20 05:41 17.07.2019
5060 Rain 15 1013 87 10000 1 0 04:59 17.07.2019
5061 Clouds 15 1013 87 10000 1.5 150 03:57 17.07.2019
5062 Rain 15 1014 93 10000 1.5 0 02:44 17.07.2019
5063 Rain 16 1014 82 10000 3.1 170 01:42 17.07.2019
5064 Clouds 16 1014 82 10000 3.1 170 01:23 17.07.2019
5065 Clouds 16 1015 82 10000 1 0 00:43 17.07.2019
5066 Rain 16 1015 82 10000 1 0 00:23 17.07.2019
5067 Rain 17 1015 82 10000 4.6 220 23:46 16.07.2019
5068 Rain 17 1015 82 10000 4.6 220 23:25 16.07.2019
5069 Rain 17 1015 77 10000 4.6 220 22:57 16.07.2019
5070 Rain 18 1015 72 10000 5.1 220 22:39 16.07.2019
5071 Rain 18 1015 72 10000 5.1 220 22:18 16.07.2019
5072 Rain 20 1015 68 10000 4.6 210 21:41 16.07.2019
5073 Rain 20 1015 68 10000 4.6 210 21:20 16.07.2019
5074 Clouds 21 1015 72 10000 3.6 230 20:41 16.07.2019
5075 Clouds 21 1015 72 10000 3.6 230 20:23 16.07.2019
5076 Rain 21 1015 64 10000 4.1 230 19:55 16.07.2019
5077 Clouds 21 1015 68 10000 4.1 230 19:37 16.07.2019
5078 Clouds 21 1016 68 10000 5.1 230 19:19 16.07.2019
5079 Rain 21 1016 68 10000 6.2 210 18:44 16.07.2019
5080 Rain 21 1016 68 10000 6.2 210 18:21 16.07.2019
5081 Rain 21 1016 68 10000 4.6 230 17:54 16.07.2019
5082 Rain 21 1016 72 10000 5.1 220 17:36 16.07.2019
5083 Rain 22 1016 72 10000 4.6 230 16:53 16.07.2019
5084 Clouds 22 1016 68 10000 5.7 230 16:28 16.07.2019
5085 Clouds 22 1017 72 10000 5.1 220 15:58 16.07.2019
5086 Clouds 21 1017 72 10000 1.5 0 15:39 16.07.2019
5087 Clouds 21 1017 72 10000 1.5 0 15:20 16.07.2019
5088 Clouds 20 1017 77 10000 3.1 320 14:55 16.07.2019
5089 Clouds 20 1017 82 10000 3.1 310 14:37 16.07.2019
5090 Rain 20 1017 72 10000 2.1 320 14:18 16.07.2019
5091 Rain 20 1017 77 10000 3.6 220 13:43 16.07.2019
5092 Clouds 19 1017 77 10000 3.1 210 13:18 16.07.2019
5093 Clouds 18 1017 82 10000 2.6 230 12:44 16.07.2019
5094 Clouds 18 1017 82 10000 2.6 230 12:20 16.07.2019
5095 Clouds 18 1017 82 10000 2.6 230 12:20 16.07.2019
5096 Clouds 18 1017 82 10000 2.6 220 11:55 16.07.2019
5097 Clouds 18 1018 82 10000 1.5 0 11:36 16.07.2019
5098 Clouds 17 1018 87 10000 1.5 0 11:18 16.07.2019
5099 Clouds 17 1018 93 10000 1.5 270 10:44 16.07.2019
5100 Clouds 17 1018 93 10000 1.5 270 10:20 16.07.2019
5101 Clouds 16 1017 93 9000 2.1 220 09:44 16.07.2019
5102 Clouds 15 1017 93 9000 2.1 220 09:21 16.07.2019
5103 Clouds 15 1017 93 10000 2.6 60 08:49 16.07.2019
5104 Clouds 14 1018 100 9000 0.5 0 08:29 16.07.2019
5105 Clouds 13 1018 100 9000 1 260 07:58 16.07.2019
5106 Clouds 13 1018 93 10000 0.5 0 07:39 16.07.2019
5107 Mist 13 1018 100 8000 0.5 0 06:59 16.07.2019
5108 Clouds 12 1018 100 7000 2.1 260 06:38 16.07.2019
5109 Mist 12 1018 100 4500 1.5 230 05:52 16.07.2019
5110 Clouds 12 1018 100 7000 0.5 260 05:30 16.07.2019
5111 Mist 13 1018 100 3500 1 260 04:45 16.07.2019
5112 Mist 13 1019 93 4200 0.72 296.992 03:44 16.07.2019
5113 Clouds 14 1019 93 10000 0.5 70 02:46 16.07.2019
5114 Clouds 14 1019 93 10000 0.5 70 02:28 16.07.2019
5115 Clouds 14 1019 87 10000 1 350 01:36 16.07.2019
5116 Rain 16 1019 82 10000 1.5 190 00:27 16.07.2019
5117 Clouds 16 1019 82 10000 3.1 210 23:59 15.07.2019
5118 Clouds 17 1019 77 10000 3.1 210 23:39 15.07.2019
5119 Clouds 17 1019 77 10000 3.1 210 23:39 15.07.2019
5120 Clouds 17 1019 77 10000 3.1 210 23:21 15.07.2019
5121 Rain 17 1019 72 10000 3.1 240 22:46 15.07.2019
5122 Rain 17 1019 63 10000 3.1 250 22:21 15.07.2019
5123 Rain 18 1019 63 10000 3.1 250 21:57 15.07.2019
5124 Clouds 18 1019 68 10000 4.1 240 21:39 15.07.2019
5125 Clouds 20 1019 68 10000 4.1 240 21:19 15.07.2019
5126 Clouds 21 1019 64 10000 3.1 250 20:44 15.07.2019
5127 Clouds 20 1019 64 10000 3.1 250 20:24 15.07.2019
5128 Clouds 21 1019 64 10000 2.6 290 19:58 15.07.2019
5129 Clouds 21 1019 56 10000 2.6 240 19:38 15.07.2019
5130 Clouds 21 1019 56 10000 2.6 240 19:38 15.07.2019
5131 Clouds 21 1019 56 10000 2.6 240 19:18 15.07.2019
5132 Clouds 22 1019 56 10000 3.1 280 18:45 15.07.2019
5133 Clouds 22 1020 53 10000 2.1 280 18:21 15.07.2019
5134 Clouds 22 1020 53 10000 2.1 280 17:57 15.07.2019
5135 Clouds 22 1020 53 10000 3.1 200 17:38 15.07.2019
5136 Clouds 22 1020 56 10000 2.6 190 17:20 15.07.2019
5137 Clouds 22 1020 56 10000 2.6 190 16:57 15.07.2019
5138 Clouds 22 1020 56 10000 2.6 120 16:36 15.07.2019
5139 Clouds 22 1020 56 10000 1 0 16:18 15.07.2019
5140 Clouds 21 1021 56 10000 1.5 0 15:39 15.07.2019
5141 Clouds 21 1021 56 10000 1.5 0 15:39 15.07.2019
5142 Clouds 21 1021 56 10000 1.5 0 15:21 15.07.2019
5143 Clouds 21 1021 56 10000 1 0 14:57 15.07.2019
5144 Clouds 21 1021 56 10000 2.1 180 14:37 15.07.2019
5145 Clouds 21 1021 56 10000 1 0 14:19 15.07.2019
5146 Clouds 21 1021 56 10000 1.5 0 13:45 15.07.2019
5147 Clouds 21 1022 64 10000 1.5 0 13:18 15.07.2019
5148 Clouds 20 1022 68 10000 1.5 0 12:43 15.07.2019
5149 Clouds 19 1022 68 10000 1.5 0 12:24 15.07.2019
5150 Clear 18 1022 77 10000 2.1 50 11:44 15.07.2019
5151 Clear 18 1022 77 10000 2.1 50 11:26 15.07.2019
5152 Clouds 17 1023 77 10000 2.1 60 10:54 15.07.2019
5153 Clouds 17 1023 77 10000 2.1 70 10:36 15.07.2019
5154 Clouds 16 1023 82 10000 2.6 80 10:18 15.07.2019
5155 Clouds 16 1023 82 10000 3.1 80 09:41 15.07.2019
5156 Clouds 15 1023 82 10000 3.1 80 09:19 15.07.2019
5157 Clouds 14 1023 87 10000 3.1 80 08:43 15.07.2019
5158 Clouds 13 1023 87 10000 3.1 80 08:24 15.07.2019
5159 Clouds 13 1023 93 10000 2.6 60 07:43 15.07.2019
5160 Clouds 12 1023 93 10000 2.6 60 07:21 15.07.2019
5161 Fog 12 1023 93 10000 2.1 50 06:40 15.07.2019
5162 Fog 12 1023 93 10000 1.5 30 06:18 15.07.2019
5163 Fog 12 1023 93 10000 1.5 60 05:38 15.07.2019
5164 Clouds 12 1024 87 10000 2.6 70 04:45 15.07.2019
5165 Clouds 12 1024 87 10000 2.6 70 04:21 15.07.2019
5166 Clear 12 1024 93 10000 3.1 50 02:49 15.07.2019
5167 Clear 13 1024 87 10000 0.5 0 01:54 15.07.2019
5168 Clear 13 1024 87 10000 2.1 230 01:32 15.07.2019
5169 Clear 13 1024 82 10000 1.5 260 00:53 15.07.2019
5170 Clear 14 1023 87 10000 2.1 250 00:26 15.07.2019
5171 Clear 14 1023 77 10000 2.1 250 23:57 14.07.2019
5172 Clear 15 1023 77 10000 2.1 250 23:39 14.07.2019
5173 Clear 15 1023 77 10000 2.1 250 23:18 14.07.2019
5174 Clear 15 1023 72 10000 4.1 240 22:55 14.07.2019
5175 Clear 16 1023 63 10000 2.6 250 22:37 14.07.2019
5176 Clear 17 1023 63 10000 2.6 250 22:18 14.07.2019
5177 Clear 18 1024 56 10000 4.1 240 21:42 14.07.2019
5178 Clouds 19 1024 52 10000 3.1 240 21:19 14.07.2019
5179 Clouds 20 1024 52 10000 3.1 240 20:57 14.07.2019
5180 Clouds 20 1024 52 10000 3.1 240 20:57 14.07.2019
5181 Clouds 20 1024 49 10000 2.6 260 20:37 14.07.2019
5182 Clouds 20 1024 46 10000 2.1 250 20:19 14.07.2019
5183 Clouds 21 1024 49 10000 1 0 19:44 14.07.2019
5184 Clouds 20 1024 49 10000 1 0 19:25 14.07.2019
5185 Clouds 20 1024 53 10000 2.6 250 18:57 14.07.2019
5186 Clouds 20 1024 52 10000 1.5 0 18:38 14.07.2019
5187 Clouds 20 1024 52 10000 1.5 0 18:20 14.07.2019
5188 Clouds 20 1025 60 10000 2.6 230 17:47 14.07.2019
5189 Clouds 20 1025 60 10000 2.6 250 17:21 14.07.2019
5190 Clouds 20 1025 60 10000 2.1 300 16:47 14.07.2019
5191 Clouds 20 1025 60 10000 2.1 300 16:24 14.07.2019
5192 Clouds 20 1025 60 10000 3.6 280 15:54 14.07.2019
5193 Clouds 20 1025 59 10000 3.1 260 15:29 14.07.2019
5194 Clouds 20 1025 55 10000 1 0 14:50 14.07.2019
5195 Clouds 19 1025 55 10000 1 0 14:22 14.07.2019
5196 Clouds 19 1025 56 10000 1.5 0 13:49 14.07.2019
5197 Clouds 18 1025 56 10000 2.1 320 13:27 14.07.2019
5198 Clouds 18 1025 63 10000 2.1 270 12:59 14.07.2019
5199 Clouds 18 1025 59 10000 1 0 12:41 14.07.2019
5200 Clouds 18 1025 59 10000 1 0 12:21 14.07.2019
5201 Clouds 18 1025 67 10000 1 0 11:52 14.07.2019
5202 Clouds 17 1025 67 10000 1 0 11:27 14.07.2019
5203 Clear 17 1026 67 10000 0.5 0 10:50 14.07.2019
5204 Clear 16 1026 72 10000 1 0 10:26 14.07.2019
5205 Clear 16 1025 72 10000 0.5 0 09:56 14.07.2019
5206 Clouds 15 1025 82 10000 1 0 09:37 14.07.2019
5207 Clouds 15 1025 82 10000 1 0 09:19 14.07.2019
5208 Clouds 14 1026 87 10000 1 260 08:41 14.07.2019
5209 Clouds 13 1025 87 10000 1.5 250 07:56 14.07.2019
5210 Clouds 13 1025 93 10000 2.6 230 07:35 14.07.2019
5211 Clouds 13 1025 93 10000 1.5 230 06:29 14.07.2019
5212 Clouds 13 1025 93 10000 2.1 240 05:44 14.07.2019
5213 Clouds 13 1025 93 10000 2.1 220 03:46 14.07.2019
5214 Clouds 13 1025 93 10000 2.1 220 03:27 14.07.2019
5215 Clouds 13 1025 93 10000 2.6 250 02:39 14.07.2019
5216 Clouds 13 1025 93 10000 2.6 250 02:20 14.07.2019
5217 Clouds 13 1025 87 10000 1.5 0 01:31 14.07.2019
5218 Clouds 14 1025 87 10000 2.6 250 00:55 14.07.2019
5219 Clouds 14 1025 82 10000 2.1 280 00:37 14.07.2019
5220 Clear 14 1025 76 10000 2.1 270 00:18 14.07.2019
5221 Clear 14 1024 76 10000 2.6 270 23:42 13.07.2019
5222 Clear 15 1024 76 10000 2.6 270 23:22 13.07.2019
5223 Clear 15 1024 63 10000 4.1 280 22:43 13.07.2019
5224 Clear 16 1024 63 10000 4.1 280 22:22 13.07.2019
5225 Clear 16 1024 67 10000 4.1 290 21:49 13.07.2019
5226 Clear 18 1024 59 10000 5.1 290 21:23 13.07.2019
5227 Clear 18 1024 59 10000 6.2 280 20:53 13.07.2019
5228 Clear 19 1024 59 10000 7.2 290 20:34 13.07.2019
5229 Clear 19 1023 52 10000 8.2 290 19:59 13.07.2019
5230 Clear 19 1023 55 10000 7.7 290 19:37 13.07.2019
5231 Clear 20 1023 55 10000 6.7 290 19:19 13.07.2019
5232 Clear 20 1023 56 10000 6.7 290 18:39 13.07.2019
5233 Clear 20 1023 52 10000 7.2 280 18:19 13.07.2019
5234 Clear 20 1023 56 10000 6.7 290 17:38 13.07.2019
5235 Clear 20 1023 56 10000 5.7 290 17:19 13.07.2019
5236 Clear 20 1023 56 10000 6.7 290 16:44 13.07.2019
5237 Clear 20 1023 56 10000 6.7 290 16:26 13.07.2019
5238 Clear 20 1023 56 10000 6.7 280 15:48 13.07.2019
5239 Clouds 19 1023 60 10000 6.2 290 15:24 13.07.2019
5240 Clouds 19 1023 59 10000 6.2 290 14:57 13.07.2019
5241 Clouds 19 1023 63 10000 5.7 280 14:38 13.07.2019
5242 Clouds 19 1023 63 10000 5.7 280 14:19 13.07.2019
5243 Clouds 19 1023 72 10000 6.2 290 13:43 13.07.2019
5244 Clouds 18 1023 77 10000 6.2 280 13:19 13.07.2019
5245 Rain 18 1023 77 10000 5.7 280 12:41 13.07.2019
5246 Rain 18 1023 77 10000 5.7 280 12:23 13.07.2019
5247 Rain 18 1023 72 10000 6.2 290 11:57 13.07.2019
5248 Rain 17 1023 72 10000 5.7 290 11:20 13.07.2019
5249 Rain 17 1023 77 10000 5.1 290 10:58 13.07.2019
5250 Rain 17 1022 77 10000 4.1 290 10:39 13.07.2019
5251 Rain 16 1022 77 10000 4.1 290 10:20 13.07.2019
5252 Clouds 16 1022 77 10000 4.1 290 09:41 13.07.2019
5253 Clouds 16 1022 77 10000 4.1 290 09:23 13.07.2019
5254 Rain 15 1022 87 10000 2.1 260 08:47 13.07.2019
5255 Rain 15 1022 87 10000 2.1 260 08:26 13.07.2019
5256 Drizzle 15 1022 87 10000 2.1 250 07:31 13.07.2019
5257 Drizzle 14 1021 93 10000 2.1 240 06:55 13.07.2019
5258 Mist 14 1021 93 10000 2.1 240 06:29 13.07.2019
5259 Drizzle 14 1021 87 10000 2.6 230 05:43 13.07.2019
5260 Drizzle 15 1021 87 10000 2.1 250 04:39 13.07.2019
5261 Drizzle 15 1021 87 10000 2.1 250 04:18 13.07.2019
5262 Clouds 14 1021 93 10000 2.6 240 03:40 13.07.2019
5263 Drizzle 15 1021 87 10000 2.1 240 02:41 13.07.2019
5264 Clouds 15 1020 87 10000 3.1 230 01:46 13.07.2019
5265 Clouds 15 1020 87 10000 3.1 230 01:20 13.07.2019
5266 Clouds 15 1020 87 10000 3.1 230 00:58 13.07.2019
5267 Clouds 15 1020 93 10000 3.1 230 00:20 13.07.2019
5268 Rain 16 1019 87 10000 2.6 250 23:49 12.07.2019
5269 Rain 16 1019 87 10000 2.6 250 23:30 12.07.2019
5270 Drizzle 16 1019 87 10000 3.1 240 22:56 12.07.2019
5271 Rain 16 1018 77 10000 3.1 250 22:38 12.07.2019
5272 Rain 17 1018 77 10000 4.6 260 22:18 12.07.2019
5273 Rain 17 1018 72 10000 6.2 270 21:41 12.07.2019
5274 Rain 18 1018 68 10000 6.7 270 21:19 12.07.2019
5275 Rain 18 1017 68 10000 5.7 270 20:43 12.07.2019
5276 Rain 19 1017 68 10000 5.7 270 20:22 12.07.2019
5277 Clouds 19 1017 64 10000 4.6 280 19:42 12.07.2019
5278 Clouds 20 1017 64 10000 4.6 280 19:24 12.07.2019
5279 Rain 20 1016 64 10000 4.6 270 18:49 12.07.2019
5280 Rain 20 1016 64 10000 4.6 270 18:22 12.07.2019
5281 Clouds 20 1016 68 10000 4.1 300 17:55 12.07.2019
5282 Clouds 21 1016 64 10000 4.6 250 17:37 12.07.2019
5283 Clouds 21 1016 64 10000 4.6 250 17:19 12.07.2019
5284 Clouds 22 1016 68 10000 4.6 250 16:36 12.07.2019
5285 Clouds 22 1016 68 10000 4.6 250 16:18 12.07.2019
5286 Clouds 22 1016 64 10000 4.1 290 15:38 12.07.2019
5287 Clouds 22 1016 64 10000 3.1 290 15:19 12.07.2019
5288 Clouds 21 1015 68 10000 3.1 270 14:44 12.07.2019
5289 Clouds 21 1015 68 10000 3.1 270 14:21 12.07.2019
5290 Clouds 21 1015 68 10000 3.6 290 13:47 12.07.2019
5291 Clouds 20 1015 68 10000 4.6 280 13:23 12.07.2019
5292 Clouds 19 1015 72 10000 5.7 280 12:43 12.07.2019
5293 Clouds 19 1015 72 10000 5.7 280 12:23 12.07.2019
5294 Clouds 18 1015 77 10000 3.6 280 11:47 12.07.2019
5295 Clouds 18 1015 77 10000 3.6 280 11:24 12.07.2019
5296 Clouds 18 1015 77 10000 3.6 280 11:24 12.07.2019
5297 Clouds 17 1014 77 10000 4.6 300 10:59 12.07.2019
5298 Drizzle 16 1014 82 10000 5.7 290 10:41 12.07.2019
5299 Drizzle 16 1014 82 10000 4.6 290 10:23 12.07.2019
5300 Drizzle 16 1014 82 10000 4.6 290 09:53 12.07.2019
5301 Rain 15 1013 87 10000 3.6 280 09:27 12.07.2019
5302 Clouds 14 1013 93 10000 2.6 250 08:47 12.07.2019
5303 Clouds 14 1013 93 10000 2.6 250 08:23 12.07.2019
5304 Clouds 13 1012 93 10000 3.1 250 07:47 12.07.2019
5305 Clouds 13 1012 93 10000 3.1 250 07:29 12.07.2019
5306 Clouds 13 1012 93 10000 2.6 250 06:30 12.07.2019
5307 Clouds 13 1011 100 10000 3.6 240 05:51 12.07.2019
5308 Clouds 13 1011 100 10000 2.6 250 04:25 12.07.2019
5309 Clouds 14 1011 87 10000 2.1 250 01:51 12.07.2019
5310 Clouds 14 1011 87 10000 2.1 250 01:32 12.07.2019
5311 Rain 15 1011 87 10000 3.6 260 00:35 12.07.2019
5312 Rain 15 1010 87 10000 2.6 260 23:57 11.07.2019
5313 Clouds 15 1010 87 10000 3.6 230 23:38 11.07.2019
5314 Clouds 15 1010 82 10000 2.6 260 23:19 11.07.2019
5315 Clouds 16 1009 82 10000 3.6 240 22:43 11.07.2019
5316 Clouds 16 1009 82 10000 3.6 240 22:24 11.07.2019
5317 Clouds 17 1009 77 10000 4.6 250 21:44 11.07.2019
5318 Clouds 18 1009 77 10000 4.6 250 21:20 11.07.2019
5319 Clouds 18 1009 77 10000 4.6 250 20:59 11.07.2019
5320 Clouds 18 1009 72 10000 5.1 260 20:41 11.07.2019
5321 Clouds 18 1009 72 10000 5.1 260 20:22 11.07.2019
5322 Clouds 19 1009 72 10000 5.1 260 19:55 11.07.2019
5323 Clouds 19 1009 72 10000 4.6 260 19:36 11.07.2019
5324 Clouds 19 1009 72 10000 4.6 260 19:36 11.07.2019
5325 Clouds 19 1009 72 10000 6.2 270 19:18 11.07.2019
5326 Clouds 20 1009 68 10000 5.7 270 18:38 11.07.2019
5327 Clouds 20 1009 68 10000 5.7 270 18:20 11.07.2019
5328 Clouds 21 1009 68 10000 4.6 250 17:43 11.07.2019
5329 Clouds 21 1009 68 10000 4.6 250 17:25 11.07.2019
5330 Clouds 21 1009 72 10000 5.1 280 16:52 11.07.2019
5331 Clouds 21 1009 72 10000 5.7 270 16:24 11.07.2019
5332 Clouds 21 1009 77 10000 5.7 280 15:55 11.07.2019
5333 Clouds 21 1009 77 10000 2.6 290 15:37 11.07.2019
5334 Clouds 21 1009 77 10000 3.6 310 15:18 11.07.2019
5335 Clouds 20 1009 88 10000 2.6 270 14:43 11.07.2019
5336 Clouds 19 1009 88 10000 2.6 270 14:21 11.07.2019
5337 Rain 19 1009 88 10000 3.1 250 13:47 11.07.2019
5338 Rain 19 1009 88 10000 3.1 250 13:28 11.07.2019
5339 Drizzle 19 1009 88 10000 5.1 230 12:46 11.07.2019
5340 Drizzle 18 1009 88 10000 5.1 230 12:28 11.07.2019
5341 Drizzle 18 1009 88 10000 4.6 220 11:58 11.07.2019
5342 Drizzle 17 1009 93 8000 4.1 220 11:39 11.07.2019
5343 Drizzle 17 1009 93 8000 4.1 220 11:21 11.07.2019
5344 Rain 17 1008 93 9000 3.1 230 10:45 11.07.2019
5345 Rain 17 1008 93 9000 3.1 230 10:19 11.07.2019
5346 Rain 16 1008 93 7000 3.1 220 09:44 11.07.2019
5347 Rain 16 1008 93 7000 3.1 220 09:26 11.07.2019
5348 Rain 16 1008 93 8000 2.1 230 08:52 11.07.2019
5349 Rain 16 1008 93 10000 3.1 230 08:26 11.07.2019
5350 Rain 15 1008 93 10000 3.6 210 07:52 11.07.2019
5351 Drizzle 15 1009 93 4500 3.1 220 07:34 11.07.2019
5352 Rain 15 1009 93 8000 2.1 240 06:35 11.07.2019
5353 Rain 15 1009 93 10000 2.6 230 05:48 11.07.2019
5354 Rain 15 1009 93 10000 2.6 220 05:29 11.07.2019
5355 Rain 15 1009 93 10000 1.5 0 04:53 11.07.2019
5356 Rain 16 1011 93 10000 2.1 200 02:40 11.07.2019
5357 Rain 16 1011 93 8000 0.5 0 01:27 11.07.2019
5358 Rain 16 1012 100 6000 2.6 220 00:26 11.07.2019
5359 Drizzle 16 1012 100 5000 2.1 240 23:37 10.07.2019
5360 Drizzle 17 1012 100 5000 2.1 240 23:18 10.07.2019
5361 Rain 17 1012 93 10000 3.6 240 22:42 10.07.2019
5362 Rain 17 1012 93 10000 3.6 240 22:19 10.07.2019
5363 Mist 17 1012 88 10000 4.1 220 21:44 10.07.2019
5364 Mist 18 1012 88 10000 4.1 220 21:26 10.07.2019
5365 Mist 18 1012 82 10000 3.6 220 20:56 10.07.2019
5366 Rain 18 1013 82 10000 4.1 230 20:37 10.07.2019
5367 Rain 18 1013 82 10000 4.1 230 20:37 10.07.2019
5368 Rain 19 1013 82 10000 4.6 230 20:18 10.07.2019
5369 Clouds 19 1013 82 10000 4.1 230 19:42 10.07.2019
5370 Clouds 19 1013 82 10000 4.1 230 19:22 10.07.2019
5371 Rain 18 1013 88 10000 5.1 230 18:48 10.07.2019
5372 Rain 18 1013 88 10000 5.1 230 18:25 10.07.2019
5373 Clouds 19 1014 82 10000 5.1 210 17:59 10.07.2019
5374 Clouds 19 1014 82 10000 5.1 210 17:59 10.07.2019
5375 Clouds 19 1014 88 10000 4.6 220 17:40 10.07.2019
5376 Clouds 19 1014 88 10000 4.6 230 17:19 10.07.2019
5377 -273 0 0 0 0 0 16:22 10.07.2019
5378 Clouds 19 1014 88 10000 5.1 230 15:58 10.07.2019
5379 Clouds 19 1014 82 10000 5.1 220 15:39 10.07.2019
5380 Clouds 19 1014 82 10000 4.6 210 15:18 10.07.2019
5381 Rain 18 1015 82 10000 4.6 210 14:39 10.07.2019
5382 Rain 19 1015 88 10000 3.6 220 14:20 10.07.2019
5383 Rain 19 1015 88 10000 4.6 220 13:43 10.07.2019
5384 Rain 19 1015 88 10000 4.6 220 13:19 10.07.2019
5385 Rain 19 1015 88 10000 5.1 210 12:43 10.07.2019
5386 Rain 18 1015 88 10000 5.1 210 12:22 10.07.2019
5387 Rain 18 1015 88 10000 4.1 230 11:56 10.07.2019
5388 Drizzle 18 1015 88 9000 4.1 230 11:38 10.07.2019
5389 Drizzle 18 1015 88 9000 4.1 230 11:20 10.07.2019
5390 Drizzle 17 1015 100 7000 2.1 230 10:36 10.07.2019
5391 Rain 17 1015 100 8000 1.5 0 10:18 10.07.2019
5392 Rain 16 1015 93 10000 0.5 0 09:41 10.07.2019
5393 Drizzle 16 1015 93 10000 0.5 0 09:20 10.07.2019
5394 Drizzle 16 1015 100 4100 1 30 08:49 10.07.2019
5395 Drizzle 16 1015 100 4100 1 30 08:27 10.07.2019
5396 Drizzle 15 1016 100 3300 0.5 0 07:53 10.07.2019
5397 Rain 15 1016 100 4900 0.5 0 07:24 10.07.2019
5398 Rain 15 1016 100 8000 1.5 150 06:41 10.07.2019
5399 Rain 15 1016 100 3600 2.1 200 05:42 10.07.2019
5400 Rain 15 1017 93 10000 0.5 270 04:33 10.07.2019
5401 Rain 15 1017 93 5000 2.1 240 02:38 10.07.2019
5402 Rain 15 1018 100 6000 3.6 240 00:44 10.07.2019
5403 Rain 15 1018 100 10000 4.6 220 23:44 09.07.2019
5404 Rain 15 1018 100 10000 4.6 220 23:25 09.07.2019
5405 Rain 15 1018 100 10000 4.6 220 22:59 09.07.2019
5406 Rain 15 1018 93 10000 3.1 210 22:40 09.07.2019
5407 Rain 16 1018 93 10000 3.1 210 22:20 09.07.2019
5408 Rain 16 1017 93 10000 4.1 230 21:47 09.07.2019
5409 Rain 16 1017 93 10000 4.1 230 21:26 09.07.2019
5410 Rain 16 1017 93 5000 6.2 230 20:55 09.07.2019
5411 Rain 16 1017 93 10000 6.2 230 20:36 09.07.2019
5412 Rain 16 1017 93 6000 6.2 230 20:18 09.07.2019
5413 Rain 16 1018 93 6000 5.7 230 19:37 09.07.2019
5414 Rain 16 1018 93 4400 6.2 230 19:19 09.07.2019
5415 Rain 16 1018 93 10000 7.7 220 18:39 09.07.2019
5416 Rain 16 1018 93 10000 6.2 220 18:19 09.07.2019
5417 Rain 16 1018 93 8000 5.1 220 17:43 09.07.2019
5418 Rain 16 1018 93 8000 5.1 220 17:21 09.07.2019
5419 Rain 16 1018 100 3000 6.2 220 16:55 09.07.2019
5420 Rain 16 1018 93 4000 4.6 230 16:36 09.07.2019
5421 Rain 16 1018 93 3000 4.1 240 16:18 09.07.2019
5422 Rain 16 1018 93 8000 5.1 220 15:41 09.07.2019
5423 Rain 16 1018 93 8000 5.1 220 15:22 09.07.2019
5424 Rain 16 1018 87 10000 4.6 250 14:43 09.07.2019
5425 Rain 16 1018 87 10000 4.6 250 14:22 09.07.2019
5426 Rain 15 1018 93 10000 4.1 230 13:47 09.07.2019
5427 Rain 15 1018 93 10000 4.1 230 13:28 09.07.2019
5428 Rain 15 1018 93 10000 4.6 230 12:59 09.07.2019
5429 Rain 15 1018 93 10000 4.6 240 12:38 09.07.2019
5430 Rain 15 1018 100 10000 3.6 230 12:18 09.07.2019
5431 Rain 14 1018 100 7000 2.1 230 11:41 09.07.2019
5432 Rain 14 1018 100 7000 2.1 230 11:22 09.07.2019
5433 Drizzle 14 1018 100 10000 2.1 200 10:58 09.07.2019
5434 Drizzle 14 1018 93 8000 0.5 0 10:36 09.07.2019
5435 Rain 13 1018 100 5000 1 0 09:59 09.07.2019
5436 Rain 13 1018 93 5000 1.5 90 09:38 09.07.2019
5437 Rain 13 1018 93 5000 1.5 90 09:20 09.07.2019
5438 Rain 13 1019 93 5000 2.1 120 08:44 09.07.2019
5439 Clouds 13 1019 93 10000 4.6 240 04:19 05.07.2019
5440 Clouds 13 1019 93 10000 5.7 240 03:39 05.07.2019
5441 Clouds 13 1019 93 10000 5.7 240 03:21 05.07.2019
5442 Clouds 13 1020 93 10000 6.2 230 02:52 05.07.2019
5443 Clouds 13 1020 87 10000 6.2 250 01:56 05.07.2019
5444 Clouds 13 1020 87 10000 5.1 240 01:28 05.07.2019
5445 Clouds 13 1021 87 10000 4.1 250 00:51 05.07.2019
5446 Clouds 13 1021 87 10000 4.1 250 00:29 05.07.2019
5447 Clouds 13 1021 82 10000 4.6 270 23:39 04.07.2019
5448 Clouds 13 1021 76 10000 5.1 250 23:18 04.07.2019
5449 Clouds 14 1021 76 10000 6.2 250 22:41 04.07.2019
5450 Clouds 14 1021 76 10000 6.2 240 22:20 04.07.2019
5451 Clouds 14 1021 76 10000 5.7 230 21:44 04.07.2019
5452 Clouds 14 1021 76 10000 5.7 230 21:26 04.07.2019
5453 Clouds 14 1021 67 10000 5.7 250 20:59 04.07.2019
5454 Clouds 14 1021 67 10000 6.2 250 20:38 04.07.2019
5455 Clouds 14 1021 67 10000 6.2 250 20:19 04.07.2019
5456 Clouds 14 1021 67 10000 6.2 250 20:19 04.07.2019
5457 Clouds 14 1021 72 10000 6.2 250 19:41 04.07.2019
5458 Clouds 14 1021 72 10000 6.2 250 19:21 04.07.2019
5459 Clouds 14 1022 72 10000 5.1 250 18:55 04.07.2019
5460 Rain 15 1022 67 10000 5.7 250 18:36 04.07.2019
5461 Rain 15 1022 67 10000 6.7 260 18:18 04.07.2019
5462 Rain 15 1022 67 10000 7.7 250 17:41 04.07.2019
5463 Rain 15 1023 72 10000 6.7 260 17:18 04.07.2019
5464 Clouds 15 1023 72 10000 7.2 250 15:45 04.07.2019
5465 Clouds 16 1023 72 10000 7.2 250 15:25 04.07.2019
5466 Clouds 16 1023 67 10000 7.7 250 14:59 04.07.2019
5467 Clouds 16 1023 72 10000 6.2 260 14:40 04.07.2019
5468 Clouds 16 1023 72 10000 6.2 260 14:20 04.07.2019
5469 Clouds 16 1023 72 10000 6.7 240 13:57 04.07.2019
5470 Clouds 15 1023 72 10000 6.7 250 13:38 04.07.2019
5471 Clouds 15 1023 72 10000 6.2 250 13:19 04.07.2019
5472 Clouds 15 1023 72 10000 6.2 250 13:19 04.07.2019
5473 Clouds 15 1024 72 10000 5.7 250 12:39 04.07.2019
5474 Clouds 15 1024 72 10000 5.7 260 12:19 04.07.2019
5475 Clouds 15 1024 72 10000 4.6 250 11:46 04.07.2019
5476 Clouds 15 1024 72 10000 4.6 250 11:20 04.07.2019
5477 Clouds 15 1024 72 10000 5.7 250 10:57 04.07.2019
5478 Clouds 15 1024 72 10000 5.7 250 10:57 04.07.2019
5479 Clouds 15 1024 72 10000 5.7 250 10:57 04.07.2019
5480 Clouds 15 1025 76 10000 6.2 250 10:38 04.07.2019
5481 Clouds 14 1025 76 10000 6.2 250 10:18 04.07.2019
5482 Clouds 15 1025 76 10000 6.2 250 10:18 04.07.2019
5483 Clouds 14 1025 82 10000 5.1 240 09:38 04.07.2019
5484 Clouds 14 1025 82 10000 5.1 240 09:19 04.07.2019
5485 Clouds 13 1025 82 10000 6.2 230 08:52 04.07.2019
5486 Clouds 13 1025 76 10000 4.1 240 08:18 04.07.2019
5487 Clouds 13 1025 76 10000 4.6 260 07:40 04.07.2019
5488 Clouds 12 1025 76 10000 4.6 260 07:19 04.07.2019
5489 Clouds 12 1026 76 10000 4.1 260 06:32 04.07.2019
5490 Clouds 11 1026 76 10000 4.1 250 05:43 04.07.2019
5491 Clouds 11 1026 76 10000 4.1 250 04:28 04.07.2019
5492 Clouds 12 1027 81 10000 2.6 240 02:23 04.07.2019
5493 Clouds 12 1027 81 10000 4.1 250 01:27 04.07.2019
5494 Clouds 13 1028 71 10000 4.1 250 00:51 04.07.2019
5495 Clouds 13 1028 76 10000 5.7 290 23:52 03.07.2019
5496 Clouds 14 1028 71 10000 3.1 280 23:21 03.07.2019
5497 Clouds 14 1028 71 10000 4.6 280 22:57 03.07.2019
5498 Clouds 15 1028 72 10000 4.1 270 22:38 03.07.2019
5499 Clouds 15 1028 72 10000 4.1 270 22:38 03.07.2019
5500 Clouds 16 1028 72 10000 4.1 280 22:20 03.07.2019
5501 Clouds 16 1028 72 10000 4.1 280 22:20 03.07.2019
5502 Clouds 16 1028 72 10000 4.1 280 21:54 03.07.2019
5503 Clouds 16 1028 77 10000 3.6 270 21:36 03.07.2019
5504 Clouds 17 1028 67 10000 5.7 290 20:49 03.07.2019
5505 Clouds 17 1028 67 10000 5.7 290 20:31 03.07.2019
5506 Clouds 18 1028 67 10000 5.7 250 19:59 03.07.2019
5507 Clouds 18 1028 68 10000 6.2 260 19:41 03.07.2019
5508 Clouds 19 1028 68 10000 6.2 260 19:20 03.07.2019
5509 Clouds 18 1028 72 10000 5.1 260 18:44 03.07.2019
5510 Clouds 18 1028 72 10000 5.1 260 18:22 03.07.2019
5511 Clouds 18 1029 77 10000 3.6 270 17:49 03.07.2019
5512 Clouds 19 1029 77 10000 4.1 290 17:19 03.07.2019
5513 Clouds 18 1029 77 10000 4.1 290 16:57 03.07.2019
5514 Clouds 18 1029 72 10000 4.1 280 16:39 03.07.2019
5515 Clouds 18 1029 72 10000 5.1 250 16:18 03.07.2019
5516 Clouds 18 1029 72 10000 5.1 260 15:42 03.07.2019
5517 Clouds 18 1029 72 10000 5.1 260 15:24 03.07.2019
5518 Clouds 17 1029 67 10000 3.6 260 14:43 03.07.2019
5519 Clouds 17 1029 67 10000 3.6 260 14:22 03.07.2019
5520 Clouds 17 1029 77 10000 3.1 280 13:46 03.07.2019
5521 Clouds 17 1029 77 10000 3.1 280 13:27 03.07.2019
5522 Clouds 16 1029 72 10000 4.1 260 12:51 03.07.2019
5523 Clouds 15 1029 76 10000 2.6 290 12:19 03.07.2019
5524 Clouds 15 1029 76 10000 3.6 270 11:43 03.07.2019
5525 Clouds 15 1029 76 10000 3.6 270 11:24 03.07.2019
5526 Clouds 14 1029 76 10000 3.6 280 10:58 03.07.2019
5527 Clouds 14 1029 76 10000 4.1 280 10:37 03.07.2019
5528 Clouds 14 1029 76 10000 3.6 280 10:19 03.07.2019
5529 Clouds 13 1029 76 10000 3.6 290 09:40 03.07.2019
5530 Clear 12 1029 76 10000 3.1 280 09:20 03.07.2019
5531 Clear 11 1029 76 10000 3.1 280 08:52 03.07.2019
5532 Clear 10 1029 87 10000 1.5 250 08:31 03.07.2019
5533 Clear 10 1029 93 10000 1.5 250 07:46 03.07.2019
5534 Clear 9 1029 93 10000 1.5 250 07:28 03.07.2019
5535 Clear 8 1028 93 10000 2.6 210 06:30 03.07.2019
5536 Clear 7 1028 87 10000 1.5 0 05:35 03.07.2019
5537 Clear 8 1028 87 10000 2.6 250 04:44 03.07.2019
5538 Clear 9 1028 81 10000 2.6 260 03:25 03.07.2019
5539 Clear 10 1028 81 10000 4.1 290 02:23 03.07.2019
5540 Clear 10 1028 81 10000 3.1 280 01:21 03.07.2019
5541 Clear 11 1028 76 10000 2.6 290 00:47 03.07.2019
5542 Clear 11 1027 76 10000 2.1 300 00:24 03.07.2019
5543 Clear 12 1027 71 10000 3.6 310 23:38 02.07.2019
5544 Clear 13 1027 71 10000 4.1 300 23:20 02.07.2019
5545 Clear 13 1027 71 10000 4.1 300 22:57 02.07.2019
5546 Clear 13 1027 62 10000 4.6 290 22:38 02.07.2019
5547 Clear 14 1027 58 10000 4.1 290 22:19 02.07.2019
5548 Clear 15 1027 54 10000 6.2 290 21:44 02.07.2019
5549 Clouds 16 1026 54 10000 5.7 290 21:23 02.07.2019
5550 Clear 16 1026 54 10000 5.7 290 20:58 02.07.2019
5551 Clear 16 1026 51 10000 6.2 290 20:39 02.07.2019
5552 Clear 17 1026 55 10000 5.7 270 20:21 02.07.2019
5553 Clouds 17 1026 59 10000 5.1 290 19:43 02.07.2019
5554 Clear 17 1026 55 10000 5.1 280 19:23 02.07.2019
5555 Clear 17 1026 51 10000 6.2 280 18:50 02.07.2019
5556 Clouds 17 1026 51 10000 6.7 290 18:19 02.07.2019
5557 Clouds 17 1026 51 10000 7.7 290 17:45 02.07.2019
5558 Clouds 17 1026 51 10000 7.7 290 17:45 02.07.2019
5559 Clouds 17 1026 51 10000 7.7 290 17:24 02.07.2019
5560 Clouds 17 1026 48 10000 6.7 290 16:55 02.07.2019
5561 Clouds 17 1026 59 10000 6.2 300 16:36 02.07.2019
5562 Clouds 17 1026 55 10000 5.1 280 15:59 02.07.2019
5563 Clouds 17 1026 59 10000 6.2 290 15:38 02.07.2019
5564 Clouds 17 1026 59 10000 6.2 290 15:20 02.07.2019
5565 Clouds 17 1026 59 10000 8.7 290 14:41 02.07.2019
5566 Clouds 17 1026 59 10000 8.7 290 14:22 02.07.2019
5567 Clouds 16 1025 62 10000 5.1 270 13:43 02.07.2019
5568 Clouds 16 1025 72 10000 4.6 250 13:19 02.07.2019
5569 Clouds 16 1025 67 10000 6.2 290 12:44 02.07.2019
5570 Rain 16 1025 67 10000 5.1 310 12:23 02.07.2019
5571 Clouds 15 1025 67 10000 3.6 290 11:44 02.07.2019
5572 Clouds 15 1025 67 10000 3.6 290 11:24 02.07.2019
5573 Clouds 15 1025 67 10000 4.1 260 10:59 02.07.2019
5574 Clouds 14 1025 71 10000 4.1 270 10:37 02.07.2019
5575 Clouds 14 1025 71 10000 7.2 270 10:18 02.07.2019
5576 Clear 14 1024 76 10000 5.1 250 09:23 02.07.2019
5577 Clear 14 1024 82 10000 3.6 250 08:59 02.07.2019
5578 Clouds 13 1024 82 10000 3.1 250 08:38 02.07.2019
5579 Clouds 13 1024 82 10000 3.1 250 08:19 02.07.2019
5580 Clouds 12 1024 82 10000 4.6 260 07:43 02.07.2019
5581 Rain 12 1024 87 10000 3.6 250 07:20 02.07.2019
5582 Clouds 12 1024 87 10000 3.1 240 06:38 02.07.2019
5583 Clouds 11 1023 87 10000 4.6 240 05:35 02.07.2019
5584 Clouds 12 1023 87 10000 3.6 250 02:41 02.07.2019
5585 Clouds 12 1023 81 10000 3.1 270 00:28 02.07.2019
5586 Clouds 13 1023 81 10000 4.6 250 23:39 01.07.2019
5587 Clouds 13 1022 82 10000 4.1 270 23:18 01.07.2019
5588 Clouds 13 1022 82 10000 3.6 270 22:42 01.07.2019
5589 Clouds 14 1022 82 10000 4.6 270 22:23 01.07.2019
5590 Clouds 14 1022 76 10000 4.1 290 21:44 01.07.2019
5591 Clouds 15 1022 76 10000 4.1 290 21:25 01.07.2019
5592 Clouds 16 1021 63 10000 5.7 290 20:47 01.07.2019
5593 Clouds 16 1021 63 10000 5.7 290 20:21 01.07.2019
5594 Clouds 16 1021 63 10000 5.7 290 20:21 01.07.2019
5595 Clouds 16 1021 63 10000 5.7 290 19:55 01.07.2019
5596 Clouds 17 1021 59 10000 8.2 290 19:36 01.07.2019
5597 Clouds 17 1021 59 10000 9.3 290 19:18 01.07.2019
5598 Clouds 17 1020 55 10000 9.8 290 18:43 01.07.2019
5599 Clouds 17 1020 55 10000 9.8 290 18:25 01.07.2019
5600 Clouds 17 1019 59 10000 9.8 280 17:46 01.07.2019
5601 Clouds 17 1019 59 10000 9.8 280 17:26 01.07.2019
5602 Clouds 17 1019 55 10000 8.7 290 16:57 01.07.2019
5603 Clouds 17 1019 55 10000 8.7 290 16:39 01.07.2019
5604 Clouds 17 1019 63 10000 9.3 290 16:20 01.07.2019
5605 Clouds 17 1018 63 10000 8.7 300 15:43 01.07.2019
5606 Clouds 17 1018 59 10000 7.7 290 15:23 01.07.2019
5607 Clouds 17 1017 63 10000 8.2 290 14:44 01.07.2019
5608 Clouds 17 1017 63 10000 8.7 300 14:20 01.07.2019
5609 Clouds 17 1016 67 10000 8.2 290 13:47 01.07.2019
5610 Clouds 17 1015 67 10000 7.7 290 13:24 01.07.2019
5611 Clouds 17 1015 67 10000 8.2 280 12:57 01.07.2019
5612 Clouds 17 1014 72 10000 7.7 270 12:38 01.07.2019
5613 Clouds 16 1014 72 10000 7.7 270 12:19 01.07.2019
5614 Clouds 16 1014 77 10000 6.2 270 11:44 01.07.2019
5615 Clouds 16 1013 77 10000 8.7 270 11:22 01.07.2019
5616 Clouds 15 1013 77 10000 7.7 260 10:48 01.07.2019
5617 Rain 15 1013 82 10000 7.7 250 10:24 01.07.2019
5618 Rain 14 1012 87 10000 7.7 260 09:58 01.07.2019
5619 Rain 14 1012 87 10000 7.7 260 09:40 01.07.2019
5620 Clouds 14 1012 93 10000 7.2 260 09:21 01.07.2019
5621 Clouds 14 1011 87 10000 6.2 260 08:38 01.07.2019
5622 Rain 13 1010 93 10000 5.1 260 07:57 01.07.2019
5623 Clouds 13 1010 93 10000 5.7 260 07:27 01.07.2019
5624 Clouds 13 1010 93 10000 5.7 260 07:27 01.07.2019
5625 Clouds 13 1010 93 10000 4.6 250 06:27 01.07.2019
5626 Rain 12 1009 87 10000 7.2 250 01:43 01.07.2019
5627 Rain 12 1010 82 10000 5.7 250 00:48 01.07.2019
5628 Clouds 12 1010 87 10000 6.7 250 00:28 01.07.2019
5629 Rain 13 1010 87 10000 6.7 240 23:52 30.06.2019
5630 Clouds 13 1010 82 10000 6.2 240 23:21 30.06.2019
5631 Rain 14 1010 82 9000 6.7 250 22:44 30.06.2019
5632 Clouds 14 1010 76 10000 5.7 260 22:20 30.06.2019
5633 Clouds 14 1010 76 10000 5.7 260 22:20 30.06.2019
5634 Clouds 14 1010 76 10000 5.7 260 22:20 30.06.2019
5635 Rain 14 1009 71 10000 8.2 260 21:42 30.06.2019
5636 Rain 15 1009 67 10000 7.2 250 21:20 30.06.2019
5637 Rain 16 1009 67 10000 9.3 260 20:56 30.06.2019
5638 Rain 16 1009 67 10000 9.3 260 20:38 30.06.2019
5639 Clouds 16 1009 67 10000 9.3 260 20:18 30.06.2019
5640 Clouds 17 1009 67 10000 8.7 270 19:44 30.06.2019
5641 Clouds 17 1009 63 10000 10.3 260 19:24 30.06.2019
5642 Drizzle 17 1009 67 10000 8.2 250 18:26 30.06.2019
5643 Clouds 18 1009 67 10000 9.8 250 17:59 30.06.2019
5644 Rain 18 1009 67 10000 9.8 240 17:39 30.06.2019
5645 Rain 18 1009 67 10000 9.8 240 17:18 30.06.2019
5646 Rain 17 1009 72 10000 8.7 250 16:48 30.06.2019
5647 Rain 18 1009 77 10000 8.2 240 16:26 30.06.2019
5648 Clouds 17 1010 72 10000 7.7 230 15:38 30.06.2019
5649 Rain 17 1009 72 10000 9.8 260 15:19 30.06.2019
5650 Clouds 17 1009 72 10000 9.3 250 14:53 30.06.2019
5651 Clouds 17 1009 77 10000 8.7 250 14:35 30.06.2019
5652 Rain 17 1008 72 10000 8.2 250 13:49 30.06.2019
5653 Rain 16 1008 77 10000 9.3 250 13:29 30.06.2019
5654 Rain 16 1008 93 9000 7.2 240 12:53 30.06.2019
5655 Rain 16 1007 93 4900 7.2 230 12:29 30.06.2019
5656 Rain 16 1007 87 9000 8.7 220 11:59 30.06.2019
5657 Rain 16 1007 87 9000 8.7 220 11:41 30.06.2019
5658 Rain 16 1007 87 10000 6.2 230 11:20 30.06.2019
5659 Rain 16 1007 87 10000 6.2 230 11:20 30.06.2019
5660 Clouds 16 1007 87 10000 6.7 220 10:54 30.06.2019
5661 Clouds 16 1007 87 10000 6.7 220 10:36 30.06.2019
5662 Clouds 16 1007 87 10000 8.2 220 10:18 30.06.2019
5663 Rain 16 1007 87 10000 7.7 220 09:41 30.06.2019
5664 Rain 15 1007 87 10000 8.2 220 09:19 30.06.2019
5665 Clouds 15 1007 87 10000 7.7 210 08:40 30.06.2019
5666 Clouds 15 1007 87 10000 7.7 210 08:21 30.06.2019
5667 Clouds 14 1007 87 10000 7.7 220 07:42 30.06.2019
5668 Clouds 14 1007 93 10000 6.2 220 07:22 30.06.2019
5669 Clouds 14 1007 93 10000 6.7 230 06:33 30.06.2019
5670 Haze 15 1007 93 5000 5.1 210 03:32 30.06.2019
5671 Mist 15 1008 100 3700 3.1 230 01:52 30.06.2019
5672 Mist 16 1008 93 3700 4.1 230 00:45 30.06.2019
5673 Fog 16 1008 93 8000 0.5 0 00:23 30.06.2019
5674 Mist 16 1008 93 7000 2.1 250 23:43 29.06.2019
5675 Mist 17 1008 87 10000 2.1 260 23:22 29.06.2019
5676 Mist 17 1008 88 8000 3.1 270 22:46 29.06.2019
5677 Rain 17 1009 88 6000 3.1 290 22:22 29.06.2019
5678 Drizzle 17 1009 88 9000 2.1 320 21:55 29.06.2019
5679 Drizzle 17 1009 88 8000 2.6 300 21:25 29.06.2019
5680 Drizzle 17 1010 88 7000 1.5 280 20:47 29.06.2019
5681 Rain 18 1010 88 7000 1 280 20:29 29.06.2019
5682 Rain 18 1010 88 6000 2.1 290 19:58 29.06.2019
5683 Rain 18 1010 88 6000 2.1 290 19:39 29.06.2019
5684 Rain 18 1011 93 6000 1.5 0 19:19 29.06.2019
5685 Rain 19 1011 88 7000 1 0 18:47 29.06.2019
5686 Rain 19 1012 88 7000 1.5 0 18:24 29.06.2019
5687 Thunderstorm 19 1013 93 5000 1.5 0 17:37 29.06.2019
5688 Thunderstorm 19 1013 93 5000 1.5 0 17:19 29.06.2019
5689 Rain 20 1013 93 5000 2.6 230 16:42 29.06.2019
5690 Rain 21 1013 88 8000 1 0 15:59 29.06.2019
5691 Rain 21 1014 82 10000 4.1 230 15:32 29.06.2019
5692 Clouds 21 1015 88 10000 6.2 240 14:46 29.06.2019
5693 Rain 21 1014 82 10000 3.6 270 14:27 29.06.2019
5694 Rain 22 1013 82 10000 2.1 340 13:55 29.06.2019
5695 Rain 22 1013 82 10000 2.1 340 13:36 29.06.2019
5696 Rain 22 1014 82 9000 2.1 330 13:18 29.06.2019
5697 Clouds 22 1014 82 9000 2.1 340 12:40 29.06.2019
5698 Clouds 21 1015 82 10000 3.1 230 12:21 29.06.2019
5699 Rain 20 1015 82 10000 3.1 170 11:43 29.06.2019
5700 Clouds 20 1016 77 10000 2.6 200 11:25 29.06.2019
5701 Clouds 19 1017 82 10000 1.5 280 10:49 29.06.2019
5702 Clouds 19 1016 77 10000 1.5 0 10:21 29.06.2019
5703 Clouds 18 1015 77 10000 1 0 09:57 29.06.2019
5704 Clouds 17 1015 77 10000 3.1 70 08:55 29.06.2019
5705 Clouds 16 1016 82 10000 0.5 0 08:31 29.06.2019
5706 Clouds 15 1016 87 10000 1 0 07:45 29.06.2019
5707 Clouds 14 1017 87 10000 1.5 0 06:49 29.06.2019
5708 Clouds 14 1017 82 10000 2.6 80 06:25 29.06.2019
5709 Fog 14 1017 87 10000 2.6 50 05:18 29.06.2019
5710 Clouds 15 1019 82 10000 3.1 60 01:42 29.06.2019
5711 Clear 15 1019 87 10000 3.1 40 00:49 29.06.2019
5712 Clear 16 1019 72 10000 5.1 70 23:48 28.06.2019
5713 Clear 17 1019 72 10000 4.1 80 23:21 28.06.2019
5714 Clear 16 1019 72 10000 4.6 80 22:47 28.06.2019
5715 Clear 17 1019 68 10000 4.6 80 22:19 28.06.2019
5716 Clear 18 1019 64 10000 4.6 60 21:45 28.06.2019
5717 Clear 19 1019 68 10000 5.1 50 21:19 28.06.2019
5718 Clear 20 1019 64 10000 5.1 50 20:41 28.06.2019
5719 Clear 20 1020 60 10000 5.1 60 20:19 28.06.2019
5720 Clear 20 1020 60 10000 5.7 60 19:40 28.06.2019
5721 Clear 20 1020 60 10000 6.2 60 19:21 28.06.2019
5722 Clear 21 1020 60 10000 7.7 60 18:41 28.06.2019
5723 Clear 21 1021 60 10000 7.2 50 18:21 28.06.2019
5724 Clear 21 1021 57 10000 7.7 60 17:44 28.06.2019
5725 Clear 21 1021 60 10000 7.2 60 17:25 28.06.2019
5726 Clear 22 1022 60 10000 7.2 50 16:46 28.06.2019
5727 Clear 22 1022 60 10000 7.2 50 16:19 28.06.2019
5728 Clear 21 1022 60 10000 7.2 60 15:44 28.06.2019
5729 Clear 21 1023 64 10000 6.7 60 15:18 28.06.2019
5730 Clear 21 1024 68 10000 7.2 50 14:40 28.06.2019
5731 Clear 20 1024 68 10000 7.2 50 14:21 28.06.2019
5732 Clear 20 1024 64 10000 6.7 60 13:47 28.06.2019
5733 Clear 20 1024 68 10000 7.2 60 13:28 28.06.2019
5734 Clear 19 1025 68 10000 5.7 70 12:52 28.06.2019
5735 Clear 18 1025 72 10000 6.2 50 12:33 28.06.2019
5736 Clear 16 1026 77 10000 6.2 60 11:40 28.06.2019
5737 Clear 16 1026 77 10000 6.2 60 11:18 28.06.2019
5738 Clouds 16 1026 82 10000 5.7 60 10:40 28.06.2019
5739 Clouds 14 1027 77 10000 4.6 70 10:18 28.06.2019
5740 Clouds 14 1027 82 10000 5.7 60 09:44 28.06.2019
5741 Clouds 14 1027 82 10000 4.6 70 09:25 28.06.2019
5742 Clouds 13 1027 87 10000 4.1 70 08:43 28.06.2019
5743 Clouds 12 1027 87 10000 4.6 70 08:24 28.06.2019
5744 Clouds 12 1028 93 10000 4.6 80 07:42 28.06.2019
5745 Clouds 12 1028 93 10000 4.1 70 06:54 28.06.2019
5746 Clouds 12 1029 93 10000 4.1 90 03:59 28.06.2019
5747 Clear 13 1030 77 10000 4.6 60 00:47 28.06.2019
5748 Clear 14 1030 72 10000 5.7 70 00:19 28.06.2019
5749 Clear 14 1029 72 10000 6.2 80 23:43 27.06.2019
5750 Clear 15 1029 67 10000 6.2 70 23:22 27.06.2019
5751 Clear 16 1029 63 10000 5.7 70 22:43 27.06.2019
5752 Clear 16 1029 59 10000 6.7 80 22:25 27.06.2019
5753 Clear 17 1028 60 10000 7.2 60 21:57 27.06.2019
5754 Clear 17 1028 60 10000 7.2 60 21:38 27.06.2019
5755 Clear 19 1028 60 10000 6.7 50 21:19 27.06.2019
5756 Clear 19 1028 56 10000 7.2 60 20:45 27.06.2019
5757 Clear 20 1028 53 10000 5.7 50 20:27 27.06.2019
5758 Clear 21 1028 50 10000 6.2 40 19:47 27.06.2019
5759 Clear 21 1029 47 10000 6.2 50 19:27 27.06.2019
5760 Clear 22 1029 50 10000 5.7 50 18:51 27.06.2019
5761 Clear 22 1029 47 10000 5.1 50 18:30 27.06.2019
5762 Clear 23 1029 47 10000 3.1 50 17:47 27.06.2019
5763 Clear 23 1030 47 10000 3.1 30 17:24 27.06.2019
5764 Clear 23 1030 44 10000 2.1 340 16:55 27.06.2019
5765 Clear 24 1030 44 10000 2.1 340 16:37 27.06.2019
5766 Clear 23 1030 47 10000 3.1 20 16:18 27.06.2019
5767 Clear 24 1031 47 10000 2.1 0 15:44 27.06.2019
5768 Clear 23 1031 47 10000 2.1 320 15:21 27.06.2019
5769 Clear 24 1031 47 10000 1 0 14:43 27.06.2019
5770 Clear 23 1031 50 10000 2.6 10 14:24 27.06.2019
5771 Clear 23 1032 49 10000 1.5 0 13:48 27.06.2019
5772 Clear 23 1032 53 10000 1.5 0 13:30 27.06.2019
5773 Clear 23 1032 60 10000 1.5 0 12:52 27.06.2019
5774 Clear 23 1032 60 10000 1.5 0 12:52 27.06.2019
5775 Clear 22 1032 64 10000 1 0 12:33 27.06.2019
5776 Clear 21 1032 64 10000 1 0 11:56 27.06.2019
5777 Clear 21 1032 63 10000 1 0 11:38 27.06.2019
5778 Clear 20 1032 63 10000 1 0 11:20 27.06.2019
5779 Clear 19 1033 68 10000 1 0 10:42 27.06.2019
5780 Clear 18 1033 72 10000 1 0 10:20 27.06.2019
5781 Clear 17 1033 72 10000 1 0 09:50 27.06.2019
5782 Clear 16 1033 82 10000 1 0 09:22 27.06.2019
5783 Clear 14 1033 82 10000 1 0 08:52 27.06.2019
5784 Clear 13 1033 87 10000 0.5 0 08:30 27.06.2019
5785 Clear 11 1033 100 10000 0.5 0 07:49 27.06.2019
5786 Clear 11 1033 100 10000 0.5 0 07:49 27.06.2019
5787 Fog 10 1033 100 10000 1 260 07:25 27.06.2019
5788 Fog 10 1032 100 10000 1.5 270 06:39 27.06.2019
5789 Clear 10 1032 93 10000 1.5 250 03:53 27.06.2019
5790 Clear 11 1032 87 10000 1.5 20 02:43 27.06.2019
5791 Clear 11 1032 87 10000 2.1 300 01:46 27.06.2019
5792 Clear 12 1032 81 10000 2.6 240 00:54 27.06.2019
5793 Clear 13 1031 76 10000 2.6 240 00:29 27.06.2019
5794 Clear 14 1031 72 10000 1.5 240 23:52 26.06.2019
5795 Clear 15 1031 67 10000 2.6 260 23:23 26.06.2019
5796 Clear 14 1032 77 10000 1 0 22:59 26.06.2019
5797 Clear 15 1032 77 10000 1 0 22:40 26.06.2019
5798 Clear 15 1032 77 10000 1 0 22:40 26.06.2019
5799 Clear 15 1031 77 10000 1.5 300 22:20 26.06.2019
5800 Clear 16 1031 72 10000 2.1 230 21:43 26.06.2019
5801 Clear 18 1030 56 10000 3.1 270 21:21 26.06.2019
5802 Clear 19 1030 53 10000 2.1 230 20:57 26.06.2019
5803 Clear 19 1030 53 10000 2.1 230 20:38 26.06.2019
5804 Clear 20 1030 53 10000 1 0 20:20 26.06.2019
5805 Clear 20 1030 53 10000 1 0 19:43 26.06.2019
5806 Clear 20 1030 53 10000 1.5 0 19:25 26.06.2019
5807 Clear 20 1031 53 10000 2.1 250 18:46 26.06.2019
5808 Clear 20 1031 53 10000 1 0 18:23 26.06.2019
5809 Clear 20 1031 52 10000 1 0 17:58 26.06.2019
5810 Clear 20 1031 52 10000 1 0 17:38 26.06.2019
5811 Clear 20 1031 52 10000 0.5 0 17:19 26.06.2019
5812 Clear 20 1031 56 10000 1.5 0 16:46 26.06.2019
5813 Clear 20 1031 59 10000 2.1 210 16:23 26.06.2019
5814 Clear 19 1032 59 10000 1 0 15:40 26.06.2019
5815 Clouds 18 1032 63 10000 1.5 0 15:22 26.06.2019
5816 Clouds 17 1032 67 10000 2.1 100 14:38 26.06.2019
5817 Clouds 17 1032 67 10000 2.1 100 14:19 26.06.2019
5818 Clouds 16 1032 67 10000 1.5 0 13:43 26.06.2019
5819 Clouds 16 1032 67 10000 2.6 80 13:20 26.06.2019
5820 Clouds 15 1032 67 10000 2.6 80 12:42 26.06.2019
5821 Clouds 14 1032 72 10000 2.6 80 12:23 26.06.2019
5822 Clouds 14 1032 76 10000 2.6 60 11:48 26.06.2019
5823 Clouds 14 1032 72 10000 2.1 70 11:20 26.06.2019
5824 Clouds 13 1032 82 10000 2.1 80 10:45 26.06.2019
5825 Clouds 13 1032 76 10000 3.1 90 10:25 26.06.2019
5826 Clouds 12 1031 76 10000 2.1 100 09:44 26.06.2019
5827 Clouds 12 1031 81 10000 3.1 80 09:19 26.06.2019
5828 Clouds 12 1031 81 10000 2.6 30 08:44 26.06.2019
5829 Clouds 11 1031 87 10000 2.1 60 08:20 26.06.2019
5830 Clouds 11 1030 87 10000 2.6 60 07:46 26.06.2019
5831 Clouds 11 1030 81 10000 2.6 70 06:40 26.06.2019
5832 Clouds 11 1030 81 10000 2.6 60 06:21 26.06.2019
5833 Clouds 12 1029 76 10000 3.6 80 01:24 26.06.2019
5834 Clouds 12 1028 82 10000 4.1 70 00:24 26.06.2019
5835 Clouds 13 1028 82 10000 5.1 60 23:45 25.06.2019
5836 Clouds 13 1028 77 10000 5.1 70 23:27 25.06.2019
5837 Clouds 13 1027 77 10000 4.6 70 22:56 25.06.2019
5838 Clouds 13 1027 77 10000 4.6 70 22:37 25.06.2019
5839 Clouds 14 1027 72 10000 5.7 70 22:19 25.06.2019
5840 Clouds 14 1026 77 10000 4.6 50 21:41 25.06.2019
5841 Clouds 15 1026 77 10000 5.1 60 21:21 25.06.2019
5842 Rain 15 1026 77 10000 5.1 60 20:45 25.06.2019
5843 Rain 15 1026 77 10000 5.1 60 20:45 25.06.2019
5844 Clouds 16 1026 77 10000 4.6 50 20:22 25.06.2019
5845 Rain 16 1025 72 10000 3.6 50 19:45 25.06.2019
5846 Rain 16 1025 72 10000 3.6 50 19:45 25.06.2019
5847 Rain 16 1025 72 10000 4.1 60 19:23 25.06.2019
5848 Clouds 17 1025 72 10000 4.6 70 18:45 25.06.2019
5849 Clouds 17 1025 72 10000 4.6 70 18:45 25.06.2019
5850 Clouds 17 1025 72 10000 4.6 90 18:26 25.06.2019
5851 Clouds 17 1025 72 10000 4.6 70 18:01 25.06.2019
5852 -273 0 0 0 0 0 18:01 25.06.2019
5853 -273 0 0 0 0 0 17:30 25.06.2019
5854 -273 0 0 0 0 0 17:29 25.06.2019
5855 Clouds 17 1025 72 10000 4.6 80 16:57 25.06.2019
5856 Clouds 17 1025 72 10000 4.6 80 16:39 25.06.2019
5857 Clouds 17 1025 68 10000 5.7 80 16:21 25.06.2019
5858 Clouds 17 1024 68 10000 5.1 90 15:42 25.06.2019
5859 Clouds 17 1024 64 10000 5.1 100 15:24 25.06.2019
5860 Clouds 17 1024 68 10000 6.2 90 14:54 25.06.2019
5861 Clouds 17 1024 68 10000 5.1 90 14:35 25.06.2019
5862 Clouds 17 1023 68 10000 5.7 80 13:47 25.06.2019
5863 Rain 17 1023 68 10000 5.7 80 13:28 25.06.2019
5864 Rain 17 1023 68 10000 5.1 70 12:44 25.06.2019
5865 Clouds 17 1023 68 10000 4.6 80 12:25 25.06.2019
5866 Clouds 16 1023 72 10000 4.1 80 11:55 25.06.2019
5867 Clouds 17 1023 72 10000 4.1 80 11:37 25.06.2019
5868 Clouds 16 1023 77 10000 4.1 70 11:18 25.06.2019
5869 Clouds 16 1022 82 10000 4.6 70 10:42 25.06.2019
5870 Clouds 15 1022 82 10000 3.6 60 10:22 25.06.2019
5871 Rain 15 1022 82 10000 4.1 60 09:55 25.06.2019
5872 Rain 14 1022 82 10000 4.1 70 09:37 25.06.2019
5873 Rain 14 1022 82 10000 4.1 70 09:18 25.06.2019
5874 Clouds 14 1022 100 7000 3.6 90 08:37 25.06.2019
5875 Clouds 13 1022 100 7000 3.6 90 08:19 25.06.2019
5876 Clouds 13 1021 93 6000 1.5 0 07:39 25.06.2019
5877 Mist 13 1021 93 5000 1 40 06:52 25.06.2019
5878 Clouds 13 1021 93 6000 1.5 10 06:28 25.06.2019
5879 Mist 13 1021 93 5000 1.5 40 02:45 25.06.2019
5880 Clouds 13 1021 100 7000 1.5 60 01:38 25.06.2019
5881 Mist 13 1020 100 5000 1 0 00:35 25.06.2019
5882 Drizzle 13 1020 100 5000 1.5 70 23:53 24.06.2019
5883 Rain 14 1020 100 6000 1.5 0 23:34 24.06.2019
5884 Rain 14 1020 100 7000 1 0 22:59 24.06.2019
5885 Rain 13 1019 100 7000 2.6 110 22:39 24.06.2019
5886 Rain 13 1019 100 7000 2.6 110 22:18 24.06.2019
5887 Rain 14 1019 100 9000 3.1 110 21:39 24.06.2019
5888 Rain 14 1019 93 10000 2.1 100 21:19 24.06.2019
5889 Rain 14 1019 93 10000 2.6 110 20:55 24.06.2019
5890 Rain 14 1019 93 10000 3.1 80 20:37 24.06.2019
5891 Rain 14 1019 93 10000 3.1 80 20:18 24.06.2019
5892 Rain 14 1018 87 10000 3.1 60 19:41 24.06.2019
5893 Rain 14 1018 87 10000 4.1 70 19:21 24.06.2019
5894 Rain 14 1018 87 10000 2.6 70 18:43 24.06.2019
5895 Rain 14 1018 87 10000 3.6 70 18:24 24.06.2019
5896 Rain 14 1018 93 10000 1.5 0 17:42 24.06.2019
5897 Rain 14 1018 93 10000 2.1 0 17:24 24.06.2019
5898 Thunderstorm 14 1018 93 4000 4.6 50 16:45 24.06.2019
5899 Rain 14 1019 87 10000 2.1 120 16:20 24.06.2019
5900 Rain 14 1018 87 10000 3.6 80 15:46 24.06.2019
5901 Thunderstorm 14 1019 87 10000 5.7 90 15:27 24.06.2019
5902 Rain 14 1018 87 10000 4.1 80 14:42 24.06.2019
5903 Rain 13 1018 87 8000 4.1 70 14:24 24.06.2019
5904 Rain 13 1018 87 10000 4.6 70 13:45 24.06.2019
5905 Rain 13 1019 87 10000 6.2 60 13:23 24.06.2019
5906 Rain 13 1019 87 10000 6.2 70 12:42 24.06.2019
5907 Rain 13 1019 93 10000 5.1 60 12:21 24.06.2019
5908 Drizzle 13 1019 93 10000 6.2 70 11:46 24.06.2019
5909 Drizzle 13 1018 93 10000 6.2 60 11:27 24.06.2019
5910 Mist 13 1018 93 10000 6.2 70 10:53 24.06.2019
5911 Rain 13 1018 93 10000 5.7 70 10:34 24.06.2019
5912 Rain 12 1018 93 10000 5.7 60 09:59 24.06.2019
5913 Rain 12 1018 93 10000 5.7 60 09:41 24.06.2019
5914 Rain 13 1018 93 10000 4.6 60 09:19 24.06.2019
5915 Rain 13 1018 93 10000 5.7 60 08:41 24.06.2019
5916 Clouds 13 1018 93 10000 5.1 70 07:59 24.06.2019
5917 Clouds 13 1018 93 10000 5.1 70 07:40 24.06.2019
5918 Rain 13 1018 93 10000 5.1 60 07:21 24.06.2019
5919 Rain 13 1019 93 10000 4.1 70 06:23 24.06.2019
5920 Rain 12 1019 93 9000 5.7 60 05:40 24.06.2019
5921 Rain 13 1020 93 10000 5.1 60 04:43 24.06.2019
5922 Rain 13 1020 87 10000 6.2 60 03:48 24.06.2019
5923 Rain 13 1021 82 10000 6.7 70 02:36 24.06.2019
5924 Rain 13 1021 82 10000 6.7 70 01:55 24.06.2019
5925 Rain 13 1021 82 10000 7.7 70 01:31 24.06.2019
5926 Rain 13 1021 76 10000 7.7 70 00:46 24.06.2019
5927 Rain 13 1021 76 10000 6.7 70 00:20 24.06.2019
5928 Rain 13 1021 76 10000 8.2 70 23:48 23.06.2019
5929 Rain 13 1021 76 10000 8.2 70 23:48 23.06.2019
5930 Clouds 14 1020 62 10000 6.7 60 23:28 23.06.2019
5931 Clouds 14 1020 62 10000 6.2 60 22:57 23.06.2019
5932 Clouds 14 1020 55 10000 7.2 60 22:39 23.06.2019
5933 Clouds 15 1020 55 10000 7.2 60 22:19 23.06.2019
5934 Clouds 15 1020 55 10000 6.7 60 21:41 23.06.2019
5935 Clouds 15 1020 55 10000 6.7 60 21:41 23.06.2019
5936 Rain 16 1020 45 10000 8.2 80 21:22 23.06.2019
5937 Rain 17 1020 48 10000 8.2 80 20:49 23.06.2019
5938 Rain 17 1019 45 10000 6.7 80 20:29 23.06.2019
5939 Rain 18 1019 42 10000 7.2 100 19:47 23.06.2019
5940 Rain 19 1019 40 10000 6.7 100 19:23 23.06.2019
5941 Clouds 19 1019 56 10000 5.7 80 18:55 23.06.2019
5942 Clouds 21 1019 60 10000 7.2 70 18:36 23.06.2019
5943 Clouds 20 1019 60 10000 7.2 70 18:18 23.06.2019
5944 Rain 21 1019 56 10000 7.7 60 17:39 23.06.2019
5945 Rain 21 1019 56 10000 8.2 60 17:21 23.06.2019
5946 Rain 21 1019 60 10000 7.2 70 16:43 23.06.2019
5947 Rain 21 1019 64 10000 8.2 50 16:24 23.06.2019
5948 Rain 21 1019 60 10000 7.2 70 15:42 23.06.2019
5949 Clouds 20 1019 64 10000 6.7 50 15:23 23.06.2019
5950 Clouds 20 1020 68 10000 5.7 50 14:56 23.06.2019
5951 Clouds 20 1020 68 10000 5.7 40 14:37 23.06.2019
5952 Clouds 20 1020 68 10000 5.7 40 14:18 23.06.2019
5953 Clouds 20 1020 68 10000 5.1 60 13:42 23.06.2019
5954 Rain 20 1020 72 10000 4.6 50 13:20 23.06.2019
5955 Rain 19 1020 72 10000 5.1 50 12:54 23.06.2019
5956 Rain 17 1021 77 10000 4.6 60 12:36 23.06.2019
5957 Clouds 17 1021 77 10000 4.6 60 12:18 23.06.2019
5958 Clouds 16 1021 82 10000 4.1 60 11:42 23.06.2019
5959 Clouds 15 1021 82 10000 4.1 60 11:24 23.06.2019
5960 Clouds 15 1021 77 10000 4.6 70 10:47 23.06.2019
5961 Clouds 15 1020 82 10000 3.6 70 10:20 23.06.2019
5962 Clouds 14 1020 82 10000 4.1 60 09:53 23.06.2019
5963 Clouds 14 1020 82 10000 4.1 70 09:21 23.06.2019
5964 Clouds 13 1020 87 10000 4.6 70 08:46 23.06.2019
5965 Clouds 13 1020 87 10000 4.6 70 08:27 23.06.2019
5966 Clouds 13 1020 82 10000 4.1 60 08:27 23.06.2019
5967 Clouds 12 1020 87 10000 2.1 50 07:55 23.06.2019
5968 Clouds 12 1020 93 10000 2.1 20 07:24 23.06.2019
5969 Clouds 12 1020 93 10000 1.5 0 06:54 23.06.2019
5970 Clouds 11 1020 100 10000 2.6 60 05:55 23.06.2019
5971 Clouds 11 1020 100 10000 2.6 60 05:55 23.06.2019
5972 Clouds 11 1020 93 10000 1.5 30 04:38 23.06.2019
5973 Clouds 12 1020 76 10000 2.6 70 02:19 23.06.2019
5974 Clouds 12 1020 76 10000 2.1 80 01:37 23.06.2019
5975 Clouds 12 1020 76 10000 1.5 40 00:37 23.06.2019
5976 Rain 13 1020 81 10000 2.1 20 23:57 22.06.2019
5977 Rain 14 1020 71 10000 1.5 40 23:38 22.06.2019
5978 Rain 15 1020 71 10000 1.5 40 23:19 22.06.2019
5979 Rain 15 1020 71 10000 1 30 22:44 22.06.2019
5980 Rain 16 1019 67 10000 1.5 40 22:19 22.06.2019
5981 Rain 16 1019 63 10000 2.1 30 21:39 22.06.2019
5982 Rain 17 1019 63 10000 2.1 30 21:20 22.06.2019
5983 Rain 18 1019 52 10000 1.5 40 20:50 22.06.2019
5984 Clouds 18 1019 48 10000 1 0 20:25 22.06.2019
5985 Clouds 18 1019 48 10000 0.5 0 19:48 22.06.2019
5986 Clouds 18 1020 48 10000 1 0 19:23 22.06.2019
5987 Clouds 18 1020 51 10000 2.1 110 18:50 22.06.2019
5988 Clear 18 1020 51 10000 2.6 140 18:32 22.06.2019
5989 Clouds 17 1020 48 10000 3.6 200 17:57 22.06.2019
5990 Clouds 18 1020 48 10000 1 0 17:35 22.06.2019
5991 Clouds 18 1020 48 10000 3.6 230 16:52 22.06.2019
5992 Clouds 18 1020 55 10000 3.6 250 16:25 22.06.2019
5993 Clouds 18 1021 52 10000 2.6 270 15:58 22.06.2019
5994 Clouds 18 1021 52 10000 2.6 270 15:39 22.06.2019
5995 Rain 18 1021 51 10000 2.6 230 15:21 22.06.2019
5996 Rain 18 1021 55 10000 2.1 260 14:37 22.06.2019
5997 Rain 18 1021 55 10000 3.1 230 14:18 22.06.2019
5998 Rain 18 1021 55 10000 2.6 220 13:41 22.06.2019
5999 Clouds 17 1021 55 10000 3.1 230 13:21 22.06.2019
6000 Clouds 17 1021 55 10000 4.1 240 12:50 22.06.2019
6001 Clouds 16 1021 59 10000 4.6 210 12:32 22.06.2019
6002 Clouds 16 1021 58 10000 4.6 200 11:58 22.06.2019
6003 Clouds 16 1021 59 10000 3.6 210 11:33 22.06.2019
6004 Clouds 16 1021 62 10000 2.1 0 10:49 22.06.2019
6005 Clouds 15 1021 58 10000 1 0 10:21 22.06.2019
6006 Clouds 14 1021 71 10000 1.5 0 09:46 22.06.2019
6007 Clouds 12 1021 71 10000 1.5 0 09:22 22.06.2019
6008 Clouds 11 1021 71 10000 1 0 08:42 22.06.2019
6009 Clouds 11 1021 76 10000 1.5 0 08:20 22.06.2019
6010 Clouds 10 1021 81 10000 3.1 70 07:30 22.06.2019
6011 Clouds 9 1021 87 10000 2.6 50 06:47 22.06.2019
6012 Clouds 9 1021 87 10000 1.5 0 05:22 22.06.2019
6013 Clouds 9 1021 93 10000 1.5 40 02:33 22.06.2019
6014 Clouds 10 1021 87 10000 1.5 0 01:18 22.06.2019
6015 Clouds 9 1021 81 10000 1.5 0 00:38 22.06.2019
6016 Clear 10 1021 76 10000 2.6 230 23:59 21.06.2019
6017 Clear 10 1021 76 10000 2.6 230 23:39 21.06.2019
6018 Clear 12 1020 71 10000 1.5 260 23:19 21.06.2019
6019 Clear 12 1020 71 10000 1.5 260 23:19 21.06.2019
6020 Clear 13 1020 66 10000 2.6 270 22:43 21.06.2019
6021 Clear 13 1020 58 10000 3.1 260 22:23 21.06.2019
6022 Clear 14 1020 58 10000 3.1 260 21:40 21.06.2019
6023 Clear 15 1020 58 10000 4.1 260 21:22 21.06.2019
6024 Clouds 16 1020 54 10000 4.6 250 20:53 21.06.2019
6025 Clouds 16 1020 54 10000 4.6 250 20:53 21.06.2019
6026 Clear 16 1019 51 10000 5.1 250 20:27 21.06.2019
6027 Clouds 16 1019 51 10000 4.6 270 19:55 21.06.2019
6028 Clouds 16 1019 54 10000 4.1 270 19:23 21.06.2019
6029 Clouds 17 1019 55 10000 4.6 280 18:43 21.06.2019
6030 Clouds 17 1019 55 10000 4.6 280 18:43 21.06.2019
6031 Clouds 16 1019 51 10000 5.1 290 18:25 21.06.2019
6032 Clouds 16 1019 55 10000 5.7 280 17:41 21.06.2019
6033 Clouds 16 1018 55 10000 5.1 260 17:23 21.06.2019
6034 Rain 16 1018 51 10000 6.7 260 16:38 21.06.2019
6035 Rain 16 1018 51 10000 6.7 260 16:19 21.06.2019
6036 Clouds 16 1018 59 10000 5.7 260 15:39 21.06.2019
6037 Clouds 16 1018 54 10000 5.7 280 15:18 21.06.2019
6038 Clouds 16 1017 62 10000 5.7 260 14:44 21.06.2019
6039 Clouds 15 1017 62 10000 4.6 300 14:24 21.06.2019
6040 Clouds 15 1018 62 10000 4.1 270 13:42 21.06.2019
6041 Clouds 15 1016 62 10000 5.1 260 13:23 21.06.2019
6042 Clouds 15 1016 67 10000 5.1 240 12:54 21.06.2019
6043 Clouds 14 1016 66 10000 5.1 250 12:23 21.06.2019
6044 Rain 14 1016 66 10000 5.1 270 11:56 21.06.2019
6045 Rain 13 1015 71 10000 4.6 260 11:38 21.06.2019
6046 Rain 13 1015 71 10000 4.6 260 11:19 21.06.2019
6047 Rain 13 1015 71 10000 4.6 260 11:19 21.06.2019
6048 Rain 13 1015 71 10000 4.6 260 11:19 21.06.2019
6049 Rain 12 1015 76 10000 4.6 250 10:44 21.06.2019
6050 Clouds 12 1015 76 10000 5.7 260 10:21 21.06.2019
6051 Rain 12 1015 71 10000 4.6 260 09:43 21.06.2019
6052 Clear 11 1014 76 10000 5.7 250 09:23 21.06.2019
6053 Rain 11 1014 81 10000 4.6 250 08:56 21.06.2019
6054 Rain 11 1014 81 10000 4.6 250 08:56 21.06.2019
6055 Clouds 10 1014 81 10000 4.1 260 08:37 21.06.2019
6056 Clouds 10 1014 81 10000 4.1 260 08:19 21.06.2019
6057 Rain 9 1013 87 10000 3.6 260 07:44 21.06.2019
6058 Rain 9 1013 93 10000 3.6 250 07:22 21.06.2019
6059 Clouds 9 1012 93 10000 4.1 240 06:29 21.06.2019
6060 Clouds 9 1012 93 10000 3.6 240 05:48 21.06.2019
6061 Clouds 9 1012 93 10000 3.6 240 04:48 21.06.2019
6062 Clear 8 1012 93 10000 4.1 230 03:47 21.06.2019
6063 Rain 9 1012 93 10000 4.6 230 03:24 21.06.2019
6064 Rain 9 1012 87 10000 3.6 250 02:26 21.06.2019
6065 Rain 9 1011 93 10000 3.1 220 01:30 21.06.2019
6066 Rain 10 1011 87 10000 3.6 240 00:36 21.06.2019
6067 Rain 10 1011 81 10000 4.1 250 23:56 20.06.2019
6068 Clear 10 1011 81 10000 4.6 240 23:37 20.06.2019
6069 Clear 11 1011 81 10000 4.6 240 23:19 20.06.2019
6070 Clear 11 1010 76 10000 4.6 250 22:41 20.06.2019
6071 Clear 12 1010 71 10000 5.1 250 22:23 20.06.2019
6072 Clouds 12 1010 71 10000 6.2 260 21:56 20.06.2019
6073 Clouds 12 1010 71 10000 6.2 260 21:37 20.06.2019
6074 Clouds 13 1010 66 10000 4.6 250 21:18 20.06.2019
6075 Rain 13 1009 66 10000 6.2 260 20:41 20.06.2019
6076 Clouds 14 1009 66 10000 5.1 260 20:22 20.06.2019
6077 Clouds 14 1009 62 10000 6.7 260 19:45 20.06.2019
6078 Clouds 14 1009 71 10000 4.6 260 19:19 20.06.2019
6079 Rain 14 1009 71 10000 6.7 270 18:57 20.06.2019
6080 Rain 14 1009 71 10000 6.7 270 18:38 20.06.2019
6081 Rain 14 1009 67 10000 7.7 260 18:20 20.06.2019
6082 Clouds 15 1009 62 10000 7.7 260 17:45 20.06.2019
6083 Rain 14 1009 76 10000 6.2 250 17:25 20.06.2019
6084 Rain 14 1008 71 10000 6.7 260 16:42 20.06.2019
6085 Rain 14 1008 76 10000 7.2 240 16:19 20.06.2019
6086 Rain 14 1008 81 10000 6.2 260 15:44 20.06.2019
6087 Rain 14 1007 76 10000 7.7 240 15:24 20.06.2019
6088 Clouds 14 1007 67 10000 8.7 240 14:58 20.06.2019
6089 Clouds 14 1007 67 10000 8.7 240 14:39 20.06.2019
6090 Rain 14 1007 76 10000 8.2 240 14:19 20.06.2019
6091 Rain 14 1007 71 10000 9.3 240 13:39 20.06.2019
6092 Rain 14 1007 71 10000 8.2 230 13:19 20.06.2019
6093 Rain 14 1007 82 10000 7.2 230 12:43 20.06.2019
6094 Clouds 13 1006 76 10000 8.2 230 12:22 20.06.2019
6095 Rain 13 1006 76 10000 8.7 230 11:43 20.06.2019
6096 Rain 12 1006 76 10000 7.2 230 11:23 20.06.2019
6097 Clouds 12 1006 76 10000 6.7 230 10:45 20.06.2019
6098 Clouds 12 1006 76 10000 6.7 230 10:45 20.06.2019
6099 Clouds 12 1006 81 10000 6.2 240 10:24 20.06.2019
6100 Rain 12 1006 76 10000 5.7 240 09:57 20.06.2019
6101 Rain 12 1006 76 10000 5.7 240 09:38 20.06.2019
6102 Rain 11 1006 87 10000 4.1 270 09:20 20.06.2019
6103 Rain 11 1006 87 10000 4.6 230 08:44 20.06.2019
6104 Rain 10 1006 93 10000 4.1 230 08:25 20.06.2019
6105 Rain 10 1006 93 10000 3.1 220 07:50 20.06.2019
6106 Rain 9 1005 93 10000 4.1 240 07:25 20.06.2019
6107 Rain 9 1005 93 10000 4.6 220 06:22 20.06.2019
6108 Rain 10 1005 93 10000 2.6 220 03:41 20.06.2019
6109 Rain 11 1005 93 10000 2.1 260 02:28 20.06.2019
6110 Rain 12 1006 87 10000 0.5 0 00:33 20.06.2019
6111 Rain 12 1006 87 10000 0.5 0 23:48 19.06.2019
6112 Rain 12 1006 87 10000 0.5 0 23:29 19.06.2019
6113 Rain 12 1006 93 10000 1 230 22:49 19.06.2019
6114 Rain 13 1006 93 10000 2.1 200 22:24 19.06.2019
6115 Rain 13 1006 100 10000 2.1 240 21:58 19.06.2019
6116 Rain 13 1006 87 7000 4.6 270 21:38 19.06.2019
6117 Rain 15 1006 87 7000 4.6 270 21:20 19.06.2019
6118 Rain 15 1006 76 10000 4.1 280 20:41 19.06.2019
6119 Clouds 16 1006 72 10000 4.1 270 20:21 19.06.2019
6120 Rain 16 1006 63 10000 5.1 230 19:46 19.06.2019
6121 Clouds 17 1006 63 10000 5.7 240 19:26 19.06.2019
6122 Clouds 17 1006 63 10000 5.7 210 18:56 19.06.2019
6123 Rain 17 1006 63 10000 7.2 210 18:24 19.06.2019
6124 Clouds 18 1006 67 10000 5.1 230 17:48 19.06.2019
6125 -273 0 0 0 0 0 17:27 19.06.2019
6126 Clouds 18 1006 63 10000 6.2 230 16:56 19.06.2019
6127 Clouds 18 1007 63 10000 6.2 240 16:37 19.06.2019
6128 Clouds 17 1007 63 10000 6.2 240 16:19 19.06.2019
6129 Rain 18 1007 67 10000 5.7 240 15:44 19.06.2019
6130 Clouds 18 1007 67 10000 6.7 230 15:24 19.06.2019
6131 Clouds 18 1007 63 10000 5.7 230 14:43 19.06.2019
6132 Clouds 18 1007 55 10000 5.1 220 14:25 19.06.2019
6133 Clouds 18 1007 59 10000 6.2 230 13:48 19.06.2019
6134 Clouds 17 1007 55 10000 6.2 230 13:29 19.06.2019
6135 Clouds 17 1007 59 10000 7.2 210 12:59 19.06.2019
6136 Clouds 17 1007 59 10000 7.2 210 12:40 19.06.2019
6137 Clouds 16 1007 63 10000 6.2 230 12:18 19.06.2019
6138 Rain 16 1007 67 10000 4.6 220 11:42 19.06.2019
6139 Clouds 16 1007 76 10000 4.1 230 11:21 19.06.2019
6140 Clouds 15 1007 72 10000 4.6 200 10:49 19.06.2019
6141 Clouds 15 1007 82 10000 4.1 220 10:28 19.06.2019
6142 Clouds 14 1008 82 10000 4.6 210 09:56 19.06.2019
6143 Clouds 14 1008 82 10000 4.1 180 09:36 19.06.2019
6144 Clouds 13 1008 82 10000 4.1 180 09:18 19.06.2019
6145 Clouds 12 1008 87 10000 4.6 190 08:43 19.06.2019
6146 Clouds 11 1008 87 10000 3.1 200 08:24 19.06.2019
6147 Clouds 10 1008 100 10000 0.5 0 07:43 19.06.2019
6148 Fog 10 1008 100 10000 0.5 320 07:22 19.06.2019
6149 Fog 9 1008 100 10000 1 310 06:36 19.06.2019
6150 Fog 9 1008 100 10000 0.5 360 06:18 19.06.2019
6151 Fog 9 1008 100 10000 0.5 0 05:24 19.06.2019
6152 Clouds 11 1009 81 10000 1.5 140 03:53 19.06.2019
6153 Clouds 11 1009 87 10000 1.5 120 02:35 19.06.2019
6154 Clouds 11 1010 87 10000 1 0 01:37 19.06.2019
6155 Rain 12 1010 87 10000 1.5 0 00:54 19.06.2019
6156 Rain 12 1010 87 10000 1.5 0 00:35 19.06.2019
6157 Clouds 13 1010 87 10000 3.1 230 23:58 18.06.2019
6158 Rain 13 1010 82 10000 1.5 260 23:31 18.06.2019
6159 Clouds 13 1010 82 10000 2.1 240 22:56 18.06.2019
6160 Rain 14 1010 87 10000 3.1 240 22:37 18.06.2019
6161 Rain 14 1010 87 10000 3.1 240 22:19 18.06.2019
6162 Rain 14 1010 87 10000 2.6 270 21:44 18.06.2019
6163 Rain 14 1010 87 10000 2.6 250 21:22 18.06.2019
6164 Rain 15 1010 82 10000 3.6 240 20:58 18.06.2019
6165 Rain 15 1010 82 10000 3.6 240 20:38 18.06.2019
6166 Clouds 15 1010 76 10000 4.6 230 20:18 18.06.2019
6167 Clouds 16 1010 72 10000 4.6 220 19:39 18.06.2019
6168 Clouds 16 1010 76 10000 4.1 220 19:20 18.06.2019
6169 Clouds 16 1010 76 10000 5.7 230 18:48 18.06.2019
6170 Clouds 16 1011 82 10000 5.7 230 18:25 18.06.2019
6171 Rain 16 1011 82 10000 6.2 240 17:46 18.06.2019
6172 Clouds 16 1011 72 10000 7.2 220 17:21 18.06.2019
6173 Rain 16 1011 72 10000 7.2 230 16:57 18.06.2019
6174 Rain 17 1011 72 10000 7.2 230 16:38 18.06.2019
6175 Clouds 16 1011 72 10000 7.7 210 16:20 18.06.2019
6176 Clouds 16 1011 67 10000 7.7 220 15:38 18.06.2019
6177 Rain 16 1011 72 10000 7.7 220 15:20 18.06.2019
6178 Clouds 15 1011 72 10000 8.7 210 14:55 18.06.2019
6179 Clouds 16 1011 67 10000 8.7 220 14:36 18.06.2019
6180 Clouds 16 1011 67 10000 8.7 220 14:18 18.06.2019
6181 Clouds 15 1011 77 10000 9.3 220 13:41 18.06.2019
6182 Clouds 15 1010 76 10000 7.7 220 13:22 18.06.2019
6183 Clouds 15 1010 82 10000 7.2 230 12:44 18.06.2019
6184 Clouds 15 1010 76 10000 8.7 220 12:25 18.06.2019
6185 Clouds 14 1010 81 10000 8.7 210 11:47 18.06.2019
6186 Clouds 14 1010 76 10000 8.7 220 11:23 18.06.2019
6187 Clouds 14 1010 76 10000 11.3 210 10:57 18.06.2019
6188 Clouds 14 1010 76 10000 11.3 210 10:38 18.06.2019
6189 Clouds 14 1010 82 10000 9.3 210 10:19 18.06.2019
6190 Clouds 14 1010 76 10000 9.3 210 09:49 18.06.2019
6191 Clouds 13 1010 82 10000 8.7 210 09:24 18.06.2019
6192 Clouds 13 1010 82 10000 7.7 220 08:46 18.06.2019
6193 Clouds 12 1009 87 10000 6.7 210 08:21 18.06.2019
6194 Clouds 12 1009 87 10000 6.7 210 08:21 18.06.2019
6195 Clouds 11 1009 87 10000 5.1 200 07:41 18.06.2019
6196 Clouds 11 1009 87 10000 5.1 210 07:23 18.06.2019
6197 Clouds 11 1010 87 10000 4.6 200 06:44 18.06.2019
6198 Clear 11 1010 87 10000 6.2 210 05:21 18.06.2019
6199 Clear 11 1010 93 10000 3.1 260 02:53 18.06.2019
6200 Clear 11 1010 93 10000 1 0 01:55 18.06.2019
6201 Clear 12 1010 93 10000 2.1 230 01:25 18.06.2019
6202 Rain 12 1010 93 10000 3.1 230 00:55 18.06.2019
6203 Clear 12 1010 87 10000 4.6 210 00:27 18.06.2019
6204 Clear 12 1010 87 10000 4.1 230 23:41 17.06.2019
6205 Rain 12 1010 87 10000 5.7 220 23:20 17.06.2019
6206 Clear 13 1010 87 10000 5.1 210 22:56 17.06.2019
6207 Clear 13 1010 87 10000 5.1 210 22:37 17.06.2019
6208 Rain 13 1010 93 10000 5.1 210 22:19 17.06.2019
6209 Rain 14 1010 87 10000 5.7 210 21:42 17.06.2019
6210 Rain 14 1010 93 10000 5.1 210 21:21 17.06.2019
6211 Rain 14 1009 87 10000 6.2 220 20:37 17.06.2019
6212 Rain 14 1009 87 10000 6.2 220 20:37 17.06.2019
6213 Rain 14 1009 87 10000 6.2 220 20:19 17.06.2019
6214 Rain 15 1009 87 10000 6.2 220 19:43 17.06.2019
6215 Rain 14 1009 82 10000 7.7 220 19:24 17.06.2019
6216 Rain 14 1009 76 10000 7.7 220 18:58 17.06.2019
6217 Rain 15 1009 76 10000 5.7 230 18:38 17.06.2019
6218 Rain 15 1009 76 10000 5.7 230 18:18 17.06.2019
6219 Rain 15 1008 82 9000 10.3 210 17:47 17.06.2019
6220 Rain 15 1008 82 9000 10.3 210 17:28 17.06.2019
6221 Rain 16 1008 82 10000 8.2 210 16:49 17.06.2019
6222 Rain 16 1008 77 7000 9.3 210 16:31 17.06.2019
6223 Rain 16 1008 77 10000 8.7 200 15:58 17.06.2019
6224 Rain 16 1008 72 10000 9.8 210 15:39 17.06.2019
6225 Rain 16 1008 63 10000 10.3 210 15:19 17.06.2019
6226 Rain 16 1008 63 10000 10.3 210 14:53 17.06.2019
6227 Clouds 16 1008 63 10000 9.8 200 14:34 17.06.2019
6228 Clouds 16 1008 63 10000 9.8 210 13:57 17.06.2019
6229 Rain 16 1008 72 10000 9.3 210 13:39 17.06.2019
6230 Rain 16 1008 71 10000 8.7 220 13:20 17.06.2019
6231 Clouds 15 1008 76 10000 7.7 230 12:33 17.06.2019
6232 -273 0 0 0 0 0 11:58 17.06.2019
6233 Clouds 14 1008 76 10000 7.7 210 11:39 17.06.2019
6234 Clouds 14 1008 82 10000 8.7 200 11:18 17.06.2019
6235 Clouds 14 1008 82 10000 8.2 210 10:46 17.06.2019
6236 Clouds 14 1008 82 10000 8.2 210 10:28 17.06.2019
6237 Clouds 13 1008 82 10000 7.7 210 09:55 17.06.2019
6238 Clouds 13 1008 87 10000 7.2 210 09:31 17.06.2019
6239 Clouds 12 1007 87 10000 6.2 210 08:44 17.06.2019
6240 Clouds 12 1007 87 10000 6.2 210 08:24 17.06.2019
6241 Rain 12 1007 87 10000 7.2 210 07:51 17.06.2019
6242 Clouds 11 1007 87 10000 6.2 220 07:32 17.06.2019
6243 Clouds 11 1007 87 10000 6.2 210 06:48 17.06.2019
6244 Clouds 11 1006 87 10000 6.2 210 05:55 17.06.2019
6245 Clouds 11 1006 87 10000 6.2 210 04:59 17.06.2019
6246 Clouds 12 1006 87 10000 7.7 200 03:52 17.06.2019
6247 Clouds 12 1006 93 10000 7.2 210 03:25 17.06.2019
6248 Rain 12 1005 100 5000 6.7 210 02:42 17.06.2019
6249 Rain 12 1005 93 4900 4.1 120 02:19 17.06.2019
6250 Rain 12 1005 93 10000 3.6 0 01:35 17.06.2019
6251 Rain 12 1006 87 7000 2.1 130 00:47 17.06.2019
6252 Rain 12 1006 87 7000 2.1 130 00:26 17.06.2019
6253 Rain 12 1006 76 10000 2.6 110 23:58 16.06.2019
6254 Rain 12 1007 76 10000 2.6 130 23:37 16.06.2019
6255 Rain 13 1007 76 10000 2.6 130 23:19 16.06.2019
6256 Clouds 13 1007 71 10000 3.6 150 22:43 16.06.2019
6257 Rain 13 1007 67 10000 5.7 170 22:19 16.06.2019
6258 Rain 13 1007 67 10000 5.7 170 21:56 16.06.2019
6259 Rain 14 1008 67 10000 5.1 170 21:38 16.06.2019
6260 Rain 14 1008 67 10000 5.1 170 21:19 16.06.2019
6261 Rain 14 1008 62 10000 5.7 160 20:38 16.06.2019
6262 Clouds 15 1008 62 10000 6.2 170 20:19 16.06.2019
6263 Clouds 15 1008 62 10000 6.2 170 19:55 16.06.2019
6264 Clouds 14 1008 58 10000 5.1 180 19:37 16.06.2019
6265 Clouds 14 1008 58 10000 5.1 180 19:37 16.06.2019
6266 Clouds 15 1008 58 10000 5.7 210 19:19 16.06.2019
6267 Clouds 15 1008 58 10000 5.7 210 19:19 16.06.2019
6268 Clouds 15 1008 55 10000 6.2 200 18:41 16.06.2019
6269 Clouds 15 1009 55 10000 6.2 210 18:21 16.06.2019
6270 Clouds 16 1009 62 10000 5.1 200 17:49 16.06.2019
6271 Clouds 15 1009 62 10000 5.1 200 17:24 16.06.2019
6272 Rain 16 1009 59 10000 5.1 200 16:58 16.06.2019
6273 Rain 15 1009 59 10000 5.7 200 16:39 16.06.2019
6274 Rain 15 1009 62 10000 4.6 220 16:21 16.06.2019
6275 Rain 15 1009 62 10000 5.7 220 15:45 16.06.2019
6276 Rain 14 1009 62 10000 5.7 220 15:26 16.06.2019
6277 Clouds 15 1009 62 10000 6.2 230 14:56 16.06.2019
6278 Rain 14 1009 67 10000 5.7 210 14:36 16.06.2019
6279 Rain 14 1009 62 10000 7.2 210 14:18 16.06.2019
6280 Rain 14 1009 58 10000 6.7 210 13:44 16.06.2019
6281 Rain 15 1009 58 10000 6.7 210 13:24 16.06.2019
6282 Rain 15 1009 71 10000 4.6 200 12:43 16.06.2019
6283 Rain 14 1009 67 10000 5.7 210 12:21 16.06.2019
6284 Rain 14 1009 67 10000 5.7 210 11:54 16.06.2019
6285 Rain 14 1009 71 10000 4.1 210 11:36 16.06.2019
6286 Rain 14 1009 76 10000 4.6 200 11:18 16.06.2019
6287 Rain 13 1009 76 10000 4.6 190 10:43 16.06.2019
6288 Rain 13 1009 76 10000 4.6 190 10:19 16.06.2019
6289 Rain 12 1009 81 10000 4.1 180 09:42 16.06.2019
6290 Rain 12 1009 81 10000 4.1 180 09:42 16.06.2019
6291 Clouds 12 1009 81 10000 4.1 180 09:23 16.06.2019
6292 Clouds 11 1009 87 10000 0.5 0 08:46 16.06.2019
6293 Clouds 11 1008 93 10000 0.5 350 08:20 16.06.2019
6294 Clouds 10 1008 93 10000 0.5 0 07:45 16.06.2019
6295 Clouds 10 1008 93 10000 0.5 0 07:27 16.06.2019
6296 Clouds 10 1008 93 10000 1 10 06:52 16.06.2019
6297 Clouds 9 1008 87 10000 2.1 50 05:55 16.06.2019
6298 Clouds 9 1008 87 10000 1 0 05:20 16.06.2019
6299 Clouds 9 1008 81 10000 0.5 0 04:21 16.06.2019
6300 Clouds 10 1009 76 10000 2.6 170 03:38 16.06.2019
6301 Clouds 10 1009 76 10000 2.6 160 03:18 16.06.2019
6302 Clouds 10 1009 81 10000 1.5 210 01:48 16.06.2019
6303 Clouds 10 1009 81 10000 1.5 210 01:28 16.06.2019
6304 Clouds 11 1009 87 10000 1.5 0 00:43 16.06.2019
6305 Clouds 11 1009 87 10000 1.5 0 00:23 16.06.2019
6306 Clouds 12 1008 81 10000 3.1 190 23:55 15.06.2019
6307 Rain 12 1008 87 10000 3.1 210 23:37 15.06.2019
6308 Rain 13 1008 81 7000 4.1 210 23:18 15.06.2019
6309 Clouds 13 1008 71 10000 6.2 180 22:43 15.06.2019
6310 Clouds 14 1008 71 10000 6.2 180 22:24 15.06.2019
6311 Rain 14 1008 71 10000 6.7 170 21:43 15.06.2019
6312 Clouds 15 1008 71 10000 7.2 170 21:20 15.06.2019
6313 Clouds 15 1008 67 10000 6.2 170 20:45 15.06.2019
6314 Clouds 15 1008 67 10000 6.2 170 20:22 15.06.2019
6315 Clouds 15 1007 62 10000 7.2 170 19:47 15.06.2019
6316 Clouds 16 1007 62 10000 7.2 170 19:25 15.06.2019
6317 Rain 16 1007 55 10000 6.7 160 18:42 15.06.2019
6318 Clouds 17 1007 52 10000 6.7 150 18:23 15.06.2019
6319 Clouds 17 1007 48 10000 8.2 160 17:44 15.06.2019
6320 Clouds 17 1007 48 10000 8.2 160 17:26 15.06.2019
6321 Rain 18 1007 63 10000 5.7 120 16:49 15.06.2019
6322 Rain 18 1007 63 10000 5.7 120 16:49 15.06.2019
6323 Rain 17 1007 77 10000 5.7 150 16:21 15.06.2019
6324 Clouds 16 1007 77 10000 6.2 160 15:45 15.06.2019
6325 Clouds 16 1007 77 10000 6.2 160 15:24 15.06.2019
6326 Rain 16 1007 72 10000 0.5 0 14:56 15.06.2019
6327 Rain 16 1007 77 10000 2.1 170 14:37 15.06.2019
6328 Rain 16 1007 72 10000 2.6 90 14:18 15.06.2019
6329 Clouds 16 1007 67 10000 2.1 100 13:42 15.06.2019
6330 Clouds 16 1007 67 10000 2.1 100 13:20 15.06.2019
6331 Rain 16 1007 76 10000 4.1 80 12:53 15.06.2019
6332 Rain 15 1007 76 10000 4.1 80 12:27 15.06.2019
6333 Rain 15 1007 76 10000 4.1 80 12:27 15.06.2019
6334 Rain 14 1008 87 10000 3.1 80 11:54 15.06.2019
6335 Clouds 14 1008 93 10000 3.1 80 11:35 15.06.2019
6336 Rain 13 1008 93 10000 3.1 60 10:55 15.06.2019
6337 Rain 13 1008 93 9000 3.1 60 10:37 15.06.2019
6338 Rain 13 1008 93 9000 3.1 70 10:19 15.06.2019
6339 Rain 12 1008 93 10000 3.1 60 09:43 15.06.2019
6340 Rain 12 1008 93 10000 3.1 60 09:23 15.06.2019
6341 Rain 12 1008 93 10000 3.1 60 08:50 15.06.2019
6342 Clouds 12 1008 93 10000 3.1 60 08:31 15.06.2019
6343 Rain 11 1007 93 10000 2.6 70 07:49 15.06.2019
6344 Rain 11 1007 93 10000 3.6 60 07:22 15.06.2019
6345 Rain 11 1007 87 10000 3.1 70 06:39 15.06.2019
6346 Rain 11 1007 87 10000 3.1 70 06:39 15.06.2019
6347 Rain 11 1007 87 10000 3.6 80 05:56 15.06.2019
6348 Rain 11 1007 81 10000 4.1 90 05:23 15.06.2019
6349 Rain 11 1007 71 10000 4.6 110 04:37 15.06.2019
6350 Clouds 11 1007 71 10000 5.1 90 03:39 15.06.2019
6351 Clouds 11 1008 76 10000 4.1 110 02:49 15.06.2019
6352 Clouds 11 1008 76 10000 4.1 110 02:20 15.06.2019
6353 Rain 11 1008 76 10000 3.6 110 01:40 15.06.2019
6354 Rain 11 1008 76 10000 4.1 120 00:47 15.06.2019
6355 Rain 11 1008 76 10000 4.1 120 00:28 15.06.2019
6356 Rain 12 1007 71 10000 4.1 120 23:53 14.06.2019
6357 Rain 12 1007 66 10000 4.6 140 23:25 14.06.2019
6358 Rain 12 1007 62 10000 4.6 160 22:43 14.06.2019
6359 Rain 12 1007 62 10000 4.6 160 22:23 14.06.2019
6360 Rain 12 1007 62 10000 4.6 160 22:23 14.06.2019
6361 Clouds 13 1007 66 10000 4.1 160 22:23 14.06.2019
6362 Clouds 13 1007 66 10000 4.1 160 21:57 14.06.2019
6363 Clouds 13 1007 62 10000 5.1 170 21:38 14.06.2019
6364 Clouds 14 1007 62 10000 5.1 170 21:20 14.06.2019
6365 Rain 14 1006 66 10000 4.6 220 20:41 14.06.2019
6366 Clouds 14 1006 58 10000 4.1 210 20:18 14.06.2019
6367 Clouds 15 1006 58 10000 5.1 210 19:43 14.06.2019
6368 Clouds 15 1006 58 10000 5.1 210 19:23 14.06.2019
6369 Clouds 15 1006 54 10000 5.7 230 18:56 14.06.2019
6370 Clouds 15 1005 54 10000 6.2 200 18:37 14.06.2019
6371 Rain 15 1005 55 10000 7.2 210 18:19 14.06.2019
6372 Rain 15 1005 51 10000 7.2 220 17:46 14.06.2019
6373 Rain 15 1005 51 10000 7.2 220 17:24 14.06.2019
6374 Rain 16 1005 48 10000 6.2 220 16:54 14.06.2019
6375 Clouds 15 1005 51 10000 8.2 200 16:29 14.06.2019
6376 Rain 15 1005 51 10000 6.7 200 15:59 14.06.2019
6377 Rain 15 1005 54 10000 6.7 220 15:39 14.06.2019
6378 Clouds 14 1005 47 10000 6.7 220 15:20 14.06.2019
6379 Clouds 14 1005 47 10000 6.7 220 15:20 14.06.2019
6380 Clouds 14 1005 47 10000 6.7 220 15:20 14.06.2019
6381 Clouds 14 1005 47 10000 6.7 220 15:20 14.06.2019
6382 Clouds 14 1005 50 10000 6.7 210 14:50 14.06.2019
6383 Clouds 14 1005 50 10000 6.7 210 14:31 14.06.2019
6384 Rain 14 1004 62 10000 4.6 210 13:49 14.06.2019
6385 Rain 13 1004 62 10000 4.6 210 13:30 14.06.2019
6386 Clouds 13 1004 58 10000 6.7 200 13:00 14.06.2019
6387 Clouds 13 1004 62 10000 5.7 190 12:40 14.06.2019
6388 Rain 12 1004 62 10000 6.2 200 12:21 14.06.2019
6389 Clouds 12 1004 62 10000 3.6 180 11:43 14.06.2019
6390 Clouds 12 1004 62 10000 3.6 180 11:23 14.06.2019
6391 Clouds 12 1003 76 10000 5.7 200 10:50 14.06.2019
6392 Clouds 11 1003 76 10000 5.7 200 10:22 14.06.2019
6393 Rain 11 1003 81 10000 5.1 190 09:56 14.06.2019
6394 Clouds 10 1003 87 10000 3.6 170 09:34 14.06.2019
6395 Rain 9 1003 87 10000 5.1 170 08:56 14.06.2019
6396 Rain 9 1003 87 10000 5.1 170 08:38 14.06.2019
6397 Rain 9 1002 87 10000 4.6 170 08:18 14.06.2019
6398 Rain 8 1002 87 10000 4.6 160 07:43 14.06.2019
6399 Rain 8 1002 87 10000 3.1 180 07:19 14.06.2019
6400 Clouds 7 1002 87 10000 2.6 230 06:27 14.06.2019
6401 Clouds 8 1002 87 10000 1.5 0 05:49 14.06.2019
6402 Rain 7 1002 87 10000 2.1 200 04:55 14.06.2019
6403 Rain 8 1002 87 10000 1.5 240 04:31 14.06.2019
6404 Rain 9 1002 93 10000 1.5 150 03:41 14.06.2019
6405 Rain 9 1002 93 10000 1.5 150 03:23 14.06.2019
6406 Rain 9 1002 81 10000 2.6 180 02:41 14.06.2019
6407 Rain 9 1002 87 10000 2.1 170 01:53 14.06.2019
6408 Rain 10 1002 87 10000 3.6 170 00:41 14.06.2019
6409 Rain 10 1002 81 10000 3.1 170 00:22 14.06.2019
6410 Clouds 10 1002 71 10000 4.6 180 23:51 13.06.2019
6411 Clouds 10 1002 71 10000 4.6 180 23:26 13.06.2019
6412 -273 0 0 0 0 0 22:57 13.06.2019
6413 Clouds 11 1002 71 10000 4.1 200 22:37 13.06.2019
6414 Clouds 11 1002 76 10000 4.6 200 22:18 13.06.2019
6415 Clouds 11 1002 71 10000 4.6 210 21:38 13.06.2019
6416 Clouds 11 1002 71 10000 4.1 210 21:19 13.06.2019
6417 Rain 11 1002 71 10000 4.6 220 20:45 13.06.2019
6418 Clouds 11 1002 76 10000 4.6 220 20:20 13.06.2019
6419 Clouds 11 1002 76 10000 4.6 220 19:55 13.06.2019
6420 Rain 11 1002 76 10000 5.1 220 19:36 13.06.2019
6421 Clouds 12 1002 66 10000 6.2 220 19:18 13.06.2019
6422 Rain 12 1002 66 10000 5.7 230 18:42 13.06.2019
6423 Rain 12 1002 66 10000 5.7 230 18:23 13.06.2019
6424 Clouds 12 1002 66 10000 5.1 210 17:56 13.06.2019
6425 Rain 12 1002 62 10000 3.6 220 17:36 13.06.2019
6426 Rain 12 1003 58 10000 2.1 160 17:18 13.06.2019
6427 Rain 12 1003 58 10000 1 0 16:41 13.06.2019
6428 Rain 12 1003 58 10000 2.1 180 16:20 13.06.2019
6429 Rain 12 1003 58 10000 3.6 130 15:43 13.06.2019
6430 Rain 11 1003 58 10000 3.6 130 15:24 13.06.2019
6431 Rain 11 1004 62 10000 1 0 14:54 13.06.2019
6432 Rain 10 1004 58 10000 1.5 0 14:31 13.06.2019
6433 Rain 10 1005 58 10000 1 0 13:59 13.06.2019
6434 Rain 10 1005 62 10000 1 0 13:39 13.06.2019
6435 Rain 10 1005 62 10000 1 0 13:21 13.06.2019
6436 Rain 10 1005 58 10000 2.6 60 12:41 13.06.2019
6437 Rain 10 1005 58 10000 2.6 60 12:22 13.06.2019
6438 Rain 10 1006 58 10000 2.6 20 11:46 13.06.2019
6439 Rain 9 1006 58 10000 2.6 20 11:28 13.06.2019
6440 Rain 9 1006 66 10000 2.1 360 10:51 13.06.2019
6441 Rain 9 1007 66 10000 2.6 360 10:32 13.06.2019
6442 -273 0 0 0 0 0 09:58 13.06.2019
6443 -273 0 0 0 0 0 09:58 13.06.2019
6444 Rain 9 1008 71 10000 2.6 360 09:40 13.06.2019
6445 Rain 9 1008 71 10000 2.6 360 09:22 13.06.2019
6446 Rain 9 1008 71 10000 2.6 10 08:43 13.06.2019
6447 Rain 9 1008 71 10000 2.6 10 08:23 13.06.2019
6448 Rain 9 1009 71 10000 3.6 10 07:42 13.06.2019
6449 Rain 9 1009 71 10000 3.6 10 07:24 13.06.2019
6450 Clouds 9 1009 71 10000 1.5 350 06:45 13.06.2019
6451 Clouds 9 1009 71 10000 1.5 350 06:22 13.06.2019
6452 Clouds 9 1009 76 10000 3.1 340 05:53 13.06.2019
6453 Clouds 9 1009 71 10000 3.1 360 05:35 13.06.2019
6454 Clouds 10 1010 76 10000 2.1 270 03:57 13.06.2019
6455 Clouds 10 1011 76 10000 3.6 30 02:23 13.06.2019
6456 Rain 10 1013 71 10000 6.7 40 00:46 13.06.2019
6457 Rain 11 1014 76 10000 7.2 40 23:47 12.06.2019
6458 Rain 11 1014 76 10000 7.2 40 23:21 12.06.2019
6459 Rain 11 1014 81 10000 2.1 30 22:42 12.06.2019
6460 Rain 11 1014 81 10000 2.1 30 22:24 12.06.2019
6461 Rain 11 1014 81 10000 1.5 0 21:48 12.06.2019
6462 Rain 11 1014 81 10000 1.5 0 21:29 12.06.2019
6463 Rain 11 1014 81 10000 2.1 10 20:57 12.06.2019
6464 Rain 12 1014 76 10000 4.1 10 20:37 12.06.2019
6465 Rain 12 1014 71 10000 4.6 10 20:19 12.06.2019
6466 Rain 12 1014 71 10000 4.6 10 19:42 12.06.2019
6467 Rain 12 1014 71 10000 4.6 10 19:22 12.06.2019
6468 Drizzle 12 1015 76 10000 3.6 340 18:51 12.06.2019
6469 Rain 12 1015 71 10000 3.1 340 18:29 12.06.2019
6470 Drizzle 12 1015 71 10000 4.1 360 17:58 12.06.2019
6471 Drizzle 12 1016 66 10000 3.6 10 17:40 12.06.2019
6472 Rain 12 1016 66 10000 4.6 20 17:19 12.06.2019
6473 Rain 12 1016 62 10000 6.2 20 16:42 12.06.2019
6474 Rain 12 1016 62 10000 6.2 20 16:23 12.06.2019
6475 Rain 12 1016 58 10000 7.2 10 15:48 12.06.2019
6476 Rain 13 1016 58 10000 7.2 10 15:29 12.06.2019
6477 Rain 13 1017 58 10000 6.7 40 14:45 12.06.2019
6478 Rain 13 1017 58 10000 6.7 40 14:45 12.06.2019
6479 Rain 13 1017 58 10000 6.7 40 14:26 12.06.2019
6480 Clouds 13 1017 58 10000 6.7 20 13:43 12.06.2019
6481 -273 0 0 0 0 0 13:42 12.06.2019
6482 Clouds 13 1017 54 10000 6.2 20 13:20 12.06.2019
6483 Clouds 13 1017 54 10000 6.2 20 12:56 12.06.2019
6484 Clouds 13 1017 51 10000 6.2 30 12:38 12.06.2019
6485 Clouds 13 1017 54 10000 5.7 20 12:19 12.06.2019
6486 Clouds 13 1017 54 10000 5.7 20 12:19 12.06.2019
6487 Clouds 13 1017 58 10000 6.7 30 11:45 12.06.2019
6488 Clouds 13 1017 58 10000 6.7 30 11:27 12.06.2019
6489 Clouds 13 1018 58 10000 5.1 20 10:50 12.06.2019
6490 Clouds 12 1018 62 10000 3.1 20 10:26 12.06.2019
6491 Clouds 11 1018 71 10000 3.6 30 09:45 12.06.2019
6492 Clouds 11 1018 71 10000 3.6 30 09:23 12.06.2019
6493 Rain 10 1018 81 10000 2.6 20 08:55 12.06.2019
6494 Clouds 10 1019 81 10000 0.5 0 08:21 12.06.2019
6495 Clouds 9 1019 93 10000 1 0 07:45 12.06.2019
6496 Clouds 9 1019 87 10000 1.5 0 06:54 12.06.2019
6497 Clouds 8 1019 87 10000 1.5 330 05:27 12.06.2019
6498 Clouds 8 1020 81 10000 1.5 360 04:54 12.06.2019
6499 Clouds 11 1021 66 10000 5.1 40 01:44 12.06.2019
6500 Clouds 11 1021 62 10000 5.7 30 00:40 12.06.2019
6501 Rain 11 1021 66 10000 4.6 10 23:48 11.06.2019
6502 Rain 12 1021 66 10000 4.6 10 23:30 11.06.2019
6503 Rain 12 1021 62 10000 5.1 10 22:44 11.06.2019
6504 Rain 12 1021 62 10000 5.1 10 22:21 11.06.2019
6505 Rain 12 1021 62 10000 3.6 10 21:57 11.06.2019
6506 Clouds 12 1021 67 10000 3.1 10 21:38 11.06.2019
6507 Rain 13 1021 67 10000 3.1 10 21:20 11.06.2019
6508 Rain 13 1021 62 10000 5.1 20 20:48 11.06.2019
6509 Rain 13 1021 62 10000 5.1 20 20:26 11.06.2019
6510 Rain 13 1022 67 10000 3.6 40 19:56 11.06.2019
6511 -273 0 0 0 0 0 19:37 11.06.2019
6512 Rain 13 1022 67 10000 3.6 40 19:37 11.06.2019
6513 Rain 13 1022 67 10000 3.6 40 19:36 11.06.2019
6514 -273 0 0 0 0 0 19:36 11.06.2019
6515 Rain 14 1022 71 10000 4.6 40 18:58 11.06.2019
6516 Rain 14 1022 71 10000 4.6 40 18:56 11.06.2019
6517 Rain 14 1022 71 10000 4.6 40 18:56 11.06.2019
6518 Rain 14 1022 58 10000 5.7 60 18:22 11.06.2019
6519 Rain 14 1022 54 10000 2.6 30 17:42 11.06.2019
6520 Rain 14 1022 54 10000 3.6 60 17:22 11.06.2019
6521 Rain 14 1022 54 10000 3.6 60 16:57 11.06.2019
6522 Clouds 15 1022 54 10000 4.1 60 16:39 11.06.2019
6523 Rain 15 1022 51 10000 3.1 90 16:21 11.06.2019
6524 Clouds 15 1022 54 10000 3.1 60 15:42 11.06.2019
6525 Clouds 14 1023 58 10000 5.1 30 15:22 11.06.2019
6526 Clouds 14 1023 62 10000 5.1 20 14:47 11.06.2019
6527 Clouds 14 1023 62 10000 4.6 10 14:21 11.06.2019
6528 Clouds 13 1023 62 10000 4.6 10 13:50 11.06.2019
6529 Clouds 13 1023 62 10000 6.2 30 13:24 11.06.2019
6530 Rain 12 1023 62 10000 6.2 10 12:44 11.06.2019
6531 Rain 12 1023 62 10000 6.2 10 12:23 11.06.2019
6532 Rain 12 1023 62 10000 5.7 40 11:58 11.06.2019
6533 Rain 12 1023 62 10000 4.6 20 11:38 11.06.2019
6534 Rain 12 1023 62 10000 4.1 20 11:19 11.06.2019
6535 Rain 12 1023 67 10000 2.6 70 10:43 11.06.2019
6536 Rain 12 1023 67 10000 2.6 70 10:25 11.06.2019
6537 Rain 12 1023 71 10000 4.1 70 09:46 11.06.2019
6538 Clouds 11 1023 71 10000 4.1 70 09:23 11.06.2019
6539 Clouds 11 1023 71 10000 2.1 90 08:44 11.06.2019
6540 Clouds 10 1023 87 10000 1 60 08:24 11.06.2019
6541 Clouds 9 1023 93 10000 0.5 0 07:37 11.06.2019
6542 Clouds 8 1023 87 10000 0.5 270 06:55 11.06.2019
6543 Clouds 9 1023 87 10000 2.1 80 06:25 11.06.2019
6544 Clouds 9 1023 87 10000 2.1 40 04:52 11.06.2019
6545 Clouds 9 1023 81 10000 2.6 40 02:49 11.06.2019
6546 Clouds 10 1023 76 10000 4.1 60 01:23 11.06.2019
6547 Clouds 10 1023 71 10000 4.1 50 00:45 11.06.2019
6548 Rain 11 1023 71 10000 4.6 60 23:47 10.06.2019
6549 Rain 11 1022 62 10000 6.2 60 23:21 10.06.2019
6550 Rain 11 1022 62 10000 4.6 80 22:49 10.06.2019
6551 Rain 12 1022 62 10000 4.6 80 22:31 10.06.2019
6552 Clouds 12 1022 71 10000 4.1 60 21:59 10.06.2019
6553 Rain 13 1021 71 10000 4.6 60 21:39 10.06.2019
6554 Rain 13 1021 62 10000 4.6 50 21:21 10.06.2019
6555 Rain 14 1021 58 10000 5.1 60 20:44 10.06.2019
6556 Rain 14 1021 58 10000 5.1 60 20:44 10.06.2019
6557 Rain 14 1021 58 10000 5.1 60 20:23 10.06.2019
6558 Rain 14 1021 58 10000 6.7 60 19:51 10.06.2019
6559 Rain 15 1020 55 10000 6.7 70 19:27 10.06.2019
6560 Clouds 15 1020 59 10000 2.1 20 18:59 10.06.2019
6561 Rain 15 1020 51 10000 5.1 80 18:40 10.06.2019
6562 Rain 15 1019 59 10000 4.6 60 18:20 10.06.2019
6563 Clouds 14 1019 51 10000 6.7 270 17:44 10.06.2019
6564 Rain 15 1019 45 10000 2.6 340 17:25 10.06.2019
6565 Rain 16 1019 48 10000 3.1 340 16:56 10.06.2019
6566 Rain 17 1019 45 10000 4.1 350 16:38 10.06.2019
6567 Rain 17 1019 48 10000 4.6 330 16:18 10.06.2019
6568 Rain 17 1019 51 10000 3.6 330 15:41 10.06.2019
6569 Clear 16 1019 51 10000 3.6 330 15:23 10.06.2019
6570 Clear 17 1019 48 10000 1 0 14:49 10.06.2019
6571 Clouds 17 1019 48 10000 0.5 0 14:30 10.06.2019
6572 Clouds 17 1020 45 10000 1.5 0 13:56 10.06.2019
6573 Clear 17 1020 48 10000 1.5 0 13:38 10.06.2019
6574 Clear 17 1020 55 10000 1.5 0 13:19 10.06.2019
6575 Rain 16 1020 55 10000 1 0 12:40 10.06.2019
6576 Clear 15 1020 55 10000 1 0 12:22 10.06.2019
6577 Clear 14 1020 71 10000 1 0 11:43 10.06.2019
6578 Clear 14 1020 81 10000 1 0 11:19 10.06.2019
6579 Clear 14 1020 81 10000 1 0 11:19 10.06.2019
6580 Clouds 14 1020 71 10000 1.03 33.861 10:42 10.06.2019
6581 Clear 14 1020 87 10000 1 0 10:20 10.06.2019
6582 Clouds 13 1020 100 10000 1 0 09:55 10.06.2019
6583 Fog 12 1020 100 900 1.5 0 09:32 10.06.2019
6584 Fog 9 1019 100 550 1 0 08:50 10.06.2019
6585 Fog 9 1019 100 150 1 0 08:27 10.06.2019
6586 Mist 8 1019 93 2000 1 240 07:46 10.06.2019
6587 Clear 6 1019 100 10000 2.1 260 06:33 10.06.2019
6588 Clear 7 1018 93 10000 2.1 280 03:59 10.06.2019
6589 Clear 8 1019 93 10000 1 0 01:57 10.06.2019
6590 Clear 9 1019 93 10000 1 0 01:23 10.06.2019
6591 Clear 10 1018 93 10000 2.6 230 00:48 10.06.2019
6592 Clouds 10 1018 87 10000 2.1 240 23:58 09.06.2019
6593 Clouds 11 1018 87 10000 2.1 230 23:38 09.06.2019
6594 Clear 11 1018 76 10000 4.1 210 23:18 09.06.2019
6595 Clear 12 1017 76 10000 4.1 220 22:41 09.06.2019
6596 Clear 12 1017 76 10000 4.1 220 22:21 09.06.2019
6597 Clouds 13 1017 66 10000 5.1 220 21:40 09.06.2019
6598 Clouds 13 1017 66 10000 5.1 220 21:22 09.06.2019
6599 Rain 14 1017 62 10000 7.2 220 20:42 09.06.2019
6600 Rain 14 1017 62 10000 6.2 230 20:22 09.06.2019
6601 Clouds 14 1018 76 10000 5.1 240 19:46 09.06.2019
6602 Clear 14 1016 58 10000 5.1 240 19:19 09.06.2019
6603 Clear 14 1016 58 10000 5.1 240 18:56 09.06.2019
6604 Clear 15 1016 59 10000 5.7 230 18:36 09.06.2019
6605 Rain 15 1016 55 10000 6.7 240 18:18 09.06.2019
6606 Clouds 16 1016 59 10000 6.7 230 17:42 09.06.2019
6607 Clouds 16 1016 59 10000 6.7 230 17:23 09.06.2019
6608 Rain 16 1016 59 10000 6.2 240 16:41 09.06.2019
6609 Rain 16 1016 62 10000 6.2 230 16:21 09.06.2019
6610 Rain 15 1016 62 10000 7.7 220 15:51 09.06.2019
6611 Rain 16 1016 62 10000 7.7 220 15:29 09.06.2019
6612 Rain 15 1016 67 10000 6.7 230 14:58 09.06.2019
6613 Rain 15 1016 62 10000 6.2 220 14:39 09.06.2019
6614 Rain 15 1016 62 10000 6.2 220 14:19 09.06.2019
6615 Clouds 14 1016 62 10000 7.2 230 13:48 09.06.2019
6616 Rain 14 1016 58 10000 7.7 200 12:58 09.06.2019
6617 Clouds 14 1016 71 10000 7.2 220 12:38 09.06.2019
6618 Rain 14 1016 71 10000 6.7 220 12:19 09.06.2019
6619 Rain 13 1016 67 10000 7.2 210 11:38 09.06.2019
6620 Rain 13 1015 71 10000 6.7 210 11:19 09.06.2019
6621 Rain 12 1015 71 10000 6.7 210 10:43 09.06.2019
6622 Rain 12 1015 71 10000 6.7 210 10:22 09.06.2019
6623 Rain 12 1015 87 10000 5.1 230 09:40 09.06.2019
6624 Clouds 12 1015 81 10000 3.6 220 09:21 09.06.2019
6625 Clouds 11 1014 87 10000 3.6 210 08:45 09.06.2019
6626 Clouds 11 1014 87 10000 3.6 210 08:20 09.06.2019
6627 Clouds 10 1014 93 10000 3.1 240 06:48 09.06.2019
6628 Clouds 10 1014 93 10000 3.1 240 06:29 09.06.2019
6629 Rain 10 1013 93 10000 3.6 240 03:25 09.06.2019
6630 Rain 10 1013 93 10000 2.6 210 01:38 09.06.2019
6631 Rain 10 1013 87 10000 3.1 240 01:19 09.06.2019
6632 Clouds 11 1013 81 10000 2.6 250 00:43 09.06.2019
6633 Rain 11 1012 87 10000 4.1 230 23:42 08.06.2019
6634 Rain 11 1012 87 10000 4.1 230 23:23 08.06.2019
6635 Rain 11 1012 87 10000 3.6 240 22:56 08.06.2019
6636 Rain 11 1011 81 10000 4.6 230 22:38 08.06.2019
6637 Clouds 12 1012 93 10000 3.1 220 22:19 08.06.2019
6638 Rain 12 1011 67 10000 5.7 230 21:49 08.06.2019
6639 Rain 12 1011 67 10000 5.7 230 21:25 08.06.2019
6640 Rain 12 1010 71 10000 5.7 230 20:46 08.06.2019
6641 Rain 12 1010 71 10000 5.7 230 20:25 08.06.2019
6642 Rain 12 1010 66 10000 7.7 220 19:58 08.06.2019
6643 Rain 12 1010 62 10000 7.2 230 19:39 08.06.2019
6644 Rain 13 1010 58 10000 5.7 240 19:19 08.06.2019
6645 Rain 13 1010 62 10000 6.2 240 18:43 08.06.2019
6646 Rain 13 1010 62 10000 6.2 240 18:25 08.06.2019
6647 Rain 14 1009 59 10000 4.6 250 17:46 08.06.2019
6648 Rain 14 1009 59 10000 4.6 250 17:22 08.06.2019
6649 Rain 14 1009 59 10000 5.1 260 16:54 08.06.2019
6650 Rain 14 1009 59 10000 4.1 260 16:35 08.06.2019
6651 Rain 13 1008 48 10000 3.6 250 15:53 08.06.2019
6652 Rain 13 1008 48 10000 3.6 250 15:33 08.06.2019
6653 Rain 14 1008 58 10000 3.1 260 14:48 08.06.2019
6654 Rain 15 1008 58 10000 3.1 260 14:29 08.06.2019
6655 Rain 15 1007 54 10000 3.1 260 13:49 08.06.2019
6656 Rain 15 1007 54 10000 1.5 0 12:54 08.06.2019
6657 Rain 14 1007 58 10000 2.1 340 12:34 08.06.2019
6658 Clouds 13 1007 54 10000 1 0 11:51 08.06.2019
6659 Clouds 13 1007 62 10000 0.5 0 11:28 08.06.2019
6660 Rain 12 1007 66 10000 1.5 0 10:48 08.06.2019
6661 Rain 12 1007 66 10000 1.5 0 10:27 08.06.2019
6662 Rain 11 1007 71 10000 4.6 30 09:58 08.06.2019
6663 Rain 11 1007 81 10000 3.1 60 09:33 08.06.2019
6664 Rain 11 1006 87 10000 2.1 300 08:48 08.06.2019
6665 Rain 11 1006 87 10000 2.1 300 08:20 08.06.2019
6666 Clouds 10 1006 87 10000 2.6 10 07:26 08.06.2019
6667 Clouds 10 1006 87 10000 1.5 0 06:44 08.06.2019
6668 Rain 10 1006 93 10000 0.5 0 03:36 08.06.2019
6669 Rain 10 1007 93 10000 1.5 240 02:20 08.06.2019
6670 Rain 11 1007 87 10000 4.1 50 00:31 08.06.2019
6671 Rain 11 1007 81 10000 5.1 60 23:58 07.06.2019
6672 Rain 11 1007 87 10000 4.6 60 23:21 07.06.2019
6673 Rain 12 1007 76 10000 5.1 70 22:51 07.06.2019
6674 Rain 12 1007 76 10000 6.2 70 22:32 07.06.2019
6675 Drizzle 12 1007 76 10000 5.7 60 21:55 07.06.2019
6676 Rain 13 1007 62 10000 5.1 90 21:36 07.06.2019
6677 Rain 13 1007 58 10000 5.1 110 21:18 07.06.2019
6678 Rain 13 1007 58 10000 5.1 110 21:18 07.06.2019
6679 Rain 13 1007 59 10000 8.7 110 20:42 07.06.2019
6680 Drizzle 13 1006 63 10000 6.2 70 20:22 07.06.2019
6681 Rain 14 1006 63 10000 2.1 70 19:39 07.06.2019
6682 Rain 15 1006 59 10000 6.2 60 19:19 07.06.2019
6683 Rain 15 1006 59 10000 7.7 60 18:41 07.06.2019
6684 Rain 15 1006 59 10000 7.7 60 18:41 07.06.2019
6685 Rain 16 1006 59 10000 7.7 60 18:22 07.06.2019
6686 Rain 16 1006 63 10000 7.2 60 17:43 07.06.2019
6687 Rain 17 1007 63 10000 7.7 60 17:20 07.06.2019
6688 Rain 17 1007 67 10000 6.2 50 16:41 07.06.2019
6689 Clouds 17 1007 59 10000 3.1 300 16:18 07.06.2019
6690 Rain 16 1008 71 10000 5.7 50 15:40 07.06.2019
6691 Rain 16 1008 71 10000 5.7 50 15:19 07.06.2019
6692 Rain 15 1008 71 10000 3.6 40 14:39 07.06.2019
6693 Rain 15 1008 71 10000 3.6 40 14:39 07.06.2019
6694 Rain 15 1008 62 10000 3.6 60 14:20 07.06.2019
6695 Clouds 15 1008 62 10000 3.6 50 13:28 07.06.2019
6696 Rain 16 1008 62 10000 0.5 0 12:51 07.06.2019
6697 Clouds 15 1008 62 10000 0.5 0 12:29 07.06.2019
6698 Clouds 15 1009 67 10000 2.1 40 11:57 07.06.2019
6699 Clouds 15 1009 67 10000 2.6 30 11:34 07.06.2019
6700 Clouds 15 1009 67 10000 2.6 70 10:59 07.06.2019
6701 Clouds 14 1009 71 10000 3.1 40 10:41 07.06.2019
6702 Clouds 14 1009 76 10000 3.1 60 10:19 07.06.2019
6703 Clouds 12 1009 76 10000 3.1 50 09:46 07.06.2019
6704 Clouds 11 1009 76 10000 3.1 50 09:21 07.06.2019
6705 Clouds 10 1009 87 10000 3.1 80 08:45 07.06.2019
6706 Clouds 9 1009 87 10000 3.1 80 08:26 07.06.2019
6707 Clouds 7 1009 93 10000 1.5 100 07:48 07.06.2019
6708 Clouds 7 1009 93 10000 0.5 0 07:22 07.06.2019
6709 Clouds 6 1009 93 10000 2.6 60 06:48 07.06.2019
6710 Clear 6 1009 93 10000 2.6